<?xml version="1.0" encoding="UTF-8" standalone="no" ?>
<gpx xmlns="http://www.topografix.com/GPX/1/1" xmlns:xsi="http://www.w3.org/2001/XMLSchema-instance" xsi:schemaLocation="http://www.topografix.com/GPX/1/1 http://www.topografix.com/GPX/1/1/gpx.xsd" version="1.1" creator="VisuGPX - https://www.visugpx.com">
  <metadata>
    <name>Plouzané Bohars</name>
  </metadata>
  <trk>
    <name><![CDATA[Plouzané Cyclisme]]></name>
    <trkseg>
      <trkpt lat="48.35773" lon="-4.57818">
        <ele>66</ele>
        <time>2022-03-27T07:22:05.000Z</time>
      </trkpt>
      <trkpt lat="48.35774" lon="-4.57819">
        <ele>66.199996948242</ele>
        <time>2022-03-27T07:22:06.000Z</time>
      </trkpt>
      <trkpt lat="48.35776" lon="-4.5782">
        <ele>66.400001525879</ele>
        <time>2022-03-27T07:22:09.000Z</time>
      </trkpt>
      <trkpt lat="48.35772" lon="-4.57822">
        <ele>66</ele>
        <time>2022-03-27T07:22:12.000Z</time>
      </trkpt>
      <trkpt lat="48.35761" lon="-4.57834">
        <ele>65.400001525879</ele>
        <time>2022-03-27T07:22:17.000Z</time>
      </trkpt>
      <trkpt lat="48.35752" lon="-4.57844">
        <ele>64.800003051758</ele>
        <time>2022-03-27T07:22:22.000Z</time>
      </trkpt>
      <trkpt lat="48.35751" lon="-4.57845">
        <ele>64.800003051758</ele>
        <time>2022-03-27T07:22:23.000Z</time>
      </trkpt>
      <trkpt lat="48.35748" lon="-4.57851">
        <ele>64.599998474121</ele>
        <time>2022-03-27T07:22:56.000Z</time>
      </trkpt>
      <trkpt lat="48.35745" lon="-4.57849">
        <ele>64.599998474121</ele>
        <time>2022-03-27T07:22:57.000Z</time>
      </trkpt>
      <trkpt lat="48.35736" lon="-4.57833">
        <ele>64.400001525879</ele>
        <time>2022-03-27T07:23:01.000Z</time>
      </trkpt>
      <trkpt lat="48.35734" lon="-4.57822">
        <ele>64.400001525879</ele>
        <time>2022-03-27T07:23:03.000Z</time>
      </trkpt>
      <trkpt lat="48.35736" lon="-4.57817">
        <ele>64.599998474121</ele>
        <time>2022-03-27T07:23:04.000Z</time>
      </trkpt>
      <trkpt lat="48.3575" lon="-4.57785">
        <ele>65.199996948242</ele>
        <time>2022-03-27T07:23:10.000Z</time>
      </trkpt>
      <trkpt lat="48.35763" lon="-4.57746">
        <ele>66</ele>
        <time>2022-03-27T07:23:17.000Z</time>
      </trkpt>
      <trkpt lat="48.35772" lon="-4.57713">
        <ele>66.400001525879</ele>
        <time>2022-03-27T07:23:23.000Z</time>
      </trkpt>
      <trkpt lat="48.35782" lon="-4.57676">
        <ele>67.199996948242</ele>
        <time>2022-03-27T07:23:30.000Z</time>
      </trkpt>
      <trkpt lat="48.35794" lon="-4.57648">
        <ele>68.199996948242</ele>
        <time>2022-03-27T07:23:37.000Z</time>
      </trkpt>
      <trkpt lat="48.35807" lon="-4.57617">
        <ele>69</ele>
        <time>2022-03-27T07:23:44.000Z</time>
      </trkpt>
      <trkpt lat="48.35822" lon="-4.5759">
        <ele>69.800003051758</ele>
        <time>2022-03-27T07:23:50.000Z</time>
      </trkpt>
      <trkpt lat="48.35839" lon="-4.57568">
        <ele>70.800003051758</ele>
        <time>2022-03-27T07:23:55.000Z</time>
      </trkpt>
      <trkpt lat="48.35847" lon="-4.57572">
        <ele>71.400001525879</ele>
        <time>2022-03-27T07:23:57.000Z</time>
      </trkpt>
      <trkpt lat="48.35851" lon="-4.57575">
        <ele>71.400001525879</ele>
        <time>2022-03-27T07:23:58.000Z</time>
      </trkpt>
      <trkpt lat="48.35871" lon="-4.57599">
        <ele>71.599998474121</ele>
        <time>2022-03-27T07:24:04.000Z</time>
      </trkpt>
      <trkpt lat="48.35889" lon="-4.57622">
        <ele>72</ele>
        <time>2022-03-27T07:24:10.000Z</time>
      </trkpt>
      <trkpt lat="48.35911" lon="-4.57643">
        <ele>71.800003051758</ele>
        <time>2022-03-27T07:24:17.000Z</time>
      </trkpt>
      <trkpt lat="48.35936" lon="-4.57664">
        <ele>72.800003051758</ele>
        <time>2022-03-27T07:24:25.000Z</time>
      </trkpt>
      <trkpt lat="48.35953" lon="-4.57683">
        <ele>73.599998474121</ele>
        <time>2022-03-27T07:24:31.000Z</time>
      </trkpt>
      <trkpt lat="48.35971" lon="-4.57709">
        <ele>74.800003051758</ele>
        <time>2022-03-27T07:24:38.000Z</time>
      </trkpt>
      <trkpt lat="48.35987" lon="-4.57739">
        <ele>75.599998474121</ele>
        <time>2022-03-27T07:24:45.000Z</time>
      </trkpt>
      <trkpt lat="48.35996" lon="-4.57767">
        <ele>76.199996948242</ele>
        <time>2022-03-27T07:24:51.000Z</time>
      </trkpt>
      <trkpt lat="48.36006" lon="-4.57802">
        <ele>76.599998474121</ele>
        <time>2022-03-27T07:24:58.000Z</time>
      </trkpt>
      <trkpt lat="48.36013" lon="-4.5784">
        <ele>76.199996948242</ele>
        <time>2022-03-27T07:25:04.000Z</time>
      </trkpt>
      <trkpt lat="48.3602" lon="-4.57866">
        <ele>76.199996948242</ele>
        <time>2022-03-27T07:25:08.000Z</time>
      </trkpt>
      <trkpt lat="48.36019" lon="-4.57879">
        <ele>76.199996948242</ele>
        <time>2022-03-27T07:25:10.000Z</time>
      </trkpt>
      <trkpt lat="48.36016" lon="-4.57885">
        <ele>76</ele>
        <time>2022-03-27T07:25:11.000Z</time>
      </trkpt>
      <trkpt lat="48.36011" lon="-4.579">
        <ele>75.800003051758</ele>
        <time>2022-03-27T07:25:13.000Z</time>
      </trkpt>
      <trkpt lat="48.36009" lon="-4.57942">
        <ele>75.599998474121</ele>
        <time>2022-03-27T07:25:18.000Z</time>
      </trkpt>
      <trkpt lat="48.36006" lon="-4.58009">
        <ele>75.599998474121</ele>
        <time>2022-03-27T07:25:26.000Z</time>
      </trkpt>
      <trkpt lat="48.36002" lon="-4.58058">
        <ele>75.599998474121</ele>
        <time>2022-03-27T07:25:33.000Z</time>
      </trkpt>
      <trkpt lat="48.36001" lon="-4.58077">
        <ele>75.599998474121</ele>
        <time>2022-03-27T07:25:36.000Z</time>
      </trkpt>
      <trkpt lat="48.36004" lon="-4.58087">
        <ele>76</ele>
        <time>2022-03-27T07:25:38.000Z</time>
      </trkpt>
      <trkpt lat="48.36019" lon="-4.58101">
        <ele>77</ele>
        <time>2022-03-27T07:25:43.000Z</time>
      </trkpt>
      <trkpt lat="48.36034" lon="-4.58105">
        <ele>77.599998474121</ele>
        <time>2022-03-27T07:25:48.000Z</time>
      </trkpt>
      <trkpt lat="48.36043" lon="-4.58102">
        <ele>78</ele>
        <time>2022-03-27T07:25:52.000Z</time>
      </trkpt>
      <trkpt lat="48.36046" lon="-4.58091">
        <ele>77.800003051758</ele>
        <time>2022-03-27T07:25:55.000Z</time>
      </trkpt>
      <trkpt lat="48.36043" lon="-4.58082">
        <ele>77.599998474121</ele>
        <time>2022-03-27T07:25:59.000Z</time>
      </trkpt>
      <trkpt lat="48.3604" lon="-4.5808">
        <ele>77.400001525879</ele>
        <time>2022-03-27T07:26:03.000Z</time>
      </trkpt>
      <trkpt lat="48.36044" lon="-4.58082">
        <ele>77.599998474121</ele>
        <time>2022-03-27T07:28:21.000Z</time>
      </trkpt>
      <trkpt lat="48.36045" lon="-4.58084">
        <ele>77.599998474121</ele>
        <time>2022-03-27T07:28:22.000Z</time>
      </trkpt>
      <trkpt lat="48.36047" lon="-4.5809">
        <ele>77.800003051758</ele>
        <time>2022-03-27T07:28:24.000Z</time>
      </trkpt>
      <trkpt lat="48.36043" lon="-4.58101">
        <ele>78</ele>
        <time>2022-03-27T07:28:28.000Z</time>
      </trkpt>
      <trkpt lat="48.3604" lon="-4.58105">
        <ele>78</ele>
        <time>2022-03-27T07:28:30.000Z</time>
      </trkpt>
      <trkpt lat="48.36034" lon="-4.58107">
        <ele>77.599998474121</ele>
        <time>2022-03-27T07:28:32.000Z</time>
      </trkpt>
      <trkpt lat="48.36019" lon="-4.58104">
        <ele>77</ele>
        <time>2022-03-27T07:28:37.000Z</time>
      </trkpt>
      <trkpt lat="48.36016" lon="-4.581">
        <ele>76.800003051758</ele>
        <time>2022-03-27T07:28:38.000Z</time>
      </trkpt>
      <trkpt lat="48.36003" lon="-4.58087">
        <ele>76</ele>
        <time>2022-03-27T07:28:42.000Z</time>
      </trkpt>
      <trkpt lat="48.36" lon="-4.58087">
        <ele>75.800003051758</ele>
        <time>2022-03-27T07:28:43.000Z</time>
      </trkpt>
      <trkpt lat="48.35995" lon="-4.58096">
        <ele>75.599998474121</ele>
        <time>2022-03-27T07:28:45.000Z</time>
      </trkpt>
      <trkpt lat="48.35988" lon="-4.58121">
        <ele>75.400001525879</ele>
        <time>2022-03-27T07:28:50.000Z</time>
      </trkpt>
      <trkpt lat="48.35978" lon="-4.58147">
        <ele>75.400001525879</ele>
        <time>2022-03-27T07:28:55.000Z</time>
      </trkpt>
      <trkpt lat="48.35965" lon="-4.58179">
        <ele>75.599998474121</ele>
        <time>2022-03-27T07:29:01.000Z</time>
      </trkpt>
      <trkpt lat="48.35963" lon="-4.58185">
        <ele>75.599998474121</ele>
        <time>2022-03-27T07:29:02.000Z</time>
      </trkpt>
      <trkpt lat="48.35962" lon="-4.58191">
        <ele>75.599998474121</ele>
        <time>2022-03-27T07:29:03.000Z</time>
      </trkpt>
      <trkpt lat="48.35964" lon="-4.58202">
        <ele>76</ele>
        <time>2022-03-27T07:29:05.000Z</time>
      </trkpt>
      <trkpt lat="48.35977" lon="-4.58209">
        <ele>76.800003051758</ele>
        <time>2022-03-27T07:29:09.000Z</time>
      </trkpt>
      <trkpt lat="48.36006" lon="-4.58226">
        <ele>79</ele>
        <time>2022-03-27T07:29:17.000Z</time>
      </trkpt>
      <trkpt lat="48.36036" lon="-4.58246">
        <ele>80.800003051758</ele>
        <time>2022-03-27T07:29:26.000Z</time>
      </trkpt>
      <trkpt lat="48.36064" lon="-4.5827">
        <ele>82</ele>
        <time>2022-03-27T07:29:35.000Z</time>
      </trkpt>
      <trkpt lat="48.36097" lon="-4.58296">
        <ele>83.599998474121</ele>
        <time>2022-03-27T07:29:45.000Z</time>
      </trkpt>
      <trkpt lat="48.36121" lon="-4.58318">
        <ele>85.400001525879</ele>
        <time>2022-03-27T07:29:53.000Z</time>
      </trkpt>
      <trkpt lat="48.36152" lon="-4.58343">
        <ele>86.599998474121</ele>
        <time>2022-03-27T07:30:02.000Z</time>
      </trkpt>
      <trkpt lat="48.36175" lon="-4.58369">
        <ele>87</ele>
        <time>2022-03-27T07:30:10.000Z</time>
      </trkpt>
      <trkpt lat="48.36192" lon="-4.58388">
        <ele>87</ele>
        <time>2022-03-27T07:30:16.000Z</time>
      </trkpt>
      <trkpt lat="48.36194" lon="-4.58393">
        <ele>87</ele>
        <time>2022-03-27T07:30:17.000Z</time>
      </trkpt>
      <trkpt lat="48.36195" lon="-4.584">
        <ele>87</ele>
        <time>2022-03-27T07:30:18.000Z</time>
      </trkpt>
      <trkpt lat="48.36194" lon="-4.58412">
        <ele>87</ele>
        <time>2022-03-27T07:30:20.000Z</time>
      </trkpt>
      <trkpt lat="48.36193" lon="-4.58418">
        <ele>87</ele>
        <time>2022-03-27T07:30:21.000Z</time>
      </trkpt>
      <trkpt lat="48.36181" lon="-4.58466">
        <ele>87.199996948242</ele>
        <time>2022-03-27T07:30:29.000Z</time>
      </trkpt>
      <trkpt lat="48.3618" lon="-4.58472">
        <ele>87.199996948242</ele>
        <time>2022-03-27T07:30:30.000Z</time>
      </trkpt>
      <trkpt lat="48.3618" lon="-4.58485">
        <ele>87.400001525879</ele>
        <time>2022-03-27T07:30:32.000Z</time>
      </trkpt>
      <trkpt lat="48.36181" lon="-4.58497">
        <ele>87.599998474121</ele>
        <time>2022-03-27T07:30:34.000Z</time>
      </trkpt>
      <trkpt lat="48.36189" lon="-4.58539">
        <ele>88.199996948242</ele>
        <time>2022-03-27T07:30:41.000Z</time>
      </trkpt>
      <trkpt lat="48.36194" lon="-4.58556">
        <ele>88.599998474121</ele>
        <time>2022-03-27T07:30:45.000Z</time>
      </trkpt>
      <trkpt lat="48.36194" lon="-4.5856">
        <ele>88.599998474121</ele>
        <time>2022-03-27T07:30:46.000Z</time>
      </trkpt>
      <trkpt lat="48.36194" lon="-4.58578">
        <ele>88.800003051758</ele>
        <time>2022-03-27T07:30:50.000Z</time>
      </trkpt>
      <trkpt lat="48.36196" lon="-4.58581">
        <ele>89</ele>
        <time>2022-03-27T07:30:51.000Z</time>
      </trkpt>
      <trkpt lat="48.3621" lon="-4.58601">
        <ele>89.400001525879</ele>
        <time>2022-03-27T07:30:57.000Z</time>
      </trkpt>
      <trkpt lat="48.36226" lon="-4.58616">
        <ele>90</ele>
        <time>2022-03-27T07:31:02.000Z</time>
      </trkpt>
      <trkpt lat="48.36237" lon="-4.58618">
        <ele>90.400001525879</ele>
        <time>2022-03-27T07:31:05.000Z</time>
      </trkpt>
      <trkpt lat="48.36241" lon="-4.58615">
        <ele>90.400001525879</ele>
        <time>2022-03-27T07:31:06.000Z</time>
      </trkpt>
      <trkpt lat="48.36257" lon="-4.58593">
        <ele>90.599998474121</ele>
        <time>2022-03-27T07:31:11.000Z</time>
      </trkpt>
      <trkpt lat="48.36286" lon="-4.58554">
        <ele>90.199996948242</ele>
        <time>2022-03-27T07:31:20.000Z</time>
      </trkpt>
      <trkpt lat="48.36302" lon="-4.58534">
        <ele>90</ele>
        <time>2022-03-27T07:31:25.000Z</time>
      </trkpt>
      <trkpt lat="48.3631" lon="-4.58529">
        <ele>89.800003051758</ele>
        <time>2022-03-27T07:31:27.000Z</time>
      </trkpt>
      <trkpt lat="48.3632" lon="-4.58536">
        <ele>90</ele>
        <time>2022-03-27T07:31:30.000Z</time>
      </trkpt>
      <trkpt lat="48.36326" lon="-4.58545">
        <ele>90.199996948242</ele>
        <time>2022-03-27T07:31:32.000Z</time>
      </trkpt>
      <trkpt lat="48.36337" lon="-4.58566">
        <ele>90.199996948242</ele>
        <time>2022-03-27T07:31:36.000Z</time>
      </trkpt>
      <trkpt lat="48.36362" lon="-4.58612">
        <ele>89.800003051758</ele>
        <time>2022-03-27T07:31:45.000Z</time>
      </trkpt>
      <trkpt lat="48.36364" lon="-4.58618">
        <ele>90</ele>
        <time>2022-03-27T07:31:46.000Z</time>
      </trkpt>
      <trkpt lat="48.3637" lon="-4.58628">
        <ele>90.199996948242</ele>
        <time>2022-03-27T07:31:48.000Z</time>
      </trkpt>
      <trkpt lat="48.36373" lon="-4.58632">
        <ele>90.199996948242</ele>
        <time>2022-03-27T07:31:49.000Z</time>
      </trkpt>
      <trkpt lat="48.36398" lon="-4.58676">
        <ele>90.599998474121</ele>
        <time>2022-03-27T07:31:58.000Z</time>
      </trkpt>
      <trkpt lat="48.36404" lon="-4.58691">
        <ele>90.800003051758</ele>
        <time>2022-03-27T07:32:01.000Z</time>
      </trkpt>
      <trkpt lat="48.36409" lon="-4.58702">
        <ele>91</ele>
        <time>2022-03-27T07:32:03.000Z</time>
      </trkpt>
      <trkpt lat="48.36412" lon="-4.58713">
        <ele>90.800003051758</ele>
        <time>2022-03-27T07:32:05.000Z</time>
      </trkpt>
      <trkpt lat="48.36422" lon="-4.58719">
        <ele>90.800003051758</ele>
        <time>2022-03-27T07:32:08.000Z</time>
      </trkpt>
      <trkpt lat="48.36427" lon="-4.58732">
        <ele>90.599998474121</ele>
        <time>2022-03-27T07:32:11.000Z</time>
      </trkpt>
      <trkpt lat="48.36449" lon="-4.58747">
        <ele>90.199996948242</ele>
        <time>2022-03-27T07:32:17.000Z</time>
      </trkpt>
      <trkpt lat="48.36469" lon="-4.58753">
        <ele>90</ele>
        <time>2022-03-27T07:32:23.000Z</time>
      </trkpt>
      <trkpt lat="48.36472" lon="-4.58746">
        <ele>90</ele>
        <time>2022-03-27T07:32:25.000Z</time>
      </trkpt>
      <trkpt lat="48.36475" lon="-4.58733">
        <ele>90</ele>
        <time>2022-03-27T07:32:27.000Z</time>
      </trkpt>
      <trkpt lat="48.36477" lon="-4.58719">
        <ele>90.199996948242</ele>
        <time>2022-03-27T07:32:29.000Z</time>
      </trkpt>
      <trkpt lat="48.36478" lon="-4.58712">
        <ele>90.400001525879</ele>
        <time>2022-03-27T07:32:30.000Z</time>
      </trkpt>
      <trkpt lat="48.36486" lon="-4.58711">
        <ele>90.199996948242</ele>
        <time>2022-03-27T07:32:32.000Z</time>
      </trkpt>
      <trkpt lat="48.36489" lon="-4.58717">
        <ele>90.199996948242</ele>
        <time>2022-03-27T07:32:33.000Z</time>
      </trkpt>
      <trkpt lat="48.36489" lon="-4.58724">
        <ele>90</ele>
        <time>2022-03-27T07:32:34.000Z</time>
      </trkpt>
      <trkpt lat="48.36484" lon="-4.5874">
        <ele>90</ele>
        <time>2022-03-27T07:32:36.000Z</time>
      </trkpt>
      <trkpt lat="48.36479" lon="-4.58755">
        <ele>90.199996948242</ele>
        <time>2022-03-27T07:32:38.000Z</time>
      </trkpt>
      <trkpt lat="48.3648" lon="-4.58769">
        <ele>90.400001525879</ele>
        <time>2022-03-27T07:32:40.000Z</time>
      </trkpt>
      <trkpt lat="48.36482" lon="-4.58775">
        <ele>90.599998474121</ele>
        <time>2022-03-27T07:32:41.000Z</time>
      </trkpt>
      <trkpt lat="48.36486" lon="-4.58781">
        <ele>90.599998474121</ele>
        <time>2022-03-27T07:32:42.000Z</time>
      </trkpt>
      <trkpt lat="48.36492" lon="-4.58791">
        <ele>90.800003051758</ele>
        <time>2022-03-27T07:32:44.000Z</time>
      </trkpt>
      <trkpt lat="48.36504" lon="-4.58804">
        <ele>90.800003051758</ele>
        <time>2022-03-27T07:32:47.000Z</time>
      </trkpt>
      <trkpt lat="48.36532" lon="-4.58842">
        <ele>90.800003051758</ele>
        <time>2022-03-27T07:32:55.000Z</time>
      </trkpt>
      <trkpt lat="48.36535" lon="-4.58848">
        <ele>90.800003051758</ele>
        <time>2022-03-27T07:32:56.000Z</time>
      </trkpt>
      <trkpt lat="48.36556" lon="-4.58878">
        <ele>91.400001525879</ele>
        <time>2022-03-27T07:33:02.000Z</time>
      </trkpt>
      <trkpt lat="48.36559" lon="-4.58883">
        <ele>91.599998474121</ele>
        <time>2022-03-27T07:33:03.000Z</time>
      </trkpt>
      <trkpt lat="48.36568" lon="-4.58898">
        <ele>91.599998474121</ele>
        <time>2022-03-27T07:33:06.000Z</time>
      </trkpt>
      <trkpt lat="48.36599" lon="-4.58941">
        <ele>92.800003051758</ele>
        <time>2022-03-27T07:33:15.000Z</time>
      </trkpt>
      <trkpt lat="48.36625" lon="-4.58986">
        <ele>92.400001525879</ele>
        <time>2022-03-27T07:33:24.000Z</time>
      </trkpt>
      <trkpt lat="48.36636" lon="-4.59008">
        <ele>92.199996948242</ele>
        <time>2022-03-27T07:33:28.000Z</time>
      </trkpt>
      <trkpt lat="48.36643" lon="-4.59026">
        <ele>92.400001525879</ele>
        <time>2022-03-27T07:33:31.000Z</time>
      </trkpt>
      <trkpt lat="48.36657" lon="-4.59077">
        <ele>92.199996948242</ele>
        <time>2022-03-27T07:33:39.000Z</time>
      </trkpt>
      <trkpt lat="48.36662" lon="-4.59095">
        <ele>92.400001525879</ele>
        <time>2022-03-27T07:33:42.000Z</time>
      </trkpt>
      <trkpt lat="48.36668" lon="-4.59114">
        <ele>92.800003051758</ele>
        <time>2022-03-27T07:33:45.000Z</time>
      </trkpt>
      <trkpt lat="48.36678" lon="-4.59142">
        <ele>93</ele>
        <time>2022-03-27T07:33:50.000Z</time>
      </trkpt>
      <trkpt lat="48.36681" lon="-4.59147">
        <ele>93</ele>
        <time>2022-03-27T07:33:51.000Z</time>
      </trkpt>
      <trkpt lat="48.36693" lon="-4.59187">
        <ele>92.800003051758</ele>
        <time>2022-03-27T07:33:57.000Z</time>
      </trkpt>
      <trkpt lat="48.36708" lon="-4.59236">
        <ele>92</ele>
        <time>2022-03-27T07:34:04.000Z</time>
      </trkpt>
      <trkpt lat="48.36711" lon="-4.59243">
        <ele>91.800003051758</ele>
        <time>2022-03-27T07:34:05.000Z</time>
      </trkpt>
      <trkpt lat="48.36731" lon="-4.59309">
        <ele>91.400001525879</ele>
        <time>2022-03-27T07:34:14.000Z</time>
      </trkpt>
      <trkpt lat="48.36748" lon="-4.59368">
        <ele>91.199996948242</ele>
        <time>2022-03-27T07:34:22.000Z</time>
      </trkpt>
      <trkpt lat="48.36766" lon="-4.59425">
        <ele>91.599998474121</ele>
        <time>2022-03-27T07:34:30.000Z</time>
      </trkpt>
      <trkpt lat="48.36777" lon="-4.59453">
        <ele>91.800003051758</ele>
        <time>2022-03-27T07:34:34.000Z</time>
      </trkpt>
      <trkpt lat="48.36785" lon="-4.59465">
        <ele>91.400001525879</ele>
        <time>2022-03-27T07:34:36.000Z</time>
      </trkpt>
      <trkpt lat="48.36817" lon="-4.59503">
        <ele>90.400001525879</ele>
        <time>2022-03-27T07:34:43.000Z</time>
      </trkpt>
      <trkpt lat="48.36842" lon="-4.59521">
        <ele>90.199996948242</ele>
        <time>2022-03-27T07:34:48.000Z</time>
      </trkpt>
      <trkpt lat="48.36846" lon="-4.59521">
        <ele>90.199996948242</ele>
        <time>2022-03-27T07:34:49.000Z</time>
      </trkpt>
      <trkpt lat="48.3685" lon="-4.59517">
        <ele>90.199996948242</ele>
        <time>2022-03-27T07:34:50.000Z</time>
      </trkpt>
      <trkpt lat="48.36852" lon="-4.59511">
        <ele>90.199996948242</ele>
        <time>2022-03-27T07:34:51.000Z</time>
      </trkpt>
      <trkpt lat="48.36855" lon="-4.59481">
        <ele>90.599998474121</ele>
        <time>2022-03-27T07:34:56.000Z</time>
      </trkpt>
      <trkpt lat="48.36854" lon="-4.59437">
        <ele>91</ele>
        <time>2022-03-27T07:35:03.000Z</time>
      </trkpt>
      <trkpt lat="48.36851" lon="-4.594">
        <ele>91</ele>
        <time>2022-03-27T07:35:09.000Z</time>
      </trkpt>
      <trkpt lat="48.36851" lon="-4.5939">
        <ele>91</ele>
        <time>2022-03-27T07:35:11.000Z</time>
      </trkpt>
      <trkpt lat="48.36851" lon="-4.59385">
        <ele>91</ele>
        <time>2022-03-27T07:35:12.000Z</time>
      </trkpt>
      <trkpt lat="48.36852" lon="-4.59382">
        <ele>91</ele>
        <time>2022-03-27T07:35:13.000Z</time>
      </trkpt>
      <trkpt lat="48.36855" lon="-4.59378">
        <ele>91</ele>
        <time>2022-03-27T07:35:15.000Z</time>
      </trkpt>
      <trkpt lat="48.36855" lon="-4.59373">
        <ele>91</ele>
        <time>2022-03-27T07:35:18.000Z</time>
      </trkpt>
      <trkpt lat="48.36855" lon="-4.5937">
        <ele>91</ele>
        <time>2022-03-27T07:35:19.000Z</time>
      </trkpt>
      <trkpt lat="48.3686" lon="-4.59347">
        <ele>90.800003051758</ele>
        <time>2022-03-27T07:35:24.000Z</time>
      </trkpt>
      <trkpt lat="48.36869" lon="-4.5931">
        <ele>90.599998474121</ele>
        <time>2022-03-27T07:35:31.000Z</time>
      </trkpt>
      <trkpt lat="48.36878" lon="-4.59272">
        <ele>90.400001525879</ele>
        <time>2022-03-27T07:35:38.000Z</time>
      </trkpt>
      <trkpt lat="48.36889" lon="-4.59246">
        <ele>90.400001525879</ele>
        <time>2022-03-27T07:35:43.000Z</time>
      </trkpt>
      <trkpt lat="48.36907" lon="-4.59239">
        <ele>90.800003051758</ele>
        <time>2022-03-27T07:35:48.000Z</time>
      </trkpt>
      <trkpt lat="48.36927" lon="-4.59236">
        <ele>91</ele>
        <time>2022-03-27T07:35:53.000Z</time>
      </trkpt>
      <trkpt lat="48.36948" lon="-4.59238">
        <ele>91.199996948242</ele>
        <time>2022-03-27T07:35:58.000Z</time>
      </trkpt>
      <trkpt lat="48.36972" lon="-4.59241">
        <ele>91.400001525879</ele>
        <time>2022-03-27T07:36:04.000Z</time>
      </trkpt>
      <trkpt lat="48.36996" lon="-4.59237">
        <ele>91.599998474121</ele>
        <time>2022-03-27T07:36:10.000Z</time>
      </trkpt>
      <trkpt lat="48.37013" lon="-4.59232">
        <ele>91.599998474121</ele>
        <time>2022-03-27T07:36:15.000Z</time>
      </trkpt>
      <trkpt lat="48.37025" lon="-4.59229">
        <ele>91.800003051758</ele>
        <time>2022-03-27T07:36:19.000Z</time>
      </trkpt>
      <trkpt lat="48.3704" lon="-4.59225">
        <ele>92</ele>
        <time>2022-03-27T07:36:24.000Z</time>
      </trkpt>
      <trkpt lat="48.37061" lon="-4.59221">
        <ele>92.400001525879</ele>
        <time>2022-03-27T07:36:29.000Z</time>
      </trkpt>
      <trkpt lat="48.37084" lon="-4.5922">
        <ele>92.599998474121</ele>
        <time>2022-03-27T07:36:34.000Z</time>
      </trkpt>
      <trkpt lat="48.37108" lon="-4.59218">
        <ele>92.800003051758</ele>
        <time>2022-03-27T07:36:40.000Z</time>
      </trkpt>
      <trkpt lat="48.37125" lon="-4.59218">
        <ele>92.800003051758</ele>
        <time>2022-03-27T07:36:45.000Z</time>
      </trkpt>
      <trkpt lat="48.37149" lon="-4.59225">
        <ele>92.800003051758</ele>
        <time>2022-03-27T07:36:51.000Z</time>
      </trkpt>
      <trkpt lat="48.37168" lon="-4.59231">
        <ele>92.599998474121</ele>
        <time>2022-03-27T07:36:56.000Z</time>
      </trkpt>
      <trkpt lat="48.37174" lon="-4.59233">
        <ele>92.599998474121</ele>
        <time>2022-03-27T07:36:59.000Z</time>
      </trkpt>
      <trkpt lat="48.37176" lon="-4.59236">
        <ele>92.599998474121</ele>
        <time>2022-03-27T07:37:00.000Z</time>
      </trkpt>
      <trkpt lat="48.37177" lon="-4.59247">
        <ele>92.400001525879</ele>
        <time>2022-03-27T07:37:03.000Z</time>
      </trkpt>
      <trkpt lat="48.37177" lon="-4.59273">
        <ele>92.199996948242</ele>
        <time>2022-03-27T07:37:08.000Z</time>
      </trkpt>
      <trkpt lat="48.37179" lon="-4.59277">
        <ele>92</ele>
        <time>2022-03-27T07:37:09.000Z</time>
      </trkpt>
      <trkpt lat="48.37185" lon="-4.59281">
        <ele>92</ele>
        <time>2022-03-27T07:37:11.000Z</time>
      </trkpt>
      <trkpt lat="48.37207" lon="-4.59295">
        <ele>91.800003051758</ele>
        <time>2022-03-27T07:37:17.000Z</time>
      </trkpt>
      <trkpt lat="48.37244" lon="-4.59318">
        <ele>91.400001525879</ele>
        <time>2022-03-27T07:37:26.000Z</time>
      </trkpt>
      <trkpt lat="48.37248" lon="-4.5932">
        <ele>91.400001525879</ele>
        <time>2022-03-27T07:37:27.000Z</time>
      </trkpt>
      <trkpt lat="48.37256" lon="-4.59328">
        <ele>91</ele>
        <time>2022-03-27T07:37:29.000Z</time>
      </trkpt>
      <trkpt lat="48.37272" lon="-4.59358">
        <ele>90.199996948242</ele>
        <time>2022-03-27T07:37:34.000Z</time>
      </trkpt>
      <trkpt lat="48.37279" lon="-4.59369">
        <ele>90</ele>
        <time>2022-03-27T07:37:36.000Z</time>
      </trkpt>
      <trkpt lat="48.37289" lon="-4.59387">
        <ele>89.800003051758</ele>
        <time>2022-03-27T07:37:39.000Z</time>
      </trkpt>
      <trkpt lat="48.37308" lon="-4.59422">
        <ele>89.199996948242</ele>
        <time>2022-03-27T07:37:45.000Z</time>
      </trkpt>
      <trkpt lat="48.37321" lon="-4.59445">
        <ele>88.400001525879</ele>
        <time>2022-03-27T07:37:49.000Z</time>
      </trkpt>
      <trkpt lat="48.37326" lon="-4.59459">
        <ele>88.400001525879</ele>
        <time>2022-03-27T07:37:51.000Z</time>
      </trkpt>
      <trkpt lat="48.37329" lon="-4.59465">
        <ele>88.400001525879</ele>
        <time>2022-03-27T07:37:52.000Z</time>
      </trkpt>
      <trkpt lat="48.37341" lon="-4.59488">
        <ele>88.199996948242</ele>
        <time>2022-03-27T07:37:56.000Z</time>
      </trkpt>
      <trkpt lat="48.37345" lon="-4.59491">
        <ele>88</ele>
        <time>2022-03-27T07:37:57.000Z</time>
      </trkpt>
      <trkpt lat="48.3735" lon="-4.59492">
        <ele>88</ele>
        <time>2022-03-27T07:37:58.000Z</time>
      </trkpt>
      <trkpt lat="48.37359" lon="-4.59486">
        <ele>87.800003051758</ele>
        <time>2022-03-27T07:38:00.000Z</time>
      </trkpt>
      <trkpt lat="48.37371" lon="-4.59473">
        <ele>87.800003051758</ele>
        <time>2022-03-27T07:38:03.000Z</time>
      </trkpt>
      <trkpt lat="48.37375" lon="-4.59463">
        <ele>87.599998474121</ele>
        <time>2022-03-27T07:38:05.000Z</time>
      </trkpt>
      <trkpt lat="48.37379" lon="-4.59453">
        <ele>87.599998474121</ele>
        <time>2022-03-27T07:38:07.000Z</time>
      </trkpt>
      <trkpt lat="48.37386" lon="-4.59448">
        <ele>87.599998474121</ele>
        <time>2022-03-27T07:38:09.000Z</time>
      </trkpt>
      <trkpt lat="48.37396" lon="-4.59446">
        <ele>87.599998474121</ele>
        <time>2022-03-27T07:38:11.000Z</time>
      </trkpt>
      <trkpt lat="48.37405" lon="-4.59439">
        <ele>87.800003051758</ele>
        <time>2022-03-27T07:38:13.000Z</time>
      </trkpt>
      <trkpt lat="48.37431" lon="-4.59408">
        <ele>88.599998474121</ele>
        <time>2022-03-27T07:38:19.000Z</time>
      </trkpt>
      <trkpt lat="48.37456" lon="-4.59381">
        <ele>88.599998474121</ele>
        <time>2022-03-27T07:38:25.000Z</time>
      </trkpt>
      <trkpt lat="48.37492" lon="-4.59344">
        <ele>88.599998474121</ele>
        <time>2022-03-27T07:38:34.000Z</time>
      </trkpt>
      <trkpt lat="48.3752" lon="-4.59318">
        <ele>88.599998474121</ele>
        <time>2022-03-27T07:38:42.000Z</time>
      </trkpt>
      <trkpt lat="48.37524" lon="-4.59316">
        <ele>88.599998474121</ele>
        <time>2022-03-27T07:38:43.000Z</time>
      </trkpt>
      <trkpt lat="48.3754" lon="-4.5931">
        <ele>88.400001525879</ele>
        <time>2022-03-27T07:38:47.000Z</time>
      </trkpt>
      <trkpt lat="48.37557" lon="-4.59303">
        <ele>88.400001525879</ele>
        <time>2022-03-27T07:38:51.000Z</time>
      </trkpt>
      <trkpt lat="48.37565" lon="-4.59299">
        <ele>88.199996948242</ele>
        <time>2022-03-27T07:38:53.000Z</time>
      </trkpt>
      <trkpt lat="48.37578" lon="-4.59286">
        <ele>88.400001525879</ele>
        <time>2022-03-27T07:38:57.000Z</time>
      </trkpt>
      <trkpt lat="48.37603" lon="-4.59258">
        <ele>88.400001525879</ele>
        <time>2022-03-27T07:39:05.000Z</time>
      </trkpt>
      <trkpt lat="48.37614" lon="-4.5924">
        <ele>88.199996948242</ele>
        <time>2022-03-27T07:39:09.000Z</time>
      </trkpt>
      <trkpt lat="48.37617" lon="-4.59234">
        <ele>88.199996948242</ele>
        <time>2022-03-27T07:39:10.000Z</time>
      </trkpt>
      <trkpt lat="48.37626" lon="-4.59214">
        <ele>88.400001525879</ele>
        <time>2022-03-27T07:39:14.000Z</time>
      </trkpt>
      <trkpt lat="48.37638" lon="-4.59183">
        <ele>88.199996948242</ele>
        <time>2022-03-27T07:39:19.000Z</time>
      </trkpt>
      <trkpt lat="48.37642" lon="-4.59176">
        <ele>88.199996948242</ele>
        <time>2022-03-27T07:39:20.000Z</time>
      </trkpt>
      <trkpt lat="48.37667" lon="-4.59134">
        <ele>87.400001525879</ele>
        <time>2022-03-27T07:39:26.000Z</time>
      </trkpt>
      <trkpt lat="48.37675" lon="-4.59122">
        <ele>87.199996948242</ele>
        <time>2022-03-27T07:39:28.000Z</time>
      </trkpt>
      <trkpt lat="48.37687" lon="-4.59109">
        <ele>86</ele>
        <time>2022-03-27T07:39:30.000Z</time>
      </trkpt>
      <trkpt lat="48.37714" lon="-4.59079">
        <ele>81.599998474121</ele>
        <time>2022-03-27T07:39:34.000Z</time>
      </trkpt>
      <trkpt lat="48.37719" lon="-4.59072">
        <ele>80.599998474121</ele>
        <time>2022-03-27T07:39:35.000Z</time>
      </trkpt>
      <trkpt lat="48.37723" lon="-4.59067">
        <ele>80</ele>
        <time>2022-03-27T07:39:36.000Z</time>
      </trkpt>
      <trkpt lat="48.37728" lon="-4.59067">
        <ele>79.400001525879</ele>
        <time>2022-03-27T07:39:37.000Z</time>
      </trkpt>
      <trkpt lat="48.37734" lon="-4.59069">
        <ele>78.800003051758</ele>
        <time>2022-03-27T07:39:38.000Z</time>
      </trkpt>
      <trkpt lat="48.37747" lon="-4.5908">
        <ele>77.400001525879</ele>
        <time>2022-03-27T07:39:40.000Z</time>
      </trkpt>
      <trkpt lat="48.37787" lon="-4.5911">
        <ele>74</ele>
        <time>2022-03-27T07:39:45.000Z</time>
      </trkpt>
      <trkpt lat="48.37817" lon="-4.59132">
        <ele>71.800003051758</ele>
        <time>2022-03-27T07:39:49.000Z</time>
      </trkpt>
      <trkpt lat="48.37829" lon="-4.59124">
        <ele>70.599998474121</ele>
        <time>2022-03-27T07:39:51.000Z</time>
      </trkpt>
      <trkpt lat="48.37834" lon="-4.59103">
        <ele>69.800003051758</ele>
        <time>2022-03-27T07:39:53.000Z</time>
      </trkpt>
      <trkpt lat="48.37836" lon="-4.59092">
        <ele>69.400001525879</ele>
        <time>2022-03-27T07:39:54.000Z</time>
      </trkpt>
      <trkpt lat="48.37847" lon="-4.59019">
        <ele>67.199996948242</ele>
        <time>2022-03-27T07:40:01.000Z</time>
      </trkpt>
      <trkpt lat="48.37851" lon="-4.58989">
        <ele>67.400001525879</ele>
        <time>2022-03-27T07:40:04.000Z</time>
      </trkpt>
      <trkpt lat="48.37852" lon="-4.58971">
        <ele>67.599998474121</ele>
        <time>2022-03-27T07:40:06.000Z</time>
      </trkpt>
      <trkpt lat="48.37855" lon="-4.58944">
        <ele>67.400001525879</ele>
        <time>2022-03-27T07:40:09.000Z</time>
      </trkpt>
      <trkpt lat="48.37859" lon="-4.58939">
        <ele>67.199996948242</ele>
        <time>2022-03-27T07:40:10.000Z</time>
      </trkpt>
      <trkpt lat="48.37864" lon="-4.58937">
        <ele>66.800003051758</ele>
        <time>2022-03-27T07:40:11.000Z</time>
      </trkpt>
      <trkpt lat="48.37876" lon="-4.58938">
        <ele>66</ele>
        <time>2022-03-27T07:40:13.000Z</time>
      </trkpt>
      <trkpt lat="48.37897" lon="-4.58943">
        <ele>64.400001525879</ele>
        <time>2022-03-27T07:40:17.000Z</time>
      </trkpt>
      <trkpt lat="48.37902" lon="-4.58941">
        <ele>64.199996948242</ele>
        <time>2022-03-27T07:40:18.000Z</time>
      </trkpt>
      <trkpt lat="48.37905" lon="-4.58937">
        <ele>63.799999237061</ele>
        <time>2022-03-27T07:40:19.000Z</time>
      </trkpt>
      <trkpt lat="48.37907" lon="-4.5893">
        <ele>63.799999237061</ele>
        <time>2022-03-27T07:40:20.000Z</time>
      </trkpt>
      <trkpt lat="48.37906" lon="-4.58922">
        <ele>63.799999237061</ele>
        <time>2022-03-27T07:40:21.000Z</time>
      </trkpt>
      <trkpt lat="48.37902" lon="-4.58902">
        <ele>64</ele>
        <time>2022-03-27T07:40:24.000Z</time>
      </trkpt>
      <trkpt lat="48.37896" lon="-4.58858">
        <ele>64.800003051758</ele>
        <time>2022-03-27T07:40:30.000Z</time>
      </trkpt>
      <trkpt lat="48.37897" lon="-4.58807">
        <ele>65.800003051758</ele>
        <time>2022-03-27T07:40:37.000Z</time>
      </trkpt>
      <trkpt lat="48.37904" lon="-4.58741">
        <ele>65.599998474121</ele>
        <time>2022-03-27T07:40:46.000Z</time>
      </trkpt>
      <trkpt lat="48.37908" lon="-4.58659">
        <ele>66</ele>
        <time>2022-03-27T07:40:57.000Z</time>
      </trkpt>
      <trkpt lat="48.37909" lon="-4.58651">
        <ele>66</ele>
        <time>2022-03-27T07:40:58.000Z</time>
      </trkpt>
      <trkpt lat="48.37914" lon="-4.58582">
        <ele>66</ele>
        <time>2022-03-27T07:41:07.000Z</time>
      </trkpt>
      <trkpt lat="48.37918" lon="-4.58553">
        <ele>65.800003051758</ele>
        <time>2022-03-27T07:41:11.000Z</time>
      </trkpt>
      <trkpt lat="48.37922" lon="-4.58532">
        <ele>65.800003051758</ele>
        <time>2022-03-27T07:41:14.000Z</time>
      </trkpt>
      <trkpt lat="48.37933" lon="-4.58483">
        <ele>66.199996948242</ele>
        <time>2022-03-27T07:41:21.000Z</time>
      </trkpt>
      <trkpt lat="48.37935" lon="-4.58468">
        <ele>66.400001525879</ele>
        <time>2022-03-27T07:41:23.000Z</time>
      </trkpt>
      <trkpt lat="48.37936" lon="-4.58452">
        <ele>66.599998474121</ele>
        <time>2022-03-27T07:41:25.000Z</time>
      </trkpt>
      <trkpt lat="48.37935" lon="-4.58444">
        <ele>66.800003051758</ele>
        <time>2022-03-27T07:41:26.000Z</time>
      </trkpt>
      <trkpt lat="48.37929" lon="-4.58414">
        <ele>67.199996948242</ele>
        <time>2022-03-27T07:41:31.000Z</time>
      </trkpt>
      <trkpt lat="48.37934" lon="-4.58407">
        <ele>66.800003051758</ele>
        <time>2022-03-27T07:41:33.000Z</time>
      </trkpt>
      <trkpt lat="48.37938" lon="-4.58406">
        <ele>66.800003051758</ele>
        <time>2022-03-27T07:41:34.000Z</time>
      </trkpt>
      <trkpt lat="48.37966" lon="-4.58395">
        <ele>65.400001525879</ele>
        <time>2022-03-27T07:41:40.000Z</time>
      </trkpt>
      <trkpt lat="48.37975" lon="-4.58385">
        <ele>64.800003051758</ele>
        <time>2022-03-27T07:41:42.000Z</time>
      </trkpt>
      <trkpt lat="48.37982" lon="-4.58372">
        <ele>64.599998474121</ele>
        <time>2022-03-27T07:41:44.000Z</time>
      </trkpt>
      <trkpt lat="48.37993" lon="-4.58333">
        <ele>64</ele>
        <time>2022-03-27T07:41:49.000Z</time>
      </trkpt>
      <trkpt lat="48.3801" lon="-4.5827">
        <ele>63</ele>
        <time>2022-03-27T07:41:58.000Z</time>
      </trkpt>
      <trkpt lat="48.38011" lon="-4.58263">
        <ele>63</ele>
        <time>2022-03-27T07:41:59.000Z</time>
      </trkpt>
      <trkpt lat="48.38011" lon="-4.58251">
        <ele>62.799999237061</ele>
        <time>2022-03-27T07:42:01.000Z</time>
      </trkpt>
      <trkpt lat="48.38" lon="-4.58243">
        <ele>63.200000762939</ele>
        <time>2022-03-27T07:42:04.000Z</time>
      </trkpt>
      <trkpt lat="48.3797" lon="-4.58227">
        <ele>64.800003051758</ele>
        <time>2022-03-27T07:42:12.000Z</time>
      </trkpt>
      <trkpt lat="48.37952" lon="-4.58205">
        <ele>66.400001525879</ele>
        <time>2022-03-27T07:42:19.000Z</time>
      </trkpt>
      <trkpt lat="48.37935" lon="-4.58179">
        <ele>68.400001525879</ele>
        <time>2022-03-27T07:42:26.000Z</time>
      </trkpt>
      <trkpt lat="48.37924" lon="-4.58163">
        <ele>69.800003051758</ele>
        <time>2022-03-27T07:42:31.000Z</time>
      </trkpt>
      <trkpt lat="48.37919" lon="-4.58145">
        <ele>70.800003051758</ele>
        <time>2022-03-27T07:42:35.000Z</time>
      </trkpt>
      <trkpt lat="48.3792" lon="-4.58108">
        <ele>71.199996948242</ele>
        <time>2022-03-27T07:42:41.000Z</time>
      </trkpt>
      <trkpt lat="48.37913" lon="-4.58066">
        <ele>71.400001525879</ele>
        <time>2022-03-27T07:42:48.000Z</time>
      </trkpt>
      <trkpt lat="48.37907" lon="-4.58026">
        <ele>71.400001525879</ele>
        <time>2022-03-27T07:42:55.000Z</time>
      </trkpt>
      <trkpt lat="48.37902" lon="-4.57996">
        <ele>71.800003051758</ele>
        <time>2022-03-27T07:43:00.000Z</time>
      </trkpt>
      <trkpt lat="48.37901" lon="-4.57983">
        <ele>71.800003051758</ele>
        <time>2022-03-27T07:43:02.000Z</time>
      </trkpt>
      <trkpt lat="48.379" lon="-4.57955">
        <ele>71.599998474121</ele>
        <time>2022-03-27T07:43:06.000Z</time>
      </trkpt>
      <trkpt lat="48.37901" lon="-4.57934">
        <ele>71.800003051758</ele>
        <time>2022-03-27T07:43:09.000Z</time>
      </trkpt>
      <trkpt lat="48.37903" lon="-4.57912">
        <ele>71.800003051758</ele>
        <time>2022-03-27T07:43:12.000Z</time>
      </trkpt>
      <trkpt lat="48.37907" lon="-4.57858">
        <ele>72.400001525879</ele>
        <time>2022-03-27T07:43:20.000Z</time>
      </trkpt>
      <trkpt lat="48.37903" lon="-4.57823">
        <ele>73.400001525879</ele>
        <time>2022-03-27T07:43:26.000Z</time>
      </trkpt>
      <trkpt lat="48.37892" lon="-4.57788">
        <ele>75.199996948242</ele>
        <time>2022-03-27T07:43:34.000Z</time>
      </trkpt>
      <trkpt lat="48.37884" lon="-4.57765">
        <ele>77</ele>
        <time>2022-03-27T07:43:41.000Z</time>
      </trkpt>
      <trkpt lat="48.37882" lon="-4.57744">
        <ele>78</ele>
        <time>2022-03-27T07:43:48.000Z</time>
      </trkpt>
      <trkpt lat="48.37888" lon="-4.57731">
        <ele>78.199996948242</ele>
        <time>2022-03-27T07:43:53.000Z</time>
      </trkpt>
      <trkpt lat="48.37901" lon="-4.57714">
        <ele>78</ele>
        <time>2022-03-27T07:43:58.000Z</time>
      </trkpt>
      <trkpt lat="48.37931" lon="-4.57688">
        <ele>76.400001525879</ele>
        <time>2022-03-27T07:44:07.000Z</time>
      </trkpt>
      <trkpt lat="48.37932" lon="-4.57674">
        <ele>77</ele>
        <time>2022-03-27T07:44:10.000Z</time>
      </trkpt>
      <trkpt lat="48.37922" lon="-4.5764">
        <ele>79</ele>
        <time>2022-03-27T07:44:18.000Z</time>
      </trkpt>
      <trkpt lat="48.37917" lon="-4.57618">
        <ele>79.800003051758</ele>
        <time>2022-03-27T07:44:24.000Z</time>
      </trkpt>
      <trkpt lat="48.37909" lon="-4.57592">
        <ele>80.599998474121</ele>
        <time>2022-03-27T07:44:31.000Z</time>
      </trkpt>
      <trkpt lat="48.37903" lon="-4.57558">
        <ele>81.599998474121</ele>
        <time>2022-03-27T07:44:39.000Z</time>
      </trkpt>
      <trkpt lat="48.37898" lon="-4.57528">
        <ele>82.599998474121</ele>
        <time>2022-03-27T07:44:46.000Z</time>
      </trkpt>
      <trkpt lat="48.37899" lon="-4.57508">
        <ele>83</ele>
        <time>2022-03-27T07:44:52.000Z</time>
      </trkpt>
      <trkpt lat="48.37901" lon="-4.57486">
        <ele>83.400001525879</ele>
        <time>2022-03-27T07:44:58.000Z</time>
      </trkpt>
      <trkpt lat="48.37903" lon="-4.57462">
        <ele>83.800003051758</ele>
        <time>2022-03-27T07:45:04.000Z</time>
      </trkpt>
      <trkpt lat="48.37902" lon="-4.57438">
        <ele>84.199996948242</ele>
        <time>2022-03-27T07:45:10.000Z</time>
      </trkpt>
      <trkpt lat="48.37907" lon="-4.57405">
        <ele>84.400001525879</ele>
        <time>2022-03-27T07:45:17.000Z</time>
      </trkpt>
      <trkpt lat="48.3791" lon="-4.57372">
        <ele>83.800003051758</ele>
        <time>2022-03-27T07:45:24.000Z</time>
      </trkpt>
      <trkpt lat="48.37911" lon="-4.57351">
        <ele>84</ele>
        <time>2022-03-27T07:45:29.000Z</time>
      </trkpt>
      <trkpt lat="48.37915" lon="-4.5732">
        <ele>84.199996948242</ele>
        <time>2022-03-27T07:45:35.000Z</time>
      </trkpt>
      <trkpt lat="48.37922" lon="-4.57279">
        <ele>84.400001525879</ele>
        <time>2022-03-27T07:45:42.000Z</time>
      </trkpt>
      <trkpt lat="48.37926" lon="-4.57243">
        <ele>84.199996948242</ele>
        <time>2022-03-27T07:45:48.000Z</time>
      </trkpt>
      <trkpt lat="48.37934" lon="-4.57199">
        <ele>83.800003051758</ele>
        <time>2022-03-27T07:45:55.000Z</time>
      </trkpt>
      <trkpt lat="48.37938" lon="-4.57159">
        <ele>83.199996948242</ele>
        <time>2022-03-27T07:46:01.000Z</time>
      </trkpt>
      <trkpt lat="48.37933" lon="-4.57124">
        <ele>83</ele>
        <time>2022-03-27T07:46:07.000Z</time>
      </trkpt>
      <trkpt lat="48.37928" lon="-4.57097">
        <ele>83.199996948242</ele>
        <time>2022-03-27T07:46:13.000Z</time>
      </trkpt>
      <trkpt lat="48.37926" lon="-4.5707">
        <ele>83.199996948242</ele>
        <time>2022-03-27T07:46:18.000Z</time>
      </trkpt>
      <trkpt lat="48.37921" lon="-4.57044">
        <ele>83.400001525879</ele>
        <time>2022-03-27T07:46:23.000Z</time>
      </trkpt>
      <trkpt lat="48.37916" lon="-4.57023">
        <ele>83.800003051758</ele>
        <time>2022-03-27T07:46:28.000Z</time>
      </trkpt>
      <trkpt lat="48.3791" lon="-4.57008">
        <ele>84</ele>
        <time>2022-03-27T07:46:32.000Z</time>
      </trkpt>
      <trkpt lat="48.37901" lon="-4.56986">
        <ele>84.400001525879</ele>
        <time>2022-03-27T07:46:37.000Z</time>
      </trkpt>
      <trkpt lat="48.37894" lon="-4.56966">
        <ele>84.599998474121</ele>
        <time>2022-03-27T07:46:42.000Z</time>
      </trkpt>
      <trkpt lat="48.37885" lon="-4.56951">
        <ele>84.599998474121</ele>
        <time>2022-03-27T07:46:46.000Z</time>
      </trkpt>
      <trkpt lat="48.37882" lon="-4.5695">
        <ele>84.800003051758</ele>
        <time>2022-03-27T07:46:47.000Z</time>
      </trkpt>
      <trkpt lat="48.37864" lon="-4.56945">
        <ele>85.400001525879</ele>
        <time>2022-03-27T07:46:53.000Z</time>
      </trkpt>
      <trkpt lat="48.37861" lon="-4.56943">
        <ele>85.400001525879</ele>
        <time>2022-03-27T07:46:54.000Z</time>
      </trkpt>
      <trkpt lat="48.3786" lon="-4.5694">
        <ele>85.400001525879</ele>
        <time>2022-03-27T07:46:55.000Z</time>
      </trkpt>
      <trkpt lat="48.37857" lon="-4.56928">
        <ele>85.599998474121</ele>
        <time>2022-03-27T07:46:58.000Z</time>
      </trkpt>
      <trkpt lat="48.37854" lon="-4.56899">
        <ele>85.800003051758</ele>
        <time>2022-03-27T07:47:03.000Z</time>
      </trkpt>
      <trkpt lat="48.37849" lon="-4.56845">
        <ele>85.400001525879</ele>
        <time>2022-03-27T07:47:11.000Z</time>
      </trkpt>
      <trkpt lat="48.37842" lon="-4.56785">
        <ele>84.199996948242</ele>
        <time>2022-03-27T07:47:20.000Z</time>
      </trkpt>
      <trkpt lat="48.37841" lon="-4.56778">
        <ele>84.199996948242</ele>
        <time>2022-03-27T07:47:21.000Z</time>
      </trkpt>
      <trkpt lat="48.37839" lon="-4.5676">
        <ele>83.599998474121</ele>
        <time>2022-03-27T07:47:25.000Z</time>
      </trkpt>
      <trkpt lat="48.37839" lon="-4.56757">
        <ele>83.400001525879</ele>
        <time>2022-03-27T07:47:27.000Z</time>
      </trkpt>
      <trkpt lat="48.3784" lon="-4.56753">
        <ele>83.199996948242</ele>
        <time>2022-03-27T07:47:29.000Z</time>
      </trkpt>
      <trkpt lat="48.37844" lon="-4.56748">
        <ele>82.800003051758</ele>
        <time>2022-03-27T07:47:31.000Z</time>
      </trkpt>
      <trkpt lat="48.37865" lon="-4.56743">
        <ele>82</ele>
        <time>2022-03-27T07:47:36.000Z</time>
      </trkpt>
      <trkpt lat="48.37902" lon="-4.56736">
        <ele>80.199996948242</ele>
        <time>2022-03-27T07:47:43.000Z</time>
      </trkpt>
      <trkpt lat="48.37933" lon="-4.56722">
        <ele>78.400001525879</ele>
        <time>2022-03-27T07:47:49.000Z</time>
      </trkpt>
      <trkpt lat="48.3798" lon="-4.567">
        <ele>75</ele>
        <time>2022-03-27T07:47:56.000Z</time>
      </trkpt>
      <trkpt lat="48.38025" lon="-4.56681">
        <ele>72.199996948242</ele>
        <time>2022-03-27T07:48:02.000Z</time>
      </trkpt>
      <trkpt lat="48.38031" lon="-4.56677">
        <ele>72</ele>
        <time>2022-03-27T07:48:03.000Z</time>
      </trkpt>
      <trkpt lat="48.38038" lon="-4.56664">
        <ele>71.400001525879</ele>
        <time>2022-03-27T07:48:05.000Z</time>
      </trkpt>
      <trkpt lat="48.38037" lon="-4.56646">
        <ele>71.199996948242</ele>
        <time>2022-03-27T07:48:07.000Z</time>
      </trkpt>
      <trkpt lat="48.38026" lon="-4.56598">
        <ele>71.199996948242</ele>
        <time>2022-03-27T07:48:13.000Z</time>
      </trkpt>
      <trkpt lat="48.38021" lon="-4.56566">
        <ele>70.599998474121</ele>
        <time>2022-03-27T07:48:17.000Z</time>
      </trkpt>
      <trkpt lat="48.38026" lon="-4.56545">
        <ele>70</ele>
        <time>2022-03-27T07:48:20.000Z</time>
      </trkpt>
      <trkpt lat="48.3803" lon="-4.56539">
        <ele>69.800003051758</ele>
        <time>2022-03-27T07:48:21.000Z</time>
      </trkpt>
      <trkpt lat="48.38039" lon="-4.56527">
        <ele>69.400001525879</ele>
        <time>2022-03-27T07:48:23.000Z</time>
      </trkpt>
      <trkpt lat="48.38047" lon="-4.56515">
        <ele>69</ele>
        <time>2022-03-27T07:48:25.000Z</time>
      </trkpt>
      <trkpt lat="48.38052" lon="-4.56509">
        <ele>68.800003051758</ele>
        <time>2022-03-27T07:48:26.000Z</time>
      </trkpt>
      <trkpt lat="48.3806" lon="-4.56506">
        <ele>68.599998474121</ele>
        <time>2022-03-27T07:48:28.000Z</time>
      </trkpt>
      <trkpt lat="48.38069" lon="-4.56503">
        <ele>68.400001525879</ele>
        <time>2022-03-27T07:48:30.000Z</time>
      </trkpt>
      <trkpt lat="48.38077" lon="-4.56493">
        <ele>68</ele>
        <time>2022-03-27T07:48:32.000Z</time>
      </trkpt>
      <trkpt lat="48.38087" lon="-4.56477">
        <ele>67.599998474121</ele>
        <time>2022-03-27T07:48:34.000Z</time>
      </trkpt>
      <trkpt lat="48.38094" lon="-4.56461">
        <ele>67.199996948242</ele>
        <time>2022-03-27T07:48:36.000Z</time>
      </trkpt>
      <trkpt lat="48.3811" lon="-4.5642">
        <ele>66.400001525879</ele>
        <time>2022-03-27T07:48:41.000Z</time>
      </trkpt>
      <trkpt lat="48.38113" lon="-4.56412">
        <ele>66.199996948242</ele>
        <time>2022-03-27T07:48:42.000Z</time>
      </trkpt>
      <trkpt lat="48.38123" lon="-4.56389">
        <ele>65.599998474121</ele>
        <time>2022-03-27T07:48:45.000Z</time>
      </trkpt>
      <trkpt lat="48.38143" lon="-4.56341">
        <ele>64.599998474121</ele>
        <time>2022-03-27T07:48:51.000Z</time>
      </trkpt>
      <trkpt lat="48.38162" lon="-4.56296">
        <ele>64</ele>
        <time>2022-03-27T07:48:57.000Z</time>
      </trkpt>
      <trkpt lat="48.38179" lon="-4.56245">
        <ele>63</ele>
        <time>2022-03-27T07:49:03.000Z</time>
      </trkpt>
      <trkpt lat="48.38187" lon="-4.56203">
        <ele>62.799999237061</ele>
        <time>2022-03-27T07:49:08.000Z</time>
      </trkpt>
      <trkpt lat="48.38189" lon="-4.56195">
        <ele>62.799999237061</ele>
        <time>2022-03-27T07:49:09.000Z</time>
      </trkpt>
      <trkpt lat="48.38195" lon="-4.5617">
        <ele>62.799999237061</ele>
        <time>2022-03-27T07:49:13.000Z</time>
      </trkpt>
      <trkpt lat="48.38197" lon="-4.56166">
        <ele>62.799999237061</ele>
        <time>2022-03-27T07:49:15.000Z</time>
      </trkpt>
      <trkpt lat="48.38196" lon="-4.56172">
        <ele>62.799999237061</ele>
        <time>2022-03-27T07:49:23.000Z</time>
      </trkpt>
      <trkpt lat="48.38195" lon="-4.56174">
        <ele>62.799999237061</ele>
        <time>2022-03-27T07:49:25.000Z</time>
      </trkpt>
      <trkpt lat="48.382" lon="-4.56159">
        <ele>62.799999237061</ele>
        <time>2022-03-27T07:50:25.000Z</time>
      </trkpt>
      <trkpt lat="48.38201" lon="-4.56155">
        <ele>62.799999237061</ele>
        <time>2022-03-27T07:50:27.000Z</time>
      </trkpt>
      <trkpt lat="48.38205" lon="-4.56136">
        <ele>63</ele>
        <time>2022-03-27T07:50:31.000Z</time>
      </trkpt>
      <trkpt lat="48.38212" lon="-4.56125">
        <ele>62.799999237061</ele>
        <time>2022-03-27T07:50:34.000Z</time>
      </trkpt>
      <trkpt lat="48.38216" lon="-4.56123">
        <ele>62.599998474121</ele>
        <time>2022-03-27T07:50:35.000Z</time>
      </trkpt>
      <trkpt lat="48.38221" lon="-4.56123">
        <ele>62.400001525879</ele>
        <time>2022-03-27T07:50:36.000Z</time>
      </trkpt>
      <trkpt lat="48.38237" lon="-4.56125">
        <ele>62</ele>
        <time>2022-03-27T07:50:39.000Z</time>
      </trkpt>
      <trkpt lat="48.38269" lon="-4.56131">
        <ele>60.599998474121</ele>
        <time>2022-03-27T07:50:45.000Z</time>
      </trkpt>
      <trkpt lat="48.38304" lon="-4.56141">
        <ele>59</ele>
        <time>2022-03-27T07:50:51.000Z</time>
      </trkpt>
      <trkpt lat="48.38316" lon="-4.56146">
        <ele>58.400001525879</ele>
        <time>2022-03-27T07:50:53.000Z</time>
      </trkpt>
      <trkpt lat="48.38332" lon="-4.56154">
        <ele>58</ele>
        <time>2022-03-27T07:50:56.000Z</time>
      </trkpt>
      <trkpt lat="48.38342" lon="-4.56153">
        <ele>57.799999237061</ele>
        <time>2022-03-27T07:50:58.000Z</time>
      </trkpt>
      <trkpt lat="48.38347" lon="-4.5615">
        <ele>57.599998474121</ele>
        <time>2022-03-27T07:50:59.000Z</time>
      </trkpt>
      <trkpt lat="48.38352" lon="-4.56147">
        <ele>57.599998474121</ele>
        <time>2022-03-27T07:51:00.000Z</time>
      </trkpt>
      <trkpt lat="48.38361" lon="-4.56141">
        <ele>57.599998474121</ele>
        <time>2022-03-27T07:51:02.000Z</time>
      </trkpt>
      <trkpt lat="48.38366" lon="-4.56137">
        <ele>57.599998474121</ele>
        <time>2022-03-27T07:51:03.000Z</time>
      </trkpt>
      <trkpt lat="48.38393" lon="-4.56116">
        <ele>57.400001525879</ele>
        <time>2022-03-27T07:51:09.000Z</time>
      </trkpt>
      <trkpt lat="48.38419" lon="-4.56092">
        <ele>57.400001525879</ele>
        <time>2022-03-27T07:51:15.000Z</time>
      </trkpt>
      <trkpt lat="48.38422" lon="-4.56088">
        <ele>57.400001525879</ele>
        <time>2022-03-27T07:51:16.000Z</time>
      </trkpt>
      <trkpt lat="48.38431" lon="-4.5608">
        <ele>57.400001525879</ele>
        <time>2022-03-27T07:51:18.000Z</time>
      </trkpt>
      <trkpt lat="48.38438" lon="-4.56071">
        <ele>57.599998474121</ele>
        <time>2022-03-27T07:51:20.000Z</time>
      </trkpt>
      <trkpt lat="48.38456" lon="-4.56054">
        <ele>58</ele>
        <time>2022-03-27T07:51:24.000Z</time>
      </trkpt>
      <trkpt lat="48.38468" lon="-4.56042">
        <ele>58.400001525879</ele>
        <time>2022-03-27T07:51:27.000Z</time>
      </trkpt>
      <trkpt lat="48.385" lon="-4.56015">
        <ele>59.200000762939</ele>
        <time>2022-03-27T07:51:35.000Z</time>
      </trkpt>
      <trkpt lat="48.38508" lon="-4.56009">
        <ele>59.599998474121</ele>
        <time>2022-03-27T07:51:37.000Z</time>
      </trkpt>
      <trkpt lat="48.38521" lon="-4.56001">
        <ele>59.599998474121</ele>
        <time>2022-03-27T07:51:40.000Z</time>
      </trkpt>
      <trkpt lat="48.38555" lon="-4.55987">
        <ele>59.200000762939</ele>
        <time>2022-03-27T07:51:47.000Z</time>
      </trkpt>
      <trkpt lat="48.38589" lon="-4.55982">
        <ele>58.400001525879</ele>
        <time>2022-03-27T07:51:54.000Z</time>
      </trkpt>
      <trkpt lat="48.38631" lon="-4.55971">
        <ele>58.599998474121</ele>
        <time>2022-03-27T07:52:03.000Z</time>
      </trkpt>
      <trkpt lat="48.38654" lon="-4.55964">
        <ele>58.599998474121</ele>
        <time>2022-03-27T07:52:08.000Z</time>
      </trkpt>
      <trkpt lat="48.38663" lon="-4.55966">
        <ele>58.599998474121</ele>
        <time>2022-03-27T07:52:10.000Z</time>
      </trkpt>
      <trkpt lat="48.38672" lon="-4.55972">
        <ele>58.400001525879</ele>
        <time>2022-03-27T07:52:12.000Z</time>
      </trkpt>
      <trkpt lat="48.38698" lon="-4.55997">
        <ele>57.200000762939</ele>
        <time>2022-03-27T07:52:18.000Z</time>
      </trkpt>
      <trkpt lat="48.38725" lon="-4.56037">
        <ele>57</ele>
        <time>2022-03-27T07:52:25.000Z</time>
      </trkpt>
      <trkpt lat="48.38756" lon="-4.56074">
        <ele>57.200000762939</ele>
        <time>2022-03-27T07:52:32.000Z</time>
      </trkpt>
      <trkpt lat="48.38782" lon="-4.56088">
        <ele>57.200000762939</ele>
        <time>2022-03-27T07:52:37.000Z</time>
      </trkpt>
      <trkpt lat="48.38803" lon="-4.56088">
        <ele>57</ele>
        <time>2022-03-27T07:52:41.000Z</time>
      </trkpt>
      <trkpt lat="48.38814" lon="-4.56087">
        <ele>57</ele>
        <time>2022-03-27T07:52:43.000Z</time>
      </trkpt>
      <trkpt lat="48.38857" lon="-4.5608">
        <ele>56.599998474121</ele>
        <time>2022-03-27T07:52:51.000Z</time>
      </trkpt>
      <trkpt lat="48.38891" lon="-4.56077">
        <ele>55.400001525879</ele>
        <time>2022-03-27T07:52:57.000Z</time>
      </trkpt>
      <trkpt lat="48.38931" lon="-4.5607">
        <ele>54</ele>
        <time>2022-03-27T07:53:04.000Z</time>
      </trkpt>
      <trkpt lat="48.38958" lon="-4.56067">
        <ele>54</ele>
        <time>2022-03-27T07:53:09.000Z</time>
      </trkpt>
      <trkpt lat="48.38972" lon="-4.56063">
        <ele>54</ele>
        <time>2022-03-27T07:53:12.000Z</time>
      </trkpt>
      <trkpt lat="48.38976" lon="-4.5606">
        <ele>54</ele>
        <time>2022-03-27T07:53:13.000Z</time>
      </trkpt>
      <trkpt lat="48.38981" lon="-4.56055">
        <ele>54</ele>
        <time>2022-03-27T07:53:14.000Z</time>
      </trkpt>
      <trkpt lat="48.38993" lon="-4.56038">
        <ele>54</ele>
        <time>2022-03-27T07:53:17.000Z</time>
      </trkpt>
      <trkpt lat="48.39001" lon="-4.56025">
        <ele>53.799999237061</ele>
        <time>2022-03-27T07:53:19.000Z</time>
      </trkpt>
      <trkpt lat="48.39014" lon="-4.5601">
        <ele>53.799999237061</ele>
        <time>2022-03-27T07:53:22.000Z</time>
      </trkpt>
      <trkpt lat="48.39028" lon="-4.55997">
        <ele>53.200000762939</ele>
        <time>2022-03-27T07:53:25.000Z</time>
      </trkpt>
      <trkpt lat="48.39043" lon="-4.55988">
        <ele>52.799999237061</ele>
        <time>2022-03-27T07:53:28.000Z</time>
      </trkpt>
      <trkpt lat="48.39048" lon="-4.55986">
        <ele>52.599998474121</ele>
        <time>2022-03-27T07:53:29.000Z</time>
      </trkpt>
      <trkpt lat="48.39071" lon="-4.55982">
        <ele>52</ele>
        <time>2022-03-27T07:53:33.000Z</time>
      </trkpt>
      <trkpt lat="48.39111" lon="-4.55976">
        <ele>51.400001525879</ele>
        <time>2022-03-27T07:53:40.000Z</time>
      </trkpt>
      <trkpt lat="48.39153" lon="-4.55971">
        <ele>50.200000762939</ele>
        <time>2022-03-27T07:53:47.000Z</time>
      </trkpt>
      <trkpt lat="48.39171" lon="-4.55966">
        <ele>49.599998474121</ele>
        <time>2022-03-27T07:53:50.000Z</time>
      </trkpt>
      <trkpt lat="48.39183" lon="-4.55956">
        <ele>49</ele>
        <time>2022-03-27T07:53:52.000Z</time>
      </trkpt>
      <trkpt lat="48.39223" lon="-4.55929">
        <ele>47.400001525879</ele>
        <time>2022-03-27T07:53:58.000Z</time>
      </trkpt>
      <trkpt lat="48.39243" lon="-4.55914">
        <ele>46.599998474121</ele>
        <time>2022-03-27T07:54:01.000Z</time>
      </trkpt>
      <trkpt lat="48.39251" lon="-4.55899">
        <ele>46</ele>
        <time>2022-03-27T07:54:03.000Z</time>
      </trkpt>
      <trkpt lat="48.39253" lon="-4.55879">
        <ele>45.599998474121</ele>
        <time>2022-03-27T07:54:05.000Z</time>
      </trkpt>
      <trkpt lat="48.39251" lon="-4.5587">
        <ele>45.599998474121</ele>
        <time>2022-03-27T07:54:06.000Z</time>
      </trkpt>
      <trkpt lat="48.39248" lon="-4.55862">
        <ele>45.400001525879</ele>
        <time>2022-03-27T07:54:07.000Z</time>
      </trkpt>
      <trkpt lat="48.39238" lon="-4.55829">
        <ele>44.599998474121</ele>
        <time>2022-03-27T07:54:11.000Z</time>
      </trkpt>
      <trkpt lat="48.39235" lon="-4.55812">
        <ele>44</ele>
        <time>2022-03-27T07:54:13.000Z</time>
      </trkpt>
      <trkpt lat="48.39235" lon="-4.55786">
        <ele>43.200000762939</ele>
        <time>2022-03-27T07:54:16.000Z</time>
      </trkpt>
      <trkpt lat="48.39237" lon="-4.55771">
        <ele>42.799999237061</ele>
        <time>2022-03-27T07:54:18.000Z</time>
      </trkpt>
      <trkpt lat="48.3924" lon="-4.5576">
        <ele>42.599998474121</ele>
        <time>2022-03-27T07:54:20.000Z</time>
      </trkpt>
      <trkpt lat="48.39245" lon="-4.55749">
        <ele>42.200000762939</ele>
        <time>2022-03-27T07:54:24.000Z</time>
      </trkpt>
      <trkpt lat="48.39248" lon="-4.55744">
        <ele>42.200000762939</ele>
        <time>2022-03-27T07:54:27.000Z</time>
      </trkpt>
      <trkpt lat="48.39248" lon="-4.55742">
        <ele>42.200000762939</ele>
        <time>2022-03-27T07:54:28.000Z</time>
      </trkpt>
      <trkpt lat="48.39244" lon="-4.55725">
        <ele>42</ele>
        <time>2022-03-27T07:54:33.000Z</time>
      </trkpt>
      <trkpt lat="48.39243" lon="-4.55701">
        <ele>42</ele>
        <time>2022-03-27T07:54:37.000Z</time>
      </trkpt>
      <trkpt lat="48.39243" lon="-4.55693">
        <ele>42.200000762939</ele>
        <time>2022-03-27T07:54:38.000Z</time>
      </trkpt>
      <trkpt lat="48.39242" lon="-4.55678">
        <ele>42.400001525879</ele>
        <time>2022-03-27T07:54:40.000Z</time>
      </trkpt>
      <trkpt lat="48.39239" lon="-4.55654">
        <ele>42.799999237061</ele>
        <time>2022-03-27T07:54:43.000Z</time>
      </trkpt>
      <trkpt lat="48.39234" lon="-4.55606">
        <ele>43.200000762939</ele>
        <time>2022-03-27T07:54:49.000Z</time>
      </trkpt>
      <trkpt lat="48.39231" lon="-4.55558">
        <ele>43</ele>
        <time>2022-03-27T07:54:55.000Z</time>
      </trkpt>
      <trkpt lat="48.3923" lon="-4.55533">
        <ele>42.400001525879</ele>
        <time>2022-03-27T07:54:58.000Z</time>
      </trkpt>
      <trkpt lat="48.39228" lon="-4.55516">
        <ele>42.400001525879</ele>
        <time>2022-03-27T07:55:00.000Z</time>
      </trkpt>
      <trkpt lat="48.39226" lon="-4.55482">
        <ele>42.400001525879</ele>
        <time>2022-03-27T07:55:04.000Z</time>
      </trkpt>
      <trkpt lat="48.39224" lon="-4.55474">
        <ele>42.200000762939</ele>
        <time>2022-03-27T07:55:05.000Z</time>
      </trkpt>
      <trkpt lat="48.39222" lon="-4.55466">
        <ele>42.200000762939</ele>
        <time>2022-03-27T07:55:06.000Z</time>
      </trkpt>
      <trkpt lat="48.39214" lon="-4.55454">
        <ele>42</ele>
        <time>2022-03-27T07:55:08.000Z</time>
      </trkpt>
      <trkpt lat="48.39195" lon="-4.55439">
        <ele>42.200000762939</ele>
        <time>2022-03-27T07:55:12.000Z</time>
      </trkpt>
      <trkpt lat="48.39191" lon="-4.55437">
        <ele>42.200000762939</ele>
        <time>2022-03-27T07:55:13.000Z</time>
      </trkpt>
      <trkpt lat="48.39176" lon="-4.55428">
        <ele>42.200000762939</ele>
        <time>2022-03-27T07:55:16.000Z</time>
      </trkpt>
      <trkpt lat="48.39166" lon="-4.55423">
        <ele>42.599998474121</ele>
        <time>2022-03-27T07:55:18.000Z</time>
      </trkpt>
      <trkpt lat="48.39153" lon="-4.55419">
        <ele>43</ele>
        <time>2022-03-27T07:55:21.000Z</time>
      </trkpt>
      <trkpt lat="48.39144" lon="-4.55417">
        <ele>43.400001525879</ele>
        <time>2022-03-27T07:55:23.000Z</time>
      </trkpt>
      <trkpt lat="48.39133" lon="-4.55416">
        <ele>43.799999237061</ele>
        <time>2022-03-27T07:55:25.000Z</time>
      </trkpt>
      <trkpt lat="48.39101" lon="-4.55397">
        <ele>45.599998474121</ele>
        <time>2022-03-27T07:55:31.000Z</time>
      </trkpt>
      <trkpt lat="48.39091" lon="-4.55387">
        <ele>46</ele>
        <time>2022-03-27T07:55:33.000Z</time>
      </trkpt>
      <trkpt lat="48.39084" lon="-4.55378">
        <ele>46.200000762939</ele>
        <time>2022-03-27T07:55:35.000Z</time>
      </trkpt>
      <trkpt lat="48.3908" lon="-4.55374">
        <ele>46</ele>
        <time>2022-03-27T07:55:36.000Z</time>
      </trkpt>
      <trkpt lat="48.39066" lon="-4.55355">
        <ele>46.200000762939</ele>
        <time>2022-03-27T07:55:40.000Z</time>
      </trkpt>
      <trkpt lat="48.39056" lon="-4.5534">
        <ele>46.400001525879</ele>
        <time>2022-03-27T07:55:43.000Z</time>
      </trkpt>
      <trkpt lat="48.39046" lon="-4.55322">
        <ele>46.599998474121</ele>
        <time>2022-03-27T07:55:47.000Z</time>
      </trkpt>
      <trkpt lat="48.39033" lon="-4.55287">
        <ele>47</ele>
        <time>2022-03-27T07:55:54.000Z</time>
      </trkpt>
      <trkpt lat="48.39029" lon="-4.55252">
        <ele>47.200000762939</ele>
        <time>2022-03-27T07:56:00.000Z</time>
      </trkpt>
      <trkpt lat="48.39028" lon="-4.55246">
        <ele>47.200000762939</ele>
        <time>2022-03-27T07:56:01.000Z</time>
      </trkpt>
      <trkpt lat="48.39026" lon="-4.55216">
        <ele>47.200000762939</ele>
        <time>2022-03-27T07:56:06.000Z</time>
      </trkpt>
      <trkpt lat="48.39023" lon="-4.55183">
        <ele>47.400001525879</ele>
        <time>2022-03-27T07:56:12.000Z</time>
      </trkpt>
      <trkpt lat="48.39023" lon="-4.55152">
        <ele>47.799999237061</ele>
        <time>2022-03-27T07:56:17.000Z</time>
      </trkpt>
      <trkpt lat="48.39023" lon="-4.55146">
        <ele>47.799999237061</ele>
        <time>2022-03-27T07:56:18.000Z</time>
      </trkpt>
      <trkpt lat="48.39024" lon="-4.55128">
        <ele>48</ele>
        <time>2022-03-27T07:56:21.000Z</time>
      </trkpt>
      <trkpt lat="48.39021" lon="-4.55103">
        <ele>48.400001525879</ele>
        <time>2022-03-27T07:56:25.000Z</time>
      </trkpt>
      <trkpt lat="48.39014" lon="-4.55072">
        <ele>49</ele>
        <time>2022-03-27T07:56:30.000Z</time>
      </trkpt>
      <trkpt lat="48.39012" lon="-4.55067">
        <ele>49.200000762939</ele>
        <time>2022-03-27T07:56:31.000Z</time>
      </trkpt>
      <trkpt lat="48.38996" lon="-4.55033">
        <ele>49.799999237061</ele>
        <time>2022-03-27T07:56:37.000Z</time>
      </trkpt>
      <trkpt lat="48.38981" lon="-4.55008">
        <ele>50</ele>
        <time>2022-03-27T07:56:42.000Z</time>
      </trkpt>
      <trkpt lat="48.38979" lon="-4.55003">
        <ele>50</ele>
        <time>2022-03-27T07:56:43.000Z</time>
      </trkpt>
      <trkpt lat="48.38957" lon="-4.54964">
        <ele>51.799999237061</ele>
        <time>2022-03-27T07:56:51.000Z</time>
      </trkpt>
      <trkpt lat="48.38954" lon="-4.5494">
        <ele>53</ele>
        <time>2022-03-27T07:56:56.000Z</time>
      </trkpt>
      <trkpt lat="48.38967" lon="-4.54922">
        <ele>53.599998474121</ele>
        <time>2022-03-27T07:57:01.000Z</time>
      </trkpt>
      <trkpt lat="48.38984" lon="-4.54903">
        <ele>54</ele>
        <time>2022-03-27T07:57:07.000Z</time>
      </trkpt>
      <trkpt lat="48.39002" lon="-4.54877">
        <ele>54.799999237061</ele>
        <time>2022-03-27T07:57:14.000Z</time>
      </trkpt>
      <trkpt lat="48.39018" lon="-4.54857">
        <ele>55.200000762939</ele>
        <time>2022-03-27T07:57:20.000Z</time>
      </trkpt>
      <trkpt lat="48.39038" lon="-4.54832">
        <ele>55.200000762939</ele>
        <time>2022-03-27T07:57:27.000Z</time>
      </trkpt>
      <trkpt lat="48.39064" lon="-4.5481">
        <ele>55.200000762939</ele>
        <time>2022-03-27T07:57:35.000Z</time>
      </trkpt>
      <trkpt lat="48.39082" lon="-4.54797">
        <ele>55</ele>
        <time>2022-03-27T07:57:40.000Z</time>
      </trkpt>
      <trkpt lat="48.3909" lon="-4.54791">
        <ele>55</ele>
        <time>2022-03-27T07:57:42.000Z</time>
      </trkpt>
      <trkpt lat="48.39118" lon="-4.54771">
        <ele>54.599998474121</ele>
        <time>2022-03-27T07:57:49.000Z</time>
      </trkpt>
      <trkpt lat="48.39159" lon="-4.54742">
        <ele>53.599998474121</ele>
        <time>2022-03-27T07:57:58.000Z</time>
      </trkpt>
      <trkpt lat="48.39178" lon="-4.54728">
        <ele>53.200000762939</ele>
        <time>2022-03-27T07:58:02.000Z</time>
      </trkpt>
      <trkpt lat="48.39189" lon="-4.54726">
        <ele>52.599998474121</ele>
        <time>2022-03-27T07:58:04.000Z</time>
      </trkpt>
      <trkpt lat="48.39194" lon="-4.54727">
        <ele>52.200000762939</ele>
        <time>2022-03-27T07:58:05.000Z</time>
      </trkpt>
      <trkpt lat="48.392" lon="-4.5473">
        <ele>51.799999237061</ele>
        <time>2022-03-27T07:58:06.000Z</time>
      </trkpt>
      <trkpt lat="48.39214" lon="-4.54745">
        <ele>50.400001525879</ele>
        <time>2022-03-27T07:58:09.000Z</time>
      </trkpt>
      <trkpt lat="48.39248" lon="-4.54782">
        <ele>49.400001525879</ele>
        <time>2022-03-27T07:58:16.000Z</time>
      </trkpt>
      <trkpt lat="48.3928" lon="-4.54819">
        <ele>48.400001525879</ele>
        <time>2022-03-27T07:58:23.000Z</time>
      </trkpt>
      <trkpt lat="48.3931" lon="-4.54849">
        <ele>47.599998474121</ele>
        <time>2022-03-27T07:58:29.000Z</time>
      </trkpt>
      <trkpt lat="48.39316" lon="-4.54852">
        <ele>47.599998474121</ele>
        <time>2022-03-27T07:58:30.000Z</time>
      </trkpt>
      <trkpt lat="48.39322" lon="-4.54855">
        <ele>47.400001525879</ele>
        <time>2022-03-27T07:58:31.000Z</time>
      </trkpt>
      <trkpt lat="48.39339" lon="-4.54858">
        <ele>47.200000762939</ele>
        <time>2022-03-27T07:58:34.000Z</time>
      </trkpt>
      <trkpt lat="48.39369" lon="-4.54864">
        <ele>46.799999237061</ele>
        <time>2022-03-27T07:58:40.000Z</time>
      </trkpt>
      <trkpt lat="48.39405" lon="-4.54872">
        <ele>46.400001525879</ele>
        <time>2022-03-27T07:58:47.000Z</time>
      </trkpt>
      <trkpt lat="48.39431" lon="-4.54878">
        <ele>46.200000762939</ele>
        <time>2022-03-27T07:58:52.000Z</time>
      </trkpt>
      <trkpt lat="48.39458" lon="-4.54882">
        <ele>46.400001525879</ele>
        <time>2022-03-27T07:58:58.000Z</time>
      </trkpt>
      <trkpt lat="48.39481" lon="-4.54886">
        <ele>46.799999237061</ele>
        <time>2022-03-27T07:59:03.000Z</time>
      </trkpt>
      <trkpt lat="48.39504" lon="-4.54897">
        <ele>47</ele>
        <time>2022-03-27T07:59:08.000Z</time>
      </trkpt>
      <trkpt lat="48.3951" lon="-4.549">
        <ele>47</ele>
        <time>2022-03-27T07:59:09.000Z</time>
      </trkpt>
      <trkpt lat="48.39528" lon="-4.54907">
        <ele>46.599998474121</ele>
        <time>2022-03-27T07:59:12.000Z</time>
      </trkpt>
      <trkpt lat="48.3957" lon="-4.54927">
        <ele>45</ele>
        <time>2022-03-27T07:59:18.000Z</time>
      </trkpt>
      <trkpt lat="48.3961" lon="-4.54948">
        <ele>43.400001525879</ele>
        <time>2022-03-27T07:59:23.000Z</time>
      </trkpt>
      <trkpt lat="48.39654" lon="-4.54974">
        <ele>39.599998474121</ele>
        <time>2022-03-27T07:59:29.000Z</time>
      </trkpt>
      <trkpt lat="48.39675" lon="-4.54984">
        <ele>38.799999237061</ele>
        <time>2022-03-27T07:59:32.000Z</time>
      </trkpt>
      <trkpt lat="48.39688" lon="-4.54988">
        <ele>38.400001525879</ele>
        <time>2022-03-27T07:59:34.000Z</time>
      </trkpt>
      <trkpt lat="48.39706" lon="-4.54993">
        <ele>38</ele>
        <time>2022-03-27T07:59:37.000Z</time>
      </trkpt>
      <trkpt lat="48.3972" lon="-4.54993">
        <ele>37.599998474121</ele>
        <time>2022-03-27T07:59:40.000Z</time>
      </trkpt>
      <trkpt lat="48.39735" lon="-4.54994">
        <ele>37.599998474121</ele>
        <time>2022-03-27T07:59:44.000Z</time>
      </trkpt>
      <trkpt lat="48.39749" lon="-4.54994">
        <ele>37.599998474121</ele>
        <time>2022-03-27T07:59:48.000Z</time>
      </trkpt>
      <trkpt lat="48.39765" lon="-4.54992">
        <ele>37.400001525879</ele>
        <time>2022-03-27T07:59:53.000Z</time>
      </trkpt>
      <trkpt lat="48.39768" lon="-4.54992">
        <ele>37.599998474121</ele>
        <time>2022-03-27T07:59:54.000Z</time>
      </trkpt>
      <trkpt lat="48.39784" lon="-4.54995">
        <ele>37.599998474121</ele>
        <time>2022-03-27T07:59:59.000Z</time>
      </trkpt>
      <trkpt lat="48.39807" lon="-4.54999">
        <ele>37.599998474121</ele>
        <time>2022-03-27T08:00:04.000Z</time>
      </trkpt>
      <trkpt lat="48.39827" lon="-4.55001">
        <ele>37.599998474121</ele>
        <time>2022-03-27T08:00:07.000Z</time>
      </trkpt>
      <trkpt lat="48.39832" lon="-4.55001">
        <ele>37.599998474121</ele>
        <time>2022-03-27T08:00:08.000Z</time>
      </trkpt>
      <trkpt lat="48.39854" lon="-4.55">
        <ele>37.599998474121</ele>
        <time>2022-03-27T08:00:12.000Z</time>
      </trkpt>
      <trkpt lat="48.3988" lon="-4.54999">
        <ele>37.200000762939</ele>
        <time>2022-03-27T08:00:17.000Z</time>
      </trkpt>
      <trkpt lat="48.39888" lon="-4.55">
        <ele>37</ele>
        <time>2022-03-27T08:00:19.000Z</time>
      </trkpt>
      <trkpt lat="48.39895" lon="-4.55005">
        <ele>36.599998474121</ele>
        <time>2022-03-27T08:00:21.000Z</time>
      </trkpt>
      <trkpt lat="48.39905" lon="-4.55023">
        <ele>36.200000762939</ele>
        <time>2022-03-27T08:00:25.000Z</time>
      </trkpt>
      <trkpt lat="48.39911" lon="-4.55039">
        <ele>35.599998474121</ele>
        <time>2022-03-27T08:00:31.000Z</time>
      </trkpt>
      <trkpt lat="48.39913" lon="-4.55058">
        <ele>35.200000762939</ele>
        <time>2022-03-27T08:00:34.000Z</time>
      </trkpt>
      <trkpt lat="48.39918" lon="-4.55089">
        <ele>35.200000762939</ele>
        <time>2022-03-27T08:00:39.000Z</time>
      </trkpt>
      <trkpt lat="48.39921" lon="-4.55092">
        <ele>35.200000762939</ele>
        <time>2022-03-27T08:00:41.000Z</time>
      </trkpt>
      <trkpt lat="48.39922" lon="-4.55092">
        <ele>35.200000762939</ele>
        <time>2022-03-27T08:00:42.000Z</time>
      </trkpt>
      <trkpt lat="48.39927" lon="-4.55092">
        <ele>35</ele>
        <time>2022-03-27T08:00:45.000Z</time>
      </trkpt>
      <trkpt lat="48.3993" lon="-4.55093">
        <ele>35</ele>
        <time>2022-03-27T08:00:46.000Z</time>
      </trkpt>
      <trkpt lat="48.39934" lon="-4.551">
        <ele>35</ele>
        <time>2022-03-27T08:00:49.000Z</time>
      </trkpt>
      <trkpt lat="48.39933" lon="-4.55102">
        <ele>35</ele>
        <time>2022-03-27T08:00:50.000Z</time>
      </trkpt>
      <trkpt lat="48.39926" lon="-4.5511">
        <ele>35</ele>
        <time>2022-03-27T08:00:54.000Z</time>
      </trkpt>
      <trkpt lat="48.39923" lon="-4.55112">
        <ele>35.200000762939</ele>
        <time>2022-03-27T08:00:56.000Z</time>
      </trkpt>
      <trkpt lat="48.3992" lon="-4.55114">
        <ele>35.200000762939</ele>
        <time>2022-03-27T08:00:57.000Z</time>
      </trkpt>
      <trkpt lat="48.39908" lon="-4.55127">
        <ele>35.200000762939</ele>
        <time>2022-03-27T08:01:01.000Z</time>
      </trkpt>
      <trkpt lat="48.39899" lon="-4.55143">
        <ele>35</ele>
        <time>2022-03-27T08:01:05.000Z</time>
      </trkpt>
      <trkpt lat="48.39885" lon="-4.55164">
        <ele>35</ele>
        <time>2022-03-27T08:01:10.000Z</time>
      </trkpt>
      <trkpt lat="48.39868" lon="-4.55184">
        <ele>35</ele>
        <time>2022-03-27T08:01:15.000Z</time>
      </trkpt>
      <trkpt lat="48.3985" lon="-4.55204">
        <ele>35</ele>
        <time>2022-03-27T08:01:21.000Z</time>
      </trkpt>
      <trkpt lat="48.39835" lon="-4.55212">
        <ele>34.400001525879</ele>
        <time>2022-03-27T08:01:25.000Z</time>
      </trkpt>
      <trkpt lat="48.39817" lon="-4.55219">
        <ele>34.200000762939</ele>
        <time>2022-03-27T08:01:30.000Z</time>
      </trkpt>
      <trkpt lat="48.39805" lon="-4.55226">
        <ele>33.799999237061</ele>
        <time>2022-03-27T08:01:35.000Z</time>
      </trkpt>
      <trkpt lat="48.39799" lon="-4.55223">
        <ele>34</ele>
        <time>2022-03-27T08:01:38.000Z</time>
      </trkpt>
      <trkpt lat="48.39797" lon="-4.55224">
        <ele>33.799999237061</ele>
        <time>2022-03-27T08:01:39.000Z</time>
      </trkpt>
      <trkpt lat="48.39789" lon="-4.55231">
        <ele>33.599998474121</ele>
        <time>2022-03-27T08:01:43.000Z</time>
      </trkpt>
      <trkpt lat="48.39786" lon="-4.55235">
        <ele>33.400001525879</ele>
        <time>2022-03-27T08:01:44.000Z</time>
      </trkpt>
      <trkpt lat="48.39774" lon="-4.55243">
        <ele>33</ele>
        <time>2022-03-27T08:01:48.000Z</time>
      </trkpt>
      <trkpt lat="48.39764" lon="-4.5525">
        <ele>32.599998474121</ele>
        <time>2022-03-27T08:01:52.000Z</time>
      </trkpt>
      <trkpt lat="48.39754" lon="-4.55259">
        <ele>32.400001525879</ele>
        <time>2022-03-27T08:01:56.000Z</time>
      </trkpt>
      <trkpt lat="48.39748" lon="-4.55256">
        <ele>32.599998474121</ele>
        <time>2022-03-27T08:01:59.000Z</time>
      </trkpt>
      <trkpt lat="48.39745" lon="-4.55258">
        <ele>32.400001525879</ele>
        <time>2022-03-27T08:02:01.000Z</time>
      </trkpt>
      <trkpt lat="48.39739" lon="-4.55275">
        <ele>31.799999237061</ele>
        <time>2022-03-27T08:02:05.000Z</time>
      </trkpt>
      <trkpt lat="48.39735" lon="-4.55288">
        <ele>31.39999961853</ele>
        <time>2022-03-27T08:02:08.000Z</time>
      </trkpt>
      <trkpt lat="48.39733" lon="-4.55292">
        <ele>31.39999961853</ele>
        <time>2022-03-27T08:02:09.000Z</time>
      </trkpt>
      <trkpt lat="48.39732" lon="-4.55296">
        <ele>31.60000038147</ele>
        <time>2022-03-27T08:02:11.000Z</time>
      </trkpt>
      <trkpt lat="48.39729" lon="-4.55308">
        <ele>31.799999237061</ele>
        <time>2022-03-27T08:02:13.000Z</time>
      </trkpt>
      <trkpt lat="48.39727" lon="-4.5532">
        <ele>31.799999237061</ele>
        <time>2022-03-27T08:02:15.000Z</time>
      </trkpt>
      <trkpt lat="48.39728" lon="-4.55329">
        <ele>31.799999237061</ele>
        <time>2022-03-27T08:02:17.000Z</time>
      </trkpt>
      <trkpt lat="48.39728" lon="-4.55332">
        <ele>31.799999237061</ele>
        <time>2022-03-27T08:02:18.000Z</time>
      </trkpt>
      <trkpt lat="48.39728" lon="-4.55346">
        <ele>31.799999237061</ele>
        <time>2022-03-27T08:02:21.000Z</time>
      </trkpt>
      <trkpt lat="48.39731" lon="-4.55363">
        <ele>31.799999237061</ele>
        <time>2022-03-27T08:02:25.000Z</time>
      </trkpt>
      <trkpt lat="48.3974" lon="-4.55381">
        <ele>31.200000762939</ele>
        <time>2022-03-27T08:02:30.000Z</time>
      </trkpt>
      <trkpt lat="48.39748" lon="-4.55398">
        <ele>30.60000038147</ele>
        <time>2022-03-27T08:02:34.000Z</time>
      </trkpt>
      <trkpt lat="48.39752" lon="-4.55413">
        <ele>30.39999961853</ele>
        <time>2022-03-27T08:02:38.000Z</time>
      </trkpt>
      <trkpt lat="48.39756" lon="-4.55413">
        <ele>30.39999961853</ele>
        <time>2022-03-27T08:02:42.000Z</time>
      </trkpt>
      <trkpt lat="48.39757" lon="-4.5541">
        <ele>30.39999961853</ele>
        <time>2022-03-27T08:02:43.000Z</time>
      </trkpt>
      <trkpt lat="48.39759" lon="-4.55402">
        <ele>30.60000038147</ele>
        <time>2022-03-27T08:02:45.000Z</time>
      </trkpt>
      <trkpt lat="48.39763" lon="-4.55394">
        <ele>30.60000038147</ele>
        <time>2022-03-27T08:02:47.000Z</time>
      </trkpt>
      <trkpt lat="48.39769" lon="-4.55386">
        <ele>31</ele>
        <time>2022-03-27T08:02:51.000Z</time>
      </trkpt>
      <trkpt lat="48.39774" lon="-4.55379">
        <ele>31.200000762939</ele>
        <time>2022-03-27T08:02:55.000Z</time>
      </trkpt>
      <trkpt lat="48.39776" lon="-4.55374">
        <ele>31.39999961853</ele>
        <time>2022-03-27T08:02:57.000Z</time>
      </trkpt>
      <trkpt lat="48.39779" lon="-4.55365">
        <ele>31.39999961853</ele>
        <time>2022-03-27T08:03:01.000Z</time>
      </trkpt>
      <trkpt lat="48.3979" lon="-4.55352">
        <ele>31.799999237061</ele>
        <time>2022-03-27T08:03:06.000Z</time>
      </trkpt>
      <trkpt lat="48.39794" lon="-4.55347">
        <ele>31.799999237061</ele>
        <time>2022-03-27T08:03:08.000Z</time>
      </trkpt>
      <trkpt lat="48.39796" lon="-4.55338">
        <ele>31.799999237061</ele>
        <time>2022-03-27T08:03:11.000Z</time>
      </trkpt>
      <trkpt lat="48.39806" lon="-4.55314">
        <ele>32</ele>
        <time>2022-03-27T08:03:16.000Z</time>
      </trkpt>
      <trkpt lat="48.39819" lon="-4.55291">
        <ele>32.400001525879</ele>
        <time>2022-03-27T08:03:20.000Z</time>
      </trkpt>
      <trkpt lat="48.39822" lon="-4.55287">
        <ele>32.400001525879</ele>
        <time>2022-03-27T08:03:21.000Z</time>
      </trkpt>
      <trkpt lat="48.39835" lon="-4.55275">
        <ele>33</ele>
        <time>2022-03-27T08:03:25.000Z</time>
      </trkpt>
      <trkpt lat="48.39838" lon="-4.55274">
        <ele>33</ele>
        <time>2022-03-27T08:03:26.000Z</time>
      </trkpt>
      <trkpt lat="48.39842" lon="-4.55273">
        <ele>33.200000762939</ele>
        <time>2022-03-27T08:03:28.000Z</time>
      </trkpt>
      <trkpt lat="48.39845" lon="-4.5527">
        <ele>33.200000762939</ele>
        <time>2022-03-27T08:03:30.000Z</time>
      </trkpt>
      <trkpt lat="48.39847" lon="-4.55269">
        <ele>33.400001525879</ele>
        <time>2022-03-27T08:03:31.000Z</time>
      </trkpt>
      <trkpt lat="48.39854" lon="-4.55262">
        <ele>33.599998474121</ele>
        <time>2022-03-27T08:03:36.000Z</time>
      </trkpt>
      <trkpt lat="48.39862" lon="-4.55251">
        <ele>34</ele>
        <time>2022-03-27T08:03:41.000Z</time>
      </trkpt>
      <trkpt lat="48.39864" lon="-4.55251">
        <ele>34</ele>
        <time>2022-03-27T08:03:43.000Z</time>
      </trkpt>
      <trkpt lat="48.39871" lon="-4.55244">
        <ele>34.200000762939</ele>
        <time>2022-03-27T08:03:53.000Z</time>
      </trkpt>
      <trkpt lat="48.39873" lon="-4.55243">
        <ele>34.200000762939</ele>
        <time>2022-03-27T08:03:54.000Z</time>
      </trkpt>
      <trkpt lat="48.39876" lon="-4.55242">
        <ele>34.400001525879</ele>
        <time>2022-03-27T08:03:55.000Z</time>
      </trkpt>
      <trkpt lat="48.39884" lon="-4.55234">
        <ele>34.599998474121</ele>
        <time>2022-03-27T08:03:58.000Z</time>
      </trkpt>
      <trkpt lat="48.39898" lon="-4.55223">
        <ele>35</ele>
        <time>2022-03-27T08:04:03.000Z</time>
      </trkpt>
      <trkpt lat="48.39903" lon="-4.55219">
        <ele>35.200000762939</ele>
        <time>2022-03-27T08:04:05.000Z</time>
      </trkpt>
      <trkpt lat="48.39909" lon="-4.55218">
        <ele>35.400001525879</ele>
        <time>2022-03-27T08:04:07.000Z</time>
      </trkpt>
      <trkpt lat="48.39919" lon="-4.55215">
        <ele>35.599998474121</ele>
        <time>2022-03-27T08:04:11.000Z</time>
      </trkpt>
      <trkpt lat="48.39923" lon="-4.55216">
        <ele>35.799999237061</ele>
        <time>2022-03-27T08:04:13.000Z</time>
      </trkpt>
      <trkpt lat="48.3993" lon="-4.55216">
        <ele>36</ele>
        <time>2022-03-27T08:04:16.000Z</time>
      </trkpt>
      <trkpt lat="48.39936" lon="-4.55217">
        <ele>36.200000762939</ele>
        <time>2022-03-27T08:04:20.000Z</time>
      </trkpt>
      <trkpt lat="48.39938" lon="-4.55219">
        <ele>36.400001525879</ele>
        <time>2022-03-27T08:04:21.000Z</time>
      </trkpt>
      <trkpt lat="48.39941" lon="-4.55216">
        <ele>36.400001525879</ele>
        <time>2022-03-27T08:04:23.000Z</time>
      </trkpt>
      <trkpt lat="48.39944" lon="-4.55209">
        <ele>36.400001525879</ele>
        <time>2022-03-27T08:04:25.000Z</time>
      </trkpt>
      <trkpt lat="48.39949" lon="-4.55202">
        <ele>36.400001525879</ele>
        <time>2022-03-27T08:04:27.000Z</time>
      </trkpt>
      <trkpt lat="48.39952" lon="-4.55197">
        <ele>36.400001525879</ele>
        <time>2022-03-27T08:04:29.000Z</time>
      </trkpt>
      <trkpt lat="48.39959" lon="-4.55178">
        <ele>36.200000762939</ele>
        <time>2022-03-27T08:04:34.000Z</time>
      </trkpt>
      <trkpt lat="48.39963" lon="-4.55172">
        <ele>36</ele>
        <time>2022-03-27T08:04:35.000Z</time>
      </trkpt>
      <trkpt lat="48.39974" lon="-4.55162">
        <ele>36</ele>
        <time>2022-03-27T08:04:37.000Z</time>
      </trkpt>
      <trkpt lat="48.39987" lon="-4.55158">
        <ele>36.400001525879</ele>
        <time>2022-03-27T08:04:39.000Z</time>
      </trkpt>
      <trkpt lat="48.39995" lon="-4.55157">
        <ele>36.400001525879</ele>
        <time>2022-03-27T08:04:40.000Z</time>
      </trkpt>
      <trkpt lat="48.40003" lon="-4.55154">
        <ele>36.599998474121</ele>
        <time>2022-03-27T08:04:41.000Z</time>
      </trkpt>
      <trkpt lat="48.40015" lon="-4.55144">
        <ele>36.599998474121</ele>
        <time>2022-03-27T08:04:43.000Z</time>
      </trkpt>
      <trkpt lat="48.40025" lon="-4.55134">
        <ele>35.799999237061</ele>
        <time>2022-03-27T08:04:45.000Z</time>
      </trkpt>
      <trkpt lat="48.40031" lon="-4.5513">
        <ele>35.400001525879</ele>
        <time>2022-03-27T08:04:46.000Z</time>
      </trkpt>
      <trkpt lat="48.40036" lon="-4.55126">
        <ele>35</ele>
        <time>2022-03-27T08:04:47.000Z</time>
      </trkpt>
      <trkpt lat="48.40046" lon="-4.55121">
        <ele>34.200000762939</ele>
        <time>2022-03-27T08:04:49.000Z</time>
      </trkpt>
      <trkpt lat="48.40052" lon="-4.55119">
        <ele>33.799999237061</ele>
        <time>2022-03-27T08:04:50.000Z</time>
      </trkpt>
      <trkpt lat="48.40067" lon="-4.55121">
        <ele>33</ele>
        <time>2022-03-27T08:04:54.000Z</time>
      </trkpt>
      <trkpt lat="48.40083" lon="-4.55126">
        <ele>32.200000762939</ele>
        <time>2022-03-27T08:04:59.000Z</time>
      </trkpt>
      <trkpt lat="48.40097" lon="-4.5513">
        <ele>31.799999237061</ele>
        <time>2022-03-27T08:05:03.000Z</time>
      </trkpt>
      <trkpt lat="48.40113" lon="-4.55141">
        <ele>32</ele>
        <time>2022-03-27T08:05:08.000Z</time>
      </trkpt>
      <trkpt lat="48.40116" lon="-4.55142">
        <ele>32</ele>
        <time>2022-03-27T08:05:09.000Z</time>
      </trkpt>
      <trkpt lat="48.40123" lon="-4.55143">
        <ele>32</ele>
        <time>2022-03-27T08:05:12.000Z</time>
      </trkpt>
      <trkpt lat="48.40126" lon="-4.55144">
        <ele>32</ele>
        <time>2022-03-27T08:05:13.000Z</time>
      </trkpt>
      <trkpt lat="48.40131" lon="-4.55143">
        <ele>31.799999237061</ele>
        <time>2022-03-27T08:05:15.000Z</time>
      </trkpt>
      <trkpt lat="48.40136" lon="-4.55142">
        <ele>31.60000038147</ele>
        <time>2022-03-27T08:05:17.000Z</time>
      </trkpt>
      <trkpt lat="48.40145" lon="-4.55141">
        <ele>31.200000762939</ele>
        <time>2022-03-27T08:05:22.000Z</time>
      </trkpt>
      <trkpt lat="48.40149" lon="-4.55141">
        <ele>31.200000762939</ele>
        <time>2022-03-27T08:05:24.000Z</time>
      </trkpt>
      <trkpt lat="48.40156" lon="-4.55142">
        <ele>31.200000762939</ele>
        <time>2022-03-27T08:05:27.000Z</time>
      </trkpt>
      <trkpt lat="48.40158" lon="-4.55142">
        <ele>31</ele>
        <time>2022-03-27T08:05:28.000Z</time>
      </trkpt>
      <trkpt lat="48.4016" lon="-4.55137">
        <ele>30.799999237061</ele>
        <time>2022-03-27T08:05:30.000Z</time>
      </trkpt>
      <trkpt lat="48.40159" lon="-4.55133">
        <ele>30.39999961853</ele>
        <time>2022-03-27T08:05:31.000Z</time>
      </trkpt>
      <trkpt lat="48.40157" lon="-4.55114">
        <ele>29.39999961853</ele>
        <time>2022-03-27T08:05:35.000Z</time>
      </trkpt>
      <trkpt lat="48.40159" lon="-4.55112">
        <ele>29.200000762939</ele>
        <time>2022-03-27T08:05:36.000Z</time>
      </trkpt>
      <trkpt lat="48.40163" lon="-4.55104">
        <ele>28.799999237061</ele>
        <time>2022-03-27T08:05:38.000Z</time>
      </trkpt>
      <trkpt lat="48.40164" lon="-4.55099">
        <ele>28.60000038147</ele>
        <time>2022-03-27T08:05:39.000Z</time>
      </trkpt>
      <trkpt lat="48.40169" lon="-4.55093">
        <ele>28.200000762939</ele>
        <time>2022-03-27T08:05:41.000Z</time>
      </trkpt>
      <trkpt lat="48.40173" lon="-4.55087">
        <ele>27.799999237061</ele>
        <time>2022-03-27T08:05:43.000Z</time>
      </trkpt>
      <trkpt lat="48.40177" lon="-4.55081">
        <ele>27.39999961853</ele>
        <time>2022-03-27T08:05:45.000Z</time>
      </trkpt>
      <trkpt lat="48.40189" lon="-4.55069">
        <ele>27</ele>
        <time>2022-03-27T08:05:50.000Z</time>
      </trkpt>
      <trkpt lat="48.40197" lon="-4.55055">
        <ele>26.60000038147</ele>
        <time>2022-03-27T08:05:54.000Z</time>
      </trkpt>
      <trkpt lat="48.40206" lon="-4.55052">
        <ele>26.799999237061</ele>
        <time>2022-03-27T08:05:56.000Z</time>
      </trkpt>
      <trkpt lat="48.40217" lon="-4.55045">
        <ele>26.799999237061</ele>
        <time>2022-03-27T08:06:00.000Z</time>
      </trkpt>
      <trkpt lat="48.40221" lon="-4.55045">
        <ele>27</ele>
        <time>2022-03-27T08:06:01.000Z</time>
      </trkpt>
      <trkpt lat="48.40237" lon="-4.5505">
        <ele>27.799999237061</ele>
        <time>2022-03-27T08:06:07.000Z</time>
      </trkpt>
      <trkpt lat="48.40255" lon="-4.55057">
        <ele>28.60000038147</ele>
        <time>2022-03-27T08:06:12.000Z</time>
      </trkpt>
      <trkpt lat="48.40267" lon="-4.55061">
        <ele>29</ele>
        <time>2022-03-27T08:06:16.000Z</time>
      </trkpt>
      <trkpt lat="48.4027" lon="-4.55061">
        <ele>29</ele>
        <time>2022-03-27T08:06:17.000Z</time>
      </trkpt>
      <trkpt lat="48.40275" lon="-4.55054">
        <ele>29</ele>
        <time>2022-03-27T08:06:19.000Z</time>
      </trkpt>
      <trkpt lat="48.40274" lon="-4.55034">
        <ele>28.200000762939</ele>
        <time>2022-03-27T08:06:23.000Z</time>
      </trkpt>
      <trkpt lat="48.40277" lon="-4.55008">
        <ele>28</ele>
        <time>2022-03-27T08:06:28.000Z</time>
      </trkpt>
      <trkpt lat="48.40282" lon="-4.5499">
        <ele>27.799999237061</ele>
        <time>2022-03-27T08:06:31.000Z</time>
      </trkpt>
      <trkpt lat="48.40286" lon="-4.54978">
        <ele>27.799999237061</ele>
        <time>2022-03-27T08:06:33.000Z</time>
      </trkpt>
      <trkpt lat="48.40288" lon="-4.54972">
        <ele>27.799999237061</ele>
        <time>2022-03-27T08:06:34.000Z</time>
      </trkpt>
      <trkpt lat="48.40298" lon="-4.5494">
        <ele>27.60000038147</ele>
        <time>2022-03-27T08:06:40.000Z</time>
      </trkpt>
      <trkpt lat="48.40306" lon="-4.54906">
        <ele>27.39999961853</ele>
        <time>2022-03-27T08:06:47.000Z</time>
      </trkpt>
      <trkpt lat="48.40315" lon="-4.5488">
        <ele>27.39999961853</ele>
        <time>2022-03-27T08:06:52.000Z</time>
      </trkpt>
      <trkpt lat="48.40329" lon="-4.54839">
        <ele>27.799999237061</ele>
        <time>2022-03-27T08:07:00.000Z</time>
      </trkpt>
      <trkpt lat="48.40339" lon="-4.54807">
        <ele>28.60000038147</ele>
        <time>2022-03-27T08:07:06.000Z</time>
      </trkpt>
      <trkpt lat="48.40342" lon="-4.54795">
        <ele>28.799999237061</ele>
        <time>2022-03-27T08:07:08.000Z</time>
      </trkpt>
      <trkpt lat="48.40349" lon="-4.54752">
        <ele>28.60000038147</ele>
        <time>2022-03-27T08:07:15.000Z</time>
      </trkpt>
      <trkpt lat="48.4035" lon="-4.54746">
        <ele>28.60000038147</ele>
        <time>2022-03-27T08:07:16.000Z</time>
      </trkpt>
      <trkpt lat="48.40358" lon="-4.54715">
        <ele>28.200000762939</ele>
        <time>2022-03-27T08:07:21.000Z</time>
      </trkpt>
      <trkpt lat="48.4036" lon="-4.54708">
        <ele>28.200000762939</ele>
        <time>2022-03-27T08:07:22.000Z</time>
      </trkpt>
      <trkpt lat="48.40364" lon="-4.54695">
        <ele>28.200000762939</ele>
        <time>2022-03-27T08:07:24.000Z</time>
      </trkpt>
      <trkpt lat="48.4037" lon="-4.54675">
        <ele>27.799999237061</ele>
        <time>2022-03-27T08:07:27.000Z</time>
      </trkpt>
      <trkpt lat="48.40373" lon="-4.54661">
        <ele>27.60000038147</ele>
        <time>2022-03-27T08:07:29.000Z</time>
      </trkpt>
      <trkpt lat="48.40374" lon="-4.54634">
        <ele>27</ele>
        <time>2022-03-27T08:07:33.000Z</time>
      </trkpt>
      <trkpt lat="48.40375" lon="-4.54626">
        <ele>26.799999237061</ele>
        <time>2022-03-27T08:07:34.000Z</time>
      </trkpt>
      <trkpt lat="48.40377" lon="-4.54612">
        <ele>26.60000038147</ele>
        <time>2022-03-27T08:07:36.000Z</time>
      </trkpt>
      <trkpt lat="48.40381" lon="-4.54599">
        <ele>26.799999237061</ele>
        <time>2022-03-27T08:07:38.000Z</time>
      </trkpt>
      <trkpt lat="48.40391" lon="-4.54563">
        <ele>26.799999237061</ele>
        <time>2022-03-27T08:07:44.000Z</time>
      </trkpt>
      <trkpt lat="48.40391" lon="-4.54553">
        <ele>26.60000038147</ele>
        <time>2022-03-27T08:07:47.000Z</time>
      </trkpt>
      <trkpt lat="48.4039" lon="-4.54551">
        <ele>26.39999961853</ele>
        <time>2022-03-27T08:07:48.000Z</time>
      </trkpt>
      <trkpt lat="48.40384" lon="-4.54535">
        <ele>25.799999237061</ele>
        <time>2022-03-27T08:07:52.000Z</time>
      </trkpt>
      <trkpt lat="48.40378" lon="-4.54519">
        <ele>25.39999961853</ele>
        <time>2022-03-27T08:07:56.000Z</time>
      </trkpt>
      <trkpt lat="48.40378" lon="-4.54502">
        <ele>25.39999961853</ele>
        <time>2022-03-27T08:08:00.000Z</time>
      </trkpt>
      <trkpt lat="48.4038" lon="-4.54498">
        <ele>25.39999961853</ele>
        <time>2022-03-27T08:08:01.000Z</time>
      </trkpt>
      <trkpt lat="48.40389" lon="-4.54483">
        <ele>25.799999237061</ele>
        <time>2022-03-27T08:08:05.000Z</time>
      </trkpt>
      <trkpt lat="48.40403" lon="-4.54469">
        <ele>26.39999961853</ele>
        <time>2022-03-27T08:08:10.000Z</time>
      </trkpt>
      <trkpt lat="48.40413" lon="-4.5446">
        <ele>27</ele>
        <time>2022-03-27T08:08:14.000Z</time>
      </trkpt>
      <trkpt lat="48.40425" lon="-4.54448">
        <ele>27.60000038147</ele>
        <time>2022-03-27T08:08:19.000Z</time>
      </trkpt>
      <trkpt lat="48.40427" lon="-4.54446">
        <ele>27.60000038147</ele>
        <time>2022-03-27T08:08:20.000Z</time>
      </trkpt>
      <trkpt lat="48.40435" lon="-4.54437">
        <ele>28</ele>
        <time>2022-03-27T08:08:23.000Z</time>
      </trkpt>
      <trkpt lat="48.40438" lon="-4.54435">
        <ele>28</ele>
        <time>2022-03-27T08:08:24.000Z</time>
      </trkpt>
      <trkpt lat="48.40448" lon="-4.54431">
        <ele>28.200000762939</ele>
        <time>2022-03-27T08:08:27.000Z</time>
      </trkpt>
      <trkpt lat="48.4047" lon="-4.54421">
        <ele>28.799999237061</ele>
        <time>2022-03-27T08:08:33.000Z</time>
      </trkpt>
      <trkpt lat="48.40485" lon="-4.54417">
        <ele>29.39999961853</ele>
        <time>2022-03-27T08:08:37.000Z</time>
      </trkpt>
      <trkpt lat="48.40502" lon="-4.54409">
        <ele>30</ele>
        <time>2022-03-27T08:08:42.000Z</time>
      </trkpt>
      <trkpt lat="48.40518" lon="-4.54405">
        <ele>30.60000038147</ele>
        <time>2022-03-27T08:08:47.000Z</time>
      </trkpt>
      <trkpt lat="48.40525" lon="-4.54402">
        <ele>31.200000762939</ele>
        <time>2022-03-27T08:08:50.000Z</time>
      </trkpt>
      <trkpt lat="48.40527" lon="-4.54401">
        <ele>31.200000762939</ele>
        <time>2022-03-27T08:08:51.000Z</time>
      </trkpt>
      <trkpt lat="48.40538" lon="-4.54394">
        <ele>32</ele>
        <time>2022-03-27T08:08:55.000Z</time>
      </trkpt>
      <trkpt lat="48.40554" lon="-4.54387">
        <ele>33</ele>
        <time>2022-03-27T08:09:00.000Z</time>
      </trkpt>
      <trkpt lat="48.40569" lon="-4.54379">
        <ele>33.799999237061</ele>
        <time>2022-03-27T08:09:05.000Z</time>
      </trkpt>
      <trkpt lat="48.40573" lon="-4.54374">
        <ele>34.200000762939</ele>
        <time>2022-03-27T08:09:07.000Z</time>
      </trkpt>
      <trkpt lat="48.40578" lon="-4.54369">
        <ele>34.200000762939</ele>
        <time>2022-03-27T08:09:09.000Z</time>
      </trkpt>
      <trkpt lat="48.40584" lon="-4.54361">
        <ele>34.599998474121</ele>
        <time>2022-03-27T08:09:12.000Z</time>
      </trkpt>
      <trkpt lat="48.40588" lon="-4.54356">
        <ele>34.799999237061</ele>
        <time>2022-03-27T08:09:14.000Z</time>
      </trkpt>
      <trkpt lat="48.40594" lon="-4.54332">
        <ele>34.400001525879</ele>
        <time>2022-03-27T08:09:19.000Z</time>
      </trkpt>
      <trkpt lat="48.406" lon="-4.5431">
        <ele>34</ele>
        <time>2022-03-27T08:09:23.000Z</time>
      </trkpt>
      <trkpt lat="48.40605" lon="-4.54286">
        <ele>33.200000762939</ele>
        <time>2022-03-27T08:09:27.000Z</time>
      </trkpt>
      <trkpt lat="48.40613" lon="-4.54258">
        <ele>32.599998474121</ele>
        <time>2022-03-27T08:09:32.000Z</time>
      </trkpt>
      <trkpt lat="48.40628" lon="-4.54229">
        <ele>32</ele>
        <time>2022-03-27T08:09:38.000Z</time>
      </trkpt>
      <trkpt lat="48.40651" lon="-4.54202">
        <ele>32</ele>
        <time>2022-03-27T08:09:45.000Z</time>
      </trkpt>
      <trkpt lat="48.40654" lon="-4.54198">
        <ele>32</ele>
        <time>2022-03-27T08:09:46.000Z</time>
      </trkpt>
      <trkpt lat="48.40666" lon="-4.54179">
        <ele>32.599998474121</ele>
        <time>2022-03-27T08:09:50.000Z</time>
      </trkpt>
      <trkpt lat="48.4068" lon="-4.54147">
        <ele>33.599998474121</ele>
        <time>2022-03-27T08:09:56.000Z</time>
      </trkpt>
      <trkpt lat="48.40687" lon="-4.54121">
        <ele>34.400001525879</ele>
        <time>2022-03-27T08:10:01.000Z</time>
      </trkpt>
      <trkpt lat="48.40695" lon="-4.54094">
        <ele>34</ele>
        <time>2022-03-27T08:10:06.000Z</time>
      </trkpt>
      <trkpt lat="48.40697" lon="-4.54088">
        <ele>33.799999237061</ele>
        <time>2022-03-27T08:10:07.000Z</time>
      </trkpt>
      <trkpt lat="48.40697" lon="-4.54082">
        <ele>33.599998474121</ele>
        <time>2022-03-27T08:10:08.000Z</time>
      </trkpt>
      <trkpt lat="48.40693" lon="-4.54071">
        <ele>32.599998474121</ele>
        <time>2022-03-27T08:10:10.000Z</time>
      </trkpt>
      <trkpt lat="48.40684" lon="-4.54065">
        <ele>31.60000038147</ele>
        <time>2022-03-27T08:10:12.000Z</time>
      </trkpt>
      <trkpt lat="48.40675" lon="-4.54061">
        <ele>30.799999237061</ele>
        <time>2022-03-27T08:10:14.000Z</time>
      </trkpt>
      <trkpt lat="48.40644" lon="-4.54046">
        <ele>28.799999237061</ele>
        <time>2022-03-27T08:10:20.000Z</time>
      </trkpt>
      <trkpt lat="48.40603" lon="-4.54023">
        <ele>27</ele>
        <time>2022-03-27T08:10:28.000Z</time>
      </trkpt>
      <trkpt lat="48.40574" lon="-4.54004">
        <ele>28.200000762939</ele>
        <time>2022-03-27T08:10:34.000Z</time>
      </trkpt>
      <trkpt lat="48.40555" lon="-4.53992">
        <ele>29</ele>
        <time>2022-03-27T08:10:38.000Z</time>
      </trkpt>
      <trkpt lat="48.40545" lon="-4.53986">
        <ele>29.39999961853</ele>
        <time>2022-03-27T08:10:40.000Z</time>
      </trkpt>
      <trkpt lat="48.4051" lon="-4.53971">
        <ele>30.200000762939</ele>
        <time>2022-03-27T08:10:47.000Z</time>
      </trkpt>
      <trkpt lat="48.40488" lon="-4.53961">
        <ele>30.799999237061</ele>
        <time>2022-03-27T08:10:52.000Z</time>
      </trkpt>
      <trkpt lat="48.40483" lon="-4.53958">
        <ele>31</ele>
        <time>2022-03-27T08:10:53.000Z</time>
      </trkpt>
      <trkpt lat="48.40475" lon="-4.53954">
        <ele>31.39999961853</ele>
        <time>2022-03-27T08:10:55.000Z</time>
      </trkpt>
      <trkpt lat="48.40462" lon="-4.53948">
        <ele>32</ele>
        <time>2022-03-27T08:10:58.000Z</time>
      </trkpt>
      <trkpt lat="48.40444" lon="-4.53934">
        <ele>33</ele>
        <time>2022-03-27T08:11:03.000Z</time>
      </trkpt>
      <trkpt lat="48.40421" lon="-4.53919">
        <ele>33.799999237061</ele>
        <time>2022-03-27T08:11:09.000Z</time>
      </trkpt>
      <trkpt lat="48.404" lon="-4.53901">
        <ele>34.599998474121</ele>
        <time>2022-03-27T08:11:15.000Z</time>
      </trkpt>
      <trkpt lat="48.40386" lon="-4.53879">
        <ele>36.799999237061</ele>
        <time>2022-03-27T08:11:20.000Z</time>
      </trkpt>
      <trkpt lat="48.40379" lon="-4.53848">
        <ele>38.200000762939</ele>
        <time>2022-03-27T08:11:26.000Z</time>
      </trkpt>
      <trkpt lat="48.40373" lon="-4.53822">
        <ele>37.799999237061</ele>
        <time>2022-03-27T08:11:31.000Z</time>
      </trkpt>
      <trkpt lat="48.40373" lon="-4.53817">
        <ele>37.599998474121</ele>
        <time>2022-03-27T08:11:32.000Z</time>
      </trkpt>
      <trkpt lat="48.4037" lon="-4.53806">
        <ele>37.200000762939</ele>
        <time>2022-03-27T08:11:34.000Z</time>
      </trkpt>
      <trkpt lat="48.40361" lon="-4.53782">
        <ele>36.599998474121</ele>
        <time>2022-03-27T08:11:39.000Z</time>
      </trkpt>
      <trkpt lat="48.40348" lon="-4.53763">
        <ele>36.200000762939</ele>
        <time>2022-03-27T08:11:44.000Z</time>
      </trkpt>
      <trkpt lat="48.40332" lon="-4.53741">
        <ele>34.200000762939</ele>
        <time>2022-03-27T08:11:50.000Z</time>
      </trkpt>
      <trkpt lat="48.40314" lon="-4.53725">
        <ele>32.599998474121</ele>
        <time>2022-03-27T08:11:55.000Z</time>
      </trkpt>
      <trkpt lat="48.40303" lon="-4.53714">
        <ele>32</ele>
        <time>2022-03-27T08:11:58.000Z</time>
      </trkpt>
      <trkpt lat="48.40295" lon="-4.53703">
        <ele>31.39999961853</ele>
        <time>2022-03-27T08:12:00.000Z</time>
      </trkpt>
      <trkpt lat="48.40292" lon="-4.53697">
        <ele>31.200000762939</ele>
        <time>2022-03-27T08:12:01.000Z</time>
      </trkpt>
      <trkpt lat="48.40286" lon="-4.53683">
        <ele>30.60000038147</ele>
        <time>2022-03-27T08:12:04.000Z</time>
      </trkpt>
      <trkpt lat="48.40284" lon="-4.5367">
        <ele>30.39999961853</ele>
        <time>2022-03-27T08:12:07.000Z</time>
      </trkpt>
      <trkpt lat="48.40283" lon="-4.53666">
        <ele>30.200000762939</ele>
        <time>2022-03-27T08:12:08.000Z</time>
      </trkpt>
      <trkpt lat="48.40278" lon="-4.53651">
        <ele>29.799999237061</ele>
        <time>2022-03-27T08:12:11.000Z</time>
      </trkpt>
      <trkpt lat="48.40276" lon="-4.53639">
        <ele>29.60000038147</ele>
        <time>2022-03-27T08:12:12.000Z</time>
      </trkpt>
      <trkpt lat="48.40269" lon="-4.53591">
        <ele>27.799999237061</ele>
        <time>2022-03-27T08:12:17.000Z</time>
      </trkpt>
      <trkpt lat="48.4026" lon="-4.53563">
        <ele>26.200000762939</ele>
        <time>2022-03-27T08:12:20.000Z</time>
      </trkpt>
      <trkpt lat="48.40256" lon="-4.53553">
        <ele>25.39999961853</ele>
        <time>2022-03-27T08:12:21.000Z</time>
      </trkpt>
      <trkpt lat="48.40238" lon="-4.53518">
        <ele>24.39999961853</ele>
        <time>2022-03-27T08:12:25.000Z</time>
      </trkpt>
      <trkpt lat="48.40237" lon="-4.53512">
        <ele>24.200000762939</ele>
        <time>2022-03-27T08:12:26.000Z</time>
      </trkpt>
      <trkpt lat="48.40237" lon="-4.53502">
        <ele>23.799999237061</ele>
        <time>2022-03-27T08:12:28.000Z</time>
      </trkpt>
      <trkpt lat="48.40235" lon="-4.53498">
        <ele>23.60000038147</ele>
        <time>2022-03-27T08:12:29.000Z</time>
      </trkpt>
      <trkpt lat="48.40233" lon="-4.53494">
        <ele>23.60000038147</ele>
        <time>2022-03-27T08:12:31.000Z</time>
      </trkpt>
      <trkpt lat="48.40231" lon="-4.53492">
        <ele>23.60000038147</ele>
        <time>2022-03-27T08:12:33.000Z</time>
      </trkpt>
      <trkpt lat="48.40228" lon="-4.53496">
        <ele>23.60000038147</ele>
        <time>2022-03-27T08:12:42.000Z</time>
      </trkpt>
      <trkpt lat="48.40226" lon="-4.53499">
        <ele>23.799999237061</ele>
        <time>2022-03-27T08:12:43.000Z</time>
      </trkpt>
      <trkpt lat="48.40215" lon="-4.5351">
        <ele>24.200000762939</ele>
        <time>2022-03-27T08:12:47.000Z</time>
      </trkpt>
      <trkpt lat="48.4021" lon="-4.53514">
        <ele>24.200000762939</ele>
        <time>2022-03-27T08:12:49.000Z</time>
      </trkpt>
      <trkpt lat="48.40206" lon="-4.53514">
        <ele>24.200000762939</ele>
        <time>2022-03-27T08:12:51.000Z</time>
      </trkpt>
      <trkpt lat="48.40204" lon="-4.53513">
        <ele>24.200000762939</ele>
        <time>2022-03-27T08:12:53.000Z</time>
      </trkpt>
      <trkpt lat="48.40204" lon="-4.5351">
        <ele>24.39999961853</ele>
        <time>2022-03-27T08:13:01.000Z</time>
      </trkpt>
      <trkpt lat="48.40205" lon="-4.53508">
        <ele>24.39999961853</ele>
        <time>2022-03-27T08:13:02.000Z</time>
      </trkpt>
      <trkpt lat="48.40207" lon="-4.53504">
        <ele>24.60000038147</ele>
        <time>2022-03-27T08:13:04.000Z</time>
      </trkpt>
      <trkpt lat="48.40208" lon="-4.53498">
        <ele>25</ele>
        <time>2022-03-27T08:13:06.000Z</time>
      </trkpt>
      <trkpt lat="48.4021" lon="-4.53484">
        <ele>26</ele>
        <time>2022-03-27T08:13:10.000Z</time>
      </trkpt>
      <trkpt lat="48.4021" lon="-4.53481">
        <ele>26.39999961853</ele>
        <time>2022-03-27T08:13:11.000Z</time>
      </trkpt>
      <trkpt lat="48.40212" lon="-4.53477">
        <ele>26.39999961853</ele>
        <time>2022-03-27T08:13:12.000Z</time>
      </trkpt>
      <trkpt lat="48.40214" lon="-4.53469">
        <ele>27</ele>
        <time>2022-03-27T08:13:14.000Z</time>
      </trkpt>
      <trkpt lat="48.40215" lon="-4.53464">
        <ele>27.200000762939</ele>
        <time>2022-03-27T08:13:15.000Z</time>
      </trkpt>
      <trkpt lat="48.40221" lon="-4.5345">
        <ele>27.799999237061</ele>
        <time>2022-03-27T08:13:18.000Z</time>
      </trkpt>
      <trkpt lat="48.4023" lon="-4.53435">
        <ele>26.799999237061</ele>
        <time>2022-03-27T08:13:21.000Z</time>
      </trkpt>
      <trkpt lat="48.40234" lon="-4.5343">
        <ele>26.200000762939</ele>
        <time>2022-03-27T08:13:22.000Z</time>
      </trkpt>
      <trkpt lat="48.40254" lon="-4.5341">
        <ele>24</ele>
        <time>2022-03-27T08:13:26.000Z</time>
      </trkpt>
      <trkpt lat="48.40261" lon="-4.53399">
        <ele>23.200000762939</ele>
        <time>2022-03-27T08:13:28.000Z</time>
      </trkpt>
      <trkpt lat="48.40276" lon="-4.53381">
        <ele>22.60000038147</ele>
        <time>2022-03-27T08:13:32.000Z</time>
      </trkpt>
      <trkpt lat="48.40289" lon="-4.53358">
        <ele>22.39999961853</ele>
        <time>2022-03-27T08:13:36.000Z</time>
      </trkpt>
      <trkpt lat="48.40296" lon="-4.53345">
        <ele>22</ele>
        <time>2022-03-27T08:13:38.000Z</time>
      </trkpt>
      <trkpt lat="48.40307" lon="-4.53313">
        <ele>22.60000038147</ele>
        <time>2022-03-27T08:13:43.000Z</time>
      </trkpt>
      <trkpt lat="48.40322" lon="-4.53273">
        <ele>24.39999961853</ele>
        <time>2022-03-27T08:13:50.000Z</time>
      </trkpt>
      <trkpt lat="48.40333" lon="-4.5326">
        <ele>24</ele>
        <time>2022-03-27T08:13:53.000Z</time>
      </trkpt>
      <trkpt lat="48.40338" lon="-4.53258">
        <ele>23.60000038147</ele>
        <time>2022-03-27T08:13:54.000Z</time>
      </trkpt>
      <trkpt lat="48.40348" lon="-4.53256">
        <ele>22.39999961853</ele>
        <time>2022-03-27T08:13:56.000Z</time>
      </trkpt>
      <trkpt lat="48.40356" lon="-4.53257">
        <ele>21.60000038147</ele>
        <time>2022-03-27T08:13:58.000Z</time>
      </trkpt>
      <trkpt lat="48.40373" lon="-4.53255">
        <ele>20.39999961853</ele>
        <time>2022-03-27T08:14:02.000Z</time>
      </trkpt>
      <trkpt lat="48.40386" lon="-4.53244">
        <ele>20.200000762939</ele>
        <time>2022-03-27T08:14:06.000Z</time>
      </trkpt>
      <trkpt lat="48.40392" lon="-4.53236">
        <ele>20.39999961853</ele>
        <time>2022-03-27T08:14:09.000Z</time>
      </trkpt>
      <trkpt lat="48.40393" lon="-4.53233">
        <ele>20.39999961853</ele>
        <time>2022-03-27T08:14:10.000Z</time>
      </trkpt>
      <trkpt lat="48.40395" lon="-4.5323">
        <ele>20.60000038147</ele>
        <time>2022-03-27T08:14:13.000Z</time>
      </trkpt>
      <trkpt lat="48.404" lon="-4.53231">
        <ele>20</ele>
        <time>2022-03-27T08:15:07.000Z</time>
      </trkpt>
      <trkpt lat="48.40408" lon="-4.53226">
        <ele>20</ele>
        <time>2022-03-27T08:15:10.000Z</time>
      </trkpt>
      <trkpt lat="48.40411" lon="-4.53223">
        <ele>20</ele>
        <time>2022-03-27T08:15:11.000Z</time>
      </trkpt>
      <trkpt lat="48.40421" lon="-4.53201">
        <ele>20.799999237061</ele>
        <time>2022-03-27T08:15:15.000Z</time>
      </trkpt>
      <trkpt lat="48.40435" lon="-4.53176">
        <ele>19.60000038147</ele>
        <time>2022-03-27T08:15:20.000Z</time>
      </trkpt>
      <trkpt lat="48.40447" lon="-4.53156">
        <ele>18.799999237061</ele>
        <time>2022-03-27T08:15:24.000Z</time>
      </trkpt>
      <trkpt lat="48.40454" lon="-4.53144">
        <ele>18.200000762939</ele>
        <time>2022-03-27T08:15:26.000Z</time>
      </trkpt>
      <trkpt lat="48.4046" lon="-4.53135">
        <ele>17.799999237061</ele>
        <time>2022-03-27T08:15:28.000Z</time>
      </trkpt>
      <trkpt lat="48.40469" lon="-4.53122">
        <ele>17.200000762939</ele>
        <time>2022-03-27T08:15:31.000Z</time>
      </trkpt>
      <trkpt lat="48.40475" lon="-4.53119">
        <ele>17</ele>
        <time>2022-03-27T08:15:32.000Z</time>
      </trkpt>
      <trkpt lat="48.40488" lon="-4.53108">
        <ele>16</ele>
        <time>2022-03-27T08:15:34.000Z</time>
      </trkpt>
      <trkpt lat="48.40494" lon="-4.53099">
        <ele>15.39999961853</ele>
        <time>2022-03-27T08:15:35.000Z</time>
      </trkpt>
      <trkpt lat="48.40525" lon="-4.53065">
        <ele>13.60000038147</ele>
        <time>2022-03-27T08:15:40.000Z</time>
      </trkpt>
      <trkpt lat="48.4054" lon="-4.53056">
        <ele>14</ele>
        <time>2022-03-27T08:15:43.000Z</time>
      </trkpt>
      <trkpt lat="48.40546" lon="-4.53055">
        <ele>14.199999809265</ele>
        <time>2022-03-27T08:15:44.000Z</time>
      </trkpt>
      <trkpt lat="48.40557" lon="-4.53056">
        <ele>14.800000190735</ele>
        <time>2022-03-27T08:15:47.000Z</time>
      </trkpt>
      <trkpt lat="48.40557" lon="-4.53056">
        <ele>14.800000190735</ele>
        <time>2022-03-27T08:15:49.000Z</time>
      </trkpt>
      <trkpt lat="48.40565" lon="-4.53059">
        <ele>15.39999961853</ele>
        <time>2022-03-27T08:16:00.000Z</time>
      </trkpt>
      <trkpt lat="48.40572" lon="-4.53066">
        <ele>15.800000190735</ele>
        <time>2022-03-27T08:16:03.000Z</time>
      </trkpt>
      <trkpt lat="48.40575" lon="-4.53072">
        <ele>15.800000190735</ele>
        <time>2022-03-27T08:16:04.000Z</time>
      </trkpt>
      <trkpt lat="48.40586" lon="-4.53094">
        <ele>16.39999961853</ele>
        <time>2022-03-27T08:16:08.000Z</time>
      </trkpt>
      <trkpt lat="48.40588" lon="-4.53099">
        <ele>16.60000038147</ele>
        <time>2022-03-27T08:16:09.000Z</time>
      </trkpt>
      <trkpt lat="48.40596" lon="-4.53117">
        <ele>17</ele>
        <time>2022-03-27T08:16:12.000Z</time>
      </trkpt>
      <trkpt lat="48.40599" lon="-4.53123">
        <ele>17.200000762939</ele>
        <time>2022-03-27T08:16:13.000Z</time>
      </trkpt>
      <trkpt lat="48.40609" lon="-4.53141">
        <ele>18.39999961853</ele>
        <time>2022-03-27T08:16:16.000Z</time>
      </trkpt>
      <trkpt lat="48.40621" lon="-4.53152">
        <ele>19.60000038147</ele>
        <time>2022-03-27T08:16:20.000Z</time>
      </trkpt>
      <trkpt lat="48.40623" lon="-4.53154">
        <ele>19.799999237061</ele>
        <time>2022-03-27T08:16:21.000Z</time>
      </trkpt>
      <trkpt lat="48.40628" lon="-4.53158">
        <ele>20.200000762939</ele>
        <time>2022-03-27T08:16:23.000Z</time>
      </trkpt>
      <trkpt lat="48.40633" lon="-4.53163">
        <ele>20.799999237061</ele>
        <time>2022-03-27T08:16:25.000Z</time>
      </trkpt>
      <trkpt lat="48.40649" lon="-4.53175">
        <ele>21.200000762939</ele>
        <time>2022-03-27T08:16:29.000Z</time>
      </trkpt>
      <trkpt lat="48.40666" lon="-4.53181">
        <ele>21.60000038147</ele>
        <time>2022-03-27T08:16:34.000Z</time>
      </trkpt>
      <trkpt lat="48.40668" lon="-4.53182">
        <ele>21.60000038147</ele>
        <time>2022-03-27T08:16:35.000Z</time>
      </trkpt>
      <trkpt lat="48.40683" lon="-4.53188">
        <ele>22.200000762939</ele>
        <time>2022-03-27T08:16:59.000Z</time>
      </trkpt>
      <trkpt lat="48.40688" lon="-4.53192">
        <ele>22.799999237061</ele>
        <time>2022-03-27T08:17:01.000Z</time>
      </trkpt>
      <trkpt lat="48.40698" lon="-4.53197">
        <ele>23.39999961853</ele>
        <time>2022-03-27T08:17:05.000Z</time>
      </trkpt>
      <trkpt lat="48.407" lon="-4.53199">
        <ele>23.60000038147</ele>
        <time>2022-03-27T08:17:06.000Z</time>
      </trkpt>
      <trkpt lat="48.40703" lon="-4.53203">
        <ele>23.799999237061</ele>
        <time>2022-03-27T08:17:08.000Z</time>
      </trkpt>
      <trkpt lat="48.4071" lon="-4.5321">
        <ele>24.39999961853</ele>
        <time>2022-03-27T08:17:10.000Z</time>
      </trkpt>
      <trkpt lat="48.40716" lon="-4.53213">
        <ele>24.799999237061</ele>
        <time>2022-03-27T08:17:13.000Z</time>
      </trkpt>
      <trkpt lat="48.40719" lon="-4.53215">
        <ele>25.200000762939</ele>
        <time>2022-03-27T08:17:14.000Z</time>
      </trkpt>
      <trkpt lat="48.40725" lon="-4.53224">
        <ele>25.60000038147</ele>
        <time>2022-03-27T08:17:18.000Z</time>
      </trkpt>
      <trkpt lat="48.40732" lon="-4.53235">
        <ele>26.200000762939</ele>
        <time>2022-03-27T08:18:25.000Z</time>
      </trkpt>
      <trkpt lat="48.40734" lon="-4.53237">
        <ele>26.200000762939</ele>
        <time>2022-03-27T08:18:26.000Z</time>
      </trkpt>
      <trkpt lat="48.40738" lon="-4.53243">
        <ele>26.39999961853</ele>
        <time>2022-03-27T08:18:28.000Z</time>
      </trkpt>
      <trkpt lat="48.40743" lon="-4.5325">
        <ele>26.39999961853</ele>
        <time>2022-03-27T08:18:31.000Z</time>
      </trkpt>
      <trkpt lat="48.40748" lon="-4.53255">
        <ele>26.60000038147</ele>
        <time>2022-03-27T08:18:35.000Z</time>
      </trkpt>
      <trkpt lat="48.4075" lon="-4.53257">
        <ele>26.799999237061</ele>
        <time>2022-03-27T08:18:36.000Z</time>
      </trkpt>
      <trkpt lat="48.40754" lon="-4.53261">
        <ele>26.799999237061</ele>
        <time>2022-03-27T08:18:39.000Z</time>
      </trkpt>
      <trkpt lat="48.40762" lon="-4.53265">
        <ele>27.200000762939</ele>
        <time>2022-03-27T08:18:43.000Z</time>
      </trkpt>
      <trkpt lat="48.40775" lon="-4.53269">
        <ele>27.39999961853</ele>
        <time>2022-03-27T08:18:49.000Z</time>
      </trkpt>
      <trkpt lat="48.40788" lon="-4.53274">
        <ele>27</ele>
        <time>2022-03-27T08:18:55.000Z</time>
      </trkpt>
      <trkpt lat="48.40789" lon="-4.53275">
        <ele>27</ele>
        <time>2022-03-27T08:18:56.000Z</time>
      </trkpt>
      <trkpt lat="48.40792" lon="-4.53278">
        <ele>27</ele>
        <time>2022-03-27T08:18:59.000Z</time>
      </trkpt>
      <trkpt lat="48.40797" lon="-4.53281">
        <ele>26.799999237061</ele>
        <time>2022-03-27T08:19:05.000Z</time>
      </trkpt>
      <trkpt lat="48.408" lon="-4.53282">
        <ele>26.60000038147</ele>
        <time>2022-03-27T08:19:07.000Z</time>
      </trkpt>
      <trkpt lat="48.40806" lon="-4.53284">
        <ele>26.60000038147</ele>
        <time>2022-03-27T08:19:09.000Z</time>
      </trkpt>
      <trkpt lat="48.40827" lon="-4.53289">
        <ele>26.200000762939</ele>
        <time>2022-03-27T08:19:14.000Z</time>
      </trkpt>
      <trkpt lat="48.40838" lon="-4.53292">
        <ele>26.200000762939</ele>
        <time>2022-03-27T08:19:16.000Z</time>
      </trkpt>
      <trkpt lat="48.40852" lon="-4.53294">
        <ele>25.799999237061</ele>
        <time>2022-03-27T08:19:19.000Z</time>
      </trkpt>
      <trkpt lat="48.40855" lon="-4.53293">
        <ele>25.799999237061</ele>
        <time>2022-03-27T08:19:20.000Z</time>
      </trkpt>
      <trkpt lat="48.4086" lon="-4.53291">
        <ele>25.799999237061</ele>
        <time>2022-03-27T08:19:22.000Z</time>
      </trkpt>
      <trkpt lat="48.40873" lon="-4.5329">
        <ele>25.60000038147</ele>
        <time>2022-03-27T08:19:27.000Z</time>
      </trkpt>
      <trkpt lat="48.40883" lon="-4.53287">
        <ele>25.60000038147</ele>
        <time>2022-03-27T08:19:31.000Z</time>
      </trkpt>
      <trkpt lat="48.40888" lon="-4.53285">
        <ele>25.60000038147</ele>
        <time>2022-03-27T08:19:38.000Z</time>
      </trkpt>
      <trkpt lat="48.40904" lon="-4.53285">
        <ele>25.39999961853</ele>
        <time>2022-03-27T08:19:43.000Z</time>
      </trkpt>
      <trkpt lat="48.40906" lon="-4.53284">
        <ele>25.39999961853</ele>
        <time>2022-03-27T08:19:44.000Z</time>
      </trkpt>
      <trkpt lat="48.40913" lon="-4.53282">
        <ele>25.39999961853</ele>
        <time>2022-03-27T08:19:47.000Z</time>
      </trkpt>
      <trkpt lat="48.40914" lon="-4.5328">
        <ele>25.39999961853</ele>
        <time>2022-03-27T08:19:48.000Z</time>
      </trkpt>
      <trkpt lat="48.40914" lon="-4.53264">
        <ele>26.200000762939</ele>
        <time>2022-03-27T08:19:52.000Z</time>
      </trkpt>
      <trkpt lat="48.40915" lon="-4.53241">
        <ele>27.200000762939</ele>
        <time>2022-03-27T08:19:58.000Z</time>
      </trkpt>
      <trkpt lat="48.40916" lon="-4.53219">
        <ele>28.200000762939</ele>
        <time>2022-03-27T08:20:04.000Z</time>
      </trkpt>
      <trkpt lat="48.40917" lon="-4.53216">
        <ele>28.39999961853</ele>
        <time>2022-03-27T08:20:05.000Z</time>
      </trkpt>
      <trkpt lat="48.40921" lon="-4.53214">
        <ele>28.39999961853</ele>
        <time>2022-03-27T08:20:07.000Z</time>
      </trkpt>
      <trkpt lat="48.40934" lon="-4.53217">
        <ele>28.200000762939</ele>
        <time>2022-03-27T08:20:13.000Z</time>
      </trkpt>
      <trkpt lat="48.40937" lon="-4.53215">
        <ele>28.200000762939</ele>
        <time>2022-03-27T08:20:15.000Z</time>
      </trkpt>
      <trkpt lat="48.40942" lon="-4.53218">
        <ele>28</ele>
        <time>2022-03-27T08:20:18.000Z</time>
      </trkpt>
      <trkpt lat="48.40951" lon="-4.53222">
        <ele>27.799999237061</ele>
        <time>2022-03-27T08:20:22.000Z</time>
      </trkpt>
      <trkpt lat="48.40968" lon="-4.53227">
        <ele>27.200000762939</ele>
        <time>2022-03-27T08:20:28.000Z</time>
      </trkpt>
      <trkpt lat="48.40984" lon="-4.53226">
        <ele>27.200000762939</ele>
        <time>2022-03-27T08:20:33.000Z</time>
      </trkpt>
      <trkpt lat="48.40999" lon="-4.5321">
        <ele>27.799999237061</ele>
        <time>2022-03-27T08:20:37.000Z</time>
      </trkpt>
      <trkpt lat="48.41003" lon="-4.53205">
        <ele>28</ele>
        <time>2022-03-27T08:20:38.000Z</time>
      </trkpt>
      <trkpt lat="48.41012" lon="-4.532">
        <ele>28</ele>
        <time>2022-03-27T08:20:40.000Z</time>
      </trkpt>
      <trkpt lat="48.41017" lon="-4.53201">
        <ele>28</ele>
        <time>2022-03-27T08:20:41.000Z</time>
      </trkpt>
      <trkpt lat="48.41022" lon="-4.53206">
        <ele>27.799999237061</ele>
        <time>2022-03-27T08:20:42.000Z</time>
      </trkpt>
      <trkpt lat="48.41028" lon="-4.5322">
        <ele>27.39999961853</ele>
        <time>2022-03-27T08:20:44.000Z</time>
      </trkpt>
      <trkpt lat="48.41031" lon="-4.53227">
        <ele>27.39999961853</ele>
        <time>2022-03-27T08:20:45.000Z</time>
      </trkpt>
      <trkpt lat="48.4104" lon="-4.53234">
        <ele>27</ele>
        <time>2022-03-27T08:20:47.000Z</time>
      </trkpt>
      <trkpt lat="48.41048" lon="-4.53227">
        <ele>26.799999237061</ele>
        <time>2022-03-27T08:20:49.000Z</time>
      </trkpt>
      <trkpt lat="48.41066" lon="-4.53194">
        <ele>26.60000038147</ele>
        <time>2022-03-27T08:20:54.000Z</time>
      </trkpt>
      <trkpt lat="48.41092" lon="-4.53145">
        <ele>24.200000762939</ele>
        <time>2022-03-27T08:21:01.000Z</time>
      </trkpt>
      <trkpt lat="48.41123" lon="-4.53091">
        <ele>21.60000038147</ele>
        <time>2022-03-27T08:21:08.000Z</time>
      </trkpt>
      <trkpt lat="48.41152" lon="-4.53056">
        <ele>19.60000038147</ele>
        <time>2022-03-27T08:21:13.000Z</time>
      </trkpt>
      <trkpt lat="48.41172" lon="-4.53036">
        <ele>18.60000038147</ele>
        <time>2022-03-27T08:21:16.000Z</time>
      </trkpt>
      <trkpt lat="48.41182" lon="-4.53018">
        <ele>17.60000038147</ele>
        <time>2022-03-27T08:21:18.000Z</time>
      </trkpt>
      <trkpt lat="48.41191" lon="-4.52999">
        <ele>16.799999237061</ele>
        <time>2022-03-27T08:21:20.000Z</time>
      </trkpt>
      <trkpt lat="48.41198" lon="-4.52992">
        <ele>16.39999961853</ele>
        <time>2022-03-27T08:21:21.000Z</time>
      </trkpt>
      <trkpt lat="48.41205" lon="-4.52987">
        <ele>16</ele>
        <time>2022-03-27T08:21:22.000Z</time>
      </trkpt>
      <trkpt lat="48.41231" lon="-4.52974">
        <ele>14.800000190735</ele>
        <time>2022-03-27T08:21:25.000Z</time>
      </trkpt>
      <trkpt lat="48.41272" lon="-4.52945">
        <ele>13.60000038147</ele>
        <time>2022-03-27T08:21:30.000Z</time>
      </trkpt>
      <trkpt lat="48.41278" lon="-4.52935">
        <ele>14.199999809265</ele>
        <time>2022-03-27T08:21:31.000Z</time>
      </trkpt>
      <trkpt lat="48.41283" lon="-4.52924">
        <ele>14.60000038147</ele>
        <time>2022-03-27T08:21:32.000Z</time>
      </trkpt>
      <trkpt lat="48.41289" lon="-4.52899">
        <ele>15</ele>
        <time>2022-03-27T08:21:34.000Z</time>
      </trkpt>
      <trkpt lat="48.413" lon="-4.52861">
        <ele>15.800000190735</ele>
        <time>2022-03-27T08:21:38.000Z</time>
      </trkpt>
      <trkpt lat="48.41302" lon="-4.52854">
        <ele>16.200000762939</ele>
        <time>2022-03-27T08:21:39.000Z</time>
      </trkpt>
      <trkpt lat="48.41307" lon="-4.5284">
        <ele>16.799999237061</ele>
        <time>2022-03-27T08:21:42.000Z</time>
      </trkpt>
      <trkpt lat="48.41297" lon="-4.52828">
        <ele>16.200000762939</ele>
        <time>2022-03-27T08:21:46.000Z</time>
      </trkpt>
      <trkpt lat="48.41277" lon="-4.52812">
        <ele>16</ele>
        <time>2022-03-27T08:21:52.000Z</time>
      </trkpt>
      <trkpt lat="48.41273" lon="-4.5281">
        <ele>15.800000190735</ele>
        <time>2022-03-27T08:21:53.000Z</time>
      </trkpt>
      <trkpt lat="48.41248" lon="-4.52797">
        <ele>16</ele>
        <time>2022-03-27T08:21:59.000Z</time>
      </trkpt>
      <trkpt lat="48.41237" lon="-4.52788">
        <ele>14.800000190735</ele>
        <time>2022-03-27T08:22:02.000Z</time>
      </trkpt>
      <trkpt lat="48.41226" lon="-4.52776">
        <ele>14</ele>
        <time>2022-03-27T08:22:05.000Z</time>
      </trkpt>
      <trkpt lat="48.41224" lon="-4.52771">
        <ele>14</ele>
        <time>2022-03-27T08:22:06.000Z</time>
      </trkpt>
      <trkpt lat="48.41215" lon="-4.52753">
        <ele>13.800000190735</ele>
        <time>2022-03-27T08:22:10.000Z</time>
      </trkpt>
      <trkpt lat="48.4121" lon="-4.5274">
        <ele>14.199999809265</ele>
        <time>2022-03-27T08:22:13.000Z</time>
      </trkpt>
      <trkpt lat="48.41211" lon="-4.52736">
        <ele>14.39999961853</ele>
        <time>2022-03-27T08:22:14.000Z</time>
      </trkpt>
      <trkpt lat="48.4121" lon="-4.52733">
        <ele>14.39999961853</ele>
        <time>2022-03-27T08:22:15.000Z</time>
      </trkpt>
      <trkpt lat="48.41207" lon="-4.52721">
        <ele>14.800000190735</ele>
        <time>2022-03-27T08:22:18.000Z</time>
      </trkpt>
      <trkpt lat="48.41206" lon="-4.52695">
        <ele>15.800000190735</ele>
        <time>2022-03-27T08:22:23.000Z</time>
      </trkpt>
      <trkpt lat="48.41208" lon="-4.52679">
        <ele>16.200000762939</ele>
        <time>2022-03-27T08:22:25.000Z</time>
      </trkpt>
      <trkpt lat="48.41208" lon="-4.52663">
        <ele>16.799999237061</ele>
        <time>2022-03-27T08:22:27.000Z</time>
      </trkpt>
      <trkpt lat="48.41209" lon="-4.5265">
        <ele>17.39999961853</ele>
        <time>2022-03-27T08:22:30.000Z</time>
      </trkpt>
      <trkpt lat="48.41209" lon="-4.52643">
        <ele>17.799999237061</ele>
        <time>2022-03-27T08:22:32.000Z</time>
      </trkpt>
      <trkpt lat="48.41209" lon="-4.52633">
        <ele>18.200000762939</ele>
        <time>2022-03-27T08:22:35.000Z</time>
      </trkpt>
      <trkpt lat="48.4121" lon="-4.52626">
        <ele>18.60000038147</ele>
        <time>2022-03-27T08:22:37.000Z</time>
      </trkpt>
      <trkpt lat="48.41208" lon="-4.5262">
        <ele>18.799999237061</ele>
        <time>2022-03-27T08:22:39.000Z</time>
      </trkpt>
      <trkpt lat="48.41208" lon="-4.52599">
        <ele>19.60000038147</ele>
        <time>2022-03-27T08:22:45.000Z</time>
      </trkpt>
      <trkpt lat="48.4121" lon="-4.52583">
        <ele>20.39999961853</ele>
        <time>2022-03-27T08:22:50.000Z</time>
      </trkpt>
      <trkpt lat="48.41213" lon="-4.52566">
        <ele>21.39999961853</ele>
        <time>2022-03-27T08:22:55.000Z</time>
      </trkpt>
      <trkpt lat="48.41213" lon="-4.52546">
        <ele>22.60000038147</ele>
        <time>2022-03-27T08:23:00.000Z</time>
      </trkpt>
      <trkpt lat="48.41216" lon="-4.52534">
        <ele>23.39999961853</ele>
        <time>2022-03-27T08:23:04.000Z</time>
      </trkpt>
      <trkpt lat="48.41217" lon="-4.5253">
        <ele>23.39999961853</ele>
        <time>2022-03-27T08:23:05.000Z</time>
      </trkpt>
      <trkpt lat="48.41226" lon="-4.5251">
        <ele>23.799999237061</ele>
        <time>2022-03-27T08:23:11.000Z</time>
      </trkpt>
      <trkpt lat="48.41234" lon="-4.52497">
        <ele>24</ele>
        <time>2022-03-27T08:23:16.000Z</time>
      </trkpt>
      <trkpt lat="48.41244" lon="-4.52478">
        <ele>24.39999961853</ele>
        <time>2022-03-27T08:23:22.000Z</time>
      </trkpt>
      <trkpt lat="48.41243" lon="-4.52458">
        <ele>24.60000038147</ele>
        <time>2022-03-27T08:23:27.000Z</time>
      </trkpt>
      <trkpt lat="48.41239" lon="-4.52435">
        <ele>24.39999961853</ele>
        <time>2022-03-27T08:23:32.000Z</time>
      </trkpt>
      <trkpt lat="48.41232" lon="-4.52408">
        <ele>23.60000038147</ele>
        <time>2022-03-27T08:23:37.000Z</time>
      </trkpt>
      <trkpt lat="48.41231" lon="-4.52401">
        <ele>23.39999961853</ele>
        <time>2022-03-27T08:23:38.000Z</time>
      </trkpt>
      <trkpt lat="48.41229" lon="-4.52375">
        <ele>22.200000762939</ele>
        <time>2022-03-27T08:23:42.000Z</time>
      </trkpt>
      <trkpt lat="48.4123" lon="-4.52363">
        <ele>21.799999237061</ele>
        <time>2022-03-27T08:23:44.000Z</time>
      </trkpt>
      <trkpt lat="48.41228" lon="-4.52319">
        <ele>21.60000038147</ele>
        <time>2022-03-27T08:23:51.000Z</time>
      </trkpt>
      <trkpt lat="48.41227" lon="-4.52287">
        <ele>20.39999961853</ele>
        <time>2022-03-27T08:23:56.000Z</time>
      </trkpt>
      <trkpt lat="48.41228" lon="-4.52276">
        <ele>20</ele>
        <time>2022-03-27T08:23:58.000Z</time>
      </trkpt>
      <trkpt lat="48.4123" lon="-4.52272">
        <ele>20</ele>
        <time>2022-03-27T08:23:59.000Z</time>
      </trkpt>
      <trkpt lat="48.41241" lon="-4.52265">
        <ele>20.60000038147</ele>
        <time>2022-03-27T08:24:03.000Z</time>
      </trkpt>
      <trkpt lat="48.41248" lon="-4.52261">
        <ele>21</ele>
        <time>2022-03-27T08:24:07.000Z</time>
      </trkpt>
      <trkpt lat="48.41263" lon="-4.52261">
        <ele>22</ele>
        <time>2022-03-27T08:24:13.000Z</time>
      </trkpt>
      <trkpt lat="48.41269" lon="-4.52261">
        <ele>22.39999961853</ele>
        <time>2022-03-27T08:24:15.000Z</time>
      </trkpt>
      <trkpt lat="48.41276" lon="-4.52259">
        <ele>23</ele>
        <time>2022-03-27T08:24:18.000Z</time>
      </trkpt>
      <trkpt lat="48.4128" lon="-4.52253">
        <ele>23.200000762939</ele>
        <time>2022-03-27T08:24:20.000Z</time>
      </trkpt>
      <trkpt lat="48.41281" lon="-4.52246">
        <ele>23</ele>
        <time>2022-03-27T08:24:22.000Z</time>
      </trkpt>
      <trkpt lat="48.41279" lon="-4.52219">
        <ele>21.799999237061</ele>
        <time>2022-03-27T08:24:28.000Z</time>
      </trkpt>
      <trkpt lat="48.41282" lon="-4.52189">
        <ele>21.39999961853</ele>
        <time>2022-03-27T08:24:34.000Z</time>
      </trkpt>
      <trkpt lat="48.4129" lon="-4.52175">
        <ele>21.799999237061</ele>
        <time>2022-03-27T08:24:38.000Z</time>
      </trkpt>
      <trkpt lat="48.41306" lon="-4.52154">
        <ele>23</ele>
        <time>2022-03-27T08:24:45.000Z</time>
      </trkpt>
      <trkpt lat="48.41317" lon="-4.52126">
        <ele>23.799999237061</ele>
        <time>2022-03-27T08:24:52.000Z</time>
      </trkpt>
      <trkpt lat="48.41317" lon="-4.52122">
        <ele>23.60000038147</ele>
        <time>2022-03-27T08:24:53.000Z</time>
      </trkpt>
      <trkpt lat="48.41312" lon="-4.52117">
        <ele>23.39999961853</ele>
        <time>2022-03-27T08:24:55.000Z</time>
      </trkpt>
      <trkpt lat="48.4129" lon="-4.52101">
        <ele>21.60000038147</ele>
        <time>2022-03-27T08:25:01.000Z</time>
      </trkpt>
      <trkpt lat="48.41286" lon="-4.52096">
        <ele>21.200000762939</ele>
        <time>2022-03-27T08:25:02.000Z</time>
      </trkpt>
      <trkpt lat="48.41266" lon="-4.52076">
        <ele>21</ele>
        <time>2022-03-27T08:25:06.000Z</time>
      </trkpt>
      <trkpt lat="48.41259" lon="-4.52068">
        <ele>20.60000038147</ele>
        <time>2022-03-27T08:25:08.000Z</time>
      </trkpt>
      <trkpt lat="48.41255" lon="-4.52064">
        <ele>20.39999961853</ele>
        <time>2022-03-27T08:25:09.000Z</time>
      </trkpt>
      <trkpt lat="48.41251" lon="-4.52062">
        <ele>20.200000762939</ele>
        <time>2022-03-27T08:25:10.000Z</time>
      </trkpt>
      <trkpt lat="48.41241" lon="-4.52057">
        <ele>19.39999961853</ele>
        <time>2022-03-27T08:25:12.000Z</time>
      </trkpt>
      <trkpt lat="48.41221" lon="-4.52045">
        <ele>17.200000762939</ele>
        <time>2022-03-27T08:25:16.000Z</time>
      </trkpt>
      <trkpt lat="48.41218" lon="-4.5204">
        <ele>17</ele>
        <time>2022-03-27T08:25:17.000Z</time>
      </trkpt>
      <trkpt lat="48.4122" lon="-4.52026">
        <ele>17</ele>
        <time>2022-03-27T08:25:20.000Z</time>
      </trkpt>
      <trkpt lat="48.4122" lon="-4.52023">
        <ele>17</ele>
        <time>2022-03-27T08:25:21.000Z</time>
      </trkpt>
      <trkpt lat="48.41213" lon="-4.5202">
        <ele>16.200000762939</ele>
        <time>2022-03-27T08:25:23.000Z</time>
      </trkpt>
      <trkpt lat="48.41201" lon="-4.52017">
        <ele>14.800000190735</ele>
        <time>2022-03-27T08:25:25.000Z</time>
      </trkpt>
      <trkpt lat="48.41189" lon="-4.52015">
        <ele>13.60000038147</ele>
        <time>2022-03-27T08:25:27.000Z</time>
      </trkpt>
      <trkpt lat="48.41181" lon="-4.52024">
        <ele>13</ele>
        <time>2022-03-27T08:25:29.000Z</time>
      </trkpt>
      <trkpt lat="48.41178" lon="-4.52026">
        <ele>12.800000190735</ele>
        <time>2022-03-27T08:25:30.000Z</time>
      </trkpt>
      <trkpt lat="48.41174" lon="-4.52025">
        <ele>12.800000190735</ele>
        <time>2022-03-27T08:25:31.000Z</time>
      </trkpt>
      <trkpt lat="48.4116" lon="-4.5201">
        <ele>12.199999809265</ele>
        <time>2022-03-27T08:25:34.000Z</time>
      </trkpt>
      <trkpt lat="48.41155" lon="-4.52003">
        <ele>12</ele>
        <time>2022-03-27T08:25:37.000Z</time>
      </trkpt>
      <trkpt lat="48.41154" lon="-4.51997">
        <ele>12</ele>
        <time>2022-03-27T08:25:39.000Z</time>
      </trkpt>
      <trkpt lat="48.41156" lon="-4.51988">
        <ele>12</ele>
        <time>2022-03-27T08:25:41.000Z</time>
      </trkpt>
      <trkpt lat="48.41161" lon="-4.51963">
        <ele>12.60000038147</ele>
        <time>2022-03-27T08:25:47.000Z</time>
      </trkpt>
      <trkpt lat="48.41168" lon="-4.51938">
        <ele>13.199999809265</ele>
        <time>2022-03-27T08:25:52.000Z</time>
      </trkpt>
      <trkpt lat="48.41182" lon="-4.51917">
        <ele>13.39999961853</ele>
        <time>2022-03-27T08:25:57.000Z</time>
      </trkpt>
      <trkpt lat="48.4119" lon="-4.51907">
        <ele>13.60000038147</ele>
        <time>2022-03-27T08:26:00.000Z</time>
      </trkpt>
      <trkpt lat="48.41195" lon="-4.51907">
        <ele>13.60000038147</ele>
        <time>2022-03-27T08:26:01.000Z</time>
      </trkpt>
      <trkpt lat="48.41216" lon="-4.51905">
        <ele>13.60000038147</ele>
        <time>2022-03-27T08:26:06.000Z</time>
      </trkpt>
      <trkpt lat="48.41232" lon="-4.51899">
        <ele>13.60000038147</ele>
        <time>2022-03-27T08:26:10.000Z</time>
      </trkpt>
      <trkpt lat="48.41251" lon="-4.519">
        <ele>15.39999961853</ele>
        <time>2022-03-27T08:26:15.000Z</time>
      </trkpt>
      <trkpt lat="48.41281" lon="-4.51905">
        <ele>17.39999961853</ele>
        <time>2022-03-27T08:26:22.000Z</time>
      </trkpt>
      <trkpt lat="48.41284" lon="-4.51907">
        <ele>17.60000038147</ele>
        <time>2022-03-27T08:26:23.000Z</time>
      </trkpt>
      <trkpt lat="48.41297" lon="-4.51911">
        <ele>18</ele>
        <time>2022-03-27T08:26:26.000Z</time>
      </trkpt>
      <trkpt lat="48.41301" lon="-4.51913">
        <ele>18.39999961853</ele>
        <time>2022-03-27T08:26:27.000Z</time>
      </trkpt>
      <trkpt lat="48.41313" lon="-4.5192">
        <ele>18</ele>
        <time>2022-03-27T08:26:31.000Z</time>
      </trkpt>
      <trkpt lat="48.41335" lon="-4.51926">
        <ele>17</ele>
        <time>2022-03-27T08:26:37.000Z</time>
      </trkpt>
      <trkpt lat="48.41345" lon="-4.51927">
        <ele>16.60000038147</ele>
        <time>2022-03-27T08:26:41.000Z</time>
      </trkpt>
      <trkpt lat="48.41355" lon="-4.51929">
        <ele>16.799999237061</ele>
        <time>2022-03-27T08:26:45.000Z</time>
      </trkpt>
      <trkpt lat="48.4137" lon="-4.51929">
        <ele>17.200000762939</ele>
        <time>2022-03-27T08:26:49.000Z</time>
      </trkpt>
      <trkpt lat="48.41376" lon="-4.51928">
        <ele>17.39999961853</ele>
        <time>2022-03-27T08:26:50.000Z</time>
      </trkpt>
      <trkpt lat="48.41401" lon="-4.51921">
        <ele>17.60000038147</ele>
        <time>2022-03-27T08:26:54.000Z</time>
      </trkpt>
      <trkpt lat="48.41406" lon="-4.51917">
        <ele>17.60000038147</ele>
        <time>2022-03-27T08:26:55.000Z</time>
      </trkpt>
      <trkpt lat="48.4141" lon="-4.51911">
        <ele>17.799999237061</ele>
        <time>2022-03-27T08:26:56.000Z</time>
      </trkpt>
      <trkpt lat="48.41414" lon="-4.51899">
        <ele>17.799999237061</ele>
        <time>2022-03-27T08:26:58.000Z</time>
      </trkpt>
      <trkpt lat="48.41415" lon="-4.51883">
        <ele>17.799999237061</ele>
        <time>2022-03-27T08:27:00.000Z</time>
      </trkpt>
      <trkpt lat="48.41413" lon="-4.51876">
        <ele>17.60000038147</ele>
        <time>2022-03-27T08:27:01.000Z</time>
      </trkpt>
      <trkpt lat="48.41411" lon="-4.51853">
        <ele>18.799999237061</ele>
        <time>2022-03-27T08:27:04.000Z</time>
      </trkpt>
      <trkpt lat="48.41409" lon="-4.51839">
        <ele>20.200000762939</ele>
        <time>2022-03-27T08:27:06.000Z</time>
      </trkpt>
      <trkpt lat="48.41402" lon="-4.51823">
        <ele>21.60000038147</ele>
        <time>2022-03-27T08:27:10.000Z</time>
      </trkpt>
      <trkpt lat="48.41395" lon="-4.51814">
        <ele>22.200000762939</ele>
        <time>2022-03-27T08:27:14.000Z</time>
      </trkpt>
      <trkpt lat="48.41395" lon="-4.51802">
        <ele>23.200000762939</ele>
        <time>2022-03-27T08:27:18.000Z</time>
      </trkpt>
      <trkpt lat="48.41396" lon="-4.518">
        <ele>23.60000038147</ele>
        <time>2022-03-27T08:27:19.000Z</time>
      </trkpt>
      <trkpt lat="48.41406" lon="-4.51792">
        <ele>24.799999237061</ele>
        <time>2022-03-27T08:27:23.000Z</time>
      </trkpt>
      <trkpt lat="48.41415" lon="-4.51786">
        <ele>25.799999237061</ele>
        <time>2022-03-27T08:27:27.000Z</time>
      </trkpt>
      <trkpt lat="48.41426" lon="-4.51778">
        <ele>26.799999237061</ele>
        <time>2022-03-27T08:27:32.000Z</time>
      </trkpt>
      <trkpt lat="48.41444" lon="-4.5177">
        <ele>27</ele>
        <time>2022-03-27T08:27:38.000Z</time>
      </trkpt>
      <trkpt lat="48.41464" lon="-4.51763">
        <ele>26</ele>
        <time>2022-03-27T08:27:46.000Z</time>
      </trkpt>
      <trkpt lat="48.41466" lon="-4.51762">
        <ele>25.799999237061</ele>
        <time>2022-03-27T08:27:47.000Z</time>
      </trkpt>
      <trkpt lat="48.4147" lon="-4.51758">
        <ele>25.799999237061</ele>
        <time>2022-03-27T08:27:49.000Z</time>
      </trkpt>
      <trkpt lat="48.41473" lon="-4.51757">
        <ele>25.60000038147</ele>
        <time>2022-03-27T08:27:50.000Z</time>
      </trkpt>
      <trkpt lat="48.41483" lon="-4.51749">
        <ele>25.39999961853</ele>
        <time>2022-03-27T08:27:54.000Z</time>
      </trkpt>
      <trkpt lat="48.415" lon="-4.51735">
        <ele>25</ele>
        <time>2022-03-27T08:27:59.000Z</time>
      </trkpt>
      <trkpt lat="48.41515" lon="-4.51724">
        <ele>24.60000038147</ele>
        <time>2022-03-27T08:28:03.000Z</time>
      </trkpt>
      <trkpt lat="48.41521" lon="-4.51722">
        <ele>24.60000038147</ele>
        <time>2022-03-27T08:28:04.000Z</time>
      </trkpt>
      <trkpt lat="48.4153" lon="-4.51716">
        <ele>24.60000038147</ele>
        <time>2022-03-27T08:28:06.000Z</time>
      </trkpt>
      <trkpt lat="48.41546" lon="-4.51709">
        <ele>24.799999237061</ele>
        <time>2022-03-27T08:28:09.000Z</time>
      </trkpt>
      <trkpt lat="48.41584" lon="-4.5169">
        <ele>24.39999961853</ele>
        <time>2022-03-27T08:28:16.000Z</time>
      </trkpt>
      <trkpt lat="48.41617" lon="-4.51672">
        <ele>24.60000038147</ele>
        <time>2022-03-27T08:28:22.000Z</time>
      </trkpt>
      <trkpt lat="48.41651" lon="-4.51654">
        <ele>25.799999237061</ele>
        <time>2022-03-27T08:28:28.000Z</time>
      </trkpt>
      <trkpt lat="48.41667" lon="-4.51647">
        <ele>26.200000762939</ele>
        <time>2022-03-27T08:28:32.000Z</time>
      </trkpt>
      <trkpt lat="48.41679" lon="-4.51635">
        <ele>26.60000038147</ele>
        <time>2022-03-27T08:28:36.000Z</time>
      </trkpt>
      <trkpt lat="48.41683" lon="-4.51633">
        <ele>26.60000038147</ele>
        <time>2022-03-27T08:28:37.000Z</time>
      </trkpt>
      <trkpt lat="48.41695" lon="-4.5163">
        <ele>27.200000762939</ele>
        <time>2022-03-27T08:28:40.000Z</time>
      </trkpt>
      <trkpt lat="48.41712" lon="-4.5162">
        <ele>28</ele>
        <time>2022-03-27T08:28:45.000Z</time>
      </trkpt>
      <trkpt lat="48.41731" lon="-4.51607">
        <ele>29.39999961853</ele>
        <time>2022-03-27T08:28:51.000Z</time>
      </trkpt>
      <trkpt lat="48.41745" lon="-4.51604">
        <ele>30.200000762939</ele>
        <time>2022-03-27T08:28:56.000Z</time>
      </trkpt>
      <trkpt lat="48.41764" lon="-4.51601">
        <ele>31</ele>
        <time>2022-03-27T08:29:01.000Z</time>
      </trkpt>
      <trkpt lat="48.41777" lon="-4.51597">
        <ele>32.200000762939</ele>
        <time>2022-03-27T08:29:05.000Z</time>
      </trkpt>
      <trkpt lat="48.41784" lon="-4.51598">
        <ele>32.599998474121</ele>
        <time>2022-03-27T08:29:07.000Z</time>
      </trkpt>
      <trkpt lat="48.41788" lon="-4.516">
        <ele>32.400001525879</ele>
        <time>2022-03-27T08:29:08.000Z</time>
      </trkpt>
      <trkpt lat="48.41809" lon="-4.51608">
        <ele>31</ele>
        <time>2022-03-27T08:29:12.000Z</time>
      </trkpt>
      <trkpt lat="48.41815" lon="-4.51608">
        <ele>30.799999237061</ele>
        <time>2022-03-27T08:29:13.000Z</time>
      </trkpt>
      <trkpt lat="48.41822" lon="-4.51607">
        <ele>30.799999237061</ele>
        <time>2022-03-27T08:29:14.000Z</time>
      </trkpt>
      <trkpt lat="48.41835" lon="-4.51603">
        <ele>31.39999961853</ele>
        <time>2022-03-27T08:29:16.000Z</time>
      </trkpt>
      <trkpt lat="48.41841" lon="-4.516">
        <ele>31.799999237061</ele>
        <time>2022-03-27T08:29:17.000Z</time>
      </trkpt>
      <trkpt lat="48.41854" lon="-4.5159">
        <ele>32.799999237061</ele>
        <time>2022-03-27T08:29:19.000Z</time>
      </trkpt>
      <trkpt lat="48.41864" lon="-4.51581">
        <ele>33.400001525879</ele>
        <time>2022-03-27T08:29:21.000Z</time>
      </trkpt>
      <trkpt lat="48.41868" lon="-4.51577">
        <ele>33.799999237061</ele>
        <time>2022-03-27T08:29:22.000Z</time>
      </trkpt>
      <trkpt lat="48.41873" lon="-4.51568">
        <ele>34.799999237061</ele>
        <time>2022-03-27T08:29:24.000Z</time>
      </trkpt>
      <trkpt lat="48.41876" lon="-4.51558">
        <ele>36.200000762939</ele>
        <time>2022-03-27T08:29:27.000Z</time>
      </trkpt>
      <trkpt lat="48.41876" lon="-4.51555">
        <ele>36.599998474121</ele>
        <time>2022-03-27T08:29:28.000Z</time>
      </trkpt>
      <trkpt lat="48.41881" lon="-4.51547">
        <ele>37.599998474121</ele>
        <time>2022-03-27T08:29:31.000Z</time>
      </trkpt>
      <trkpt lat="48.41887" lon="-4.51539">
        <ele>38.400001525879</ele>
        <time>2022-03-27T08:29:33.000Z</time>
      </trkpt>
      <trkpt lat="48.41901" lon="-4.51521">
        <ele>39.599998474121</ele>
        <time>2022-03-27T08:29:38.000Z</time>
      </trkpt>
      <trkpt lat="48.41916" lon="-4.51509">
        <ele>39.799999237061</ele>
        <time>2022-03-27T08:29:43.000Z</time>
      </trkpt>
      <trkpt lat="48.41919" lon="-4.51505">
        <ele>40</ele>
        <time>2022-03-27T08:29:45.000Z</time>
      </trkpt>
      <trkpt lat="48.41924" lon="-4.51496">
        <ele>40.599998474121</ele>
        <time>2022-03-27T08:29:47.000Z</time>
      </trkpt>
      <trkpt lat="48.41938" lon="-4.51474">
        <ele>41.799999237061</ele>
        <time>2022-03-27T08:29:52.000Z</time>
      </trkpt>
      <trkpt lat="48.41958" lon="-4.51464">
        <ele>41</ele>
        <time>2022-03-27T08:29:56.000Z</time>
      </trkpt>
      <trkpt lat="48.41978" lon="-4.5146">
        <ele>39.400001525879</ele>
        <time>2022-03-27T08:30:01.000Z</time>
      </trkpt>
      <trkpt lat="48.4198" lon="-4.5146">
        <ele>39.400001525879</ele>
        <time>2022-03-27T08:30:02.000Z</time>
      </trkpt>
      <trkpt lat="48.42002" lon="-4.51445">
        <ele>38.799999237061</ele>
        <time>2022-03-27T08:30:28.000Z</time>
      </trkpt>
      <trkpt lat="48.42008" lon="-4.51443">
        <ele>38.599998474121</ele>
        <time>2022-03-27T08:30:30.000Z</time>
      </trkpt>
      <trkpt lat="48.42024" lon="-4.51449">
        <ele>36.599998474121</ele>
        <time>2022-03-27T08:30:34.000Z</time>
      </trkpt>
      <trkpt lat="48.42045" lon="-4.51456">
        <ele>34.400001525879</ele>
        <time>2022-03-27T08:30:39.000Z</time>
      </trkpt>
      <trkpt lat="48.42053" lon="-4.51456">
        <ele>33.799999237061</ele>
        <time>2022-03-27T08:30:41.000Z</time>
      </trkpt>
      <trkpt lat="48.42063" lon="-4.51456">
        <ele>33.200000762939</ele>
        <time>2022-03-27T08:30:43.000Z</time>
      </trkpt>
      <trkpt lat="48.4207" lon="-4.51458">
        <ele>32.599998474121</ele>
        <time>2022-03-27T08:30:45.000Z</time>
      </trkpt>
      <trkpt lat="48.42075" lon="-4.51454">
        <ele>32.799999237061</ele>
        <time>2022-03-27T08:30:47.000Z</time>
      </trkpt>
      <trkpt lat="48.42086" lon="-4.51435">
        <ele>34.799999237061</ele>
        <time>2022-03-27T08:30:52.000Z</time>
      </trkpt>
      <trkpt lat="48.4209" lon="-4.51418">
        <ele>36.799999237061</ele>
        <time>2022-03-27T08:30:57.000Z</time>
      </trkpt>
      <trkpt lat="48.42098" lon="-4.51403">
        <ele>38.200000762939</ele>
        <time>2022-03-27T08:31:03.000Z</time>
      </trkpt>
      <trkpt lat="48.42104" lon="-4.51395">
        <ele>39.400001525879</ele>
        <time>2022-03-27T08:31:05.000Z</time>
      </trkpt>
      <trkpt lat="48.4211" lon="-4.51387">
        <ele>40.799999237061</ele>
        <time>2022-03-27T08:31:07.000Z</time>
      </trkpt>
      <trkpt lat="48.42118" lon="-4.51378">
        <ele>42.200000762939</ele>
        <time>2022-03-27T08:31:10.000Z</time>
      </trkpt>
      <trkpt lat="48.42119" lon="-4.51375">
        <ele>42.599998474121</ele>
        <time>2022-03-27T08:31:11.000Z</time>
      </trkpt>
      <trkpt lat="48.42121" lon="-4.51368">
        <ele>43.599998474121</ele>
        <time>2022-03-27T08:31:13.000Z</time>
      </trkpt>
      <trkpt lat="48.42124" lon="-4.51363">
        <ele>44</ele>
        <time>2022-03-27T08:31:15.000Z</time>
      </trkpt>
      <trkpt lat="48.42128" lon="-4.51359">
        <ele>44.400001525879</ele>
        <time>2022-03-27T08:31:17.000Z</time>
      </trkpt>
      <trkpt lat="48.42131" lon="-4.51358">
        <ele>44.400001525879</ele>
        <time>2022-03-27T08:31:19.000Z</time>
      </trkpt>
      <trkpt lat="48.42134" lon="-4.51348">
        <ele>45</ele>
        <time>2022-03-27T08:31:23.000Z</time>
      </trkpt>
      <trkpt lat="48.42135" lon="-4.51343">
        <ele>45.200000762939</ele>
        <time>2022-03-27T08:31:24.000Z</time>
      </trkpt>
      <trkpt lat="48.42139" lon="-4.51331">
        <ele>45.799999237061</ele>
        <time>2022-03-27T08:31:27.000Z</time>
      </trkpt>
      <trkpt lat="48.42144" lon="-4.51324">
        <ele>46.200000762939</ele>
        <time>2022-03-27T08:31:29.000Z</time>
      </trkpt>
      <trkpt lat="48.42159" lon="-4.51309">
        <ele>47.200000762939</ele>
        <time>2022-03-27T08:31:34.000Z</time>
      </trkpt>
      <trkpt lat="48.42168" lon="-4.51292">
        <ele>48.400001525879</ele>
        <time>2022-03-27T08:31:40.000Z</time>
      </trkpt>
      <trkpt lat="48.42174" lon="-4.51281">
        <ele>49</ele>
        <time>2022-03-27T08:31:44.000Z</time>
      </trkpt>
      <trkpt lat="48.42179" lon="-4.51276">
        <ele>48.799999237061</ele>
        <time>2022-03-27T08:31:46.000Z</time>
      </trkpt>
      <trkpt lat="48.42187" lon="-4.5126">
        <ele>48.599998474121</ele>
        <time>2022-03-27T08:31:53.000Z</time>
      </trkpt>
      <trkpt lat="48.42188" lon="-4.51258">
        <ele>48.400001525879</ele>
        <time>2022-03-27T08:31:54.000Z</time>
      </trkpt>
      <trkpt lat="48.42194" lon="-4.51247">
        <ele>48.200000762939</ele>
        <time>2022-03-27T08:31:58.000Z</time>
      </trkpt>
      <trkpt lat="48.42198" lon="-4.51241">
        <ele>48.200000762939</ele>
        <time>2022-03-27T08:32:01.000Z</time>
      </trkpt>
      <trkpt lat="48.42202" lon="-4.51238">
        <ele>48.200000762939</ele>
        <time>2022-03-27T08:32:04.000Z</time>
      </trkpt>
      <trkpt lat="48.42208" lon="-4.5123">
        <ele>48</ele>
        <time>2022-03-27T08:32:10.000Z</time>
      </trkpt>
      <trkpt lat="48.42213" lon="-4.51226">
        <ele>48</ele>
        <time>2022-03-27T08:32:16.000Z</time>
      </trkpt>
      <trkpt lat="48.4222" lon="-4.5122">
        <ele>48</ele>
        <time>2022-03-27T08:32:21.000Z</time>
      </trkpt>
      <trkpt lat="48.42232" lon="-4.51217">
        <ele>48</ele>
        <time>2022-03-27T08:32:28.000Z</time>
      </trkpt>
      <trkpt lat="48.42234" lon="-4.51217">
        <ele>48</ele>
        <time>2022-03-27T08:32:29.000Z</time>
      </trkpt>
      <trkpt lat="48.42244" lon="-4.51223">
        <ele>48.400001525879</ele>
        <time>2022-03-27T08:32:35.000Z</time>
      </trkpt>
      <trkpt lat="48.42249" lon="-4.51231">
        <ele>48.599998474121</ele>
        <time>2022-03-27T08:32:40.000Z</time>
      </trkpt>
      <trkpt lat="48.42251" lon="-4.51231">
        <ele>48.799999237061</ele>
        <time>2022-03-27T08:32:42.000Z</time>
      </trkpt>
      <trkpt lat="48.42254" lon="-4.51234">
        <ele>49</ele>
        <time>2022-03-27T08:32:44.000Z</time>
      </trkpt>
      <trkpt lat="48.42258" lon="-4.51235">
        <ele>49.200000762939</ele>
        <time>2022-03-27T08:32:47.000Z</time>
      </trkpt>
      <trkpt lat="48.42261" lon="-4.51236">
        <ele>49.200000762939</ele>
        <time>2022-03-27T08:32:49.000Z</time>
      </trkpt>
      <trkpt lat="48.42272" lon="-4.51235">
        <ele>49.599998474121</ele>
        <time>2022-03-27T08:32:55.000Z</time>
      </trkpt>
      <trkpt lat="48.42276" lon="-4.51235">
        <ele>49.799999237061</ele>
        <time>2022-03-27T08:32:57.000Z</time>
      </trkpt>
      <trkpt lat="48.42281" lon="-4.51233">
        <ele>50</ele>
        <time>2022-03-27T08:33:00.000Z</time>
      </trkpt>
      <trkpt lat="48.42287" lon="-4.5123">
        <ele>50</ele>
        <time>2022-03-27T08:33:03.000Z</time>
      </trkpt>
      <trkpt lat="48.42292" lon="-4.51226">
        <ele>50.200000762939</ele>
        <time>2022-03-27T08:33:06.000Z</time>
      </trkpt>
      <trkpt lat="48.42308" lon="-4.51217">
        <ele>50.599998474121</ele>
        <time>2022-03-27T08:33:13.000Z</time>
      </trkpt>
      <trkpt lat="48.42321" lon="-4.51204">
        <ele>50.799999237061</ele>
        <time>2022-03-27T08:33:18.000Z</time>
      </trkpt>
      <trkpt lat="48.42336" lon="-4.51187">
        <ele>51</ele>
        <time>2022-03-27T08:33:24.000Z</time>
      </trkpt>
      <trkpt lat="48.42352" lon="-4.51163">
        <ele>51.200000762939</ele>
        <time>2022-03-27T08:33:31.000Z</time>
      </trkpt>
      <trkpt lat="48.42371" lon="-4.51154">
        <ele>52</ele>
        <time>2022-03-27T08:33:37.000Z</time>
      </trkpt>
      <trkpt lat="48.42375" lon="-4.51154">
        <ele>52.200000762939</ele>
        <time>2022-03-27T08:33:38.000Z</time>
      </trkpt>
      <trkpt lat="48.42384" lon="-4.51153">
        <ele>52.599998474121</ele>
        <time>2022-03-27T08:33:40.000Z</time>
      </trkpt>
      <trkpt lat="48.42389" lon="-4.5115">
        <ele>52.799999237061</ele>
        <time>2022-03-27T08:33:41.000Z</time>
      </trkpt>
      <trkpt lat="48.42399" lon="-4.51142">
        <ele>53</ele>
        <time>2022-03-27T08:33:43.000Z</time>
      </trkpt>
      <trkpt lat="48.42419" lon="-4.51133">
        <ele>53.599998474121</ele>
        <time>2022-03-27T08:33:46.000Z</time>
      </trkpt>
      <trkpt lat="48.42464" lon="-4.51115">
        <ele>52.400001525879</ele>
        <time>2022-03-27T08:33:52.000Z</time>
      </trkpt>
      <trkpt lat="48.42507" lon="-4.511">
        <ele>50.799999237061</ele>
        <time>2022-03-27T08:33:57.000Z</time>
      </trkpt>
      <trkpt lat="48.42529" lon="-4.51077">
        <ele>50.200000762939</ele>
        <time>2022-03-27T08:34:00.000Z</time>
      </trkpt>
      <trkpt lat="48.42535" lon="-4.51068">
        <ele>50</ele>
        <time>2022-03-27T08:34:01.000Z</time>
      </trkpt>
      <trkpt lat="48.42554" lon="-4.51036">
        <ele>49.599998474121</ele>
        <time>2022-03-27T08:34:05.000Z</time>
      </trkpt>
      <trkpt lat="48.4256" lon="-4.51023">
        <ele>50.400001525879</ele>
        <time>2022-03-27T08:34:07.000Z</time>
      </trkpt>
      <trkpt lat="48.42565" lon="-4.51009">
        <ele>51.599998474121</ele>
        <time>2022-03-27T08:34:09.000Z</time>
      </trkpt>
      <trkpt lat="48.42568" lon="-4.51003">
        <ele>52.200000762939</ele>
        <time>2022-03-27T08:34:10.000Z</time>
      </trkpt>
      <trkpt lat="48.42572" lon="-4.50991">
        <ele>53.200000762939</ele>
        <time>2022-03-27T08:34:12.000Z</time>
      </trkpt>
      <trkpt lat="48.42576" lon="-4.50985">
        <ele>53.599998474121</ele>
        <time>2022-03-27T08:34:13.000Z</time>
      </trkpt>
      <trkpt lat="48.4259" lon="-4.50959">
        <ele>55.599998474121</ele>
        <time>2022-03-27T08:34:18.000Z</time>
      </trkpt>
      <trkpt lat="48.42601" lon="-4.50938">
        <ele>56</ele>
        <time>2022-03-27T08:34:22.000Z</time>
      </trkpt>
      <trkpt lat="48.42612" lon="-4.50912">
        <ele>56.200000762939</ele>
        <time>2022-03-27T08:34:27.000Z</time>
      </trkpt>
      <trkpt lat="48.42623" lon="-4.50897">
        <ele>56</ele>
        <time>2022-03-27T08:34:30.000Z</time>
      </trkpt>
      <trkpt lat="48.42626" lon="-4.50893">
        <ele>56</ele>
        <time>2022-03-27T08:34:31.000Z</time>
      </trkpt>
      <trkpt lat="48.42637" lon="-4.5088">
        <ele>56</ele>
        <time>2022-03-27T08:34:35.000Z</time>
      </trkpt>
      <trkpt lat="48.4265" lon="-4.50865">
        <ele>55.799999237061</ele>
        <time>2022-03-27T08:34:40.000Z</time>
      </trkpt>
      <trkpt lat="48.42658" lon="-4.50858">
        <ele>55.799999237061</ele>
        <time>2022-03-27T08:34:43.000Z</time>
      </trkpt>
      <trkpt lat="48.42662" lon="-4.5085">
        <ele>56</ele>
        <time>2022-03-27T08:34:45.000Z</time>
      </trkpt>
      <trkpt lat="48.42679" lon="-4.50835">
        <ele>56.200000762939</ele>
        <time>2022-03-27T08:34:50.000Z</time>
      </trkpt>
      <trkpt lat="48.42703" lon="-4.50818">
        <ele>54.200000762939</ele>
        <time>2022-03-27T08:34:55.000Z</time>
      </trkpt>
      <trkpt lat="48.42729" lon="-4.50803">
        <ele>51.799999237061</ele>
        <time>2022-03-27T08:35:00.000Z</time>
      </trkpt>
      <trkpt lat="48.42751" lon="-4.50787">
        <ele>49.599998474121</ele>
        <time>2022-03-27T08:35:06.000Z</time>
      </trkpt>
      <trkpt lat="48.42773" lon="-4.50768">
        <ele>48</ele>
        <time>2022-03-27T08:35:10.000Z</time>
      </trkpt>
      <trkpt lat="48.42778" lon="-4.50762">
        <ele>48</ele>
        <time>2022-03-27T08:35:11.000Z</time>
      </trkpt>
      <trkpt lat="48.42781" lon="-4.50755">
        <ele>48</ele>
        <time>2022-03-27T08:35:12.000Z</time>
      </trkpt>
      <trkpt lat="48.42784" lon="-4.50735">
        <ele>48.200000762939</ele>
        <time>2022-03-27T08:35:15.000Z</time>
      </trkpt>
      <trkpt lat="48.42775" lon="-4.50699">
        <ele>48.799999237061</ele>
        <time>2022-03-27T08:35:21.000Z</time>
      </trkpt>
      <trkpt lat="48.42774" lon="-4.50656">
        <ele>49.400001525879</ele>
        <time>2022-03-27T08:35:28.000Z</time>
      </trkpt>
      <trkpt lat="48.42773" lon="-4.5062">
        <ele>49.799999237061</ele>
        <time>2022-03-27T08:35:34.000Z</time>
      </trkpt>
      <trkpt lat="48.4277" lon="-4.50591">
        <ele>49.599998474121</ele>
        <time>2022-03-27T08:35:39.000Z</time>
      </trkpt>
      <trkpt lat="48.42766" lon="-4.50567">
        <ele>49.400001525879</ele>
        <time>2022-03-27T08:35:45.000Z</time>
      </trkpt>
      <trkpt lat="48.42766" lon="-4.50564">
        <ele>49.400001525879</ele>
        <time>2022-03-27T08:35:47.000Z</time>
      </trkpt>
      <trkpt lat="48.42765" lon="-4.5056">
        <ele>49.400001525879</ele>
        <time>2022-03-27T08:35:50.000Z</time>
      </trkpt>
      <trkpt lat="48.42766" lon="-4.50556">
        <ele>49.200000762939</ele>
        <time>2022-03-27T08:35:51.000Z</time>
      </trkpt>
      <trkpt lat="48.42776" lon="-4.50545">
        <ele>49</ele>
        <time>2022-03-27T08:35:55.000Z</time>
      </trkpt>
      <trkpt lat="48.42785" lon="-4.50542">
        <ele>48.799999237061</ele>
        <time>2022-03-27T08:35:57.000Z</time>
      </trkpt>
      <trkpt lat="48.42794" lon="-4.5054">
        <ele>48.799999237061</ele>
        <time>2022-03-27T08:35:59.000Z</time>
      </trkpt>
      <trkpt lat="48.4282" lon="-4.5054">
        <ele>48.400001525879</ele>
        <time>2022-03-27T08:36:05.000Z</time>
      </trkpt>
      <trkpt lat="48.42825" lon="-4.5054">
        <ele>48.400001525879</ele>
        <time>2022-03-27T08:36:06.000Z</time>
      </trkpt>
      <trkpt lat="48.42836" lon="-4.50537">
        <ele>48.200000762939</ele>
        <time>2022-03-27T08:36:08.000Z</time>
      </trkpt>
      <trkpt lat="48.42841" lon="-4.50532">
        <ele>48.200000762939</ele>
        <time>2022-03-27T08:36:09.000Z</time>
      </trkpt>
      <trkpt lat="48.42843" lon="-4.50526">
        <ele>48.200000762939</ele>
        <time>2022-03-27T08:36:10.000Z</time>
      </trkpt>
      <trkpt lat="48.42843" lon="-4.50512">
        <ele>48.400001525879</ele>
        <time>2022-03-27T08:36:12.000Z</time>
      </trkpt>
      <trkpt lat="48.42836" lon="-4.50482">
        <ele>48.799999237061</ele>
        <time>2022-03-27T08:36:16.000Z</time>
      </trkpt>
      <trkpt lat="48.42831" lon="-4.50461">
        <ele>49</ele>
        <time>2022-03-27T08:36:19.000Z</time>
      </trkpt>
      <trkpt lat="48.42823" lon="-4.50429">
        <ele>49</ele>
        <time>2022-03-27T08:36:24.000Z</time>
      </trkpt>
      <trkpt lat="48.42818" lon="-4.50403">
        <ele>49</ele>
        <time>2022-03-27T08:36:28.000Z</time>
      </trkpt>
      <trkpt lat="48.42814" lon="-4.50389">
        <ele>49</ele>
        <time>2022-03-27T08:36:30.000Z</time>
      </trkpt>
      <trkpt lat="48.42812" lon="-4.50382">
        <ele>49</ele>
        <time>2022-03-27T08:36:31.000Z</time>
      </trkpt>
      <trkpt lat="48.42811" lon="-4.50375">
        <ele>49</ele>
        <time>2022-03-27T08:36:32.000Z</time>
      </trkpt>
      <trkpt lat="48.42808" lon="-4.50361">
        <ele>49.200000762939</ele>
        <time>2022-03-27T08:36:34.000Z</time>
      </trkpt>
      <trkpt lat="48.42804" lon="-4.50348">
        <ele>50</ele>
        <time>2022-03-27T08:36:36.000Z</time>
      </trkpt>
      <trkpt lat="48.428" lon="-4.50333">
        <ele>50.599998474121</ele>
        <time>2022-03-27T08:36:38.000Z</time>
      </trkpt>
      <trkpt lat="48.42795" lon="-4.5032">
        <ele>51</ele>
        <time>2022-03-27T08:36:40.000Z</time>
      </trkpt>
      <trkpt lat="48.42778" lon="-4.50305">
        <ele>51.400001525879</ele>
        <time>2022-03-27T08:36:44.000Z</time>
      </trkpt>
      <trkpt lat="48.42765" lon="-4.50284">
        <ele>52</ele>
        <time>2022-03-27T08:36:48.000Z</time>
      </trkpt>
      <trkpt lat="48.42762" lon="-4.5028">
        <ele>52.200000762939</ele>
        <time>2022-03-27T08:36:49.000Z</time>
      </trkpt>
      <trkpt lat="48.42747" lon="-4.50269">
        <ele>52.599998474121</ele>
        <time>2022-03-27T08:36:53.000Z</time>
      </trkpt>
      <trkpt lat="48.42723" lon="-4.50261">
        <ele>53.599998474121</ele>
        <time>2022-03-27T08:36:59.000Z</time>
      </trkpt>
      <trkpt lat="48.42719" lon="-4.5026">
        <ele>53.599998474121</ele>
        <time>2022-03-27T08:37:01.000Z</time>
      </trkpt>
      <trkpt lat="48.42715" lon="-4.50262">
        <ele>53.799999237061</ele>
        <time>2022-03-27T08:37:03.000Z</time>
      </trkpt>
      <trkpt lat="48.42699" lon="-4.50264">
        <ele>54.400001525879</ele>
        <time>2022-03-27T08:37:09.000Z</time>
      </trkpt>
      <trkpt lat="48.42686" lon="-4.50262">
        <ele>54.799999237061</ele>
        <time>2022-03-27T08:37:15.000Z</time>
      </trkpt>
      <trkpt lat="48.42683" lon="-4.50261">
        <ele>55</ele>
        <time>2022-03-27T08:37:16.000Z</time>
      </trkpt>
      <trkpt lat="48.42669" lon="-4.50256">
        <ele>55.400001525879</ele>
        <time>2022-03-27T08:37:21.000Z</time>
      </trkpt>
      <trkpt lat="48.42654" lon="-4.50247">
        <ele>56</ele>
        <time>2022-03-27T08:37:28.000Z</time>
      </trkpt>
      <trkpt lat="48.42646" lon="-4.50245">
        <ele>56.200000762939</ele>
        <time>2022-03-27T08:37:32.000Z</time>
      </trkpt>
      <trkpt lat="48.42645" lon="-4.50243">
        <ele>56.400001525879</ele>
        <time>2022-03-27T08:37:33.000Z</time>
      </trkpt>
      <trkpt lat="48.42643" lon="-4.50239">
        <ele>56.400001525879</ele>
        <time>2022-03-27T08:37:34.000Z</time>
      </trkpt>
      <trkpt lat="48.42642" lon="-4.50226">
        <ele>56.599998474121</ele>
        <time>2022-03-27T08:37:37.000Z</time>
      </trkpt>
      <trkpt lat="48.42643" lon="-4.50194">
        <ele>57</ele>
        <time>2022-03-27T08:37:44.000Z</time>
      </trkpt>
      <trkpt lat="48.42652" lon="-4.50167">
        <ele>56.799999237061</ele>
        <time>2022-03-27T08:37:49.000Z</time>
      </trkpt>
      <trkpt lat="48.42672" lon="-4.50126">
        <ele>56.400001525879</ele>
        <time>2022-03-27T08:37:55.000Z</time>
      </trkpt>
      <trkpt lat="48.4268" lon="-4.50106">
        <ele>56.400001525879</ele>
        <time>2022-03-27T08:37:58.000Z</time>
      </trkpt>
      <trkpt lat="48.42686" lon="-4.50085">
        <ele>56.599998474121</ele>
        <time>2022-03-27T08:38:01.000Z</time>
      </trkpt>
      <trkpt lat="48.4269" lon="-4.50072">
        <ele>56.599998474121</ele>
        <time>2022-03-27T08:38:03.000Z</time>
      </trkpt>
      <trkpt lat="48.42696" lon="-4.50054">
        <ele>56.799999237061</ele>
        <time>2022-03-27T08:38:06.000Z</time>
      </trkpt>
      <trkpt lat="48.42707" lon="-4.50027">
        <ele>56.799999237061</ele>
        <time>2022-03-27T08:38:11.000Z</time>
      </trkpt>
      <trkpt lat="48.42709" lon="-4.50022">
        <ele>56.799999237061</ele>
        <time>2022-03-27T08:38:12.000Z</time>
      </trkpt>
      <trkpt lat="48.42714" lon="-4.50011">
        <ele>56.400001525879</ele>
        <time>2022-03-27T08:38:14.000Z</time>
      </trkpt>
      <trkpt lat="48.42723" lon="-4.49989">
        <ele>56.200000762939</ele>
        <time>2022-03-27T08:38:18.000Z</time>
      </trkpt>
      <trkpt lat="48.42728" lon="-4.49971">
        <ele>56.200000762939</ele>
        <time>2022-03-27T08:38:22.000Z</time>
      </trkpt>
      <trkpt lat="48.4273" lon="-4.49969">
        <ele>56.200000762939</ele>
        <time>2022-03-27T08:38:23.000Z</time>
      </trkpt>
      <trkpt lat="48.42734" lon="-4.4996">
        <ele>56</ele>
        <time>2022-03-27T08:38:27.000Z</time>
      </trkpt>
      <trkpt lat="48.42739" lon="-4.49947">
        <ele>56</ele>
        <time>2022-03-27T08:38:30.000Z</time>
      </trkpt>
      <trkpt lat="48.42739" lon="-4.49944">
        <ele>56.200000762939</ele>
        <time>2022-03-27T08:38:31.000Z</time>
      </trkpt>
      <trkpt lat="48.42737" lon="-4.49917">
        <ele>57.599998474121</ele>
        <time>2022-03-27T08:38:36.000Z</time>
      </trkpt>
      <trkpt lat="48.42738" lon="-4.49908">
        <ele>58</ele>
        <time>2022-03-27T08:38:38.000Z</time>
      </trkpt>
      <trkpt lat="48.4274" lon="-4.49904">
        <ele>58</ele>
        <time>2022-03-27T08:38:39.000Z</time>
      </trkpt>
      <trkpt lat="48.42744" lon="-4.49881">
        <ele>58.799999237061</ele>
        <time>2022-03-27T08:38:43.000Z</time>
      </trkpt>
      <trkpt lat="48.42747" lon="-4.49869">
        <ele>59</ele>
        <time>2022-03-27T08:38:45.000Z</time>
      </trkpt>
      <trkpt lat="48.4275" lon="-4.49855">
        <ele>59.400001525879</ele>
        <time>2022-03-27T08:38:47.000Z</time>
      </trkpt>
      <trkpt lat="48.4275" lon="-4.49847">
        <ele>59.599998474121</ele>
        <time>2022-03-27T08:38:48.000Z</time>
      </trkpt>
      <trkpt lat="48.42751" lon="-4.49832">
        <ele>60.200000762939</ele>
        <time>2022-03-27T08:38:50.000Z</time>
      </trkpt>
      <trkpt lat="48.42749" lon="-4.49813">
        <ele>61</ele>
        <time>2022-03-27T08:38:53.000Z</time>
      </trkpt>
      <trkpt lat="48.42745" lon="-4.49791">
        <ele>61.599998474121</ele>
        <time>2022-03-27T08:38:58.000Z</time>
      </trkpt>
      <trkpt lat="48.42735" lon="-4.49772">
        <ele>62</ele>
        <time>2022-03-27T08:39:04.000Z</time>
      </trkpt>
      <trkpt lat="48.42719" lon="-4.49743">
        <ele>62.200000762939</ele>
        <time>2022-03-27T08:39:12.000Z</time>
      </trkpt>
      <trkpt lat="48.4271" lon="-4.49724">
        <ele>63</ele>
        <time>2022-03-27T08:39:18.000Z</time>
      </trkpt>
      <trkpt lat="48.42701" lon="-4.49707">
        <ele>63.799999237061</ele>
        <time>2022-03-27T08:39:24.000Z</time>
      </trkpt>
      <trkpt lat="48.42691" lon="-4.4969">
        <ele>64.400001525879</ele>
        <time>2022-03-27T08:39:30.000Z</time>
      </trkpt>
      <trkpt lat="48.42686" lon="-4.49679">
        <ele>64.599998474121</ele>
        <time>2022-03-27T08:39:34.000Z</time>
      </trkpt>
      <trkpt lat="48.42677" lon="-4.49667">
        <ele>64.599998474121</ele>
        <time>2022-03-27T08:39:39.000Z</time>
      </trkpt>
      <trkpt lat="48.42676" lon="-4.49664">
        <ele>64.599998474121</ele>
        <time>2022-03-27T08:39:40.000Z</time>
      </trkpt>
      <trkpt lat="48.42671" lon="-4.49654">
        <ele>64.400001525879</ele>
        <time>2022-03-27T08:39:44.000Z</time>
      </trkpt>
      <trkpt lat="48.42664" lon="-4.49639">
        <ele>64.199996948242</ele>
        <time>2022-03-27T08:39:50.000Z</time>
      </trkpt>
      <trkpt lat="48.42661" lon="-4.49626">
        <ele>64.199996948242</ele>
        <time>2022-03-27T08:39:54.000Z</time>
      </trkpt>
      <trkpt lat="48.42661" lon="-4.49623">
        <ele>64</ele>
        <time>2022-03-27T08:39:55.000Z</time>
      </trkpt>
      <trkpt lat="48.42658" lon="-4.49605">
        <ele>64.199996948242</ele>
        <time>2022-03-27T08:39:59.000Z</time>
      </trkpt>
      <trkpt lat="48.42649" lon="-4.49576">
        <ele>65</ele>
        <time>2022-03-27T08:40:04.000Z</time>
      </trkpt>
      <trkpt lat="48.4265" lon="-4.49549">
        <ele>66</ele>
        <time>2022-03-27T08:40:10.000Z</time>
      </trkpt>
      <trkpt lat="48.42652" lon="-4.49546">
        <ele>66</ele>
        <time>2022-03-27T08:40:11.000Z</time>
      </trkpt>
      <trkpt lat="48.42657" lon="-4.49545">
        <ele>66</ele>
        <time>2022-03-27T08:40:13.000Z</time>
      </trkpt>
      <trkpt lat="48.42663" lon="-4.49545">
        <ele>65.800003051758</ele>
        <time>2022-03-27T08:40:15.000Z</time>
      </trkpt>
      <trkpt lat="48.4267" lon="-4.49551">
        <ele>65.599998474121</ele>
        <time>2022-03-27T08:40:17.000Z</time>
      </trkpt>
      <trkpt lat="48.42688" lon="-4.49568">
        <ele>65.199996948242</ele>
        <time>2022-03-27T08:40:21.000Z</time>
      </trkpt>
      <trkpt lat="48.42694" lon="-4.49573">
        <ele>65</ele>
        <time>2022-03-27T08:40:22.000Z</time>
      </trkpt>
      <trkpt lat="48.42706" lon="-4.49583">
        <ele>64.800003051758</ele>
        <time>2022-03-27T08:40:24.000Z</time>
      </trkpt>
      <trkpt lat="48.42732" lon="-4.49605">
        <ele>62.400001525879</ele>
        <time>2022-03-27T08:40:28.000Z</time>
      </trkpt>
      <trkpt lat="48.42745" lon="-4.49614">
        <ele>61.200000762939</ele>
        <time>2022-03-27T08:40:30.000Z</time>
      </trkpt>
      <trkpt lat="48.4277" lon="-4.49624">
        <ele>59.799999237061</ele>
        <time>2022-03-27T08:40:33.000Z</time>
      </trkpt>
      <trkpt lat="48.42812" lon="-4.49631">
        <ele>57.799999237061</ele>
        <time>2022-03-27T08:40:38.000Z</time>
      </trkpt>
      <trkpt lat="48.42818" lon="-4.4963">
        <ele>57.400001525879</ele>
        <time>2022-03-27T08:40:39.000Z</time>
      </trkpt>
      <trkpt lat="48.42829" lon="-4.49625">
        <ele>57</ele>
        <time>2022-03-27T08:40:42.000Z</time>
      </trkpt>
      <trkpt lat="48.4284" lon="-4.49618">
        <ele>56.400001525879</ele>
        <time>2022-03-27T08:40:47.000Z</time>
      </trkpt>
      <trkpt lat="48.42849" lon="-4.49619">
        <ele>56</ele>
        <time>2022-03-27T08:40:52.000Z</time>
      </trkpt>
      <trkpt lat="48.42858" lon="-4.4962">
        <ele>56.200000762939</ele>
        <time>2022-03-27T08:40:57.000Z</time>
      </trkpt>
      <trkpt lat="48.4287" lon="-4.49623">
        <ele>56.599998474121</ele>
        <time>2022-03-27T08:41:03.000Z</time>
      </trkpt>
      <trkpt lat="48.42882" lon="-4.49626">
        <ele>57</ele>
        <time>2022-03-27T08:41:08.000Z</time>
      </trkpt>
      <trkpt lat="48.42894" lon="-4.49621">
        <ele>57.200000762939</ele>
        <time>2022-03-27T08:41:13.000Z</time>
      </trkpt>
      <trkpt lat="48.42898" lon="-4.49618">
        <ele>57.200000762939</ele>
        <time>2022-03-27T08:41:15.000Z</time>
      </trkpt>
      <trkpt lat="48.42905" lon="-4.4961">
        <ele>57.200000762939</ele>
        <time>2022-03-27T08:41:19.000Z</time>
      </trkpt>
      <trkpt lat="48.42909" lon="-4.49608">
        <ele>57.400001525879</ele>
        <time>2022-03-27T08:41:21.000Z</time>
      </trkpt>
      <trkpt lat="48.42913" lon="-4.49607">
        <ele>57.400001525879</ele>
        <time>2022-03-27T08:41:23.000Z</time>
      </trkpt>
      <trkpt lat="48.42919" lon="-4.49599">
        <ele>57.400001525879</ele>
        <time>2022-03-27T08:41:27.000Z</time>
      </trkpt>
      <trkpt lat="48.4292" lon="-4.49597">
        <ele>57.400001525879</ele>
        <time>2022-03-27T08:41:28.000Z</time>
      </trkpt>
      <trkpt lat="48.42924" lon="-4.49591">
        <ele>57.400001525879</ele>
        <time>2022-03-27T08:41:30.000Z</time>
      </trkpt>
      <trkpt lat="48.4293" lon="-4.49581">
        <ele>57.599998474121</ele>
        <time>2022-03-27T08:41:32.000Z</time>
      </trkpt>
      <trkpt lat="48.42943" lon="-4.49571">
        <ele>57.799999237061</ele>
        <time>2022-03-27T08:41:37.000Z</time>
      </trkpt>
      <trkpt lat="48.42945" lon="-4.49571">
        <ele>57.799999237061</ele>
        <time>2022-03-27T08:41:38.000Z</time>
      </trkpt>
      <trkpt lat="48.42961" lon="-4.49565">
        <ele>58</ele>
        <time>2022-03-27T08:41:42.000Z</time>
      </trkpt>
      <trkpt lat="48.42973" lon="-4.49561">
        <ele>58.400001525879</ele>
        <time>2022-03-27T08:41:46.000Z</time>
      </trkpt>
      <trkpt lat="48.42987" lon="-4.49552">
        <ele>58.599998474121</ele>
        <time>2022-03-27T08:41:51.000Z</time>
      </trkpt>
      <trkpt lat="48.43001" lon="-4.49537">
        <ele>58.799999237061</ele>
        <time>2022-03-27T08:41:57.000Z</time>
      </trkpt>
      <trkpt lat="48.43009" lon="-4.49526">
        <ele>59</ele>
        <time>2022-03-27T08:42:01.000Z</time>
      </trkpt>
      <trkpt lat="48.43017" lon="-4.49517">
        <ele>59.200000762939</ele>
        <time>2022-03-27T08:42:05.000Z</time>
      </trkpt>
      <trkpt lat="48.43026" lon="-4.49506">
        <ele>60</ele>
        <time>2022-03-27T08:42:09.000Z</time>
      </trkpt>
      <trkpt lat="48.43033" lon="-4.49503">
        <ele>60.400001525879</ele>
        <time>2022-03-27T08:42:12.000Z</time>
      </trkpt>
      <trkpt lat="48.43044" lon="-4.49498">
        <ele>61.200000762939</ele>
        <time>2022-03-27T08:42:16.000Z</time>
      </trkpt>
      <trkpt lat="48.4306" lon="-4.49498">
        <ele>62.400001525879</ele>
        <time>2022-03-27T08:42:22.000Z</time>
      </trkpt>
      <trkpt lat="48.43072" lon="-4.49497">
        <ele>63.200000762939</ele>
        <time>2022-03-27T08:42:26.000Z</time>
      </trkpt>
      <trkpt lat="48.4308" lon="-4.49493">
        <ele>64</ele>
        <time>2022-03-27T08:42:29.000Z</time>
      </trkpt>
      <trkpt lat="48.43084" lon="-4.49492">
        <ele>64.199996948242</ele>
        <time>2022-03-27T08:42:30.000Z</time>
      </trkpt>
      <trkpt lat="48.43098" lon="-4.49485">
        <ele>65.400001525879</ele>
        <time>2022-03-27T08:42:35.000Z</time>
      </trkpt>
      <trkpt lat="48.43112" lon="-4.49477">
        <ele>66</ele>
        <time>2022-03-27T08:42:41.000Z</time>
      </trkpt>
      <trkpt lat="48.4312" lon="-4.49474">
        <ele>66.199996948242</ele>
        <time>2022-03-27T08:42:45.000Z</time>
      </trkpt>
      <trkpt lat="48.43127" lon="-4.49475">
        <ele>66.599998474121</ele>
        <time>2022-03-27T08:42:49.000Z</time>
      </trkpt>
      <trkpt lat="48.43128" lon="-4.49478">
        <ele>66.800003051758</ele>
        <time>2022-03-27T08:42:50.000Z</time>
      </trkpt>
      <trkpt lat="48.43129" lon="-4.49495">
        <ele>67</ele>
        <time>2022-03-27T08:42:56.000Z</time>
      </trkpt>
      <trkpt lat="48.4313" lon="-4.49511">
        <ele>67.400001525879</ele>
        <time>2022-03-27T08:43:02.000Z</time>
      </trkpt>
      <trkpt lat="48.43137" lon="-4.49525">
        <ele>68</ele>
        <time>2022-03-27T08:43:09.000Z</time>
      </trkpt>
      <trkpt lat="48.4314" lon="-4.49527">
        <ele>68.400001525879</ele>
        <time>2022-03-27T08:43:11.000Z</time>
      </trkpt>
      <trkpt lat="48.43145" lon="-4.49532">
        <ele>68.800003051758</ele>
        <time>2022-03-27T08:43:14.000Z</time>
      </trkpt>
      <trkpt lat="48.43156" lon="-4.49544">
        <ele>69.400001525879</ele>
        <time>2022-03-27T08:43:21.000Z</time>
      </trkpt>
      <trkpt lat="48.43166" lon="-4.49554">
        <ele>70.199996948242</ele>
        <time>2022-03-27T08:43:27.000Z</time>
      </trkpt>
      <trkpt lat="48.43178" lon="-4.49562">
        <ele>71.400001525879</ele>
        <time>2022-03-27T08:43:32.000Z</time>
      </trkpt>
      <trkpt lat="48.43185" lon="-4.49574">
        <ele>72</ele>
        <time>2022-03-27T08:43:37.000Z</time>
      </trkpt>
      <trkpt lat="48.43193" lon="-4.49583">
        <ele>72</ele>
        <time>2022-03-27T08:43:42.000Z</time>
      </trkpt>
      <trkpt lat="48.43204" lon="-4.49592">
        <ele>72.199996948242</ele>
        <time>2022-03-27T08:43:47.000Z</time>
      </trkpt>
      <trkpt lat="48.4323" lon="-4.49602">
        <ele>72</ele>
        <time>2022-03-27T08:43:53.000Z</time>
      </trkpt>
      <trkpt lat="48.43266" lon="-4.49613">
        <ele>72</ele>
        <time>2022-03-27T08:44:01.000Z</time>
      </trkpt>
      <trkpt lat="48.43287" lon="-4.4962">
        <ele>71.400001525879</ele>
        <time>2022-03-27T08:44:07.000Z</time>
      </trkpt>
      <trkpt lat="48.43298" lon="-4.49622">
        <ele>71</ele>
        <time>2022-03-27T08:44:12.000Z</time>
      </trkpt>
      <trkpt lat="48.43304" lon="-4.49639">
        <ele>70.599998474121</ele>
        <time>2022-03-27T08:44:16.000Z</time>
      </trkpt>
      <trkpt lat="48.43307" lon="-4.49651">
        <ele>70.199996948242</ele>
        <time>2022-03-27T08:44:18.000Z</time>
      </trkpt>
      <trkpt lat="48.43314" lon="-4.49659">
        <ele>70</ele>
        <time>2022-03-27T08:44:20.000Z</time>
      </trkpt>
      <trkpt lat="48.43323" lon="-4.49664">
        <ele>69.800003051758</ele>
        <time>2022-03-27T08:44:22.000Z</time>
      </trkpt>
      <trkpt lat="48.43331" lon="-4.49664">
        <ele>69.599998474121</ele>
        <time>2022-03-27T08:44:24.000Z</time>
      </trkpt>
      <trkpt lat="48.43367" lon="-4.49659">
        <ele>69.400001525879</ele>
        <time>2022-03-27T08:44:33.000Z</time>
      </trkpt>
      <trkpt lat="48.43403" lon="-4.49663">
        <ele>69.400001525879</ele>
        <time>2022-03-27T08:44:42.000Z</time>
      </trkpt>
      <trkpt lat="48.43435" lon="-4.49669">
        <ele>69.400001525879</ele>
        <time>2022-03-27T08:44:50.000Z</time>
      </trkpt>
      <trkpt lat="48.43462" lon="-4.49674">
        <ele>69.599998474121</ele>
        <time>2022-03-27T08:44:56.000Z</time>
      </trkpt>
      <trkpt lat="48.43488" lon="-4.4968">
        <ele>69.400001525879</ele>
        <time>2022-03-27T08:45:02.000Z</time>
      </trkpt>
      <trkpt lat="48.43493" lon="-4.49683">
        <ele>69.400001525879</ele>
        <time>2022-03-27T08:45:03.000Z</time>
      </trkpt>
      <trkpt lat="48.43496" lon="-4.49688">
        <ele>69.199996948242</ele>
        <time>2022-03-27T08:45:04.000Z</time>
      </trkpt>
      <trkpt lat="48.43498" lon="-4.49703">
        <ele>69</ele>
        <time>2022-03-27T08:45:06.000Z</time>
      </trkpt>
      <trkpt lat="48.435" lon="-4.49725">
        <ele>68.800003051758</ele>
        <time>2022-03-27T08:45:09.000Z</time>
      </trkpt>
      <trkpt lat="48.43501" lon="-4.49738">
        <ele>69</ele>
        <time>2022-03-27T08:45:11.000Z</time>
      </trkpt>
      <trkpt lat="48.43502" lon="-4.49744">
        <ele>69</ele>
        <time>2022-03-27T08:45:12.000Z</time>
      </trkpt>
      <trkpt lat="48.43503" lon="-4.4975">
        <ele>69.199996948242</ele>
        <time>2022-03-27T08:45:13.000Z</time>
      </trkpt>
      <trkpt lat="48.43504" lon="-4.49772">
        <ele>69.400001525879</ele>
        <time>2022-03-27T08:45:16.000Z</time>
      </trkpt>
      <trkpt lat="48.43507" lon="-4.49787">
        <ele>69.599998474121</ele>
        <time>2022-03-27T08:45:18.000Z</time>
      </trkpt>
      <trkpt lat="48.43516" lon="-4.49804">
        <ele>69</ele>
        <time>2022-03-27T08:45:20.000Z</time>
      </trkpt>
      <trkpt lat="48.43535" lon="-4.49825">
        <ele>67.599998474121</ele>
        <time>2022-03-27T08:45:24.000Z</time>
      </trkpt>
      <trkpt lat="48.43541" lon="-4.49828">
        <ele>67.199996948242</ele>
        <time>2022-03-27T08:45:25.000Z</time>
      </trkpt>
      <trkpt lat="48.43567" lon="-4.49831">
        <ele>66.599998474121</ele>
        <time>2022-03-27T08:45:28.000Z</time>
      </trkpt>
      <trkpt lat="48.43574" lon="-4.49833">
        <ele>66.400001525879</ele>
        <time>2022-03-27T08:45:29.000Z</time>
      </trkpt>
      <trkpt lat="48.4358" lon="-4.49838">
        <ele>66.199996948242</ele>
        <time>2022-03-27T08:45:30.000Z</time>
      </trkpt>
      <trkpt lat="48.43586" lon="-4.49853">
        <ele>65.599998474121</ele>
        <time>2022-03-27T08:45:32.000Z</time>
      </trkpt>
      <trkpt lat="48.4359" lon="-4.49877">
        <ele>64.199996948242</ele>
        <time>2022-03-27T08:45:36.000Z</time>
      </trkpt>
      <trkpt lat="48.43602" lon="-4.49892">
        <ele>62.400001525879</ele>
        <time>2022-03-27T08:45:39.000Z</time>
      </trkpt>
      <trkpt lat="48.43606" lon="-4.49894">
        <ele>62</ele>
        <time>2022-03-27T08:45:40.000Z</time>
      </trkpt>
      <trkpt lat="48.43613" lon="-4.49895">
        <ele>61.799999237061</ele>
        <time>2022-03-27T08:45:42.000Z</time>
      </trkpt>
      <trkpt lat="48.43615" lon="-4.49891">
        <ele>62</ele>
        <time>2022-03-27T08:45:43.000Z</time>
      </trkpt>
      <trkpt lat="48.43617" lon="-4.49888">
        <ele>62.200000762939</ele>
        <time>2022-03-27T08:45:44.000Z</time>
      </trkpt>
      <trkpt lat="48.43619" lon="-4.49883">
        <ele>62.799999237061</ele>
        <time>2022-03-27T08:45:46.000Z</time>
      </trkpt>
      <trkpt lat="48.43619" lon="-4.49881">
        <ele>63</ele>
        <time>2022-03-27T08:45:47.000Z</time>
      </trkpt>
      <trkpt lat="48.43625" lon="-4.49872">
        <ele>63.599998474121</ele>
        <time>2022-03-27T08:45:50.000Z</time>
      </trkpt>
      <trkpt lat="48.43639" lon="-4.49857">
        <ele>63.799999237061</ele>
        <time>2022-03-27T08:45:55.000Z</time>
      </trkpt>
      <trkpt lat="48.43652" lon="-4.49843">
        <ele>64</ele>
        <time>2022-03-27T08:46:00.000Z</time>
      </trkpt>
      <trkpt lat="48.43663" lon="-4.49825">
        <ele>64.199996948242</ele>
        <time>2022-03-27T08:46:05.000Z</time>
      </trkpt>
      <trkpt lat="48.43681" lon="-4.49806">
        <ele>64.199996948242</ele>
        <time>2022-03-27T08:46:10.000Z</time>
      </trkpt>
      <trkpt lat="48.43694" lon="-4.49789">
        <ele>64.599998474121</ele>
        <time>2022-03-27T08:46:15.000Z</time>
      </trkpt>
      <trkpt lat="48.43707" lon="-4.49768">
        <ele>64</ele>
        <time>2022-03-27T08:46:20.000Z</time>
      </trkpt>
      <trkpt lat="48.43715" lon="-4.49745">
        <ele>63</ele>
        <time>2022-03-27T08:46:24.000Z</time>
      </trkpt>
      <trkpt lat="48.43722" lon="-4.49726">
        <ele>62.599998474121</ele>
        <time>2022-03-27T08:46:27.000Z</time>
      </trkpt>
      <trkpt lat="48.43727" lon="-4.49714">
        <ele>62.400001525879</ele>
        <time>2022-03-27T08:46:29.000Z</time>
      </trkpt>
      <trkpt lat="48.43742" lon="-4.49667">
        <ele>61</ele>
        <time>2022-03-27T08:46:37.000Z</time>
      </trkpt>
      <trkpt lat="48.43744" lon="-4.49649">
        <ele>60.599998474121</ele>
        <time>2022-03-27T08:46:40.000Z</time>
      </trkpt>
      <trkpt lat="48.43745" lon="-4.49636">
        <ele>60.400001525879</ele>
        <time>2022-03-27T08:46:42.000Z</time>
      </trkpt>
      <trkpt lat="48.43745" lon="-4.4963">
        <ele>60.400001525879</ele>
        <time>2022-03-27T08:46:43.000Z</time>
      </trkpt>
      <trkpt lat="48.43742" lon="-4.49591">
        <ele>60.799999237061</ele>
        <time>2022-03-27T08:46:49.000Z</time>
      </trkpt>
      <trkpt lat="48.43736" lon="-4.49553">
        <ele>61.200000762939</ele>
        <time>2022-03-27T08:46:55.000Z</time>
      </trkpt>
      <trkpt lat="48.43734" lon="-4.49549">
        <ele>61.400001525879</ele>
        <time>2022-03-27T08:46:56.000Z</time>
      </trkpt>
      <trkpt lat="48.43729" lon="-4.49542">
        <ele>61.400001525879</ele>
        <time>2022-03-27T08:46:59.000Z</time>
      </trkpt>
      <trkpt lat="48.43729" lon="-4.49542">
        <ele>61.400001525879</ele>
        <time>2022-03-27T08:47:00.000Z</time>
      </trkpt>
      <trkpt lat="48.4373" lon="-4.49541">
        <ele>61.400001525879</ele>
        <time>2022-03-27T08:48:08.000Z</time>
      </trkpt>
      <trkpt lat="48.43731" lon="-4.49535">
        <ele>61.200000762939</ele>
        <time>2022-03-27T08:48:11.000Z</time>
      </trkpt>
      <trkpt lat="48.43729" lon="-4.49507">
        <ele>61.599998474121</ele>
        <time>2022-03-27T08:48:18.000Z</time>
      </trkpt>
      <trkpt lat="48.43728" lon="-4.49484">
        <ele>61.799999237061</ele>
        <time>2022-03-27T08:48:23.000Z</time>
      </trkpt>
      <trkpt lat="48.43727" lon="-4.49474">
        <ele>61.799999237061</ele>
        <time>2022-03-27T08:48:25.000Z</time>
      </trkpt>
      <trkpt lat="48.43727" lon="-4.49465">
        <ele>61.599998474121</ele>
        <time>2022-03-27T08:48:27.000Z</time>
      </trkpt>
      <trkpt lat="48.43729" lon="-4.49438">
        <ele>61.599998474121</ele>
        <time>2022-03-27T08:48:33.000Z</time>
      </trkpt>
      <trkpt lat="48.43731" lon="-4.49416">
        <ele>61.799999237061</ele>
        <time>2022-03-27T08:48:38.000Z</time>
      </trkpt>
      <trkpt lat="48.43736" lon="-4.49395">
        <ele>62</ele>
        <time>2022-03-27T08:48:43.000Z</time>
      </trkpt>
      <trkpt lat="48.43741" lon="-4.49373">
        <ele>62.799999237061</ele>
        <time>2022-03-27T08:48:48.000Z</time>
      </trkpt>
      <trkpt lat="48.43747" lon="-4.49349">
        <ele>62.799999237061</ele>
        <time>2022-03-27T08:48:54.000Z</time>
      </trkpt>
      <trkpt lat="48.43754" lon="-4.49322">
        <ele>62.599998474121</ele>
        <time>2022-03-27T08:49:00.000Z</time>
      </trkpt>
      <trkpt lat="48.43767" lon="-4.49296">
        <ele>62.200000762939</ele>
        <time>2022-03-27T08:49:06.000Z</time>
      </trkpt>
      <trkpt lat="48.43782" lon="-4.49271">
        <ele>63</ele>
        <time>2022-03-27T08:49:12.000Z</time>
      </trkpt>
      <trkpt lat="48.43792" lon="-4.49253">
        <ele>63.599998474121</ele>
        <time>2022-03-27T08:49:17.000Z</time>
      </trkpt>
      <trkpt lat="48.438" lon="-4.49241">
        <ele>64</ele>
        <time>2022-03-27T08:49:21.000Z</time>
      </trkpt>
      <trkpt lat="48.4381" lon="-4.49225">
        <ele>64.599998474121</ele>
        <time>2022-03-27T08:49:27.000Z</time>
      </trkpt>
      <trkpt lat="48.43818" lon="-4.49216">
        <ele>65.199996948242</ele>
        <time>2022-03-27T08:49:32.000Z</time>
      </trkpt>
      <trkpt lat="48.43826" lon="-4.49204">
        <ele>65.599998474121</ele>
        <time>2022-03-27T08:49:37.000Z</time>
      </trkpt>
      <trkpt lat="48.43836" lon="-4.49199">
        <ele>66.199996948242</ele>
        <time>2022-03-27T08:49:42.000Z</time>
      </trkpt>
      <trkpt lat="48.43839" lon="-4.49198">
        <ele>66.400001525879</ele>
        <time>2022-03-27T08:49:44.000Z</time>
      </trkpt>
      <trkpt lat="48.43846" lon="-4.49199">
        <ele>66.800003051758</ele>
        <time>2022-03-27T08:49:48.000Z</time>
      </trkpt>
      <trkpt lat="48.43848" lon="-4.49204">
        <ele>67</ele>
        <time>2022-03-27T08:49:50.000Z</time>
      </trkpt>
      <trkpt lat="48.43846" lon="-4.49222">
        <ele>67</ele>
        <time>2022-03-27T08:49:57.000Z</time>
      </trkpt>
      <trkpt lat="48.43842" lon="-4.49237">
        <ele>67</ele>
        <time>2022-03-27T08:50:02.000Z</time>
      </trkpt>
      <trkpt lat="48.43838" lon="-4.4926">
        <ele>67</ele>
        <time>2022-03-27T08:50:09.000Z</time>
      </trkpt>
      <trkpt lat="48.43833" lon="-4.49279">
        <ele>66.800003051758</ele>
        <time>2022-03-27T08:50:14.000Z</time>
      </trkpt>
      <trkpt lat="48.43821" lon="-4.49303">
        <ele>66</ele>
        <time>2022-03-27T08:50:19.000Z</time>
      </trkpt>
      <trkpt lat="48.43807" lon="-4.4933">
        <ele>65.199996948242</ele>
        <time>2022-03-27T08:50:23.000Z</time>
      </trkpt>
      <trkpt lat="48.43804" lon="-4.49339">
        <ele>65</ele>
        <time>2022-03-27T08:50:24.000Z</time>
      </trkpt>
      <trkpt lat="48.43787" lon="-4.49384">
        <ele>63.799999237061</ele>
        <time>2022-03-27T08:50:29.000Z</time>
      </trkpt>
      <trkpt lat="48.43785" lon="-4.49394">
        <ele>63.599998474121</ele>
        <time>2022-03-27T08:50:30.000Z</time>
      </trkpt>
      <trkpt lat="48.43779" lon="-4.49441">
        <ele>62.400001525879</ele>
        <time>2022-03-27T08:50:35.000Z</time>
      </trkpt>
      <trkpt lat="48.43779" lon="-4.49451">
        <ele>62.400001525879</ele>
        <time>2022-03-27T08:50:36.000Z</time>
      </trkpt>
      <trkpt lat="48.43781" lon="-4.49481">
        <ele>62.400001525879</ele>
        <time>2022-03-27T08:50:39.000Z</time>
      </trkpt>
      <trkpt lat="48.43783" lon="-4.4949">
        <ele>62.400001525879</ele>
        <time>2022-03-27T08:50:40.000Z</time>
      </trkpt>
      <trkpt lat="48.4379" lon="-4.49526">
        <ele>62.799999237061</ele>
        <time>2022-03-27T08:50:44.000Z</time>
      </trkpt>
      <trkpt lat="48.43796" lon="-4.49545">
        <ele>63.200000762939</ele>
        <time>2022-03-27T08:50:46.000Z</time>
      </trkpt>
      <trkpt lat="48.43804" lon="-4.49561">
        <ele>63.799999237061</ele>
        <time>2022-03-27T08:50:48.000Z</time>
      </trkpt>
      <trkpt lat="48.43812" lon="-4.49579">
        <ele>64.199996948242</ele>
        <time>2022-03-27T08:50:50.000Z</time>
      </trkpt>
      <trkpt lat="48.43815" lon="-4.49597">
        <ele>63.400001525879</ele>
        <time>2022-03-27T08:50:52.000Z</time>
      </trkpt>
      <trkpt lat="48.43816" lon="-4.49617">
        <ele>62.599998474121</ele>
        <time>2022-03-27T08:50:54.000Z</time>
      </trkpt>
      <trkpt lat="48.43816" lon="-4.49637">
        <ele>62.799999237061</ele>
        <time>2022-03-27T08:50:56.000Z</time>
      </trkpt>
      <trkpt lat="48.43817" lon="-4.49658">
        <ele>63</ele>
        <time>2022-03-27T08:50:58.000Z</time>
      </trkpt>
      <trkpt lat="48.4382" lon="-4.49666">
        <ele>63</ele>
        <time>2022-03-27T08:50:59.000Z</time>
      </trkpt>
      <trkpt lat="48.43824" lon="-4.49673">
        <ele>63.200000762939</ele>
        <time>2022-03-27T08:51:00.000Z</time>
      </trkpt>
      <trkpt lat="48.43829" lon="-4.49682">
        <ele>63.200000762939</ele>
        <time>2022-03-27T08:51:02.000Z</time>
      </trkpt>
      <trkpt lat="48.43835" lon="-4.49691">
        <ele>63.400001525879</ele>
        <time>2022-03-27T08:51:06.000Z</time>
      </trkpt>
      <trkpt lat="48.43842" lon="-4.49704">
        <ele>63.799999237061</ele>
        <time>2022-03-27T08:51:09.000Z</time>
      </trkpt>
      <trkpt lat="48.43843" lon="-4.4971">
        <ele>64</ele>
        <time>2022-03-27T08:51:10.000Z</time>
      </trkpt>
      <trkpt lat="48.43843" lon="-4.49719">
        <ele>64.400001525879</ele>
        <time>2022-03-27T08:51:11.000Z</time>
      </trkpt>
      <trkpt lat="48.43841" lon="-4.49734">
        <ele>64.599998474121</ele>
        <time>2022-03-27T08:51:13.000Z</time>
      </trkpt>
      <trkpt lat="48.43837" lon="-4.49764">
        <ele>65.199996948242</ele>
        <time>2022-03-27T08:51:18.000Z</time>
      </trkpt>
      <trkpt lat="48.43835" lon="-4.49773">
        <ele>65.400001525879</ele>
        <time>2022-03-27T08:51:20.000Z</time>
      </trkpt>
      <trkpt lat="48.43836" lon="-4.49785">
        <ele>65.800003051758</ele>
        <time>2022-03-27T08:51:23.000Z</time>
      </trkpt>
      <trkpt lat="48.43841" lon="-4.49793">
        <ele>66</ele>
        <time>2022-03-27T08:51:25.000Z</time>
      </trkpt>
      <trkpt lat="48.43845" lon="-4.49796">
        <ele>66.199996948242</ele>
        <time>2022-03-27T08:51:28.000Z</time>
      </trkpt>
      <trkpt lat="48.43856" lon="-4.49804">
        <ele>66.599998474121</ele>
        <time>2022-03-27T08:51:34.000Z</time>
      </trkpt>
      <trkpt lat="48.43866" lon="-4.49814">
        <ele>67</ele>
        <time>2022-03-27T08:51:40.000Z</time>
      </trkpt>
      <trkpt lat="48.43871" lon="-4.49818">
        <ele>67.199996948242</ele>
        <time>2022-03-27T08:51:42.000Z</time>
      </trkpt>
      <trkpt lat="48.43882" lon="-4.4983">
        <ele>67.599998474121</ele>
        <time>2022-03-27T08:51:46.000Z</time>
      </trkpt>
      <trkpt lat="48.43901" lon="-4.49839">
        <ele>68</ele>
        <time>2022-03-27T08:51:52.000Z</time>
      </trkpt>
      <trkpt lat="48.43918" lon="-4.49845">
        <ele>68.400001525879</ele>
        <time>2022-03-27T08:51:58.000Z</time>
      </trkpt>
      <trkpt lat="48.43935" lon="-4.49847">
        <ele>68.400001525879</ele>
        <time>2022-03-27T08:52:03.000Z</time>
      </trkpt>
      <trkpt lat="48.43955" lon="-4.49854">
        <ele>68.199996948242</ele>
        <time>2022-03-27T08:52:09.000Z</time>
      </trkpt>
      <trkpt lat="48.43972" lon="-4.49863">
        <ele>68.400001525879</ele>
        <time>2022-03-27T08:52:14.000Z</time>
      </trkpt>
      <trkpt lat="48.43988" lon="-4.49876">
        <ele>68.400001525879</ele>
        <time>2022-03-27T08:52:19.000Z</time>
      </trkpt>
      <trkpt lat="48.43997" lon="-4.49893">
        <ele>68.599998474121</ele>
        <time>2022-03-27T08:52:23.000Z</time>
      </trkpt>
      <trkpt lat="48.43994" lon="-4.49914">
        <ele>69.199996948242</ele>
        <time>2022-03-27T08:52:27.000Z</time>
      </trkpt>
      <trkpt lat="48.43984" lon="-4.49952">
        <ele>70</ele>
        <time>2022-03-27T08:52:36.000Z</time>
      </trkpt>
      <trkpt lat="48.43974" lon="-4.49976">
        <ele>69.599998474121</ele>
        <time>2022-03-27T08:52:43.000Z</time>
      </trkpt>
      <trkpt lat="48.43961" lon="-4.49983">
        <ele>69.599998474121</ele>
        <time>2022-03-27T08:52:47.000Z</time>
      </trkpt>
      <trkpt lat="48.43935" lon="-4.49986">
        <ele>69.599998474121</ele>
        <time>2022-03-27T08:52:54.000Z</time>
      </trkpt>
      <trkpt lat="48.43902" lon="-4.49987">
        <ele>70</ele>
        <time>2022-03-27T08:53:02.000Z</time>
      </trkpt>
      <trkpt lat="48.43897" lon="-4.49988">
        <ele>70</ele>
        <time>2022-03-27T08:53:03.000Z</time>
      </trkpt>
      <trkpt lat="48.43887" lon="-4.49992">
        <ele>70</ele>
        <time>2022-03-27T08:53:05.000Z</time>
      </trkpt>
      <trkpt lat="48.43883" lon="-4.49997">
        <ele>70</ele>
        <time>2022-03-27T08:53:06.000Z</time>
      </trkpt>
      <trkpt lat="48.43879" lon="-4.50003">
        <ele>70</ele>
        <time>2022-03-27T08:53:07.000Z</time>
      </trkpt>
      <trkpt lat="48.43875" lon="-4.50021">
        <ele>69.800003051758</ele>
        <time>2022-03-27T08:53:09.000Z</time>
      </trkpt>
      <trkpt lat="48.43864" lon="-4.50073">
        <ele>68.800003051758</ele>
        <time>2022-03-27T08:53:14.000Z</time>
      </trkpt>
      <trkpt lat="48.43851" lon="-4.50132">
        <ele>67.199996948242</ele>
        <time>2022-03-27T08:53:19.000Z</time>
      </trkpt>
      <trkpt lat="48.43846" lon="-4.50142">
        <ele>66.599998474121</ele>
        <time>2022-03-27T08:53:20.000Z</time>
      </trkpt>
      <trkpt lat="48.43841" lon="-4.50151">
        <ele>66</ele>
        <time>2022-03-27T08:53:21.000Z</time>
      </trkpt>
      <trkpt lat="48.43834" lon="-4.50166">
        <ele>65.199996948242</ele>
        <time>2022-03-27T08:53:23.000Z</time>
      </trkpt>
      <trkpt lat="48.43837" lon="-4.50174">
        <ele>64.800003051758</ele>
        <time>2022-03-27T08:53:25.000Z</time>
      </trkpt>
      <trkpt lat="48.43851" lon="-4.50178">
        <ele>65</ele>
        <time>2022-03-27T08:53:28.000Z</time>
      </trkpt>
      <trkpt lat="48.4386" lon="-4.5018">
        <ele>65</ele>
        <time>2022-03-27T08:53:30.000Z</time>
      </trkpt>
      <trkpt lat="48.43897" lon="-4.50196">
        <ele>65.800003051758</ele>
        <time>2022-03-27T08:53:38.000Z</time>
      </trkpt>
      <trkpt lat="48.43918" lon="-4.5021">
        <ele>66.199996948242</ele>
        <time>2022-03-27T08:53:43.000Z</time>
      </trkpt>
      <trkpt lat="48.43921" lon="-4.50214">
        <ele>66.199996948242</ele>
        <time>2022-03-27T08:53:44.000Z</time>
      </trkpt>
      <trkpt lat="48.43922" lon="-4.50221">
        <ele>66</ele>
        <time>2022-03-27T08:53:45.000Z</time>
      </trkpt>
      <trkpt lat="48.4392" lon="-4.50234">
        <ele>65.599998474121</ele>
        <time>2022-03-27T08:53:47.000Z</time>
      </trkpt>
      <trkpt lat="48.43906" lon="-4.5026">
        <ele>64.199996948242</ele>
        <time>2022-03-27T08:53:52.000Z</time>
      </trkpt>
      <trkpt lat="48.43905" lon="-4.50266">
        <ele>64</ele>
        <time>2022-03-27T08:53:53.000Z</time>
      </trkpt>
      <trkpt lat="48.43904" lon="-4.50273">
        <ele>64</ele>
        <time>2022-03-27T08:53:54.000Z</time>
      </trkpt>
      <trkpt lat="48.43907" lon="-4.5029">
        <ele>63.599998474121</ele>
        <time>2022-03-27T08:53:57.000Z</time>
      </trkpt>
      <trkpt lat="48.43925" lon="-4.50314">
        <ele>65</ele>
        <time>2022-03-27T08:54:03.000Z</time>
      </trkpt>
      <trkpt lat="48.43943" lon="-4.50341">
        <ele>67</ele>
        <time>2022-03-27T08:54:10.000Z</time>
      </trkpt>
      <trkpt lat="48.43952" lon="-4.50371">
        <ele>67.800003051758</ele>
        <time>2022-03-27T08:54:16.000Z</time>
      </trkpt>
      <trkpt lat="48.4395" lon="-4.50398">
        <ele>67.199996948242</ele>
        <time>2022-03-27T08:54:20.000Z</time>
      </trkpt>
      <trkpt lat="48.43944" lon="-4.50439">
        <ele>65.800003051758</ele>
        <time>2022-03-27T08:54:25.000Z</time>
      </trkpt>
      <trkpt lat="48.43933" lon="-4.50489">
        <ele>65.599998474121</ele>
        <time>2022-03-27T08:54:31.000Z</time>
      </trkpt>
      <trkpt lat="48.4393" lon="-4.50517">
        <ele>65.599998474121</ele>
        <time>2022-03-27T08:54:35.000Z</time>
      </trkpt>
      <trkpt lat="48.4393" lon="-4.50523">
        <ele>65.599998474121</ele>
        <time>2022-03-27T08:54:36.000Z</time>
      </trkpt>
      <trkpt lat="48.43937" lon="-4.50548">
        <ele>66.599998474121</ele>
        <time>2022-03-27T08:54:41.000Z</time>
      </trkpt>
      <trkpt lat="48.43945" lon="-4.50557">
        <ele>67.199996948242</ele>
        <time>2022-03-27T08:54:45.000Z</time>
      </trkpt>
      <trkpt lat="48.43955" lon="-4.50564">
        <ele>68</ele>
        <time>2022-03-27T08:54:51.000Z</time>
      </trkpt>
      <trkpt lat="48.43965" lon="-4.50573">
        <ele>68.800003051758</ele>
        <time>2022-03-27T08:54:56.000Z</time>
      </trkpt>
      <trkpt lat="48.43968" lon="-4.50578">
        <ele>69</ele>
        <time>2022-03-27T08:54:58.000Z</time>
      </trkpt>
      <trkpt lat="48.43975" lon="-4.50584">
        <ele>70</ele>
        <time>2022-03-27T08:55:01.000Z</time>
      </trkpt>
      <trkpt lat="48.43987" lon="-4.50599">
        <ele>71.599998474121</ele>
        <time>2022-03-27T08:55:07.000Z</time>
      </trkpt>
      <trkpt lat="48.43989" lon="-4.50601">
        <ele>71.800003051758</ele>
        <time>2022-03-27T08:55:08.000Z</time>
      </trkpt>
      <trkpt lat="48.43998" lon="-4.50607">
        <ele>73</ele>
        <time>2022-03-27T08:55:12.000Z</time>
      </trkpt>
      <trkpt lat="48.44002" lon="-4.5061">
        <ele>73.400001525879</ele>
        <time>2022-03-27T08:55:14.000Z</time>
      </trkpt>
      <trkpt lat="48.44014" lon="-4.50616">
        <ele>74.800003051758</ele>
        <time>2022-03-27T08:55:20.000Z</time>
      </trkpt>
      <trkpt lat="48.44016" lon="-4.50617">
        <ele>75</ele>
        <time>2022-03-27T08:55:21.000Z</time>
      </trkpt>
      <trkpt lat="48.44026" lon="-4.50619">
        <ele>75</ele>
        <time>2022-03-27T08:55:25.000Z</time>
      </trkpt>
      <trkpt lat="48.44038" lon="-4.50622">
        <ele>74.800003051758</ele>
        <time>2022-03-27T08:55:30.000Z</time>
      </trkpt>
      <trkpt lat="48.44054" lon="-4.50631">
        <ele>74.400001525879</ele>
        <time>2022-03-27T08:55:35.000Z</time>
      </trkpt>
      <trkpt lat="48.44066" lon="-4.5064">
        <ele>74.199996948242</ele>
        <time>2022-03-27T08:55:39.000Z</time>
      </trkpt>
      <trkpt lat="48.44078" lon="-4.50651">
        <ele>74</ele>
        <time>2022-03-27T08:55:42.000Z</time>
      </trkpt>
      <trkpt lat="48.44087" lon="-4.5066">
        <ele>74.199996948242</ele>
        <time>2022-03-27T08:55:44.000Z</time>
      </trkpt>
      <trkpt lat="48.44119" lon="-4.50683">
        <ele>74.599998474121</ele>
        <time>2022-03-27T08:55:49.000Z</time>
      </trkpt>
      <trkpt lat="48.44146" lon="-4.507">
        <ele>74.599998474121</ele>
        <time>2022-03-27T08:55:53.000Z</time>
      </trkpt>
      <trkpt lat="48.44151" lon="-4.50707">
        <ele>74.400001525879</ele>
        <time>2022-03-27T08:55:54.000Z</time>
      </trkpt>
      <trkpt lat="48.44153" lon="-4.50716">
        <ele>74</ele>
        <time>2022-03-27T08:55:55.000Z</time>
      </trkpt>
      <trkpt lat="48.44154" lon="-4.50726">
        <ele>73.800003051758</ele>
        <time>2022-03-27T08:55:56.000Z</time>
      </trkpt>
      <trkpt lat="48.44154" lon="-4.50736">
        <ele>73.199996948242</ele>
        <time>2022-03-27T08:55:57.000Z</time>
      </trkpt>
      <trkpt lat="48.44157" lon="-4.50753">
        <ele>72.400001525879</ele>
        <time>2022-03-27T08:55:59.000Z</time>
      </trkpt>
      <trkpt lat="48.4417" lon="-4.50772">
        <ele>71.599998474121</ele>
        <time>2022-03-27T08:56:02.000Z</time>
      </trkpt>
      <trkpt lat="48.44174" lon="-4.50778">
        <ele>71.199996948242</ele>
        <time>2022-03-27T08:56:03.000Z</time>
      </trkpt>
      <trkpt lat="48.44177" lon="-4.50786">
        <ele>71</ele>
        <time>2022-03-27T08:56:04.000Z</time>
      </trkpt>
      <trkpt lat="48.44177" lon="-4.50806">
        <ele>71</ele>
        <time>2022-03-27T08:56:06.000Z</time>
      </trkpt>
      <trkpt lat="48.44167" lon="-4.50825">
        <ele>70.800003051758</ele>
        <time>2022-03-27T08:56:08.000Z</time>
      </trkpt>
      <trkpt lat="48.44152" lon="-4.5083">
        <ele>70.599998474121</ele>
        <time>2022-03-27T08:56:10.000Z</time>
      </trkpt>
      <trkpt lat="48.44123" lon="-4.50829">
        <ele>70.400001525879</ele>
        <time>2022-03-27T08:56:15.000Z</time>
      </trkpt>
      <trkpt lat="48.44118" lon="-4.5083">
        <ele>70.400001525879</ele>
        <time>2022-03-27T08:56:16.000Z</time>
      </trkpt>
      <trkpt lat="48.44101" lon="-4.50839">
        <ele>70.400001525879</ele>
        <time>2022-03-27T08:56:20.000Z</time>
      </trkpt>
      <trkpt lat="48.44083" lon="-4.50853">
        <ele>69.199996948242</ele>
        <time>2022-03-27T08:56:26.000Z</time>
      </trkpt>
      <trkpt lat="48.44075" lon="-4.50866">
        <ele>68.599998474121</ele>
        <time>2022-03-27T08:56:30.000Z</time>
      </trkpt>
      <trkpt lat="48.44069" lon="-4.5089">
        <ele>68.599998474121</ele>
        <time>2022-03-27T08:56:35.000Z</time>
      </trkpt>
      <trkpt lat="48.44065" lon="-4.50906">
        <ele>68.599998474121</ele>
        <time>2022-03-27T08:56:38.000Z</time>
      </trkpt>
      <trkpt lat="48.44054" lon="-4.50937">
        <ele>68.400001525879</ele>
        <time>2022-03-27T08:56:43.000Z</time>
      </trkpt>
      <trkpt lat="48.44051" lon="-4.50952">
        <ele>68.599998474121</ele>
        <time>2022-03-27T08:56:45.000Z</time>
      </trkpt>
      <trkpt lat="48.44045" lon="-4.50974">
        <ele>68.800003051758</ele>
        <time>2022-03-27T08:56:48.000Z</time>
      </trkpt>
      <trkpt lat="48.44044" lon="-4.50982">
        <ele>68.800003051758</ele>
        <time>2022-03-27T08:56:49.000Z</time>
      </trkpt>
      <trkpt lat="48.44043" lon="-4.5101">
        <ele>69.400001525879</ele>
        <time>2022-03-27T08:56:53.000Z</time>
      </trkpt>
      <trkpt lat="48.44044" lon="-4.51046">
        <ele>70.800003051758</ele>
        <time>2022-03-27T08:56:59.000Z</time>
      </trkpt>
      <trkpt lat="48.44054" lon="-4.5105">
        <ele>71.599998474121</ele>
        <time>2022-03-27T08:57:02.000Z</time>
      </trkpt>
      <trkpt lat="48.44071" lon="-4.51052">
        <ele>73</ele>
        <time>2022-03-27T08:57:07.000Z</time>
      </trkpt>
      <trkpt lat="48.441" lon="-4.51057">
        <ele>75</ele>
        <time>2022-03-27T08:57:16.000Z</time>
      </trkpt>
      <trkpt lat="48.44122" lon="-4.5106">
        <ele>76</ele>
        <time>2022-03-27T08:57:23.000Z</time>
      </trkpt>
      <trkpt lat="48.44148" lon="-4.51066">
        <ele>77.400001525879</ele>
        <time>2022-03-27T08:57:31.000Z</time>
      </trkpt>
      <trkpt lat="48.44176" lon="-4.51071">
        <ele>78.599998474121</ele>
        <time>2022-03-27T08:57:39.000Z</time>
      </trkpt>
      <trkpt lat="48.44204" lon="-4.51075">
        <ele>79</ele>
        <time>2022-03-27T08:57:47.000Z</time>
      </trkpt>
      <trkpt lat="48.44235" lon="-4.51083">
        <ele>79.599998474121</ele>
        <time>2022-03-27T08:57:56.000Z</time>
      </trkpt>
      <trkpt lat="48.44254" lon="-4.51096">
        <ele>80.800003051758</ele>
        <time>2022-03-27T08:58:02.000Z</time>
      </trkpt>
      <trkpt lat="48.44257" lon="-4.51102">
        <ele>81.199996948242</ele>
        <time>2022-03-27T08:58:04.000Z</time>
      </trkpt>
      <trkpt lat="48.44257" lon="-4.51111">
        <ele>81.400001525879</ele>
        <time>2022-03-27T08:58:06.000Z</time>
      </trkpt>
      <trkpt lat="48.44251" lon="-4.51133">
        <ele>81.599998474121</ele>
        <time>2022-03-27T08:58:11.000Z</time>
      </trkpt>
      <trkpt lat="48.44245" lon="-4.51155">
        <ele>81.800003051758</ele>
        <time>2022-03-27T08:58:16.000Z</time>
      </trkpt>
      <trkpt lat="48.44234" lon="-4.51186">
        <ele>81.599998474121</ele>
        <time>2022-03-27T08:58:23.000Z</time>
      </trkpt>
      <trkpt lat="48.44218" lon="-4.51218">
        <ele>81.599998474121</ele>
        <time>2022-03-27T08:58:30.000Z</time>
      </trkpt>
      <trkpt lat="48.44203" lon="-4.51251">
        <ele>82</ele>
        <time>2022-03-27T08:58:38.000Z</time>
      </trkpt>
      <trkpt lat="48.44196" lon="-4.5128">
        <ele>82.400001525879</ele>
        <time>2022-03-27T08:58:44.000Z</time>
      </trkpt>
      <trkpt lat="48.44186" lon="-4.51321">
        <ele>82.199996948242</ele>
        <time>2022-03-27T08:58:51.000Z</time>
      </trkpt>
      <trkpt lat="48.4418" lon="-4.5134">
        <ele>81.800003051758</ele>
        <time>2022-03-27T08:58:54.000Z</time>
      </trkpt>
      <trkpt lat="48.44174" lon="-4.5135">
        <ele>81.199996948242</ele>
        <time>2022-03-27T08:58:56.000Z</time>
      </trkpt>
      <trkpt lat="48.44169" lon="-4.51354">
        <ele>80.800003051758</ele>
        <time>2022-03-27T08:58:57.000Z</time>
      </trkpt>
      <trkpt lat="48.44163" lon="-4.51357">
        <ele>80.400001525879</ele>
        <time>2022-03-27T08:58:58.000Z</time>
      </trkpt>
      <trkpt lat="48.44141" lon="-4.51364">
        <ele>78.599998474121</ele>
        <time>2022-03-27T08:59:01.000Z</time>
      </trkpt>
      <trkpt lat="48.44101" lon="-4.51374">
        <ele>75.400001525879</ele>
        <time>2022-03-27T08:59:06.000Z</time>
      </trkpt>
      <trkpt lat="48.44093" lon="-4.51373">
        <ele>75</ele>
        <time>2022-03-27T08:59:07.000Z</time>
      </trkpt>
      <trkpt lat="48.44047" lon="-4.51378">
        <ele>73.599998474121</ele>
        <time>2022-03-27T08:59:13.000Z</time>
      </trkpt>
      <trkpt lat="48.44004" lon="-4.51394">
        <ele>73</ele>
        <time>2022-03-27T08:59:19.000Z</time>
      </trkpt>
      <trkpt lat="48.4398" lon="-4.51407">
        <ele>73.400001525879</ele>
        <time>2022-03-27T08:59:23.000Z</time>
      </trkpt>
      <trkpt lat="48.43961" lon="-4.51418">
        <ele>73.800003051758</ele>
        <time>2022-03-27T08:59:27.000Z</time>
      </trkpt>
      <trkpt lat="48.43939" lon="-4.51431">
        <ele>74.400001525879</ele>
        <time>2022-03-27T08:59:32.000Z</time>
      </trkpt>
      <trkpt lat="48.43916" lon="-4.51443">
        <ele>74.400001525879</ele>
        <time>2022-03-27T08:59:37.000Z</time>
      </trkpt>
      <trkpt lat="48.43884" lon="-4.51462">
        <ele>74.199996948242</ele>
        <time>2022-03-27T08:59:44.000Z</time>
      </trkpt>
      <trkpt lat="48.43859" lon="-4.51469">
        <ele>74</ele>
        <time>2022-03-27T08:59:49.000Z</time>
      </trkpt>
      <trkpt lat="48.43849" lon="-4.5147">
        <ele>73.800003051758</ele>
        <time>2022-03-27T08:59:51.000Z</time>
      </trkpt>
      <trkpt lat="48.43835" lon="-4.5147">
        <ele>73.800003051758</ele>
        <time>2022-03-27T08:59:54.000Z</time>
      </trkpt>
      <trkpt lat="48.43791" lon="-4.51463">
        <ele>74</ele>
        <time>2022-03-27T09:00:02.000Z</time>
      </trkpt>
      <trkpt lat="48.43765" lon="-4.51455">
        <ele>74.199996948242</ele>
        <time>2022-03-27T09:00:07.000Z</time>
      </trkpt>
      <trkpt lat="48.43757" lon="-4.5146">
        <ele>74.400001525879</ele>
        <time>2022-03-27T09:00:09.000Z</time>
      </trkpt>
      <trkpt lat="48.43753" lon="-4.51475">
        <ele>74.800003051758</ele>
        <time>2022-03-27T09:00:12.000Z</time>
      </trkpt>
      <trkpt lat="48.43746" lon="-4.51487">
        <ele>75.199996948242</ele>
        <time>2022-03-27T09:00:16.000Z</time>
      </trkpt>
      <trkpt lat="48.43733" lon="-4.51509">
        <ele>75.800003051758</ele>
        <time>2022-03-27T09:00:22.000Z</time>
      </trkpt>
      <trkpt lat="48.43725" lon="-4.51521">
        <ele>76.199996948242</ele>
        <time>2022-03-27T09:00:26.000Z</time>
      </trkpt>
      <trkpt lat="48.43712" lon="-4.51539">
        <ele>76.800003051758</ele>
        <time>2022-03-27T09:00:32.000Z</time>
      </trkpt>
      <trkpt lat="48.43702" lon="-4.51555">
        <ele>77.599998474121</ele>
        <time>2022-03-27T09:00:37.000Z</time>
      </trkpt>
      <trkpt lat="48.43693" lon="-4.51574">
        <ele>78.400001525879</ele>
        <time>2022-03-27T09:00:42.000Z</time>
      </trkpt>
      <trkpt lat="48.43684" lon="-4.51598">
        <ele>79.199996948242</ele>
        <time>2022-03-27T09:00:48.000Z</time>
      </trkpt>
      <trkpt lat="48.43675" lon="-4.51617">
        <ele>79.800003051758</ele>
        <time>2022-03-27T09:00:52.000Z</time>
      </trkpt>
      <trkpt lat="48.43664" lon="-4.51647">
        <ele>80.400001525879</ele>
        <time>2022-03-27T09:00:58.000Z</time>
      </trkpt>
      <trkpt lat="48.43654" lon="-4.51673">
        <ele>80.599998474121</ele>
        <time>2022-03-27T09:01:03.000Z</time>
      </trkpt>
      <trkpt lat="48.43643" lon="-4.51705">
        <ele>81</ele>
        <time>2022-03-27T09:01:09.000Z</time>
      </trkpt>
      <trkpt lat="48.43637" lon="-4.51732">
        <ele>81</ele>
        <time>2022-03-27T09:01:14.000Z</time>
      </trkpt>
      <trkpt lat="48.43628" lon="-4.51759">
        <ele>81</ele>
        <time>2022-03-27T09:01:18.000Z</time>
      </trkpt>
      <trkpt lat="48.43618" lon="-4.51791">
        <ele>80.599998474121</ele>
        <time>2022-03-27T09:01:23.000Z</time>
      </trkpt>
      <trkpt lat="48.43613" lon="-4.51829">
        <ele>79.800003051758</ele>
        <time>2022-03-27T09:01:29.000Z</time>
      </trkpt>
      <trkpt lat="48.43613" lon="-4.51838">
        <ele>79.599998474121</ele>
        <time>2022-03-27T09:01:30.000Z</time>
      </trkpt>
      <trkpt lat="48.43617" lon="-4.51849">
        <ele>79.199996948242</ele>
        <time>2022-03-27T09:01:32.000Z</time>
      </trkpt>
      <trkpt lat="48.43625" lon="-4.51857">
        <ele>79.599998474121</ele>
        <time>2022-03-27T09:01:34.000Z</time>
      </trkpt>
      <trkpt lat="48.43634" lon="-4.51862">
        <ele>79.800003051758</ele>
        <time>2022-03-27T09:01:36.000Z</time>
      </trkpt>
      <trkpt lat="48.43643" lon="-4.51868">
        <ele>80</ele>
        <time>2022-03-27T09:01:38.000Z</time>
      </trkpt>
      <trkpt lat="48.43646" lon="-4.51876">
        <ele>80</ele>
        <time>2022-03-27T09:01:39.000Z</time>
      </trkpt>
      <trkpt lat="48.43648" lon="-4.51885">
        <ele>79.800003051758</ele>
        <time>2022-03-27T09:01:40.000Z</time>
      </trkpt>
      <trkpt lat="48.43645" lon="-4.51902">
        <ele>79.199996948242</ele>
        <time>2022-03-27T09:01:42.000Z</time>
      </trkpt>
      <trkpt lat="48.43638" lon="-4.51915">
        <ele>78.599998474121</ele>
        <time>2022-03-27T09:01:44.000Z</time>
      </trkpt>
      <trkpt lat="48.4363" lon="-4.51927">
        <ele>78.199996948242</ele>
        <time>2022-03-27T09:01:46.000Z</time>
      </trkpt>
      <trkpt lat="48.4362" lon="-4.51941">
        <ele>77.400001525879</ele>
        <time>2022-03-27T09:01:49.000Z</time>
      </trkpt>
      <trkpt lat="48.43617" lon="-4.51946">
        <ele>77.199996948242</ele>
        <time>2022-03-27T09:01:50.000Z</time>
      </trkpt>
      <trkpt lat="48.43611" lon="-4.51963">
        <ele>76.599998474121</ele>
        <time>2022-03-27T09:01:52.000Z</time>
      </trkpt>
      <trkpt lat="48.43601" lon="-4.52001">
        <ele>75.800003051758</ele>
        <time>2022-03-27T09:01:57.000Z</time>
      </trkpt>
      <trkpt lat="48.4359" lon="-4.52024">
        <ele>75.400001525879</ele>
        <time>2022-03-27T09:02:02.000Z</time>
      </trkpt>
      <trkpt lat="48.43587" lon="-4.52026">
        <ele>75.400001525879</ele>
        <time>2022-03-27T09:02:03.000Z</time>
      </trkpt>
      <trkpt lat="48.43582" lon="-4.52026">
        <ele>75.599998474121</ele>
        <time>2022-03-27T09:02:05.000Z</time>
      </trkpt>
      <trkpt lat="48.43568" lon="-4.52027">
        <ele>75.800003051758</ele>
        <time>2022-03-27T09:02:11.000Z</time>
      </trkpt>
      <trkpt lat="48.43566" lon="-4.52029">
        <ele>76</ele>
        <time>2022-03-27T09:02:12.000Z</time>
      </trkpt>
      <trkpt lat="48.43557" lon="-4.52035">
        <ele>76</ele>
        <time>2022-03-27T09:02:14.000Z</time>
      </trkpt>
      <trkpt lat="48.43548" lon="-4.52047">
        <ele>76.599998474121</ele>
        <time>2022-03-27T09:02:17.000Z</time>
      </trkpt>
      <trkpt lat="48.43543" lon="-4.52056">
        <ele>76.800003051758</ele>
        <time>2022-03-27T09:02:20.000Z</time>
      </trkpt>
      <trkpt lat="48.43538" lon="-4.52059">
        <ele>77</ele>
        <time>2022-03-27T09:02:22.000Z</time>
      </trkpt>
      <trkpt lat="48.43523" lon="-4.52076">
        <ele>77.800003051758</ele>
        <time>2022-03-27T09:02:26.000Z</time>
      </trkpt>
      <trkpt lat="48.435" lon="-4.52102">
        <ele>78.599998474121</ele>
        <time>2022-03-27T09:02:31.000Z</time>
      </trkpt>
      <trkpt lat="48.4349" lon="-4.5211">
        <ele>78.800003051758</ele>
        <time>2022-03-27T09:02:33.000Z</time>
      </trkpt>
      <trkpt lat="48.43481" lon="-4.52111">
        <ele>78.800003051758</ele>
        <time>2022-03-27T09:02:35.000Z</time>
      </trkpt>
      <trkpt lat="48.4346" lon="-4.52111">
        <ele>78.800003051758</ele>
        <time>2022-03-27T09:02:40.000Z</time>
      </trkpt>
      <trkpt lat="48.43447" lon="-4.52097">
        <ele>78.400001525879</ele>
        <time>2022-03-27T09:02:44.000Z</time>
      </trkpt>
      <trkpt lat="48.43438" lon="-4.52087">
        <ele>78</ele>
        <time>2022-03-27T09:02:47.000Z</time>
      </trkpt>
      <trkpt lat="48.43433" lon="-4.52083">
        <ele>77.800003051758</ele>
        <time>2022-03-27T09:02:49.000Z</time>
      </trkpt>
      <trkpt lat="48.43429" lon="-4.52081">
        <ele>77.599998474121</ele>
        <time>2022-03-27T09:02:50.000Z</time>
      </trkpt>
      <trkpt lat="48.43426" lon="-4.52076">
        <ele>77.599998474121</ele>
        <time>2022-03-27T09:02:52.000Z</time>
      </trkpt>
      <trkpt lat="48.43424" lon="-4.52064">
        <ele>77</ele>
        <time>2022-03-27T09:02:55.000Z</time>
      </trkpt>
      <trkpt lat="48.43421" lon="-4.52048">
        <ele>76.599998474121</ele>
        <time>2022-03-27T09:02:58.000Z</time>
      </trkpt>
      <trkpt lat="48.43421" lon="-4.52044">
        <ele>76.400001525879</ele>
        <time>2022-03-27T09:02:59.000Z</time>
      </trkpt>
      <trkpt lat="48.43427" lon="-4.52024">
        <ele>76</ele>
        <time>2022-03-27T09:03:03.000Z</time>
      </trkpt>
      <trkpt lat="48.43433" lon="-4.52006">
        <ele>75.599998474121</ele>
        <time>2022-03-27T09:03:07.000Z</time>
      </trkpt>
      <trkpt lat="48.43433" lon="-4.51993">
        <ele>75.599998474121</ele>
        <time>2022-03-27T09:03:10.000Z</time>
      </trkpt>
      <trkpt lat="48.43431" lon="-4.51983">
        <ele>75.400001525879</ele>
        <time>2022-03-27T09:03:13.000Z</time>
      </trkpt>
      <trkpt lat="48.4343" lon="-4.5198">
        <ele>75.400001525879</ele>
        <time>2022-03-27T09:03:14.000Z</time>
      </trkpt>
      <trkpt lat="48.43416" lon="-4.51958">
        <ele>75</ele>
        <time>2022-03-27T09:03:19.000Z</time>
      </trkpt>
      <trkpt lat="48.43413" lon="-4.51954">
        <ele>74.599998474121</ele>
        <time>2022-03-27T09:03:20.000Z</time>
      </trkpt>
      <trkpt lat="48.43406" lon="-4.51947">
        <ele>74.199996948242</ele>
        <time>2022-03-27T09:03:22.000Z</time>
      </trkpt>
      <trkpt lat="48.43394" lon="-4.51921">
        <ele>74.400001525879</ele>
        <time>2022-03-27T09:03:27.000Z</time>
      </trkpt>
      <trkpt lat="48.43385" lon="-4.51901">
        <ele>73.599998474121</ele>
        <time>2022-03-27T09:03:31.000Z</time>
      </trkpt>
      <trkpt lat="48.4337" lon="-4.51874">
        <ele>71.400001525879</ele>
        <time>2022-03-27T09:03:36.000Z</time>
      </trkpt>
      <trkpt lat="48.43363" lon="-4.51864">
        <ele>70.400001525879</ele>
        <time>2022-03-27T09:03:38.000Z</time>
      </trkpt>
      <trkpt lat="48.43356" lon="-4.51852">
        <ele>70</ele>
        <time>2022-03-27T09:03:40.000Z</time>
      </trkpt>
      <trkpt lat="48.43349" lon="-4.51828">
        <ele>69.400001525879</ele>
        <time>2022-03-27T09:03:44.000Z</time>
      </trkpt>
      <trkpt lat="48.43344" lon="-4.51805">
        <ele>70</ele>
        <time>2022-03-27T09:03:48.000Z</time>
      </trkpt>
      <trkpt lat="48.43341" lon="-4.51778">
        <ele>70.199996948242</ele>
        <time>2022-03-27T09:03:53.000Z</time>
      </trkpt>
      <trkpt lat="48.43338" lon="-4.51755">
        <ele>70</ele>
        <time>2022-03-27T09:03:57.000Z</time>
      </trkpt>
      <trkpt lat="48.43341" lon="-4.51725">
        <ele>69.400001525879</ele>
        <time>2022-03-27T09:04:02.000Z</time>
      </trkpt>
      <trkpt lat="48.43343" lon="-4.51705">
        <ele>69.199996948242</ele>
        <time>2022-03-27T09:04:06.000Z</time>
      </trkpt>
      <trkpt lat="48.43344" lon="-4.517">
        <ele>69</ele>
        <time>2022-03-27T09:04:07.000Z</time>
      </trkpt>
      <trkpt lat="48.43344" lon="-4.51678">
        <ele>68.199996948242</ele>
        <time>2022-03-27T09:04:11.000Z</time>
      </trkpt>
      <trkpt lat="48.43333" lon="-4.51656">
        <ele>67.599998474121</ele>
        <time>2022-03-27T09:04:14.000Z</time>
      </trkpt>
      <trkpt lat="48.43324" lon="-4.51628">
        <ele>66.800003051758</ele>
        <time>2022-03-27T09:04:18.000Z</time>
      </trkpt>
      <trkpt lat="48.4332" lon="-4.51627">
        <ele>67</ele>
        <time>2022-03-27T09:04:19.000Z</time>
      </trkpt>
      <trkpt lat="48.43302" lon="-4.51635">
        <ele>67.599998474121</ele>
        <time>2022-03-27T09:04:24.000Z</time>
      </trkpt>
      <trkpt lat="48.43283" lon="-4.51651">
        <ele>68.400001525879</ele>
        <time>2022-03-27T09:04:29.000Z</time>
      </trkpt>
      <trkpt lat="48.43269" lon="-4.51663">
        <ele>69</ele>
        <time>2022-03-27T09:04:33.000Z</time>
      </trkpt>
      <trkpt lat="48.43266" lon="-4.51671">
        <ele>69.199996948242</ele>
        <time>2022-03-27T09:04:36.000Z</time>
      </trkpt>
      <trkpt lat="48.43265" lon="-4.51674">
        <ele>69.400001525879</ele>
        <time>2022-03-27T09:04:38.000Z</time>
      </trkpt>
      <trkpt lat="48.43262" lon="-4.5168">
        <ele>69.599998474121</ele>
        <time>2022-03-27T09:04:41.000Z</time>
      </trkpt>
      <trkpt lat="48.4326" lon="-4.51686">
        <ele>69.800003051758</ele>
        <time>2022-03-27T09:04:43.000Z</time>
      </trkpt>
      <trkpt lat="48.43257" lon="-4.51714">
        <ele>70.599998474121</ele>
        <time>2022-03-27T09:04:49.000Z</time>
      </trkpt>
      <trkpt lat="48.43256" lon="-4.51734">
        <ele>71</ele>
        <time>2022-03-27T09:04:54.000Z</time>
      </trkpt>
      <trkpt lat="48.43255" lon="-4.51757">
        <ele>71.599998474121</ele>
        <time>2022-03-27T09:04:59.000Z</time>
      </trkpt>
      <trkpt lat="48.43257" lon="-4.51769">
        <ele>71.800003051758</ele>
        <time>2022-03-27T09:05:02.000Z</time>
      </trkpt>
      <trkpt lat="48.4326" lon="-4.51787">
        <ele>72.199996948242</ele>
        <time>2022-03-27T09:05:05.000Z</time>
      </trkpt>
      <trkpt lat="48.4326" lon="-4.51799">
        <ele>72.199996948242</ele>
        <time>2022-03-27T09:05:08.000Z</time>
      </trkpt>
      <trkpt lat="48.43261" lon="-4.51808">
        <ele>72.199996948242</ele>
        <time>2022-03-27T09:05:11.000Z</time>
      </trkpt>
      <trkpt lat="48.4326" lon="-4.51813">
        <ele>72.199996948242</ele>
        <time>2022-03-27T09:05:12.000Z</time>
      </trkpt>
      <trkpt lat="48.4326" lon="-4.51819">
        <ele>72.199996948242</ele>
        <time>2022-03-27T09:05:14.000Z</time>
      </trkpt>
      <trkpt lat="48.43263" lon="-4.51829">
        <ele>72</ele>
        <time>2022-03-27T09:05:16.000Z</time>
      </trkpt>
      <trkpt lat="48.43267" lon="-4.51857">
        <ele>72</ele>
        <time>2022-03-27T09:05:20.000Z</time>
      </trkpt>
      <trkpt lat="48.43269" lon="-4.51863">
        <ele>72</ele>
        <time>2022-03-27T09:05:21.000Z</time>
      </trkpt>
      <trkpt lat="48.43272" lon="-4.51885">
        <ele>72.400001525879</ele>
        <time>2022-03-27T09:05:25.000Z</time>
      </trkpt>
      <trkpt lat="48.43271" lon="-4.51901">
        <ele>73</ele>
        <time>2022-03-27T09:05:28.000Z</time>
      </trkpt>
      <trkpt lat="48.43272" lon="-4.51904">
        <ele>73.199996948242</ele>
        <time>2022-03-27T09:05:29.000Z</time>
      </trkpt>
      <trkpt lat="48.43272" lon="-4.51907">
        <ele>73.199996948242</ele>
        <time>2022-03-27T09:05:30.000Z</time>
      </trkpt>
      <trkpt lat="48.43276" lon="-4.51922">
        <ele>73.599998474121</ele>
        <time>2022-03-27T09:05:34.000Z</time>
      </trkpt>
      <trkpt lat="48.43279" lon="-4.51928">
        <ele>73.800003051758</ele>
        <time>2022-03-27T09:05:36.000Z</time>
      </trkpt>
      <trkpt lat="48.43286" lon="-4.51936">
        <ele>73.800003051758</ele>
        <time>2022-03-27T09:05:39.000Z</time>
      </trkpt>
      <trkpt lat="48.43295" lon="-4.51947">
        <ele>73.800003051758</ele>
        <time>2022-03-27T09:05:43.000Z</time>
      </trkpt>
      <trkpt lat="48.43299" lon="-4.51948">
        <ele>73.800003051758</ele>
        <time>2022-03-27T09:05:44.000Z</time>
      </trkpt>
      <trkpt lat="48.4331" lon="-4.51956">
        <ele>73.599998474121</ele>
        <time>2022-03-27T09:05:47.000Z</time>
      </trkpt>
      <trkpt lat="48.43312" lon="-4.51958">
        <ele>73.599998474121</ele>
        <time>2022-03-27T09:05:48.000Z</time>
      </trkpt>
      <trkpt lat="48.43317" lon="-4.51961">
        <ele>73.400001525879</ele>
        <time>2022-03-27T09:05:51.000Z</time>
      </trkpt>
      <trkpt lat="48.43321" lon="-4.51959">
        <ele>73.199996948242</ele>
        <time>2022-03-27T09:05:53.000Z</time>
      </trkpt>
      <trkpt lat="48.43324" lon="-4.51963">
        <ele>73.199996948242</ele>
        <time>2022-03-27T09:05:55.000Z</time>
      </trkpt>
      <trkpt lat="48.43332" lon="-4.51971">
        <ele>73.199996948242</ele>
        <time>2022-03-27T09:05:58.000Z</time>
      </trkpt>
      <trkpt lat="48.43337" lon="-4.51977">
        <ele>73.599998474121</ele>
        <time>2022-03-27T09:06:00.000Z</time>
      </trkpt>
      <trkpt lat="48.43345" lon="-4.51981">
        <ele>73.800003051758</ele>
        <time>2022-03-27T09:06:03.000Z</time>
      </trkpt>
      <trkpt lat="48.43356" lon="-4.51984">
        <ele>74.199996948242</ele>
        <time>2022-03-27T09:06:06.000Z</time>
      </trkpt>
      <trkpt lat="48.4336" lon="-4.51987">
        <ele>74.599998474121</ele>
        <time>2022-03-27T09:06:07.000Z</time>
      </trkpt>
      <trkpt lat="48.43371" lon="-4.52002">
        <ele>76</ele>
        <time>2022-03-27T09:06:11.000Z</time>
      </trkpt>
      <trkpt lat="48.43376" lon="-4.52007">
        <ele>76.400001525879</ele>
        <time>2022-03-27T09:06:14.000Z</time>
      </trkpt>
      <trkpt lat="48.43383" lon="-4.52011">
        <ele>76.400001525879</ele>
        <time>2022-03-27T09:06:17.000Z</time>
      </trkpt>
      <trkpt lat="48.43386" lon="-4.52012">
        <ele>76.199996948242</ele>
        <time>2022-03-27T09:06:18.000Z</time>
      </trkpt>
      <trkpt lat="48.43389" lon="-4.52013">
        <ele>76.199996948242</ele>
        <time>2022-03-27T09:06:19.000Z</time>
      </trkpt>
      <trkpt lat="48.43391" lon="-4.52019">
        <ele>76.400001525879</ele>
        <time>2022-03-27T09:06:22.000Z</time>
      </trkpt>
      <trkpt lat="48.43395" lon="-4.52023">
        <ele>76.400001525879</ele>
        <time>2022-03-27T09:06:25.000Z</time>
      </trkpt>
      <trkpt lat="48.43396" lon="-4.52025">
        <ele>76.400001525879</ele>
        <time>2022-03-27T09:06:26.000Z</time>
      </trkpt>
      <trkpt lat="48.43398" lon="-4.52034">
        <ele>76.400001525879</ele>
        <time>2022-03-27T09:06:28.000Z</time>
      </trkpt>
      <trkpt lat="48.43398" lon="-4.52037">
        <ele>76.400001525879</ele>
        <time>2022-03-27T09:06:29.000Z</time>
      </trkpt>
      <trkpt lat="48.43399" lon="-4.52047">
        <ele>76.800003051758</ele>
        <time>2022-03-27T09:06:33.000Z</time>
      </trkpt>
      <trkpt lat="48.434" lon="-4.52051">
        <ele>76.800003051758</ele>
        <time>2022-03-27T09:06:34.000Z</time>
      </trkpt>
      <trkpt lat="48.43402" lon="-4.52056">
        <ele>76.800003051758</ele>
        <time>2022-03-27T09:06:37.000Z</time>
      </trkpt>
      <trkpt lat="48.43406" lon="-4.52058">
        <ele>77</ele>
        <time>2022-03-27T09:06:39.000Z</time>
      </trkpt>
      <trkpt lat="48.43412" lon="-4.52066">
        <ele>77.199996948242</ele>
        <time>2022-03-27T09:06:42.000Z</time>
      </trkpt>
      <trkpt lat="48.43422" lon="-4.52077">
        <ele>77.599998474121</ele>
        <time>2022-03-27T09:06:45.000Z</time>
      </trkpt>
      <trkpt lat="48.43432" lon="-4.5209">
        <ele>78</ele>
        <time>2022-03-27T09:06:47.000Z</time>
      </trkpt>
      <trkpt lat="48.43446" lon="-4.52106">
        <ele>78.800003051758</ele>
        <time>2022-03-27T09:06:53.000Z</time>
      </trkpt>
      <trkpt lat="48.43472" lon="-4.52113">
        <ele>79</ele>
        <time>2022-03-27T09:06:58.000Z</time>
      </trkpt>
      <trkpt lat="48.43486" lon="-4.52112">
        <ele>78.800003051758</ele>
        <time>2022-03-27T09:07:02.000Z</time>
      </trkpt>
      <trkpt lat="48.43496" lon="-4.52108">
        <ele>78.800003051758</ele>
        <time>2022-03-27T09:07:05.000Z</time>
      </trkpt>
      <trkpt lat="48.43498" lon="-4.52109">
        <ele>78.800003051758</ele>
        <time>2022-03-27T09:07:06.000Z</time>
      </trkpt>
      <trkpt lat="48.43508" lon="-4.52118">
        <ele>79</ele>
        <time>2022-03-27T09:07:11.000Z</time>
      </trkpt>
      <trkpt lat="48.43518" lon="-4.5213">
        <ele>79.599998474121</ele>
        <time>2022-03-27T09:07:16.000Z</time>
      </trkpt>
      <trkpt lat="48.43524" lon="-4.52138">
        <ele>80</ele>
        <time>2022-03-27T09:07:20.000Z</time>
      </trkpt>
      <trkpt lat="48.43524" lon="-4.52141">
        <ele>80</ele>
        <time>2022-03-27T09:07:21.000Z</time>
      </trkpt>
      <trkpt lat="48.43525" lon="-4.5215">
        <ele>80.400001525879</ele>
        <time>2022-03-27T09:07:25.000Z</time>
      </trkpt>
      <trkpt lat="48.43527" lon="-4.52154">
        <ele>80.599998474121</ele>
        <time>2022-03-27T09:07:26.000Z</time>
      </trkpt>
      <trkpt lat="48.43527" lon="-4.52175">
        <ele>81.599998474121</ele>
        <time>2022-03-27T09:07:32.000Z</time>
      </trkpt>
      <trkpt lat="48.43527" lon="-4.52178">
        <ele>81.800003051758</ele>
        <time>2022-03-27T09:07:33.000Z</time>
      </trkpt>
      <trkpt lat="48.43521" lon="-4.52185">
        <ele>82.199996948242</ele>
        <time>2022-03-27T09:07:37.000Z</time>
      </trkpt>
      <trkpt lat="48.43519" lon="-4.52188">
        <ele>82.400001525879</ele>
        <time>2022-03-27T09:07:39.000Z</time>
      </trkpt>
      <trkpt lat="48.43519" lon="-4.52193">
        <ele>82.599998474121</ele>
        <time>2022-03-27T09:07:41.000Z</time>
      </trkpt>
      <trkpt lat="48.43519" lon="-4.52193">
        <ele>82.599998474121</ele>
        <time>2022-03-27T09:07:42.000Z</time>
      </trkpt>
      <trkpt lat="48.43521" lon="-4.52208">
        <ele>82.599998474121</ele>
        <time>2022-03-27T09:07:53.000Z</time>
      </trkpt>
      <trkpt lat="48.43522" lon="-4.52211">
        <ele>82.599998474121</ele>
        <time>2022-03-27T09:07:55.000Z</time>
      </trkpt>
      <trkpt lat="48.43515" lon="-4.5222">
        <ele>82.800003051758</ele>
        <time>2022-03-27T09:08:35.000Z</time>
      </trkpt>
      <trkpt lat="48.43505" lon="-4.52226">
        <ele>82.599998474121</ele>
        <time>2022-03-27T09:08:39.000Z</time>
      </trkpt>
      <trkpt lat="48.43494" lon="-4.52239">
        <ele>82.199996948242</ele>
        <time>2022-03-27T09:08:45.000Z</time>
      </trkpt>
      <trkpt lat="48.43481" lon="-4.52249">
        <ele>82</ele>
        <time>2022-03-27T09:08:51.000Z</time>
      </trkpt>
      <trkpt lat="48.4347" lon="-4.52265">
        <ele>81.599998474121</ele>
        <time>2022-03-27T09:08:57.000Z</time>
      </trkpt>
      <trkpt lat="48.43454" lon="-4.52288">
        <ele>81.199996948242</ele>
        <time>2022-03-27T09:09:05.000Z</time>
      </trkpt>
      <trkpt lat="48.43438" lon="-4.52297">
        <ele>81</ele>
        <time>2022-03-27T09:09:11.000Z</time>
      </trkpt>
      <trkpt lat="48.43421" lon="-4.52305">
        <ele>80.599998474121</ele>
        <time>2022-03-27T09:09:16.000Z</time>
      </trkpt>
      <trkpt lat="48.43413" lon="-4.52305">
        <ele>80.400001525879</ele>
        <time>2022-03-27T09:09:18.000Z</time>
      </trkpt>
      <trkpt lat="48.43404" lon="-4.52307">
        <ele>80</ele>
        <time>2022-03-27T09:09:20.000Z</time>
      </trkpt>
      <trkpt lat="48.43392" lon="-4.52309">
        <ele>79.800003051758</ele>
        <time>2022-03-27T09:09:22.000Z</time>
      </trkpt>
      <trkpt lat="48.4338" lon="-4.52313">
        <ele>79.400001525879</ele>
        <time>2022-03-27T09:09:24.000Z</time>
      </trkpt>
      <trkpt lat="48.43345" lon="-4.52325">
        <ele>78.599998474121</ele>
        <time>2022-03-27T09:09:28.000Z</time>
      </trkpt>
      <trkpt lat="48.43298" lon="-4.52355">
        <ele>78.800003051758</ele>
        <time>2022-03-27T09:09:34.000Z</time>
      </trkpt>
      <trkpt lat="48.43292" lon="-4.52359">
        <ele>78.800003051758</ele>
        <time>2022-03-27T09:09:35.000Z</time>
      </trkpt>
      <trkpt lat="48.43279" lon="-4.52373">
        <ele>78.599998474121</ele>
        <time>2022-03-27T09:09:38.000Z</time>
      </trkpt>
      <trkpt lat="48.43271" lon="-4.52385">
        <ele>78.599998474121</ele>
        <time>2022-03-27T09:09:42.000Z</time>
      </trkpt>
      <trkpt lat="48.43258" lon="-4.52394">
        <ele>78.800003051758</ele>
        <time>2022-03-27T09:09:47.000Z</time>
      </trkpt>
      <trkpt lat="48.43243" lon="-4.52402">
        <ele>79.199996948242</ele>
        <time>2022-03-27T09:09:53.000Z</time>
      </trkpt>
      <trkpt lat="48.43222" lon="-4.5241">
        <ele>80</ele>
        <time>2022-03-27T09:10:00.000Z</time>
      </trkpt>
      <trkpt lat="48.43211" lon="-4.52417">
        <ele>80.400001525879</ele>
        <time>2022-03-27T09:10:04.000Z</time>
      </trkpt>
      <trkpt lat="48.43197" lon="-4.52445">
        <ele>80.400001525879</ele>
        <time>2022-03-27T09:10:10.000Z</time>
      </trkpt>
      <trkpt lat="48.43185" lon="-4.52457">
        <ele>80.599998474121</ele>
        <time>2022-03-27T09:10:14.000Z</time>
      </trkpt>
      <trkpt lat="48.43169" lon="-4.52458">
        <ele>80.400001525879</ele>
        <time>2022-03-27T09:10:18.000Z</time>
      </trkpt>
      <trkpt lat="48.43155" lon="-4.52462">
        <ele>80</ele>
        <time>2022-03-27T09:10:22.000Z</time>
      </trkpt>
      <trkpt lat="48.43138" lon="-4.52471">
        <ele>79.199996948242</ele>
        <time>2022-03-27T09:10:27.000Z</time>
      </trkpt>
      <trkpt lat="48.4313" lon="-4.52474">
        <ele>78.800003051758</ele>
        <time>2022-03-27T09:10:29.000Z</time>
      </trkpt>
      <trkpt lat="48.43112" lon="-4.52484">
        <ele>78.199996948242</ele>
        <time>2022-03-27T09:10:33.000Z</time>
      </trkpt>
      <trkpt lat="48.43095" lon="-4.52501">
        <ele>77</ele>
        <time>2022-03-27T09:10:37.000Z</time>
      </trkpt>
      <trkpt lat="48.43065" lon="-4.5255">
        <ele>75.400001525879</ele>
        <time>2022-03-27T09:10:44.000Z</time>
      </trkpt>
      <trkpt lat="48.43046" lon="-4.52596">
        <ele>75.400001525879</ele>
        <time>2022-03-27T09:10:50.000Z</time>
      </trkpt>
      <trkpt lat="48.43032" lon="-4.52635">
        <ele>75.599998474121</ele>
        <time>2022-03-27T09:10:56.000Z</time>
      </trkpt>
      <trkpt lat="48.43026" lon="-4.52664">
        <ele>76.199996948242</ele>
        <time>2022-03-27T09:11:01.000Z</time>
      </trkpt>
      <trkpt lat="48.43019" lon="-4.52695">
        <ele>77</ele>
        <time>2022-03-27T09:11:07.000Z</time>
      </trkpt>
      <trkpt lat="48.43013" lon="-4.52712">
        <ele>77.400001525879</ele>
        <time>2022-03-27T09:11:11.000Z</time>
      </trkpt>
      <trkpt lat="48.43006" lon="-4.52732">
        <ele>78.199996948242</ele>
        <time>2022-03-27T09:11:17.000Z</time>
      </trkpt>
      <trkpt lat="48.43001" lon="-4.5275">
        <ele>78.800003051758</ele>
        <time>2022-03-27T09:11:22.000Z</time>
      </trkpt>
      <trkpt lat="48.42992" lon="-4.52772">
        <ele>79.599998474121</ele>
        <time>2022-03-27T09:11:28.000Z</time>
      </trkpt>
      <trkpt lat="48.42979" lon="-4.52802">
        <ele>80</ele>
        <time>2022-03-27T09:11:34.000Z</time>
      </trkpt>
      <trkpt lat="48.42963" lon="-4.5283">
        <ele>80</ele>
        <time>2022-03-27T09:11:40.000Z</time>
      </trkpt>
      <trkpt lat="48.42949" lon="-4.52856">
        <ele>80.199996948242</ele>
        <time>2022-03-27T09:11:44.000Z</time>
      </trkpt>
      <trkpt lat="48.42929" lon="-4.52895">
        <ele>79.800003051758</ele>
        <time>2022-03-27T09:11:49.000Z</time>
      </trkpt>
      <trkpt lat="48.42912" lon="-4.52926">
        <ele>78.800003051758</ele>
        <time>2022-03-27T09:11:54.000Z</time>
      </trkpt>
      <trkpt lat="48.429" lon="-4.52949">
        <ele>78</ele>
        <time>2022-03-27T09:11:58.000Z</time>
      </trkpt>
      <trkpt lat="48.42898" lon="-4.52955">
        <ele>78.199996948242</ele>
        <time>2022-03-27T09:11:59.000Z</time>
      </trkpt>
      <trkpt lat="48.42894" lon="-4.52982">
        <ele>80</ele>
        <time>2022-03-27T09:12:04.000Z</time>
      </trkpt>
      <trkpt lat="48.42884" lon="-4.53003">
        <ele>80.599998474121</ele>
        <time>2022-03-27T09:12:09.000Z</time>
      </trkpt>
      <trkpt lat="48.42864" lon="-4.53033">
        <ele>81</ele>
        <time>2022-03-27T09:12:17.000Z</time>
      </trkpt>
      <trkpt lat="48.42842" lon="-4.53059">
        <ele>81.599998474121</ele>
        <time>2022-03-27T09:12:25.000Z</time>
      </trkpt>
      <trkpt lat="48.42828" lon="-4.53077">
        <ele>81.800003051758</ele>
        <time>2022-03-27T09:12:30.000Z</time>
      </trkpt>
      <trkpt lat="48.4282" lon="-4.53083">
        <ele>81.800003051758</ele>
        <time>2022-03-27T09:12:34.000Z</time>
      </trkpt>
      <trkpt lat="48.42804" lon="-4.53069">
        <ele>80.400001525879</ele>
        <time>2022-03-27T09:12:39.000Z</time>
      </trkpt>
      <trkpt lat="48.428" lon="-4.53066">
        <ele>80</ele>
        <time>2022-03-27T09:12:40.000Z</time>
      </trkpt>
      <trkpt lat="48.42789" lon="-4.53065">
        <ele>79.400001525879</ele>
        <time>2022-03-27T09:12:42.000Z</time>
      </trkpt>
      <trkpt lat="48.42771" lon="-4.53076">
        <ele>78.800003051758</ele>
        <time>2022-03-27T09:12:46.000Z</time>
      </trkpt>
      <trkpt lat="48.42764" lon="-4.53084">
        <ele>78.800003051758</ele>
        <time>2022-03-27T09:12:48.000Z</time>
      </trkpt>
      <trkpt lat="48.42753" lon="-4.53095">
        <ele>78.800003051758</ele>
        <time>2022-03-27T09:12:51.000Z</time>
      </trkpt>
      <trkpt lat="48.42745" lon="-4.53102">
        <ele>78.800003051758</ele>
        <time>2022-03-27T09:12:53.000Z</time>
      </trkpt>
      <trkpt lat="48.42732" lon="-4.53113">
        <ele>78.800003051758</ele>
        <time>2022-03-27T09:12:56.000Z</time>
      </trkpt>
      <trkpt lat="48.42718" lon="-4.53127">
        <ele>78.199996948242</ele>
        <time>2022-03-27T09:12:59.000Z</time>
      </trkpt>
      <trkpt lat="48.42707" lon="-4.53137">
        <ele>77.599998474121</ele>
        <time>2022-03-27T09:13:01.000Z</time>
      </trkpt>
      <trkpt lat="48.42696" lon="-4.5315">
        <ele>76.800003051758</ele>
        <time>2022-03-27T09:13:03.000Z</time>
      </trkpt>
      <trkpt lat="48.42686" lon="-4.53164">
        <ele>76.199996948242</ele>
        <time>2022-03-27T09:13:05.000Z</time>
      </trkpt>
      <trkpt lat="48.42681" lon="-4.5317">
        <ele>76</ele>
        <time>2022-03-27T09:13:06.000Z</time>
      </trkpt>
      <trkpt lat="48.42672" lon="-4.53184">
        <ele>75.800003051758</ele>
        <time>2022-03-27T09:13:08.000Z</time>
      </trkpt>
      <trkpt lat="48.42663" lon="-4.532">
        <ele>75.800003051758</ele>
        <time>2022-03-27T09:13:10.000Z</time>
      </trkpt>
      <trkpt lat="48.42658" lon="-4.53207">
        <ele>75.800003051758</ele>
        <time>2022-03-27T09:13:11.000Z</time>
      </trkpt>
      <trkpt lat="48.42626" lon="-4.53246">
        <ele>75.400001525879</ele>
        <time>2022-03-27T09:13:17.000Z</time>
      </trkpt>
      <trkpt lat="48.42594" lon="-4.5329">
        <ele>74.800003051758</ele>
        <time>2022-03-27T09:13:23.000Z</time>
      </trkpt>
      <trkpt lat="48.42574" lon="-4.53333">
        <ele>74.800003051758</ele>
        <time>2022-03-27T09:13:28.000Z</time>
      </trkpt>
      <trkpt lat="48.42571" lon="-4.53343">
        <ele>74.800003051758</ele>
        <time>2022-03-27T09:13:29.000Z</time>
      </trkpt>
      <trkpt lat="48.42564" lon="-4.53375">
        <ele>74</ele>
        <time>2022-03-27T09:13:32.000Z</time>
      </trkpt>
      <trkpt lat="48.42557" lon="-4.53396">
        <ele>71.400001525879</ele>
        <time>2022-03-27T09:13:34.000Z</time>
      </trkpt>
      <trkpt lat="48.42546" lon="-4.53408">
        <ele>69.599998474121</ele>
        <time>2022-03-27T09:13:36.000Z</time>
      </trkpt>
      <trkpt lat="48.42525" lon="-4.53404">
        <ele>69.400001525879</ele>
        <time>2022-03-27T09:13:39.000Z</time>
      </trkpt>
      <trkpt lat="48.42511" lon="-4.53399">
        <ele>69</ele>
        <time>2022-03-27T09:13:43.000Z</time>
      </trkpt>
      <trkpt lat="48.42499" lon="-4.534">
        <ele>67.400001525879</ele>
        <time>2022-03-27T09:13:47.000Z</time>
      </trkpt>
      <trkpt lat="48.4249" lon="-4.53399">
        <ele>66.400001525879</ele>
        <time>2022-03-27T09:13:49.000Z</time>
      </trkpt>
      <trkpt lat="48.42484" lon="-4.53397">
        <ele>66.199996948242</ele>
        <time>2022-03-27T09:13:50.000Z</time>
      </trkpt>
      <trkpt lat="48.42477" lon="-4.53395">
        <ele>66</ele>
        <time>2022-03-27T09:13:51.000Z</time>
      </trkpt>
      <trkpt lat="48.42463" lon="-4.53392">
        <ele>65.400001525879</ele>
        <time>2022-03-27T09:13:53.000Z</time>
      </trkpt>
      <trkpt lat="48.42455" lon="-4.5339">
        <ele>65</ele>
        <time>2022-03-27T09:13:54.000Z</time>
      </trkpt>
      <trkpt lat="48.42408" lon="-4.53384">
        <ele>62.599998474121</ele>
        <time>2022-03-27T09:13:59.000Z</time>
      </trkpt>
      <trkpt lat="48.42355" lon="-4.53382">
        <ele>57.799999237061</ele>
        <time>2022-03-27T09:14:04.000Z</time>
      </trkpt>
      <trkpt lat="48.42345" lon="-4.53381">
        <ele>57</ele>
        <time>2022-03-27T09:14:05.000Z</time>
      </trkpt>
      <trkpt lat="48.42334" lon="-4.53382">
        <ele>56</ele>
        <time>2022-03-27T09:14:06.000Z</time>
      </trkpt>
      <trkpt lat="48.42314" lon="-4.53386">
        <ele>52.799999237061</ele>
        <time>2022-03-27T09:14:08.000Z</time>
      </trkpt>
      <trkpt lat="48.42296" lon="-4.53388">
        <ele>50.200000762939</ele>
        <time>2022-03-27T09:14:10.000Z</time>
      </trkpt>
      <trkpt lat="48.42289" lon="-4.53387">
        <ele>49.200000762939</ele>
        <time>2022-03-27T09:14:11.000Z</time>
      </trkpt>
      <trkpt lat="48.42283" lon="-4.53385">
        <ele>48.400001525879</ele>
        <time>2022-03-27T09:14:12.000Z</time>
      </trkpt>
      <trkpt lat="48.42273" lon="-4.53377">
        <ele>47.400001525879</ele>
        <time>2022-03-27T09:14:14.000Z</time>
      </trkpt>
      <trkpt lat="48.42265" lon="-4.53369">
        <ele>47</ele>
        <time>2022-03-27T09:14:16.000Z</time>
      </trkpt>
      <trkpt lat="48.42263" lon="-4.53364">
        <ele>47.200000762939</ele>
        <time>2022-03-27T09:14:17.000Z</time>
      </trkpt>
      <trkpt lat="48.42263" lon="-4.53363">
        <ele>47.400001525879</ele>
        <time>2022-03-27T09:14:19.000Z</time>
      </trkpt>
      <trkpt lat="48.42262" lon="-4.53367">
        <ele>46.799999237061</ele>
        <time>2022-03-27T09:14:23.000Z</time>
      </trkpt>
      <trkpt lat="48.4226" lon="-4.5337">
        <ele>46.599998474121</ele>
        <time>2022-03-27T09:14:24.000Z</time>
      </trkpt>
      <trkpt lat="48.42254" lon="-4.53391">
        <ele>45.400001525879</ele>
        <time>2022-03-27T09:14:29.000Z</time>
      </trkpt>
      <trkpt lat="48.42255" lon="-4.53396">
        <ele>45</ele>
        <time>2022-03-27T09:14:30.000Z</time>
      </trkpt>
      <trkpt lat="48.42261" lon="-4.53407">
        <ele>44.400001525879</ele>
        <time>2022-03-27T09:14:32.000Z</time>
      </trkpt>
      <trkpt lat="48.42265" lon="-4.53412">
        <ele>44.200000762939</ele>
        <time>2022-03-27T09:14:33.000Z</time>
      </trkpt>
      <trkpt lat="48.42272" lon="-4.53422">
        <ele>44.599998474121</ele>
        <time>2022-03-27T09:14:35.000Z</time>
      </trkpt>
      <trkpt lat="48.42276" lon="-4.53427">
        <ele>45</ele>
        <time>2022-03-27T09:14:36.000Z</time>
      </trkpt>
      <trkpt lat="48.42278" lon="-4.53428">
        <ele>45.200000762939</ele>
        <time>2022-03-27T09:14:37.000Z</time>
      </trkpt>
      <trkpt lat="48.42281" lon="-4.53429">
        <ele>45.599998474121</ele>
        <time>2022-03-27T09:14:39.000Z</time>
      </trkpt>
      <trkpt lat="48.42282" lon="-4.5343">
        <ele>45.599998474121</ele>
        <time>2022-03-27T09:14:40.000Z</time>
      </trkpt>
      <trkpt lat="48.42288" lon="-4.53438">
        <ele>45.400001525879</ele>
        <time>2022-03-27T09:14:43.000Z</time>
      </trkpt>
      <trkpt lat="48.42293" lon="-4.53441">
        <ele>45.400001525879</ele>
        <time>2022-03-27T09:14:45.000Z</time>
      </trkpt>
      <trkpt lat="48.423" lon="-4.53441">
        <ele>46</ele>
        <time>2022-03-27T09:14:47.000Z</time>
      </trkpt>
      <trkpt lat="48.42313" lon="-4.53437">
        <ele>47.599998474121</ele>
        <time>2022-03-27T09:14:51.000Z</time>
      </trkpt>
      <trkpt lat="48.42323" lon="-4.53433">
        <ele>49</ele>
        <time>2022-03-27T09:14:55.000Z</time>
      </trkpt>
      <trkpt lat="48.42331" lon="-4.53429">
        <ele>50.200000762939</ele>
        <time>2022-03-27T09:15:00.000Z</time>
      </trkpt>
      <trkpt lat="48.42344" lon="-4.5342">
        <ele>52.200000762939</ele>
        <time>2022-03-27T09:15:07.000Z</time>
      </trkpt>
      <trkpt lat="48.42346" lon="-4.53417">
        <ele>52.799999237061</ele>
        <time>2022-03-27T09:15:11.000Z</time>
      </trkpt>
      <trkpt lat="48.42355" lon="-4.53414">
        <ele>54</ele>
        <time>2022-03-27T09:15:16.000Z</time>
      </trkpt>
      <trkpt lat="48.4236" lon="-4.53413">
        <ele>54.599998474121</ele>
        <time>2022-03-27T09:15:19.000Z</time>
      </trkpt>
      <trkpt lat="48.42367" lon="-4.53409">
        <ele>55.599998474121</ele>
        <time>2022-03-27T09:15:24.000Z</time>
      </trkpt>
      <trkpt lat="48.42368" lon="-4.53409">
        <ele>55.799999237061</ele>
        <time>2022-03-27T09:15:25.000Z</time>
      </trkpt>
      <trkpt lat="48.42373" lon="-4.53408">
        <ele>56.400001525879</ele>
        <time>2022-03-27T09:15:28.000Z</time>
      </trkpt>
      <trkpt lat="48.42377" lon="-4.53408">
        <ele>56.799999237061</ele>
        <time>2022-03-27T09:15:30.000Z</time>
      </trkpt>
      <trkpt lat="48.42382" lon="-4.53411">
        <ele>57</ele>
        <time>2022-03-27T09:15:32.000Z</time>
      </trkpt>
      <trkpt lat="48.4239" lon="-4.53416">
        <ele>56.799999237061</ele>
        <time>2022-03-27T09:15:34.000Z</time>
      </trkpt>
      <trkpt lat="48.42399" lon="-4.5342">
        <ele>56.799999237061</ele>
        <time>2022-03-27T09:15:36.000Z</time>
      </trkpt>
      <trkpt lat="48.42402" lon="-4.53422">
        <ele>56.599998474121</ele>
        <time>2022-03-27T09:15:37.000Z</time>
      </trkpt>
      <trkpt lat="48.42417" lon="-4.53425">
        <ele>57</ele>
        <time>2022-03-27T09:15:42.000Z</time>
      </trkpt>
      <trkpt lat="48.4242" lon="-4.53427">
        <ele>57</ele>
        <time>2022-03-27T09:15:43.000Z</time>
      </trkpt>
      <trkpt lat="48.42426" lon="-4.53429">
        <ele>57</ele>
        <time>2022-03-27T09:15:45.000Z</time>
      </trkpt>
      <trkpt lat="48.42437" lon="-4.53436">
        <ele>56.599998474121</ele>
        <time>2022-03-27T09:15:49.000Z</time>
      </trkpt>
      <trkpt lat="48.42455" lon="-4.53451">
        <ele>56.599998474121</ele>
        <time>2022-03-27T09:15:55.000Z</time>
      </trkpt>
      <trkpt lat="48.42467" lon="-4.53454">
        <ele>57.799999237061</ele>
        <time>2022-03-27T09:16:01.000Z</time>
      </trkpt>
      <trkpt lat="48.4247" lon="-4.53456">
        <ele>57.799999237061</ele>
        <time>2022-03-27T09:16:05.000Z</time>
      </trkpt>
      <trkpt lat="48.42481" lon="-4.53465">
        <ele>57.799999237061</ele>
        <time>2022-03-27T09:16:13.000Z</time>
      </trkpt>
      <trkpt lat="48.42484" lon="-4.53467">
        <ele>58</ele>
        <time>2022-03-27T09:16:15.000Z</time>
      </trkpt>
      <trkpt lat="48.42501" lon="-4.53493">
        <ele>55.599998474121</ele>
        <time>2022-03-27T09:16:26.000Z</time>
      </trkpt>
      <trkpt lat="48.42505" lon="-4.53508">
        <ele>53.400001525879</ele>
        <time>2022-03-27T09:16:30.000Z</time>
      </trkpt>
      <trkpt lat="48.42506" lon="-4.5351">
        <ele>53.200000762939</ele>
        <time>2022-03-27T09:16:32.000Z</time>
      </trkpt>
      <trkpt lat="48.42506" lon="-4.53516">
        <ele>52.400001525879</ele>
        <time>2022-03-27T09:16:37.000Z</time>
      </trkpt>
      <trkpt lat="48.42507" lon="-4.53519">
        <ele>51.799999237061</ele>
        <time>2022-03-27T09:16:38.000Z</time>
      </trkpt>
      <trkpt lat="48.42513" lon="-4.53541">
        <ele>49.599998474121</ele>
        <time>2022-03-27T09:16:43.000Z</time>
      </trkpt>
      <trkpt lat="48.42522" lon="-4.53573">
        <ele>48</ele>
        <time>2022-03-27T09:16:48.000Z</time>
      </trkpt>
      <trkpt lat="48.42531" lon="-4.53604">
        <ele>46.599998474121</ele>
        <time>2022-03-27T09:16:54.000Z</time>
      </trkpt>
      <trkpt lat="48.42539" lon="-4.53631">
        <ele>46.799999237061</ele>
        <time>2022-03-27T09:16:59.000Z</time>
      </trkpt>
      <trkpt lat="48.42553" lon="-4.53655">
        <ele>49.799999237061</ele>
        <time>2022-03-27T09:17:04.000Z</time>
      </trkpt>
      <trkpt lat="48.42555" lon="-4.53659">
        <ele>50.200000762939</ele>
        <time>2022-03-27T09:17:05.000Z</time>
      </trkpt>
      <trkpt lat="48.42558" lon="-4.53674">
        <ele>49.200000762939</ele>
        <time>2022-03-27T09:17:08.000Z</time>
      </trkpt>
      <trkpt lat="48.42558" lon="-4.53694">
        <ele>47.599998474121</ele>
        <time>2022-03-27T09:17:10.000Z</time>
      </trkpt>
      <trkpt lat="48.42561" lon="-4.53711">
        <ele>47.599998474121</ele>
        <time>2022-03-27T09:17:12.000Z</time>
      </trkpt>
      <trkpt lat="48.42562" lon="-4.53724">
        <ele>48.400001525879</ele>
        <time>2022-03-27T09:17:16.000Z</time>
      </trkpt>
      <trkpt lat="48.42564" lon="-4.53728">
        <ele>48.599998474121</ele>
        <time>2022-03-27T09:23:42.000Z</time>
      </trkpt>
      <trkpt lat="48.42565" lon="-4.5373">
        <ele>48.799999237061</ele>
        <time>2022-03-27T09:23:43.000Z</time>
      </trkpt>
      <trkpt lat="48.42566" lon="-4.53736">
        <ele>49</ele>
        <time>2022-03-27T09:23:45.000Z</time>
      </trkpt>
      <trkpt lat="48.42572" lon="-4.53756">
        <ele>48.200000762939</ele>
        <time>2022-03-27T09:23:51.000Z</time>
      </trkpt>
      <trkpt lat="48.4258" lon="-4.53761">
        <ele>47.599998474121</ele>
        <time>2022-03-27T09:23:55.000Z</time>
      </trkpt>
      <trkpt lat="48.42592" lon="-4.53759">
        <ele>46.799999237061</ele>
        <time>2022-03-27T09:24:01.000Z</time>
      </trkpt>
      <trkpt lat="48.42601" lon="-4.53759">
        <ele>46.599998474121</ele>
        <time>2022-03-27T09:24:07.000Z</time>
      </trkpt>
      <trkpt lat="48.42607" lon="-4.53759">
        <ele>47.400001525879</ele>
        <time>2022-03-27T09:24:12.000Z</time>
      </trkpt>
      <trkpt lat="48.42607" lon="-4.53759">
        <ele>47.400001525879</ele>
        <time>2022-03-27T09:24:13.000Z</time>
      </trkpt>
      <trkpt lat="48.42612" lon="-4.53759">
        <ele>47.799999237061</ele>
        <time>2022-03-27T09:24:55.000Z</time>
      </trkpt>
      <trkpt lat="48.42615" lon="-4.53762">
        <ele>48.200000762939</ele>
        <time>2022-03-27T09:24:58.000Z</time>
      </trkpt>
      <trkpt lat="48.42621" lon="-4.53777">
        <ele>48.200000762939</ele>
        <time>2022-03-27T09:25:04.000Z</time>
      </trkpt>
      <trkpt lat="48.42621" lon="-4.53777">
        <ele>48.200000762939</ele>
        <time>2022-03-27T09:25:05.000Z</time>
      </trkpt>
      <trkpt lat="48.42631" lon="-4.53782">
        <ele>48.799999237061</ele>
        <time>2022-03-27T09:25:13.000Z</time>
      </trkpt>
      <trkpt lat="48.42636" lon="-4.53782">
        <ele>49.200000762939</ele>
        <time>2022-03-27T09:25:16.000Z</time>
      </trkpt>
      <trkpt lat="48.42643" lon="-4.53778">
        <ele>50</ele>
        <time>2022-03-27T09:25:20.000Z</time>
      </trkpt>
      <trkpt lat="48.42645" lon="-4.53776">
        <ele>50.200000762939</ele>
        <time>2022-03-27T09:25:21.000Z</time>
      </trkpt>
      <trkpt lat="48.42658" lon="-4.53765">
        <ele>51.799999237061</ele>
        <time>2022-03-27T09:25:25.000Z</time>
      </trkpt>
      <trkpt lat="48.42667" lon="-4.53757">
        <ele>53</ele>
        <time>2022-03-27T09:25:27.000Z</time>
      </trkpt>
      <trkpt lat="48.42678" lon="-4.53749">
        <ele>54.400001525879</ele>
        <time>2022-03-27T09:25:30.000Z</time>
      </trkpt>
      <trkpt lat="48.42695" lon="-4.53741">
        <ele>54.799999237061</ele>
        <time>2022-03-27T09:25:37.000Z</time>
      </trkpt>
      <trkpt lat="48.42702" lon="-4.5374">
        <ele>54.599998474121</ele>
        <time>2022-03-27T09:25:40.000Z</time>
      </trkpt>
      <trkpt lat="48.42705" lon="-4.53742">
        <ele>54.400001525879</ele>
        <time>2022-03-27T09:25:41.000Z</time>
      </trkpt>
      <trkpt lat="48.42715" lon="-4.5375">
        <ele>53.799999237061</ele>
        <time>2022-03-27T09:25:45.000Z</time>
      </trkpt>
      <trkpt lat="48.42724" lon="-4.53762">
        <ele>53.599998474121</ele>
        <time>2022-03-27T09:25:49.000Z</time>
      </trkpt>
      <trkpt lat="48.42727" lon="-4.53767">
        <ele>53.400001525879</ele>
        <time>2022-03-27T09:25:50.000Z</time>
      </trkpt>
      <trkpt lat="48.42737" lon="-4.53785">
        <ele>53</ele>
        <time>2022-03-27T09:25:56.000Z</time>
      </trkpt>
      <trkpt lat="48.42744" lon="-4.53799">
        <ele>53.599998474121</ele>
        <time>2022-03-27T09:26:03.000Z</time>
      </trkpt>
      <trkpt lat="48.42752" lon="-4.53811">
        <ele>54.400001525879</ele>
        <time>2022-03-27T09:26:10.000Z</time>
      </trkpt>
      <trkpt lat="48.4276" lon="-4.53821">
        <ele>55.400001525879</ele>
        <time>2022-03-27T09:26:15.000Z</time>
      </trkpt>
      <trkpt lat="48.4277" lon="-4.53832">
        <ele>56.400001525879</ele>
        <time>2022-03-27T09:26:21.000Z</time>
      </trkpt>
      <trkpt lat="48.42775" lon="-4.53839">
        <ele>56.799999237061</ele>
        <time>2022-03-27T09:26:25.000Z</time>
      </trkpt>
      <trkpt lat="48.42776" lon="-4.53841">
        <ele>56.799999237061</ele>
        <time>2022-03-27T09:26:26.000Z</time>
      </trkpt>
      <trkpt lat="48.42783" lon="-4.53853">
        <ele>57.599998474121</ele>
        <time>2022-03-27T09:26:31.000Z</time>
      </trkpt>
      <trkpt lat="48.42785" lon="-4.53855">
        <ele>57.599998474121</ele>
        <time>2022-03-27T09:26:32.000Z</time>
      </trkpt>
      <trkpt lat="48.42788" lon="-4.53858">
        <ele>57.799999237061</ele>
        <time>2022-03-27T09:26:34.000Z</time>
      </trkpt>
      <trkpt lat="48.42791" lon="-4.53861">
        <ele>58</ele>
        <time>2022-03-27T09:26:36.000Z</time>
      </trkpt>
      <trkpt lat="48.42794" lon="-4.53864">
        <ele>58</ele>
        <time>2022-03-27T09:26:38.000Z</time>
      </trkpt>
      <trkpt lat="48.42795" lon="-4.53865">
        <ele>58.200000762939</ele>
        <time>2022-03-27T09:26:39.000Z</time>
      </trkpt>
      <trkpt lat="48.42797" lon="-4.53867">
        <ele>58.200000762939</ele>
        <time>2022-03-27T09:26:41.000Z</time>
      </trkpt>
      <trkpt lat="48.428" lon="-4.53877">
        <ele>58.799999237061</ele>
        <time>2022-03-27T09:26:46.000Z</time>
      </trkpt>
      <trkpt lat="48.428" lon="-4.53879">
        <ele>59</ele>
        <time>2022-03-27T09:26:47.000Z</time>
      </trkpt>
      <trkpt lat="48.42801" lon="-4.53884">
        <ele>59.200000762939</ele>
        <time>2022-03-27T09:26:49.000Z</time>
      </trkpt>
      <trkpt lat="48.42809" lon="-4.53888">
        <ele>59.200000762939</ele>
        <time>2022-03-27T09:26:57.000Z</time>
      </trkpt>
      <trkpt lat="48.42811" lon="-4.53888">
        <ele>59.200000762939</ele>
        <time>2022-03-27T09:26:58.000Z</time>
      </trkpt>
      <trkpt lat="48.42815" lon="-4.5389">
        <ele>59.200000762939</ele>
        <time>2022-03-27T09:27:00.000Z</time>
      </trkpt>
      <trkpt lat="48.42821" lon="-4.53893">
        <ele>59.200000762939</ele>
        <time>2022-03-27T09:27:02.000Z</time>
      </trkpt>
      <trkpt lat="48.42824" lon="-4.53894">
        <ele>59.400001525879</ele>
        <time>2022-03-27T09:27:03.000Z</time>
      </trkpt>
      <trkpt lat="48.42832" lon="-4.53895">
        <ele>60.200000762939</ele>
        <time>2022-03-27T09:27:06.000Z</time>
      </trkpt>
      <trkpt lat="48.42848" lon="-4.53897">
        <ele>61.599998474121</ele>
        <time>2022-03-27T09:27:12.000Z</time>
      </trkpt>
      <trkpt lat="48.42868" lon="-4.53907">
        <ele>63.400001525879</ele>
        <time>2022-03-27T09:27:17.000Z</time>
      </trkpt>
      <trkpt lat="48.42873" lon="-4.53909">
        <ele>63.799999237061</ele>
        <time>2022-03-27T09:27:18.000Z</time>
      </trkpt>
      <trkpt lat="48.42883" lon="-4.53912">
        <ele>64.400001525879</ele>
        <time>2022-03-27T09:27:20.000Z</time>
      </trkpt>
      <trkpt lat="48.42896" lon="-4.53917">
        <ele>64.800003051758</ele>
        <time>2022-03-27T09:27:22.000Z</time>
      </trkpt>
      <trkpt lat="48.42933" lon="-4.53923">
        <ele>64.800003051758</ele>
        <time>2022-03-27T09:27:27.000Z</time>
      </trkpt>
      <trkpt lat="48.42946" lon="-4.53922">
        <ele>65.800003051758</ele>
        <time>2022-03-27T09:27:29.000Z</time>
      </trkpt>
      <trkpt lat="48.42951" lon="-4.53923">
        <ele>66.599998474121</ele>
        <time>2022-03-27T09:27:30.000Z</time>
      </trkpt>
      <trkpt lat="48.42965" lon="-4.53933">
        <ele>67</ele>
        <time>2022-03-27T09:27:33.000Z</time>
      </trkpt>
      <trkpt lat="48.42967" lon="-4.53938">
        <ele>67</ele>
        <time>2022-03-27T09:27:34.000Z</time>
      </trkpt>
      <trkpt lat="48.42968" lon="-4.53943">
        <ele>66.800003051758</ele>
        <time>2022-03-27T09:27:36.000Z</time>
      </trkpt>
      <trkpt lat="48.42975" lon="-4.53955">
        <ele>66.800003051758</ele>
        <time>2022-03-27T09:27:40.000Z</time>
      </trkpt>
      <trkpt lat="48.42979" lon="-4.53962">
        <ele>67.199996948242</ele>
        <time>2022-03-27T09:27:44.000Z</time>
      </trkpt>
      <trkpt lat="48.42983" lon="-4.53966">
        <ele>67.400001525879</ele>
        <time>2022-03-27T09:27:46.000Z</time>
      </trkpt>
      <trkpt lat="48.4299" lon="-4.53975">
        <ele>68</ele>
        <time>2022-03-27T09:27:50.000Z</time>
      </trkpt>
      <trkpt lat="48.43001" lon="-4.53988">
        <ele>68.599998474121</ele>
        <time>2022-03-27T09:27:54.000Z</time>
      </trkpt>
      <trkpt lat="48.43006" lon="-4.54002">
        <ele>69.599998474121</ele>
        <time>2022-03-27T09:28:00.000Z</time>
      </trkpt>
      <trkpt lat="48.43012" lon="-4.54019">
        <ele>70.800003051758</ele>
        <time>2022-03-27T09:28:05.000Z</time>
      </trkpt>
      <trkpt lat="48.43021" lon="-4.54035">
        <ele>71.800003051758</ele>
        <time>2022-03-27T09:28:11.000Z</time>
      </trkpt>
      <trkpt lat="48.43021" lon="-4.54038">
        <ele>71.800003051758</ele>
        <time>2022-03-27T09:28:13.000Z</time>
      </trkpt>
      <trkpt lat="48.43024" lon="-4.54045">
        <ele>72</ele>
        <time>2022-03-27T09:28:15.000Z</time>
      </trkpt>
      <trkpt lat="48.43026" lon="-4.54047">
        <ele>72</ele>
        <time>2022-03-27T09:28:16.000Z</time>
      </trkpt>
      <trkpt lat="48.4303" lon="-4.54055">
        <ele>72</ele>
        <time>2022-03-27T09:28:19.000Z</time>
      </trkpt>
      <trkpt lat="48.43031" lon="-4.54059">
        <ele>72.199996948242</ele>
        <time>2022-03-27T09:28:21.000Z</time>
      </trkpt>
      <trkpt lat="48.43033" lon="-4.54064">
        <ele>72.199996948242</ele>
        <time>2022-03-27T09:28:23.000Z</time>
      </trkpt>
      <trkpt lat="48.43034" lon="-4.54067">
        <ele>72.400001525879</ele>
        <time>2022-03-27T09:28:24.000Z</time>
      </trkpt>
      <trkpt lat="48.43042" lon="-4.54089">
        <ele>72.800003051758</ele>
        <time>2022-03-27T09:28:30.000Z</time>
      </trkpt>
      <trkpt lat="48.43047" lon="-4.54106">
        <ele>71.800003051758</ele>
        <time>2022-03-27T09:28:36.000Z</time>
      </trkpt>
      <trkpt lat="48.43052" lon="-4.54128">
        <ele>71.199996948242</ele>
        <time>2022-03-27T09:28:43.000Z</time>
      </trkpt>
      <trkpt lat="48.43061" lon="-4.5415">
        <ele>70.400001525879</ele>
        <time>2022-03-27T09:28:51.000Z</time>
      </trkpt>
      <trkpt lat="48.43069" lon="-4.5417">
        <ele>69.400001525879</ele>
        <time>2022-03-27T09:28:57.000Z</time>
      </trkpt>
      <trkpt lat="48.43076" lon="-4.54186">
        <ele>68.199996948242</ele>
        <time>2022-03-27T09:29:02.000Z</time>
      </trkpt>
      <trkpt lat="48.43077" lon="-4.54188">
        <ele>68.199996948242</ele>
        <time>2022-03-27T09:29:03.000Z</time>
      </trkpt>
      <trkpt lat="48.43077" lon="-4.54192">
        <ele>68</ele>
        <time>2022-03-27T09:29:05.000Z</time>
      </trkpt>
      <trkpt lat="48.43079" lon="-4.54202">
        <ele>67.599998474121</ele>
        <time>2022-03-27T09:29:09.000Z</time>
      </trkpt>
      <trkpt lat="48.43079" lon="-4.54202">
        <ele>67.599998474121</ele>
        <time>2022-03-27T09:29:10.000Z</time>
      </trkpt>
      <trkpt lat="48.43079" lon="-4.54203">
        <ele>67.599998474121</ele>
        <time>2022-03-27T09:29:22.000Z</time>
      </trkpt>
      <trkpt lat="48.43077" lon="-4.5421">
        <ele>67.599998474121</ele>
        <time>2022-03-27T09:29:25.000Z</time>
      </trkpt>
      <trkpt lat="48.43077" lon="-4.54213">
        <ele>67.599998474121</ele>
        <time>2022-03-27T09:29:27.000Z</time>
      </trkpt>
      <trkpt lat="48.43076" lon="-4.54216">
        <ele>67.599998474121</ele>
        <time>2022-03-27T09:29:46.000Z</time>
      </trkpt>
      <trkpt lat="48.43075" lon="-4.54218">
        <ele>67.800003051758</ele>
        <time>2022-03-27T09:29:47.000Z</time>
      </trkpt>
      <trkpt lat="48.43072" lon="-4.54224">
        <ele>68</ele>
        <time>2022-03-27T09:29:51.000Z</time>
      </trkpt>
      <trkpt lat="48.43071" lon="-4.54235">
        <ele>68.199996948242</ele>
        <time>2022-03-27T09:29:56.000Z</time>
      </trkpt>
      <trkpt lat="48.4307" lon="-4.54237">
        <ele>68.400001525879</ele>
        <time>2022-03-27T09:29:57.000Z</time>
      </trkpt>
      <trkpt lat="48.43067" lon="-4.54243">
        <ele>68.800003051758</ele>
        <time>2022-03-27T09:30:00.000Z</time>
      </trkpt>
      <trkpt lat="48.43062" lon="-4.54255">
        <ele>69.599998474121</ele>
        <time>2022-03-27T09:30:05.000Z</time>
      </trkpt>
      <trkpt lat="48.43061" lon="-4.54258">
        <ele>69.800003051758</ele>
        <time>2022-03-27T09:30:06.000Z</time>
      </trkpt>
      <trkpt lat="48.43056" lon="-4.5427">
        <ele>70.599998474121</ele>
        <time>2022-03-27T09:30:09.000Z</time>
      </trkpt>
      <trkpt lat="48.43052" lon="-4.5429">
        <ele>71.199996948242</ele>
        <time>2022-03-27T09:30:14.000Z</time>
      </trkpt>
      <trkpt lat="48.43049" lon="-4.54303">
        <ele>71.400001525879</ele>
        <time>2022-03-27T09:30:18.000Z</time>
      </trkpt>
      <trkpt lat="48.43048" lon="-4.54306">
        <ele>71.400001525879</ele>
        <time>2022-03-27T09:30:19.000Z</time>
      </trkpt>
      <trkpt lat="48.43045" lon="-4.54311">
        <ele>71.599998474121</ele>
        <time>2022-03-27T09:30:21.000Z</time>
      </trkpt>
      <trkpt lat="48.43041" lon="-4.54321">
        <ele>71.800003051758</ele>
        <time>2022-03-27T09:30:25.000Z</time>
      </trkpt>
      <trkpt lat="48.43034" lon="-4.54336">
        <ele>72</ele>
        <time>2022-03-27T09:30:31.000Z</time>
      </trkpt>
      <trkpt lat="48.43028" lon="-4.54349">
        <ele>72.400001525879</ele>
        <time>2022-03-27T09:30:36.000Z</time>
      </trkpt>
      <trkpt lat="48.43022" lon="-4.54366">
        <ele>72.599998474121</ele>
        <time>2022-03-27T09:30:42.000Z</time>
      </trkpt>
      <trkpt lat="48.43012" lon="-4.54381">
        <ele>72.800003051758</ele>
        <time>2022-03-27T09:30:48.000Z</time>
      </trkpt>
      <trkpt lat="48.43003" lon="-4.54397">
        <ele>72.800003051758</ele>
        <time>2022-03-27T09:30:54.000Z</time>
      </trkpt>
      <trkpt lat="48.42993" lon="-4.54411">
        <ele>72.800003051758</ele>
        <time>2022-03-27T09:31:00.000Z</time>
      </trkpt>
      <trkpt lat="48.42979" lon="-4.54421">
        <ele>73</ele>
        <time>2022-03-27T09:31:07.000Z</time>
      </trkpt>
      <trkpt lat="48.42963" lon="-4.54421">
        <ele>73.599998474121</ele>
        <time>2022-03-27T09:31:13.000Z</time>
      </trkpt>
      <trkpt lat="48.42948" lon="-4.54412">
        <ele>73.199996948242</ele>
        <time>2022-03-27T09:31:20.000Z</time>
      </trkpt>
      <trkpt lat="48.42928" lon="-4.54403">
        <ele>72.599998474121</ele>
        <time>2022-03-27T09:31:28.000Z</time>
      </trkpt>
      <trkpt lat="48.42903" lon="-4.54396">
        <ele>71.599998474121</ele>
        <time>2022-03-27T09:31:35.000Z</time>
      </trkpt>
      <trkpt lat="48.42886" lon="-4.54407">
        <ele>71.199996948242</ele>
        <time>2022-03-27T09:31:39.000Z</time>
      </trkpt>
      <trkpt lat="48.42875" lon="-4.54418">
        <ele>71</ele>
        <time>2022-03-27T09:31:42.000Z</time>
      </trkpt>
      <trkpt lat="48.42867" lon="-4.54432">
        <ele>71.199996948242</ele>
        <time>2022-03-27T09:31:45.000Z</time>
      </trkpt>
      <trkpt lat="48.42864" lon="-4.54437">
        <ele>71.199996948242</ele>
        <time>2022-03-27T09:31:46.000Z</time>
      </trkpt>
      <trkpt lat="48.42854" lon="-4.54459">
        <ele>71.599998474121</ele>
        <time>2022-03-27T09:31:50.000Z</time>
      </trkpt>
      <trkpt lat="48.42851" lon="-4.54473">
        <ele>72.199996948242</ele>
        <time>2022-03-27T09:31:52.000Z</time>
      </trkpt>
      <trkpt lat="48.42846" lon="-4.54499">
        <ele>73.199996948242</ele>
        <time>2022-03-27T09:31:56.000Z</time>
      </trkpt>
      <trkpt lat="48.42839" lon="-4.54542">
        <ele>75.400001525879</ele>
        <time>2022-03-27T09:32:04.000Z</time>
      </trkpt>
      <trkpt lat="48.42836" lon="-4.54571">
        <ele>76.199996948242</ele>
        <time>2022-03-27T09:32:10.000Z</time>
      </trkpt>
      <trkpt lat="48.42833" lon="-4.54598">
        <ele>77</ele>
        <time>2022-03-27T09:32:16.000Z</time>
      </trkpt>
      <trkpt lat="48.42828" lon="-4.54634">
        <ele>78.199996948242</ele>
        <time>2022-03-27T09:32:24.000Z</time>
      </trkpt>
      <trkpt lat="48.42823" lon="-4.54674">
        <ele>80.400001525879</ele>
        <time>2022-03-27T09:32:33.000Z</time>
      </trkpt>
      <trkpt lat="48.42821" lon="-4.54702">
        <ele>81.599998474121</ele>
        <time>2022-03-27T09:32:39.000Z</time>
      </trkpt>
      <trkpt lat="48.4282" lon="-4.54736">
        <ele>82.599998474121</ele>
        <time>2022-03-27T09:32:47.000Z</time>
      </trkpt>
      <trkpt lat="48.42818" lon="-4.5476">
        <ele>83.599998474121</ele>
        <time>2022-03-27T09:32:53.000Z</time>
      </trkpt>
      <trkpt lat="48.42815" lon="-4.54786">
        <ele>84.400001525879</ele>
        <time>2022-03-27T09:32:59.000Z</time>
      </trkpt>
      <trkpt lat="48.42815" lon="-4.54807">
        <ele>85</ele>
        <time>2022-03-27T09:33:04.000Z</time>
      </trkpt>
      <trkpt lat="48.42828" lon="-4.54816">
        <ele>85</ele>
        <time>2022-03-27T09:33:08.000Z</time>
      </trkpt>
      <trkpt lat="48.42844" lon="-4.54817">
        <ele>84.800003051758</ele>
        <time>2022-03-27T09:33:12.000Z</time>
      </trkpt>
      <trkpt lat="48.42849" lon="-4.54813">
        <ele>84.599998474121</ele>
        <time>2022-03-27T09:33:13.000Z</time>
      </trkpt>
      <trkpt lat="48.4285" lon="-4.54806">
        <ele>84.400001525879</ele>
        <time>2022-03-27T09:33:14.000Z</time>
      </trkpt>
      <trkpt lat="48.4285" lon="-4.54797">
        <ele>84.199996948242</ele>
        <time>2022-03-27T09:33:15.000Z</time>
      </trkpt>
      <trkpt lat="48.42851" lon="-4.54789">
        <ele>84</ele>
        <time>2022-03-27T09:33:16.000Z</time>
      </trkpt>
      <trkpt lat="48.42855" lon="-4.54784">
        <ele>83.599998474121</ele>
        <time>2022-03-27T09:33:17.000Z</time>
      </trkpt>
      <trkpt lat="48.42867" lon="-4.54784">
        <ele>82.800003051758</ele>
        <time>2022-03-27T09:33:19.000Z</time>
      </trkpt>
      <trkpt lat="48.42878" lon="-4.5479">
        <ele>82</ele>
        <time>2022-03-27T09:33:21.000Z</time>
      </trkpt>
      <trkpt lat="48.42885" lon="-4.54788">
        <ele>81.599998474121</ele>
        <time>2022-03-27T09:33:22.000Z</time>
      </trkpt>
      <trkpt lat="48.42892" lon="-4.54786">
        <ele>81</ele>
        <time>2022-03-27T09:33:23.000Z</time>
      </trkpt>
      <trkpt lat="48.42907" lon="-4.54781">
        <ele>79.800003051758</ele>
        <time>2022-03-27T09:33:25.000Z</time>
      </trkpt>
      <trkpt lat="48.42914" lon="-4.54781">
        <ele>79.400001525879</ele>
        <time>2022-03-27T09:33:26.000Z</time>
      </trkpt>
      <trkpt lat="48.42921" lon="-4.54783">
        <ele>78.800003051758</ele>
        <time>2022-03-27T09:33:27.000Z</time>
      </trkpt>
      <trkpt lat="48.42934" lon="-4.54792">
        <ele>78.199996948242</ele>
        <time>2022-03-27T09:33:29.000Z</time>
      </trkpt>
      <trkpt lat="48.42939" lon="-4.54798">
        <ele>78</ele>
        <time>2022-03-27T09:33:30.000Z</time>
      </trkpt>
      <trkpt lat="48.42949" lon="-4.54812">
        <ele>77.800003051758</ele>
        <time>2022-03-27T09:33:32.000Z</time>
      </trkpt>
      <trkpt lat="48.42953" lon="-4.54818">
        <ele>77.800003051758</ele>
        <time>2022-03-27T09:33:33.000Z</time>
      </trkpt>
      <trkpt lat="48.42957" lon="-4.54823">
        <ele>77.599998474121</ele>
        <time>2022-03-27T09:33:34.000Z</time>
      </trkpt>
      <trkpt lat="48.42965" lon="-4.54839">
        <ele>77.599998474121</ele>
        <time>2022-03-27T09:33:37.000Z</time>
      </trkpt>
      <trkpt lat="48.42966" lon="-4.54862">
        <ele>78</ele>
        <time>2022-03-27T09:33:42.000Z</time>
      </trkpt>
      <trkpt lat="48.42965" lon="-4.54883">
        <ele>79</ele>
        <time>2022-03-27T09:33:47.000Z</time>
      </trkpt>
      <trkpt lat="48.42966" lon="-4.54902">
        <ele>79.800003051758</ele>
        <time>2022-03-27T09:33:52.000Z</time>
      </trkpt>
      <trkpt lat="48.42973" lon="-4.54922">
        <ele>80.199996948242</ele>
        <time>2022-03-27T09:33:58.000Z</time>
      </trkpt>
      <trkpt lat="48.42981" lon="-4.54947">
        <ele>80.800003051758</ele>
        <time>2022-03-27T09:34:04.000Z</time>
      </trkpt>
      <trkpt lat="48.42983" lon="-4.54964">
        <ele>81</ele>
        <time>2022-03-27T09:34:07.000Z</time>
      </trkpt>
      <trkpt lat="48.42983" lon="-4.54969">
        <ele>81</ele>
        <time>2022-03-27T09:34:08.000Z</time>
      </trkpt>
      <trkpt lat="48.42985" lon="-4.54973">
        <ele>80.800003051758</ele>
        <time>2022-03-27T09:34:09.000Z</time>
      </trkpt>
      <trkpt lat="48.42989" lon="-4.54976">
        <ele>80.599998474121</ele>
        <time>2022-03-27T09:34:10.000Z</time>
      </trkpt>
      <trkpt lat="48.42993" lon="-4.54978">
        <ele>80.199996948242</ele>
        <time>2022-03-27T09:34:11.000Z</time>
      </trkpt>
      <trkpt lat="48.43" lon="-4.54987">
        <ele>80</ele>
        <time>2022-03-27T09:34:13.000Z</time>
      </trkpt>
      <trkpt lat="48.43009" lon="-4.55017">
        <ele>80</ele>
        <time>2022-03-27T09:34:18.000Z</time>
      </trkpt>
      <trkpt lat="48.43013" lon="-4.55046">
        <ele>80.400001525879</ele>
        <time>2022-03-27T09:34:23.000Z</time>
      </trkpt>
      <trkpt lat="48.43022" lon="-4.55087">
        <ele>80.400001525879</ele>
        <time>2022-03-27T09:34:30.000Z</time>
      </trkpt>
      <trkpt lat="48.43028" lon="-4.55114">
        <ele>80.400001525879</ele>
        <time>2022-03-27T09:34:34.000Z</time>
      </trkpt>
      <trkpt lat="48.4303" lon="-4.55129">
        <ele>80.599998474121</ele>
        <time>2022-03-27T09:34:36.000Z</time>
      </trkpt>
      <trkpt lat="48.43031" lon="-4.55144">
        <ele>81</ele>
        <time>2022-03-27T09:34:38.000Z</time>
      </trkpt>
      <trkpt lat="48.43024" lon="-4.55175">
        <ele>82</ele>
        <time>2022-03-27T09:34:43.000Z</time>
      </trkpt>
      <trkpt lat="48.43019" lon="-4.55196">
        <ele>82.800003051758</ele>
        <time>2022-03-27T09:34:47.000Z</time>
      </trkpt>
      <trkpt lat="48.43013" lon="-4.55222">
        <ele>83</ele>
        <time>2022-03-27T09:34:51.000Z</time>
      </trkpt>
      <trkpt lat="48.43009" lon="-4.5525">
        <ele>83.199996948242</ele>
        <time>2022-03-27T09:34:55.000Z</time>
      </trkpt>
      <trkpt lat="48.43" lon="-4.5528">
        <ele>83.599998474121</ele>
        <time>2022-03-27T09:35:00.000Z</time>
      </trkpt>
      <trkpt lat="48.42995" lon="-4.5529">
        <ele>83.599998474121</ele>
        <time>2022-03-27T09:35:02.000Z</time>
      </trkpt>
      <trkpt lat="48.42992" lon="-4.55302">
        <ele>83.599998474121</ele>
        <time>2022-03-27T09:35:04.000Z</time>
      </trkpt>
      <trkpt lat="48.42982" lon="-4.55327">
        <ele>83.800003051758</ele>
        <time>2022-03-27T09:35:09.000Z</time>
      </trkpt>
      <trkpt lat="48.42981" lon="-4.55332">
        <ele>83.800003051758</ele>
        <time>2022-03-27T09:35:10.000Z</time>
      </trkpt>
      <trkpt lat="48.42982" lon="-4.55342">
        <ele>83.800003051758</ele>
        <time>2022-03-27T09:35:12.000Z</time>
      </trkpt>
      <trkpt lat="48.42993" lon="-4.55361">
        <ele>83.599998474121</ele>
        <time>2022-03-27T09:35:17.000Z</time>
      </trkpt>
      <trkpt lat="48.4301" lon="-4.55377">
        <ele>83.199996948242</ele>
        <time>2022-03-27T09:35:22.000Z</time>
      </trkpt>
      <trkpt lat="48.43031" lon="-4.55378">
        <ele>83.199996948242</ele>
        <time>2022-03-27T09:35:28.000Z</time>
      </trkpt>
      <trkpt lat="48.43053" lon="-4.55378">
        <ele>83.800003051758</ele>
        <time>2022-03-27T09:35:34.000Z</time>
      </trkpt>
      <trkpt lat="48.43077" lon="-4.55382">
        <ele>84.199996948242</ele>
        <time>2022-03-27T09:35:42.000Z</time>
      </trkpt>
      <trkpt lat="48.431" lon="-4.55384">
        <ele>85.199996948242</ele>
        <time>2022-03-27T09:35:49.000Z</time>
      </trkpt>
      <trkpt lat="48.43115" lon="-4.55388">
        <ele>85.800003051758</ele>
        <time>2022-03-27T09:35:54.000Z</time>
      </trkpt>
      <trkpt lat="48.43135" lon="-4.55393">
        <ele>86.599998474121</ele>
        <time>2022-03-27T09:36:00.000Z</time>
      </trkpt>
      <trkpt lat="48.4316" lon="-4.55397">
        <ele>87.400001525879</ele>
        <time>2022-03-27T09:36:07.000Z</time>
      </trkpt>
      <trkpt lat="48.43175" lon="-4.55402">
        <ele>87.800003051758</ele>
        <time>2022-03-27T09:36:11.000Z</time>
      </trkpt>
      <trkpt lat="48.43188" lon="-4.55407">
        <ele>88</ele>
        <time>2022-03-27T09:36:15.000Z</time>
      </trkpt>
      <trkpt lat="48.43205" lon="-4.55407">
        <ele>88</ele>
        <time>2022-03-27T09:36:20.000Z</time>
      </trkpt>
      <trkpt lat="48.43217" lon="-4.55408">
        <ele>88</ele>
        <time>2022-03-27T09:36:24.000Z</time>
      </trkpt>
      <trkpt lat="48.43224" lon="-4.55415">
        <ele>88</ele>
        <time>2022-03-27T09:36:27.000Z</time>
      </trkpt>
      <trkpt lat="48.43225" lon="-4.55419">
        <ele>88.199996948242</ele>
        <time>2022-03-27T09:36:28.000Z</time>
      </trkpt>
      <trkpt lat="48.43224" lon="-4.55444">
        <ele>88.400001525879</ele>
        <time>2022-03-27T09:36:32.000Z</time>
      </trkpt>
      <trkpt lat="48.4322" lon="-4.55488">
        <ele>88.400001525879</ele>
        <time>2022-03-27T09:36:39.000Z</time>
      </trkpt>
      <trkpt lat="48.43218" lon="-4.5551">
        <ele>88.199996948242</ele>
        <time>2022-03-27T09:36:43.000Z</time>
      </trkpt>
      <trkpt lat="48.43214" lon="-4.55557">
        <ele>88.599998474121</ele>
        <time>2022-03-27T09:36:50.000Z</time>
      </trkpt>
      <trkpt lat="48.43212" lon="-4.55592">
        <ele>89.400001525879</ele>
        <time>2022-03-27T09:36:56.000Z</time>
      </trkpt>
      <trkpt lat="48.43207" lon="-4.5562">
        <ele>89.800003051758</ele>
        <time>2022-03-27T09:37:01.000Z</time>
      </trkpt>
      <trkpt lat="48.43209" lon="-4.55652">
        <ele>90.400001525879</ele>
        <time>2022-03-27T09:37:06.000Z</time>
      </trkpt>
      <trkpt lat="48.43212" lon="-4.55677">
        <ele>91</ele>
        <time>2022-03-27T09:37:10.000Z</time>
      </trkpt>
      <trkpt lat="48.43216" lon="-4.55689">
        <ele>91.400001525879</ele>
        <time>2022-03-27T09:37:12.000Z</time>
      </trkpt>
      <trkpt lat="48.43219" lon="-4.55694">
        <ele>91.400001525879</ele>
        <time>2022-03-27T09:37:13.000Z</time>
      </trkpt>
      <trkpt lat="48.43224" lon="-4.55697">
        <ele>91.400001525879</ele>
        <time>2022-03-27T09:37:14.000Z</time>
      </trkpt>
      <trkpt lat="48.43237" lon="-4.557">
        <ele>91.400001525879</ele>
        <time>2022-03-27T09:37:17.000Z</time>
      </trkpt>
      <trkpt lat="48.43258" lon="-4.55705">
        <ele>91</ele>
        <time>2022-03-27T09:37:22.000Z</time>
      </trkpt>
      <trkpt lat="48.43274" lon="-4.55709">
        <ele>90.800003051758</ele>
        <time>2022-03-27T09:37:26.000Z</time>
      </trkpt>
      <trkpt lat="48.43281" lon="-4.55716">
        <ele>90.400001525879</ele>
        <time>2022-03-27T09:37:28.000Z</time>
      </trkpt>
      <trkpt lat="48.43288" lon="-4.55721">
        <ele>90.199996948242</ele>
        <time>2022-03-27T09:37:30.000Z</time>
      </trkpt>
      <trkpt lat="48.43295" lon="-4.55724">
        <ele>90</ele>
        <time>2022-03-27T09:37:32.000Z</time>
      </trkpt>
      <trkpt lat="48.43304" lon="-4.55739">
        <ele>89.599998474121</ele>
        <time>2022-03-27T09:37:36.000Z</time>
      </trkpt>
      <trkpt lat="48.43311" lon="-4.55762">
        <ele>90</ele>
        <time>2022-03-27T09:37:41.000Z</time>
      </trkpt>
      <trkpt lat="48.43312" lon="-4.55764">
        <ele>90</ele>
        <time>2022-03-27T09:37:44.000Z</time>
      </trkpt>
      <trkpt lat="48.4331" lon="-4.55763">
        <ele>90</ele>
        <time>2022-03-27T09:37:47.000Z</time>
      </trkpt>
      <trkpt lat="48.4331" lon="-4.55757">
        <ele>89.800003051758</ele>
        <time>2022-03-27T09:37:49.000Z</time>
      </trkpt>
      <trkpt lat="48.43312" lon="-4.55755">
        <ele>89.800003051758</ele>
        <time>2022-03-27T09:37:50.000Z</time>
      </trkpt>
      <trkpt lat="48.43326" lon="-4.55749">
        <ele>89.400001525879</ele>
        <time>2022-03-27T09:37:54.000Z</time>
      </trkpt>
      <trkpt lat="48.43337" lon="-4.55739">
        <ele>89</ele>
        <time>2022-03-27T09:37:58.000Z</time>
      </trkpt>
      <trkpt lat="48.43351" lon="-4.55734">
        <ele>88.800003051758</ele>
        <time>2022-03-27T09:38:02.000Z</time>
      </trkpt>
      <trkpt lat="48.43356" lon="-4.55736">
        <ele>88.599998474121</ele>
        <time>2022-03-27T09:38:03.000Z</time>
      </trkpt>
      <trkpt lat="48.43374" lon="-4.55754">
        <ele>88.599998474121</ele>
        <time>2022-03-27T09:38:08.000Z</time>
      </trkpt>
      <trkpt lat="48.43394" lon="-4.55782">
        <ele>89.400001525879</ele>
        <time>2022-03-27T09:38:14.000Z</time>
      </trkpt>
      <trkpt lat="48.43405" lon="-4.55799">
        <ele>89.599998474121</ele>
        <time>2022-03-27T09:38:18.000Z</time>
      </trkpt>
      <trkpt lat="48.43405" lon="-4.55805">
        <ele>89.800003051758</ele>
        <time>2022-03-27T09:38:19.000Z</time>
      </trkpt>
      <trkpt lat="48.43406" lon="-4.55817">
        <ele>90</ele>
        <time>2022-03-27T09:38:21.000Z</time>
      </trkpt>
      <trkpt lat="48.43409" lon="-4.55821">
        <ele>90.199996948242</ele>
        <time>2022-03-27T09:38:22.000Z</time>
      </trkpt>
      <trkpt lat="48.43413" lon="-4.55825">
        <ele>90.199996948242</ele>
        <time>2022-03-27T09:38:23.000Z</time>
      </trkpt>
      <trkpt lat="48.43421" lon="-4.55831">
        <ele>90.199996948242</ele>
        <time>2022-03-27T09:38:25.000Z</time>
      </trkpt>
      <trkpt lat="48.43426" lon="-4.55833">
        <ele>90.199996948242</ele>
        <time>2022-03-27T09:38:26.000Z</time>
      </trkpt>
      <trkpt lat="48.4343" lon="-4.55832">
        <ele>90.199996948242</ele>
        <time>2022-03-27T09:38:27.000Z</time>
      </trkpt>
      <trkpt lat="48.43439" lon="-4.55826">
        <ele>90</ele>
        <time>2022-03-27T09:38:29.000Z</time>
      </trkpt>
      <trkpt lat="48.43443" lon="-4.55824">
        <ele>89.800003051758</ele>
        <time>2022-03-27T09:38:30.000Z</time>
      </trkpt>
      <trkpt lat="48.43451" lon="-4.55822">
        <ele>89.599998474121</ele>
        <time>2022-03-27T09:38:32.000Z</time>
      </trkpt>
      <trkpt lat="48.43455" lon="-4.55823">
        <ele>89.599998474121</ele>
        <time>2022-03-27T09:38:33.000Z</time>
      </trkpt>
      <trkpt lat="48.43459" lon="-4.55826">
        <ele>89.599998474121</ele>
        <time>2022-03-27T09:38:34.000Z</time>
      </trkpt>
      <trkpt lat="48.4347" lon="-4.55835">
        <ele>89.800003051758</ele>
        <time>2022-03-27T09:38:37.000Z</time>
      </trkpt>
      <trkpt lat="48.43474" lon="-4.5584">
        <ele>90</ele>
        <time>2022-03-27T09:38:38.000Z</time>
      </trkpt>
      <trkpt lat="48.4349" lon="-4.55857">
        <ele>90.599998474121</ele>
        <time>2022-03-27T09:38:43.000Z</time>
      </trkpt>
      <trkpt lat="48.43493" lon="-4.55856">
        <ele>90.599998474121</ele>
        <time>2022-03-27T09:38:44.000Z</time>
      </trkpt>
      <trkpt lat="48.435" lon="-4.55848">
        <ele>90.199996948242</ele>
        <time>2022-03-27T09:38:46.000Z</time>
      </trkpt>
      <trkpt lat="48.43507" lon="-4.55837">
        <ele>90</ele>
        <time>2022-03-27T09:38:48.000Z</time>
      </trkpt>
      <trkpt lat="48.43517" lon="-4.55822">
        <ele>89.400001525879</ele>
        <time>2022-03-27T09:38:51.000Z</time>
      </trkpt>
      <trkpt lat="48.4353" lon="-4.558">
        <ele>89</ele>
        <time>2022-03-27T09:38:55.000Z</time>
      </trkpt>
      <trkpt lat="48.43534" lon="-4.55796">
        <ele>88.800003051758</ele>
        <time>2022-03-27T09:38:56.000Z</time>
      </trkpt>
      <trkpt lat="48.43538" lon="-4.55794">
        <ele>89</ele>
        <time>2022-03-27T09:38:57.000Z</time>
      </trkpt>
      <trkpt lat="48.43547" lon="-4.55796">
        <ele>89.199996948242</ele>
        <time>2022-03-27T09:38:59.000Z</time>
      </trkpt>
      <trkpt lat="48.43562" lon="-4.55807">
        <ele>90</ele>
        <time>2022-03-27T09:39:03.000Z</time>
      </trkpt>
      <trkpt lat="48.43563" lon="-4.55811">
        <ele>90.199996948242</ele>
        <time>2022-03-27T09:39:04.000Z</time>
      </trkpt>
      <trkpt lat="48.43559" lon="-4.55845">
        <ele>90.400001525879</ele>
        <time>2022-03-27T09:39:11.000Z</time>
      </trkpt>
      <trkpt lat="48.43554" lon="-4.55877">
        <ele>90.599998474121</ele>
        <time>2022-03-27T09:39:17.000Z</time>
      </trkpt>
      <trkpt lat="48.4355" lon="-4.55911">
        <ele>91.199996948242</ele>
        <time>2022-03-27T09:39:23.000Z</time>
      </trkpt>
      <trkpt lat="48.4355" lon="-4.55948">
        <ele>91.599998474121</ele>
        <time>2022-03-27T09:39:30.000Z</time>
      </trkpt>
      <trkpt lat="48.43549" lon="-4.55979">
        <ele>91.199996948242</ele>
        <time>2022-03-27T09:39:36.000Z</time>
      </trkpt>
      <trkpt lat="48.43549" lon="-4.55983">
        <ele>91.199996948242</ele>
        <time>2022-03-27T09:39:37.000Z</time>
      </trkpt>
      <trkpt lat="48.43549" lon="-4.56016">
        <ele>91</ele>
        <time>2022-03-27T09:39:43.000Z</time>
      </trkpt>
      <trkpt lat="48.43547" lon="-4.5605">
        <ele>91</ele>
        <time>2022-03-27T09:39:49.000Z</time>
      </trkpt>
      <trkpt lat="48.43543" lon="-4.56063">
        <ele>91</ele>
        <time>2022-03-27T09:39:52.000Z</time>
      </trkpt>
      <trkpt lat="48.43541" lon="-4.56072">
        <ele>91</ele>
        <time>2022-03-27T09:39:54.000Z</time>
      </trkpt>
      <trkpt lat="48.43538" lon="-4.56102">
        <ele>91</ele>
        <time>2022-03-27T09:39:59.000Z</time>
      </trkpt>
      <trkpt lat="48.43535" lon="-4.56149">
        <ele>91.599998474121</ele>
        <time>2022-03-27T09:40:06.000Z</time>
      </trkpt>
      <trkpt lat="48.43532" lon="-4.56183">
        <ele>92</ele>
        <time>2022-03-27T09:40:11.000Z</time>
      </trkpt>
      <trkpt lat="48.43533" lon="-4.5619">
        <ele>92</ele>
        <time>2022-03-27T09:40:12.000Z</time>
      </trkpt>
      <trkpt lat="48.43534" lon="-4.56203">
        <ele>92.199996948242</ele>
        <time>2022-03-27T09:40:14.000Z</time>
      </trkpt>
      <trkpt lat="48.4354" lon="-4.56221">
        <ele>92.599998474121</ele>
        <time>2022-03-27T09:40:17.000Z</time>
      </trkpt>
      <trkpt lat="48.43548" lon="-4.56247">
        <ele>93</ele>
        <time>2022-03-27T09:40:21.000Z</time>
      </trkpt>
      <trkpt lat="48.43552" lon="-4.5626">
        <ele>93.199996948242</ele>
        <time>2022-03-27T09:40:23.000Z</time>
      </trkpt>
      <trkpt lat="48.43557" lon="-4.56279">
        <ele>93.400001525879</ele>
        <time>2022-03-27T09:40:26.000Z</time>
      </trkpt>
      <trkpt lat="48.43557" lon="-4.56292">
        <ele>93.400001525879</ele>
        <time>2022-03-27T09:40:28.000Z</time>
      </trkpt>
      <trkpt lat="48.43555" lon="-4.56311">
        <ele>93.400001525879</ele>
        <time>2022-03-27T09:40:31.000Z</time>
      </trkpt>
      <trkpt lat="48.43553" lon="-4.5633">
        <ele>93.400001525879</ele>
        <time>2022-03-27T09:40:34.000Z</time>
      </trkpt>
      <trkpt lat="48.43548" lon="-4.56359">
        <ele>93.400001525879</ele>
        <time>2022-03-27T09:40:39.000Z</time>
      </trkpt>
      <trkpt lat="48.43548" lon="-4.56365">
        <ele>93.400001525879</ele>
        <time>2022-03-27T09:40:40.000Z</time>
      </trkpt>
      <trkpt lat="48.43545" lon="-4.56391">
        <ele>93</ele>
        <time>2022-03-27T09:40:44.000Z</time>
      </trkpt>
      <trkpt lat="48.43542" lon="-4.56414">
        <ele>92.800003051758</ele>
        <time>2022-03-27T09:40:48.000Z</time>
      </trkpt>
      <trkpt lat="48.43542" lon="-4.56444">
        <ele>92.199996948242</ele>
        <time>2022-03-27T09:40:53.000Z</time>
      </trkpt>
      <trkpt lat="48.43542" lon="-4.56475">
        <ele>91.800003051758</ele>
        <time>2022-03-27T09:40:58.000Z</time>
      </trkpt>
      <trkpt lat="48.43541" lon="-4.56494">
        <ele>91.400001525879</ele>
        <time>2022-03-27T09:41:01.000Z</time>
      </trkpt>
      <trkpt lat="48.43546" lon="-4.56511">
        <ele>91.400001525879</ele>
        <time>2022-03-27T09:41:04.000Z</time>
      </trkpt>
      <trkpt lat="48.43549" lon="-4.56514">
        <ele>91.400001525879</ele>
        <time>2022-03-27T09:41:05.000Z</time>
      </trkpt>
      <trkpt lat="48.43552" lon="-4.56519">
        <ele>91.400001525879</ele>
        <time>2022-03-27T09:41:06.000Z</time>
      </trkpt>
      <trkpt lat="48.43554" lon="-4.5653">
        <ele>91.400001525879</ele>
        <time>2022-03-27T09:41:08.000Z</time>
      </trkpt>
      <trkpt lat="48.43554" lon="-4.56536">
        <ele>91.400001525879</ele>
        <time>2022-03-27T09:41:09.000Z</time>
      </trkpt>
      <trkpt lat="48.43553" lon="-4.5655">
        <ele>91.400001525879</ele>
        <time>2022-03-27T09:41:11.000Z</time>
      </trkpt>
      <trkpt lat="48.43553" lon="-4.56565">
        <ele>91.400001525879</ele>
        <time>2022-03-27T09:41:13.000Z</time>
      </trkpt>
      <trkpt lat="48.43556" lon="-4.56597">
        <ele>91.400001525879</ele>
        <time>2022-03-27T09:41:17.000Z</time>
      </trkpt>
      <trkpt lat="48.43562" lon="-4.56653">
        <ele>92</ele>
        <time>2022-03-27T09:41:24.000Z</time>
      </trkpt>
      <trkpt lat="48.43568" lon="-4.56704">
        <ele>92.599998474121</ele>
        <time>2022-03-27T09:41:30.000Z</time>
      </trkpt>
      <trkpt lat="48.4357" lon="-4.56713">
        <ele>92.599998474121</ele>
        <time>2022-03-27T09:41:31.000Z</time>
      </trkpt>
      <trkpt lat="48.43571" lon="-4.56729">
        <ele>92.599998474121</ele>
        <time>2022-03-27T09:41:33.000Z</time>
      </trkpt>
      <trkpt lat="48.43571" lon="-4.56737">
        <ele>92.599998474121</ele>
        <time>2022-03-27T09:41:34.000Z</time>
      </trkpt>
      <trkpt lat="48.43569" lon="-4.56758">
        <ele>92.599998474121</ele>
        <time>2022-03-27T09:41:37.000Z</time>
      </trkpt>
      <trkpt lat="48.43563" lon="-4.5677">
        <ele>92.599998474121</ele>
        <time>2022-03-27T09:41:39.000Z</time>
      </trkpt>
      <trkpt lat="48.43555" lon="-4.56779">
        <ele>92.400001525879</ele>
        <time>2022-03-27T09:41:41.000Z</time>
      </trkpt>
      <trkpt lat="48.4355" lon="-4.56783">
        <ele>92.400001525879</ele>
        <time>2022-03-27T09:41:42.000Z</time>
      </trkpt>
      <trkpt lat="48.43527" lon="-4.56804">
        <ele>92</ele>
        <time>2022-03-27T09:41:47.000Z</time>
      </trkpt>
      <trkpt lat="48.4352" lon="-4.56816">
        <ele>91.599998474121</ele>
        <time>2022-03-27T09:41:49.000Z</time>
      </trkpt>
      <trkpt lat="48.43517" lon="-4.56822">
        <ele>91.599998474121</ele>
        <time>2022-03-27T09:41:50.000Z</time>
      </trkpt>
      <trkpt lat="48.43512" lon="-4.56842">
        <ele>91.199996948242</ele>
        <time>2022-03-27T09:41:53.000Z</time>
      </trkpt>
      <trkpt lat="48.4351" lon="-4.56858">
        <ele>91</ele>
        <time>2022-03-27T09:41:55.000Z</time>
      </trkpt>
      <trkpt lat="48.43508" lon="-4.56883">
        <ele>90.599998474121</ele>
        <time>2022-03-27T09:41:58.000Z</time>
      </trkpt>
      <trkpt lat="48.43509" lon="-4.56908">
        <ele>90</ele>
        <time>2022-03-27T09:42:01.000Z</time>
      </trkpt>
      <trkpt lat="48.4351" lon="-4.56916">
        <ele>89.800003051758</ele>
        <time>2022-03-27T09:42:02.000Z</time>
      </trkpt>
      <trkpt lat="48.43513" lon="-4.5693">
        <ele>89.599998474121</ele>
        <time>2022-03-27T09:42:04.000Z</time>
      </trkpt>
      <trkpt lat="48.43515" lon="-4.56944">
        <ele>89.199996948242</ele>
        <time>2022-03-27T09:42:06.000Z</time>
      </trkpt>
      <trkpt lat="48.43527" lon="-4.57003">
        <ele>89.199996948242</ele>
        <time>2022-03-27T09:42:14.000Z</time>
      </trkpt>
      <trkpt lat="48.43532" lon="-4.57049">
        <ele>89.199996948242</ele>
        <time>2022-03-27T09:42:20.000Z</time>
      </trkpt>
      <trkpt lat="48.43538" lon="-4.57093">
        <ele>89.199996948242</ele>
        <time>2022-03-27T09:42:26.000Z</time>
      </trkpt>
      <trkpt lat="48.43539" lon="-4.571">
        <ele>89.400001525879</ele>
        <time>2022-03-27T09:42:27.000Z</time>
      </trkpt>
      <trkpt lat="48.43539" lon="-4.57107">
        <ele>89.599998474121</ele>
        <time>2022-03-27T09:42:28.000Z</time>
      </trkpt>
      <trkpt lat="48.43538" lon="-4.57146">
        <ele>89.800003051758</ele>
        <time>2022-03-27T09:42:33.000Z</time>
      </trkpt>
      <trkpt lat="48.43532" lon="-4.57202">
        <ele>89.599998474121</ele>
        <time>2022-03-27T09:42:40.000Z</time>
      </trkpt>
      <trkpt lat="48.43524" lon="-4.57206">
        <ele>89.199996948242</ele>
        <time>2022-03-27T09:42:42.000Z</time>
      </trkpt>
      <trkpt lat="48.43495" lon="-4.57196">
        <ele>88.599998474121</ele>
        <time>2022-03-27T09:42:48.000Z</time>
      </trkpt>
      <trkpt lat="48.43463" lon="-4.57185">
        <ele>87.800003051758</ele>
        <time>2022-03-27T09:42:53.000Z</time>
      </trkpt>
      <trkpt lat="48.43451" lon="-4.57174">
        <ele>87.599998474121</ele>
        <time>2022-03-27T09:42:55.000Z</time>
      </trkpt>
      <trkpt lat="48.43447" lon="-4.57167">
        <ele>87.599998474121</ele>
        <time>2022-03-27T09:42:56.000Z</time>
      </trkpt>
      <trkpt lat="48.43431" lon="-4.57128">
        <ele>87.800003051758</ele>
        <time>2022-03-27T09:43:01.000Z</time>
      </trkpt>
      <trkpt lat="48.43419" lon="-4.57088">
        <ele>88.400001525879</ele>
        <time>2022-03-27T09:43:07.000Z</time>
      </trkpt>
      <trkpt lat="48.43412" lon="-4.57058">
        <ele>88.800003051758</ele>
        <time>2022-03-27T09:43:12.000Z</time>
      </trkpt>
      <trkpt lat="48.43399" lon="-4.57016">
        <ele>88.199996948242</ele>
        <time>2022-03-27T09:43:19.000Z</time>
      </trkpt>
      <trkpt lat="48.43394" lon="-4.56997">
        <ele>88</ele>
        <time>2022-03-27T09:43:22.000Z</time>
      </trkpt>
      <trkpt lat="48.43389" lon="-4.56981">
        <ele>88.199996948242</ele>
        <time>2022-03-27T09:43:25.000Z</time>
      </trkpt>
      <trkpt lat="48.43387" lon="-4.56953">
        <ele>89</ele>
        <time>2022-03-27T09:43:30.000Z</time>
      </trkpt>
      <trkpt lat="48.43387" lon="-4.56921">
        <ele>89.400001525879</ele>
        <time>2022-03-27T09:43:36.000Z</time>
      </trkpt>
      <trkpt lat="48.43386" lon="-4.56919">
        <ele>89.400001525879</ele>
        <time>2022-03-27T09:43:37.000Z</time>
      </trkpt>
      <trkpt lat="48.43381" lon="-4.5692">
        <ele>89.400001525879</ele>
        <time>2022-03-27T09:43:39.000Z</time>
      </trkpt>
      <trkpt lat="48.43366" lon="-4.56936">
        <ele>89.199996948242</ele>
        <time>2022-03-27T09:43:44.000Z</time>
      </trkpt>
      <trkpt lat="48.43362" lon="-4.56939">
        <ele>89.199996948242</ele>
        <time>2022-03-27T09:43:45.000Z</time>
      </trkpt>
      <trkpt lat="48.43344" lon="-4.56948">
        <ele>89</ele>
        <time>2022-03-27T09:43:49.000Z</time>
      </trkpt>
      <trkpt lat="48.43311" lon="-4.56959">
        <ele>88.800003051758</ele>
        <time>2022-03-27T09:43:55.000Z</time>
      </trkpt>
      <trkpt lat="48.43269" lon="-4.56967">
        <ele>88.400001525879</ele>
        <time>2022-03-27T09:44:01.000Z</time>
      </trkpt>
      <trkpt lat="48.43222" lon="-4.56976">
        <ele>87.800003051758</ele>
        <time>2022-03-27T09:44:08.000Z</time>
      </trkpt>
      <trkpt lat="48.43203" lon="-4.5698">
        <ele>87.599998474121</ele>
        <time>2022-03-27T09:44:11.000Z</time>
      </trkpt>
      <trkpt lat="48.43192" lon="-4.56985">
        <ele>87.199996948242</ele>
        <time>2022-03-27T09:44:13.000Z</time>
      </trkpt>
      <trkpt lat="48.43175" lon="-4.56996">
        <ele>87</ele>
        <time>2022-03-27T09:44:16.000Z</time>
      </trkpt>
      <trkpt lat="48.43164" lon="-4.56995">
        <ele>87.199996948242</ele>
        <time>2022-03-27T09:44:18.000Z</time>
      </trkpt>
      <trkpt lat="48.43153" lon="-4.56989">
        <ele>87.400001525879</ele>
        <time>2022-03-27T09:44:20.000Z</time>
      </trkpt>
      <trkpt lat="48.43142" lon="-4.56986">
        <ele>87.599998474121</ele>
        <time>2022-03-27T09:44:22.000Z</time>
      </trkpt>
      <trkpt lat="48.43109" lon="-4.56989">
        <ele>87.199996948242</ele>
        <time>2022-03-27T09:44:28.000Z</time>
      </trkpt>
      <trkpt lat="48.43078" lon="-4.56994">
        <ele>87</ele>
        <time>2022-03-27T09:44:34.000Z</time>
      </trkpt>
      <trkpt lat="48.43053" lon="-4.56996">
        <ele>87</ele>
        <time>2022-03-27T09:44:39.000Z</time>
      </trkpt>
      <trkpt lat="48.43048" lon="-4.56996">
        <ele>87</ele>
        <time>2022-03-27T09:44:40.000Z</time>
      </trkpt>
      <trkpt lat="48.43013" lon="-4.57">
        <ele>87</ele>
        <time>2022-03-27T09:44:47.000Z</time>
      </trkpt>
      <trkpt lat="48.42988" lon="-4.57002">
        <ele>87</ele>
        <time>2022-03-27T09:44:52.000Z</time>
      </trkpt>
      <trkpt lat="48.42983" lon="-4.57">
        <ele>87</ele>
        <time>2022-03-27T09:44:53.000Z</time>
      </trkpt>
      <trkpt lat="48.42958" lon="-4.56985">
        <ele>86.400001525879</ele>
        <time>2022-03-27T09:44:58.000Z</time>
      </trkpt>
      <trkpt lat="48.42926" lon="-4.56961">
        <ele>85.400001525879</ele>
        <time>2022-03-27T09:45:04.000Z</time>
      </trkpt>
      <trkpt lat="48.4292" lon="-4.56957">
        <ele>85.199996948242</ele>
        <time>2022-03-27T09:45:05.000Z</time>
      </trkpt>
      <trkpt lat="48.42914" lon="-4.56955">
        <ele>85.199996948242</ele>
        <time>2022-03-27T09:45:06.000Z</time>
      </trkpt>
      <trkpt lat="48.42895" lon="-4.56954">
        <ele>85.199996948242</ele>
        <time>2022-03-27T09:45:09.000Z</time>
      </trkpt>
      <trkpt lat="48.42881" lon="-4.56953">
        <ele>85</ele>
        <time>2022-03-27T09:45:11.000Z</time>
      </trkpt>
      <trkpt lat="48.42869" lon="-4.56947">
        <ele>85</ele>
        <time>2022-03-27T09:45:13.000Z</time>
      </trkpt>
      <trkpt lat="48.42844" lon="-4.56931">
        <ele>85</ele>
        <time>2022-03-27T09:45:17.000Z</time>
      </trkpt>
      <trkpt lat="48.42832" lon="-4.56919">
        <ele>85</ele>
        <time>2022-03-27T09:45:19.000Z</time>
      </trkpt>
      <trkpt lat="48.4279" lon="-4.56864">
        <ele>85.199996948242</ele>
        <time>2022-03-27T09:45:27.000Z</time>
      </trkpt>
      <trkpt lat="48.4278" lon="-4.56851">
        <ele>85.400001525879</ele>
        <time>2022-03-27T09:45:29.000Z</time>
      </trkpt>
      <trkpt lat="48.42764" lon="-4.56833">
        <ele>85.400001525879</ele>
        <time>2022-03-27T09:45:32.000Z</time>
      </trkpt>
      <trkpt lat="48.42733" lon="-4.56806">
        <ele>85.800003051758</ele>
        <time>2022-03-27T09:45:38.000Z</time>
      </trkpt>
      <trkpt lat="48.42728" lon="-4.56804">
        <ele>85.800003051758</ele>
        <time>2022-03-27T09:45:39.000Z</time>
      </trkpt>
      <trkpt lat="48.42718" lon="-4.56799">
        <ele>85.800003051758</ele>
        <time>2022-03-27T09:45:41.000Z</time>
      </trkpt>
      <trkpt lat="48.42713" lon="-4.56794">
        <ele>85.800003051758</ele>
        <time>2022-03-27T09:45:42.000Z</time>
      </trkpt>
      <trkpt lat="48.42708" lon="-4.56788">
        <ele>86</ele>
        <time>2022-03-27T09:45:43.000Z</time>
      </trkpt>
      <trkpt lat="48.42699" lon="-4.5677">
        <ele>86.400001525879</ele>
        <time>2022-03-27T09:45:46.000Z</time>
      </trkpt>
      <trkpt lat="48.42695" lon="-4.56765">
        <ele>86.400001525879</ele>
        <time>2022-03-27T09:45:47.000Z</time>
      </trkpt>
      <trkpt lat="48.42688" lon="-4.56761">
        <ele>86.599998474121</ele>
        <time>2022-03-27T09:45:49.000Z</time>
      </trkpt>
      <trkpt lat="48.4268" lon="-4.56766">
        <ele>86.400001525879</ele>
        <time>2022-03-27T09:45:51.000Z</time>
      </trkpt>
      <trkpt lat="48.42677" lon="-4.5677">
        <ele>86.400001525879</ele>
        <time>2022-03-27T09:45:52.000Z</time>
      </trkpt>
      <trkpt lat="48.42674" lon="-4.56775">
        <ele>86.400001525879</ele>
        <time>2022-03-27T09:45:53.000Z</time>
      </trkpt>
      <trkpt lat="48.42666" lon="-4.56793">
        <ele>86</ele>
        <time>2022-03-27T09:45:56.000Z</time>
      </trkpt>
      <trkpt lat="48.42648" lon="-4.56835">
        <ele>85.800003051758</ele>
        <time>2022-03-27T09:46:02.000Z</time>
      </trkpt>
      <trkpt lat="48.42625" lon="-4.56875">
        <ele>85.599998474121</ele>
        <time>2022-03-27T09:46:08.000Z</time>
      </trkpt>
      <trkpt lat="48.42589" lon="-4.56915">
        <ele>86</ele>
        <time>2022-03-27T09:46:16.000Z</time>
      </trkpt>
      <trkpt lat="48.42552" lon="-4.56944">
        <ele>86</ele>
        <time>2022-03-27T09:46:24.000Z</time>
      </trkpt>
      <trkpt lat="48.42534" lon="-4.56957">
        <ele>85.800003051758</ele>
        <time>2022-03-27T09:46:28.000Z</time>
      </trkpt>
      <trkpt lat="48.4253" lon="-4.56964">
        <ele>85.599998474121</ele>
        <time>2022-03-27T09:46:30.000Z</time>
      </trkpt>
      <trkpt lat="48.4253" lon="-4.56984">
        <ele>85.199996948242</ele>
        <time>2022-03-27T09:46:34.000Z</time>
      </trkpt>
      <trkpt lat="48.42534" lon="-4.56996">
        <ele>85</ele>
        <time>2022-03-27T09:46:36.000Z</time>
      </trkpt>
      <trkpt lat="48.42541" lon="-4.57007">
        <ele>84.599998474121</ele>
        <time>2022-03-27T09:46:38.000Z</time>
      </trkpt>
      <trkpt lat="48.42548" lon="-4.57017">
        <ele>84.599998474121</ele>
        <time>2022-03-27T09:46:40.000Z</time>
      </trkpt>
      <trkpt lat="48.42552" lon="-4.57031">
        <ele>84.400001525879</ele>
        <time>2022-03-27T09:46:42.000Z</time>
      </trkpt>
      <trkpt lat="48.42549" lon="-4.57046">
        <ele>84.599998474121</ele>
        <time>2022-03-27T09:46:44.000Z</time>
      </trkpt>
      <trkpt lat="48.42545" lon="-4.57052">
        <ele>84.599998474121</ele>
        <time>2022-03-27T09:46:45.000Z</time>
      </trkpt>
      <trkpt lat="48.42521" lon="-4.57098">
        <ele>84.800003051758</ele>
        <time>2022-03-27T09:46:51.000Z</time>
      </trkpt>
      <trkpt lat="48.42517" lon="-4.57105">
        <ele>84.800003051758</ele>
        <time>2022-03-27T09:46:52.000Z</time>
      </trkpt>
      <trkpt lat="48.42505" lon="-4.57128">
        <ele>84.800003051758</ele>
        <time>2022-03-27T09:46:55.000Z</time>
      </trkpt>
      <trkpt lat="48.42494" lon="-4.5713">
        <ele>84.599998474121</ele>
        <time>2022-03-27T09:46:57.000Z</time>
      </trkpt>
      <trkpt lat="48.42486" lon="-4.5712">
        <ele>85</ele>
        <time>2022-03-27T09:46:59.000Z</time>
      </trkpt>
      <trkpt lat="48.42482" lon="-4.57115">
        <ele>85</ele>
        <time>2022-03-27T09:47:00.000Z</time>
      </trkpt>
      <trkpt lat="48.4247" lon="-4.57098">
        <ele>84.800003051758</ele>
        <time>2022-03-27T09:47:04.000Z</time>
      </trkpt>
      <trkpt lat="48.42461" lon="-4.57089">
        <ele>84.599998474121</ele>
        <time>2022-03-27T09:47:08.000Z</time>
      </trkpt>
      <trkpt lat="48.42445" lon="-4.5707">
        <ele>84.800003051758</ele>
        <time>2022-03-27T09:47:14.000Z</time>
      </trkpt>
      <trkpt lat="48.42439" lon="-4.57066">
        <ele>85</ele>
        <time>2022-03-27T09:47:16.000Z</time>
      </trkpt>
      <trkpt lat="48.42432" lon="-4.57067">
        <ele>85</ele>
        <time>2022-03-27T09:47:18.000Z</time>
      </trkpt>
      <trkpt lat="48.42429" lon="-4.57069">
        <ele>84.800003051758</ele>
        <time>2022-03-27T09:47:19.000Z</time>
      </trkpt>
      <trkpt lat="48.42426" lon="-4.57078">
        <ele>84.599998474121</ele>
        <time>2022-03-27T09:47:21.000Z</time>
      </trkpt>
      <trkpt lat="48.42422" lon="-4.57114">
        <ele>84.599998474121</ele>
        <time>2022-03-27T09:47:27.000Z</time>
      </trkpt>
      <trkpt lat="48.42419" lon="-4.57135">
        <ele>84.400001525879</ele>
        <time>2022-03-27T09:47:30.000Z</time>
      </trkpt>
      <trkpt lat="48.42414" lon="-4.57156">
        <ele>83.800003051758</ele>
        <time>2022-03-27T09:47:33.000Z</time>
      </trkpt>
      <trkpt lat="48.42405" lon="-4.57186">
        <ele>83</ele>
        <time>2022-03-27T09:47:38.000Z</time>
      </trkpt>
      <trkpt lat="48.42392" lon="-4.57185">
        <ele>82.800003051758</ele>
        <time>2022-03-27T09:47:41.000Z</time>
      </trkpt>
      <trkpt lat="48.42382" lon="-4.57181">
        <ele>82.800003051758</ele>
        <time>2022-03-27T09:47:44.000Z</time>
      </trkpt>
      <trkpt lat="48.42373" lon="-4.57179">
        <ele>82.800003051758</ele>
        <time>2022-03-27T09:47:46.000Z</time>
      </trkpt>
      <trkpt lat="48.42348" lon="-4.57173">
        <ele>81.599998474121</ele>
        <time>2022-03-27T09:47:51.000Z</time>
      </trkpt>
      <trkpt lat="48.42331" lon="-4.5717">
        <ele>81</ele>
        <time>2022-03-27T09:47:54.000Z</time>
      </trkpt>
      <trkpt lat="48.4232" lon="-4.57168">
        <ele>80.599998474121</ele>
        <time>2022-03-27T09:47:56.000Z</time>
      </trkpt>
      <trkpt lat="48.42309" lon="-4.57166">
        <ele>80.199996948242</ele>
        <time>2022-03-27T09:47:58.000Z</time>
      </trkpt>
      <trkpt lat="48.42292" lon="-4.57159">
        <ele>79.400001525879</ele>
        <time>2022-03-27T09:48:01.000Z</time>
      </trkpt>
      <trkpt lat="48.42266" lon="-4.57148">
        <ele>78.400001525879</ele>
        <time>2022-03-27T09:48:05.000Z</time>
      </trkpt>
      <trkpt lat="48.42232" lon="-4.57133">
        <ele>75.400001525879</ele>
        <time>2022-03-27T09:48:09.000Z</time>
      </trkpt>
      <trkpt lat="48.4219" lon="-4.57122">
        <ele>72.599998474121</ele>
        <time>2022-03-27T09:48:13.000Z</time>
      </trkpt>
      <trkpt lat="48.42155" lon="-4.57115">
        <ele>71.800003051758</ele>
        <time>2022-03-27T09:48:16.000Z</time>
      </trkpt>
      <trkpt lat="48.42144" lon="-4.57111">
        <ele>71.599998474121</ele>
        <time>2022-03-27T09:48:17.000Z</time>
      </trkpt>
      <trkpt lat="48.42123" lon="-4.57105">
        <ele>71.400001525879</ele>
        <time>2022-03-27T09:48:19.000Z</time>
      </trkpt>
      <trkpt lat="48.42102" lon="-4.57104">
        <ele>71.199996948242</ele>
        <time>2022-03-27T09:48:21.000Z</time>
      </trkpt>
      <trkpt lat="48.42075" lon="-4.57101">
        <ele>72</ele>
        <time>2022-03-27T09:48:24.000Z</time>
      </trkpt>
      <trkpt lat="48.42067" lon="-4.57097">
        <ele>72.400001525879</ele>
        <time>2022-03-27T09:48:25.000Z</time>
      </trkpt>
      <trkpt lat="48.4206" lon="-4.57092">
        <ele>72.599998474121</ele>
        <time>2022-03-27T09:48:26.000Z</time>
      </trkpt>
      <trkpt lat="48.42049" lon="-4.57079">
        <ele>73.199996948242</ele>
        <time>2022-03-27T09:48:28.000Z</time>
      </trkpt>
      <trkpt lat="48.42035" lon="-4.57057">
        <ele>73.599998474121</ele>
        <time>2022-03-27T09:48:32.000Z</time>
      </trkpt>
      <trkpt lat="48.42024" lon="-4.57043">
        <ele>73.800003051758</ele>
        <time>2022-03-27T09:48:36.000Z</time>
      </trkpt>
      <trkpt lat="48.42021" lon="-4.57039">
        <ele>73.800003051758</ele>
        <time>2022-03-27T09:48:37.000Z</time>
      </trkpt>
      <trkpt lat="48.42014" lon="-4.57025">
        <ele>74.400001525879</ele>
        <time>2022-03-27T09:48:40.000Z</time>
      </trkpt>
      <trkpt lat="48.41999" lon="-4.57007">
        <ele>76</ele>
        <time>2022-03-27T09:48:45.000Z</time>
      </trkpt>
      <trkpt lat="48.41992" lon="-4.56998">
        <ele>76.800003051758</ele>
        <time>2022-03-27T09:48:48.000Z</time>
      </trkpt>
      <trkpt lat="48.41983" lon="-4.5698">
        <ele>77.800003051758</ele>
        <time>2022-03-27T09:48:53.000Z</time>
      </trkpt>
      <trkpt lat="48.41972" lon="-4.56963">
        <ele>77.400001525879</ele>
        <time>2022-03-27T09:48:58.000Z</time>
      </trkpt>
      <trkpt lat="48.4196" lon="-4.56946">
        <ele>77.599998474121</ele>
        <time>2022-03-27T09:49:03.000Z</time>
      </trkpt>
      <trkpt lat="48.4195" lon="-4.56934">
        <ele>78.400001525879</ele>
        <time>2022-03-27T09:49:07.000Z</time>
      </trkpt>
      <trkpt lat="48.41938" lon="-4.56924">
        <ele>78.199996948242</ele>
        <time>2022-03-27T09:49:12.000Z</time>
      </trkpt>
      <trkpt lat="48.4193" lon="-4.56919">
        <ele>78</ele>
        <time>2022-03-27T09:49:17.000Z</time>
      </trkpt>
      <trkpt lat="48.41916" lon="-4.56913">
        <ele>78.599998474121</ele>
        <time>2022-03-27T09:49:23.000Z</time>
      </trkpt>
      <trkpt lat="48.41901" lon="-4.5691">
        <ele>79.199996948242</ele>
        <time>2022-03-27T09:49:29.000Z</time>
      </trkpt>
      <trkpt lat="48.41884" lon="-4.56907">
        <ele>79.599998474121</ele>
        <time>2022-03-27T09:49:36.000Z</time>
      </trkpt>
      <trkpt lat="48.41872" lon="-4.56903">
        <ele>79.599998474121</ele>
        <time>2022-03-27T09:49:42.000Z</time>
      </trkpt>
      <trkpt lat="48.41858" lon="-4.56895">
        <ele>79.599998474121</ele>
        <time>2022-03-27T09:49:47.000Z</time>
      </trkpt>
      <trkpt lat="48.41837" lon="-4.56881">
        <ele>79.199996948242</ele>
        <time>2022-03-27T09:49:53.000Z</time>
      </trkpt>
      <trkpt lat="48.41816" lon="-4.56863">
        <ele>79.800003051758</ele>
        <time>2022-03-27T09:49:59.000Z</time>
      </trkpt>
      <trkpt lat="48.41813" lon="-4.56859">
        <ele>79.800003051758</ele>
        <time>2022-03-27T09:50:00.000Z</time>
      </trkpt>
      <trkpt lat="48.41797" lon="-4.56846">
        <ele>80</ele>
        <time>2022-03-27T09:50:04.000Z</time>
      </trkpt>
      <trkpt lat="48.41789" lon="-4.56839">
        <ele>80.199996948242</ele>
        <time>2022-03-27T09:50:06.000Z</time>
      </trkpt>
      <trkpt lat="48.41784" lon="-4.56836">
        <ele>80.400001525879</ele>
        <time>2022-03-27T09:50:07.000Z</time>
      </trkpt>
      <trkpt lat="48.41761" lon="-4.56815">
        <ele>81</ele>
        <time>2022-03-27T09:50:12.000Z</time>
      </trkpt>
      <trkpt lat="48.41741" lon="-4.56801">
        <ele>81</ele>
        <time>2022-03-27T09:50:16.000Z</time>
      </trkpt>
      <trkpt lat="48.41737" lon="-4.56801">
        <ele>81</ele>
        <time>2022-03-27T09:50:17.000Z</time>
      </trkpt>
      <trkpt lat="48.41723" lon="-4.56811">
        <ele>81</ele>
        <time>2022-03-27T09:50:20.000Z</time>
      </trkpt>
      <trkpt lat="48.41713" lon="-4.56822">
        <ele>81</ele>
        <time>2022-03-27T09:50:22.000Z</time>
      </trkpt>
      <trkpt lat="48.41707" lon="-4.56835">
        <ele>81</ele>
        <time>2022-03-27T09:50:24.000Z</time>
      </trkpt>
      <trkpt lat="48.41697" lon="-4.56865">
        <ele>81</ele>
        <time>2022-03-27T09:50:28.000Z</time>
      </trkpt>
      <trkpt lat="48.41683" lon="-4.56903">
        <ele>80.199996948242</ele>
        <time>2022-03-27T09:50:32.000Z</time>
      </trkpt>
      <trkpt lat="48.41676" lon="-4.56919">
        <ele>79.800003051758</ele>
        <time>2022-03-27T09:50:34.000Z</time>
      </trkpt>
      <trkpt lat="48.41671" lon="-4.56934">
        <ele>79.599998474121</ele>
        <time>2022-03-27T09:50:36.000Z</time>
      </trkpt>
      <trkpt lat="48.41667" lon="-4.56941">
        <ele>79.599998474121</ele>
        <time>2022-03-27T09:50:37.000Z</time>
      </trkpt>
      <trkpt lat="48.41656" lon="-4.56959">
        <ele>79.599998474121</ele>
        <time>2022-03-27T09:50:40.000Z</time>
      </trkpt>
      <trkpt lat="48.41653" lon="-4.56963">
        <ele>79.599998474121</ele>
        <time>2022-03-27T09:50:41.000Z</time>
      </trkpt>
      <trkpt lat="48.41645" lon="-4.56972">
        <ele>79.800003051758</ele>
        <time>2022-03-27T09:50:43.000Z</time>
      </trkpt>
      <trkpt lat="48.41641" lon="-4.56977">
        <ele>80</ele>
        <time>2022-03-27T09:50:44.000Z</time>
      </trkpt>
      <trkpt lat="48.41621" lon="-4.57001">
        <ele>80.400001525879</ele>
        <time>2022-03-27T09:50:49.000Z</time>
      </trkpt>
      <trkpt lat="48.41616" lon="-4.57006">
        <ele>80.599998474121</ele>
        <time>2022-03-27T09:50:50.000Z</time>
      </trkpt>
      <trkpt lat="48.41608" lon="-4.57015">
        <ele>80.800003051758</ele>
        <time>2022-03-27T09:50:52.000Z</time>
      </trkpt>
      <trkpt lat="48.41604" lon="-4.5702">
        <ele>80.800003051758</ele>
        <time>2022-03-27T09:50:53.000Z</time>
      </trkpt>
      <trkpt lat="48.41586" lon="-4.57041">
        <ele>81</ele>
        <time>2022-03-27T09:50:57.000Z</time>
      </trkpt>
      <trkpt lat="48.41582" lon="-4.57044">
        <ele>80.800003051758</ele>
        <time>2022-03-27T09:50:58.000Z</time>
      </trkpt>
      <trkpt lat="48.41572" lon="-4.5705">
        <ele>80.800003051758</ele>
        <time>2022-03-27T09:51:00.000Z</time>
      </trkpt>
      <trkpt lat="48.41559" lon="-4.57054">
        <ele>80.800003051758</ele>
        <time>2022-03-27T09:51:02.000Z</time>
      </trkpt>
      <trkpt lat="48.41549" lon="-4.57064">
        <ele>80.599998474121</ele>
        <time>2022-03-27T09:51:04.000Z</time>
      </trkpt>
      <trkpt lat="48.41545" lon="-4.57069">
        <ele>80.400001525879</ele>
        <time>2022-03-27T09:51:05.000Z</time>
      </trkpt>
      <trkpt lat="48.4154" lon="-4.57072">
        <ele>80.400001525879</ele>
        <time>2022-03-27T09:51:06.000Z</time>
      </trkpt>
      <trkpt lat="48.41528" lon="-4.57073">
        <ele>80.400001525879</ele>
        <time>2022-03-27T09:51:08.000Z</time>
      </trkpt>
      <trkpt lat="48.41492" lon="-4.57068">
        <ele>80</ele>
        <time>2022-03-27T09:51:14.000Z</time>
      </trkpt>
      <trkpt lat="48.41463" lon="-4.57065">
        <ele>79.199996948242</ele>
        <time>2022-03-27T09:51:19.000Z</time>
      </trkpt>
      <trkpt lat="48.41457" lon="-4.57065">
        <ele>79.199996948242</ele>
        <time>2022-03-27T09:51:20.000Z</time>
      </trkpt>
      <trkpt lat="48.41452" lon="-4.57065">
        <ele>79</ele>
        <time>2022-03-27T09:51:21.000Z</time>
      </trkpt>
      <trkpt lat="48.41433" lon="-4.57064">
        <ele>78.599998474121</ele>
        <time>2022-03-27T09:51:24.000Z</time>
      </trkpt>
      <trkpt lat="48.41383" lon="-4.57063">
        <ele>76.800003051758</ele>
        <time>2022-03-27T09:51:31.000Z</time>
      </trkpt>
      <trkpt lat="48.41345" lon="-4.57065">
        <ele>75.400001525879</ele>
        <time>2022-03-27T09:51:36.000Z</time>
      </trkpt>
      <trkpt lat="48.41338" lon="-4.57068">
        <ele>74.800003051758</ele>
        <time>2022-03-27T09:51:37.000Z</time>
      </trkpt>
      <trkpt lat="48.41331" lon="-4.57074">
        <ele>74</ele>
        <time>2022-03-27T09:51:38.000Z</time>
      </trkpt>
      <trkpt lat="48.41309" lon="-4.57097">
        <ele>71.599998474121</ele>
        <time>2022-03-27T09:51:41.000Z</time>
      </trkpt>
      <trkpt lat="48.41266" lon="-4.57151">
        <ele>66.800003051758</ele>
        <time>2022-03-27T09:51:47.000Z</time>
      </trkpt>
      <trkpt lat="48.41249" lon="-4.57175">
        <ele>65</ele>
        <time>2022-03-27T09:51:50.000Z</time>
      </trkpt>
      <trkpt lat="48.4124" lon="-4.57186">
        <ele>64</ele>
        <time>2022-03-27T09:51:52.000Z</time>
      </trkpt>
      <trkpt lat="48.41235" lon="-4.57198">
        <ele>63.400001525879</ele>
        <time>2022-03-27T09:51:54.000Z</time>
      </trkpt>
      <trkpt lat="48.41232" lon="-4.5721">
        <ele>62.599998474121</ele>
        <time>2022-03-27T09:51:57.000Z</time>
      </trkpt>
      <trkpt lat="48.41228" lon="-4.57208">
        <ele>62.599998474121</ele>
        <time>2022-03-27T09:52:00.000Z</time>
      </trkpt>
      <trkpt lat="48.41228" lon="-4.57207">
        <ele>62.599998474121</ele>
        <time>2022-03-27T09:52:01.000Z</time>
      </trkpt>
      <trkpt lat="48.41228" lon="-4.57204">
        <ele>62.599998474121</ele>
        <time>2022-03-27T09:52:03.000Z</time>
      </trkpt>
      <trkpt lat="48.41227" lon="-4.57196">
        <ele>62.799999237061</ele>
        <time>2022-03-27T09:52:06.000Z</time>
      </trkpt>
      <trkpt lat="48.4123" lon="-4.57178">
        <ele>63.799999237061</ele>
        <time>2022-03-27T09:52:11.000Z</time>
      </trkpt>
      <trkpt lat="48.4123" lon="-4.57175">
        <ele>63.799999237061</ele>
        <time>2022-03-27T09:52:12.000Z</time>
      </trkpt>
      <trkpt lat="48.41226" lon="-4.57172">
        <ele>63.799999237061</ele>
        <time>2022-03-27T09:52:14.000Z</time>
      </trkpt>
      <trkpt lat="48.41219" lon="-4.57167">
        <ele>63.400001525879</ele>
        <time>2022-03-27T09:52:19.000Z</time>
      </trkpt>
      <trkpt lat="48.41211" lon="-4.57163">
        <ele>63.400001525879</ele>
        <time>2022-03-27T09:52:24.000Z</time>
      </trkpt>
      <trkpt lat="48.41197" lon="-4.57153">
        <ele>63.799999237061</ele>
        <time>2022-03-27T09:52:29.000Z</time>
      </trkpt>
      <trkpt lat="48.41179" lon="-4.57145">
        <ele>64.199996948242</ele>
        <time>2022-03-27T09:52:33.000Z</time>
      </trkpt>
      <trkpt lat="48.41174" lon="-4.57142">
        <ele>64.599998474121</ele>
        <time>2022-03-27T09:52:34.000Z</time>
      </trkpt>
      <trkpt lat="48.41154" lon="-4.57129">
        <ele>65.400001525879</ele>
        <time>2022-03-27T09:52:39.000Z</time>
      </trkpt>
      <trkpt lat="48.41139" lon="-4.5711">
        <ele>65.800003051758</ele>
        <time>2022-03-27T09:52:44.000Z</time>
      </trkpt>
      <trkpt lat="48.41129" lon="-4.57089">
        <ele>66.400001525879</ele>
        <time>2022-03-27T09:52:49.000Z</time>
      </trkpt>
      <trkpt lat="48.41124" lon="-4.57069">
        <ele>67.400001525879</ele>
        <time>2022-03-27T09:52:54.000Z</time>
      </trkpt>
      <trkpt lat="48.41125" lon="-4.57041">
        <ele>68.599998474121</ele>
        <time>2022-03-27T09:53:00.000Z</time>
      </trkpt>
      <trkpt lat="48.41125" lon="-4.57031">
        <ele>69.199996948242</ele>
        <time>2022-03-27T09:53:02.000Z</time>
      </trkpt>
      <trkpt lat="48.41123" lon="-4.57023">
        <ele>69.599998474121</ele>
        <time>2022-03-27T09:53:04.000Z</time>
      </trkpt>
      <trkpt lat="48.41122" lon="-4.5702">
        <ele>69.800003051758</ele>
        <time>2022-03-27T09:53:05.000Z</time>
      </trkpt>
      <trkpt lat="48.41117" lon="-4.57012">
        <ele>70.199996948242</ele>
        <time>2022-03-27T09:53:08.000Z</time>
      </trkpt>
      <trkpt lat="48.41112" lon="-4.57002">
        <ele>70.400001525879</ele>
        <time>2022-03-27T09:53:11.000Z</time>
      </trkpt>
      <trkpt lat="48.41108" lon="-4.57">
        <ele>70.400001525879</ele>
        <time>2022-03-27T09:53:13.000Z</time>
      </trkpt>
      <trkpt lat="48.41098" lon="-4.5701">
        <ele>69.800003051758</ele>
        <time>2022-03-27T09:53:17.000Z</time>
      </trkpt>
      <trkpt lat="48.41097" lon="-4.57015">
        <ele>69.599998474121</ele>
        <time>2022-03-27T09:53:18.000Z</time>
      </trkpt>
      <trkpt lat="48.41093" lon="-4.5703">
        <ele>69</ele>
        <time>2022-03-27T09:53:21.000Z</time>
      </trkpt>
      <trkpt lat="48.41089" lon="-4.57042">
        <ele>68.400001525879</ele>
        <time>2022-03-27T09:53:23.000Z</time>
      </trkpt>
      <trkpt lat="48.41087" lon="-4.57048">
        <ele>68.199996948242</ele>
        <time>2022-03-27T09:53:24.000Z</time>
      </trkpt>
      <trkpt lat="48.41082" lon="-4.57061">
        <ele>67.599998474121</ele>
        <time>2022-03-27T09:53:26.000Z</time>
      </trkpt>
      <trkpt lat="48.41079" lon="-4.57067">
        <ele>67.199996948242</ele>
        <time>2022-03-27T09:53:27.000Z</time>
      </trkpt>
      <trkpt lat="48.41076" lon="-4.57074">
        <ele>66.800003051758</ele>
        <time>2022-03-27T09:53:28.000Z</time>
      </trkpt>
      <trkpt lat="48.41061" lon="-4.57102">
        <ele>65.400001525879</ele>
        <time>2022-03-27T09:53:32.000Z</time>
      </trkpt>
      <trkpt lat="48.41035" lon="-4.57148">
        <ele>63.599998474121</ele>
        <time>2022-03-27T09:53:38.000Z</time>
      </trkpt>
      <trkpt lat="48.41014" lon="-4.57189">
        <ele>62.200000762939</ele>
        <time>2022-03-27T09:53:43.000Z</time>
      </trkpt>
      <trkpt lat="48.41005" lon="-4.57205">
        <ele>61.599998474121</ele>
        <time>2022-03-27T09:53:45.000Z</time>
      </trkpt>
      <trkpt lat="48.40993" lon="-4.5722">
        <ele>61.200000762939</ele>
        <time>2022-03-27T09:53:47.000Z</time>
      </trkpt>
      <trkpt lat="48.4097" lon="-4.57249">
        <ele>60.400001525879</ele>
        <time>2022-03-27T09:53:51.000Z</time>
      </trkpt>
      <trkpt lat="48.40966" lon="-4.57256">
        <ele>60.200000762939</ele>
        <time>2022-03-27T09:53:52.000Z</time>
      </trkpt>
      <trkpt lat="48.40951" lon="-4.57271">
        <ele>59.599998474121</ele>
        <time>2022-03-27T09:53:56.000Z</time>
      </trkpt>
      <trkpt lat="48.40939" lon="-4.57284">
        <ele>59.200000762939</ele>
        <time>2022-03-27T09:54:00.000Z</time>
      </trkpt>
      <trkpt lat="48.40915" lon="-4.57312">
        <ele>57.400001525879</ele>
        <time>2022-03-27T09:54:05.000Z</time>
      </trkpt>
      <trkpt lat="48.4089" lon="-4.57344">
        <ele>55</ele>
        <time>2022-03-27T09:54:10.000Z</time>
      </trkpt>
      <trkpt lat="48.40863" lon="-4.57378">
        <ele>52.799999237061</ele>
        <time>2022-03-27T09:54:15.000Z</time>
      </trkpt>
      <trkpt lat="48.40857" lon="-4.57385">
        <ele>52.400001525879</ele>
        <time>2022-03-27T09:54:16.000Z</time>
      </trkpt>
      <trkpt lat="48.40838" lon="-4.57405">
        <ele>51</ele>
        <time>2022-03-27T09:54:19.000Z</time>
      </trkpt>
      <trkpt lat="48.40811" lon="-4.57434">
        <ele>49.400001525879</ele>
        <time>2022-03-27T09:54:23.000Z</time>
      </trkpt>
      <trkpt lat="48.40804" lon="-4.57442">
        <ele>49</ele>
        <time>2022-03-27T09:54:24.000Z</time>
      </trkpt>
      <trkpt lat="48.40763" lon="-4.57487">
        <ele>47.799999237061</ele>
        <time>2022-03-27T09:54:30.000Z</time>
      </trkpt>
      <trkpt lat="48.4074" lon="-4.57488">
        <ele>47</ele>
        <time>2022-03-27T09:54:33.000Z</time>
      </trkpt>
      <trkpt lat="48.40733" lon="-4.57488">
        <ele>46.799999237061</ele>
        <time>2022-03-27T09:54:34.000Z</time>
      </trkpt>
      <trkpt lat="48.407" lon="-4.57491">
        <ele>46.200000762939</ele>
        <time>2022-03-27T09:54:38.000Z</time>
      </trkpt>
      <trkpt lat="48.40651" lon="-4.57488">
        <ele>45.200000762939</ele>
        <time>2022-03-27T09:54:44.000Z</time>
      </trkpt>
      <trkpt lat="48.4062" lon="-4.57484">
        <ele>45.200000762939</ele>
        <time>2022-03-27T09:54:48.000Z</time>
      </trkpt>
      <trkpt lat="48.40605" lon="-4.57487">
        <ele>45.200000762939</ele>
        <time>2022-03-27T09:54:50.000Z</time>
      </trkpt>
      <trkpt lat="48.40592" lon="-4.57482">
        <ele>45.200000762939</ele>
        <time>2022-03-27T09:54:52.000Z</time>
      </trkpt>
      <trkpt lat="48.40574" lon="-4.57458">
        <ele>46</ele>
        <time>2022-03-27T09:54:56.000Z</time>
      </trkpt>
      <trkpt lat="48.40568" lon="-4.57444">
        <ele>46.599998474121</ele>
        <time>2022-03-27T09:54:58.000Z</time>
      </trkpt>
      <trkpt lat="48.40563" lon="-4.57432">
        <ele>46.799999237061</ele>
        <time>2022-03-27T09:55:00.000Z</time>
      </trkpt>
      <trkpt lat="48.40553" lon="-4.57416">
        <ele>47.400001525879</ele>
        <time>2022-03-27T09:55:03.000Z</time>
      </trkpt>
      <trkpt lat="48.40546" lon="-4.57407">
        <ele>48.200000762939</ele>
        <time>2022-03-27T09:55:05.000Z</time>
      </trkpt>
      <trkpt lat="48.40532" lon="-4.57381">
        <ele>50.400001525879</ele>
        <time>2022-03-27T09:55:10.000Z</time>
      </trkpt>
      <trkpt lat="48.40524" lon="-4.57362">
        <ele>51.799999237061</ele>
        <time>2022-03-27T09:55:14.000Z</time>
      </trkpt>
      <trkpt lat="48.40514" lon="-4.57342">
        <ele>52.599998474121</ele>
        <time>2022-03-27T09:55:19.000Z</time>
      </trkpt>
      <trkpt lat="48.40502" lon="-4.57322">
        <ele>52.799999237061</ele>
        <time>2022-03-27T09:55:24.000Z</time>
      </trkpt>
      <trkpt lat="48.40492" lon="-4.57299">
        <ele>53</ele>
        <time>2022-03-27T09:55:29.000Z</time>
      </trkpt>
      <trkpt lat="48.40474" lon="-4.57273">
        <ele>52.799999237061</ele>
        <time>2022-03-27T09:55:35.000Z</time>
      </trkpt>
      <trkpt lat="48.40469" lon="-4.57267">
        <ele>52.799999237061</ele>
        <time>2022-03-27T09:55:37.000Z</time>
      </trkpt>
      <trkpt lat="48.40468" lon="-4.57268">
        <ele>52.599998474121</ele>
        <time>2022-03-27T09:55:38.000Z</time>
      </trkpt>
      <trkpt lat="48.40459" lon="-4.57281">
        <ele>52</ele>
        <time>2022-03-27T09:55:44.000Z</time>
      </trkpt>
      <trkpt lat="48.40453" lon="-4.57294">
        <ele>51.599998474121</ele>
        <time>2022-03-27T09:55:48.000Z</time>
      </trkpt>
      <trkpt lat="48.4045" lon="-4.573">
        <ele>51.400001525879</ele>
        <time>2022-03-27T09:55:49.000Z</time>
      </trkpt>
      <trkpt lat="48.40444" lon="-4.57311">
        <ele>51.200000762939</ele>
        <time>2022-03-27T09:55:51.000Z</time>
      </trkpt>
      <trkpt lat="48.4044" lon="-4.57317">
        <ele>51</ele>
        <time>2022-03-27T09:55:52.000Z</time>
      </trkpt>
      <trkpt lat="48.40418" lon="-4.57352">
        <ele>49.400001525879</ele>
        <time>2022-03-27T09:55:58.000Z</time>
      </trkpt>
      <trkpt lat="48.40395" lon="-4.57382">
        <ele>47.799999237061</ele>
        <time>2022-03-27T09:56:03.000Z</time>
      </trkpt>
      <trkpt lat="48.4037" lon="-4.57418">
        <ele>46.200000762939</ele>
        <time>2022-03-27T09:56:08.000Z</time>
      </trkpt>
      <trkpt lat="48.40365" lon="-4.57426">
        <ele>46</ele>
        <time>2022-03-27T09:56:09.000Z</time>
      </trkpt>
      <trkpt lat="48.40354" lon="-4.57442">
        <ele>45.400001525879</ele>
        <time>2022-03-27T09:56:11.000Z</time>
      </trkpt>
      <trkpt lat="48.40338" lon="-4.57462">
        <ele>44.799999237061</ele>
        <time>2022-03-27T09:56:14.000Z</time>
      </trkpt>
      <trkpt lat="48.40326" lon="-4.57472">
        <ele>44.400001525879</ele>
        <time>2022-03-27T09:56:16.000Z</time>
      </trkpt>
      <trkpt lat="48.40304" lon="-4.57485">
        <ele>44</ele>
        <time>2022-03-27T09:56:19.000Z</time>
      </trkpt>
      <trkpt lat="48.40296" lon="-4.57489">
        <ele>44</ele>
        <time>2022-03-27T09:56:20.000Z</time>
      </trkpt>
      <trkpt lat="48.40282" lon="-4.57492">
        <ele>43.799999237061</ele>
        <time>2022-03-27T09:56:22.000Z</time>
      </trkpt>
      <trkpt lat="48.40275" lon="-4.57489">
        <ele>43.599998474121</ele>
        <time>2022-03-27T09:56:23.000Z</time>
      </trkpt>
      <trkpt lat="48.40238" lon="-4.57464">
        <ele>43.799999237061</ele>
        <time>2022-03-27T09:56:29.000Z</time>
      </trkpt>
      <trkpt lat="48.40233" lon="-4.57459">
        <ele>44</ele>
        <time>2022-03-27T09:56:30.000Z</time>
      </trkpt>
      <trkpt lat="48.40214" lon="-4.57448">
        <ele>44.599998474121</ele>
        <time>2022-03-27T09:56:33.000Z</time>
      </trkpt>
      <trkpt lat="48.40185" lon="-4.57418">
        <ele>45</ele>
        <time>2022-03-27T09:56:39.000Z</time>
      </trkpt>
      <trkpt lat="48.40175" lon="-4.57391">
        <ele>44.799999237061</ele>
        <time>2022-03-27T09:56:43.000Z</time>
      </trkpt>
      <trkpt lat="48.40173" lon="-4.57385">
        <ele>44.799999237061</ele>
        <time>2022-03-27T09:56:44.000Z</time>
      </trkpt>
      <trkpt lat="48.40168" lon="-4.57375">
        <ele>44.799999237061</ele>
        <time>2022-03-27T09:56:46.000Z</time>
      </trkpt>
      <trkpt lat="48.40162" lon="-4.57365">
        <ele>45</ele>
        <time>2022-03-27T09:56:48.000Z</time>
      </trkpt>
      <trkpt lat="48.40158" lon="-4.57361">
        <ele>45</ele>
        <time>2022-03-27T09:56:49.000Z</time>
      </trkpt>
      <trkpt lat="48.40143" lon="-4.57344">
        <ele>45</ele>
        <time>2022-03-27T09:56:53.000Z</time>
      </trkpt>
      <trkpt lat="48.40133" lon="-4.57331">
        <ele>45</ele>
        <time>2022-03-27T09:56:56.000Z</time>
      </trkpt>
      <trkpt lat="48.40129" lon="-4.57328">
        <ele>45.200000762939</ele>
        <time>2022-03-27T09:56:57.000Z</time>
      </trkpt>
      <trkpt lat="48.40124" lon="-4.57326">
        <ele>45.200000762939</ele>
        <time>2022-03-27T09:56:58.000Z</time>
      </trkpt>
      <trkpt lat="48.40112" lon="-4.57319">
        <ele>45.400001525879</ele>
        <time>2022-03-27T09:57:01.000Z</time>
      </trkpt>
      <trkpt lat="48.40102" lon="-4.57306">
        <ele>45.599998474121</ele>
        <time>2022-03-27T09:57:05.000Z</time>
      </trkpt>
      <trkpt lat="48.40097" lon="-4.573">
        <ele>45.799999237061</ele>
        <time>2022-03-27T09:57:07.000Z</time>
      </trkpt>
      <trkpt lat="48.40091" lon="-4.57297">
        <ele>46</ele>
        <time>2022-03-27T09:57:08.000Z</time>
      </trkpt>
      <trkpt lat="48.40081" lon="-4.5729">
        <ele>46.200000762939</ele>
        <time>2022-03-27T09:57:10.000Z</time>
      </trkpt>
      <trkpt lat="48.40067" lon="-4.57279">
        <ele>46.599998474121</ele>
        <time>2022-03-27T09:57:13.000Z</time>
      </trkpt>
      <trkpt lat="48.40049" lon="-4.57264">
        <ele>47</ele>
        <time>2022-03-27T09:57:18.000Z</time>
      </trkpt>
      <trkpt lat="48.40042" lon="-4.5726">
        <ele>47</ele>
        <time>2022-03-27T09:57:20.000Z</time>
      </trkpt>
      <trkpt lat="48.40033" lon="-4.57257">
        <ele>47.200000762939</ele>
        <time>2022-03-27T09:57:22.000Z</time>
      </trkpt>
      <trkpt lat="48.40027" lon="-4.57256">
        <ele>47.400001525879</ele>
        <time>2022-03-27T09:57:23.000Z</time>
      </trkpt>
      <trkpt lat="48.40017" lon="-4.5725">
        <ele>47.599998474121</ele>
        <time>2022-03-27T09:57:25.000Z</time>
      </trkpt>
      <trkpt lat="48.40013" lon="-4.57247">
        <ele>47.599998474121</ele>
        <time>2022-03-27T09:57:26.000Z</time>
      </trkpt>
      <trkpt lat="48.40009" lon="-4.57244">
        <ele>47.400001525879</ele>
        <time>2022-03-27T09:57:27.000Z</time>
      </trkpt>
      <trkpt lat="48.39998" lon="-4.57232">
        <ele>47</ele>
        <time>2022-03-27T09:57:30.000Z</time>
      </trkpt>
      <trkpt lat="48.39994" lon="-4.57229">
        <ele>46.799999237061</ele>
        <time>2022-03-27T09:57:31.000Z</time>
      </trkpt>
      <trkpt lat="48.39987" lon="-4.57228">
        <ele>46.599998474121</ele>
        <time>2022-03-27T09:57:33.000Z</time>
      </trkpt>
      <trkpt lat="48.39984" lon="-4.57229">
        <ele>46.599998474121</ele>
        <time>2022-03-27T09:57:34.000Z</time>
      </trkpt>
      <trkpt lat="48.39978" lon="-4.57236">
        <ele>46.599998474121</ele>
        <time>2022-03-27T09:57:37.000Z</time>
      </trkpt>
      <trkpt lat="48.39973" lon="-4.57243">
        <ele>46.400001525879</ele>
        <time>2022-03-27T09:57:39.000Z</time>
      </trkpt>
      <trkpt lat="48.39968" lon="-4.57252">
        <ele>46.400001525879</ele>
        <time>2022-03-27T09:57:41.000Z</time>
      </trkpt>
      <trkpt lat="48.39965" lon="-4.57257">
        <ele>46.400001525879</ele>
        <time>2022-03-27T09:57:42.000Z</time>
      </trkpt>
      <trkpt lat="48.39955" lon="-4.57274">
        <ele>46.400001525879</ele>
        <time>2022-03-27T09:57:45.000Z</time>
      </trkpt>
      <trkpt lat="48.39935" lon="-4.57311">
        <ele>46</ele>
        <time>2022-03-27T09:57:51.000Z</time>
      </trkpt>
      <trkpt lat="48.39916" lon="-4.57344">
        <ele>45.599998474121</ele>
        <time>2022-03-27T09:57:56.000Z</time>
      </trkpt>
      <trkpt lat="48.39892" lon="-4.57377">
        <ele>45.200000762939</ele>
        <time>2022-03-27T09:58:01.000Z</time>
      </trkpt>
      <trkpt lat="48.39865" lon="-4.57418">
        <ele>45.599998474121</ele>
        <time>2022-03-27T09:58:07.000Z</time>
      </trkpt>
      <trkpt lat="48.39857" lon="-4.57431">
        <ele>45.799999237061</ele>
        <time>2022-03-27T09:58:09.000Z</time>
      </trkpt>
      <trkpt lat="48.39847" lon="-4.57442">
        <ele>45.799999237061</ele>
        <time>2022-03-27T09:58:11.000Z</time>
      </trkpt>
      <trkpt lat="48.39813" lon="-4.57477">
        <ele>45.200000762939</ele>
        <time>2022-03-27T09:58:18.000Z</time>
      </trkpt>
      <trkpt lat="48.39784" lon="-4.5751">
        <ele>44.400001525879</ele>
        <time>2022-03-27T09:58:24.000Z</time>
      </trkpt>
      <trkpt lat="48.39773" lon="-4.57521">
        <ele>44.200000762939</ele>
        <time>2022-03-27T09:58:26.000Z</time>
      </trkpt>
      <trkpt lat="48.39767" lon="-4.57524">
        <ele>44</ele>
        <time>2022-03-27T09:58:27.000Z</time>
      </trkpt>
      <trkpt lat="48.39757" lon="-4.57527">
        <ele>44</ele>
        <time>2022-03-27T09:58:29.000Z</time>
      </trkpt>
      <trkpt lat="48.39753" lon="-4.57532">
        <ele>44</ele>
        <time>2022-03-27T09:58:30.000Z</time>
      </trkpt>
      <trkpt lat="48.39744" lon="-4.57544">
        <ele>43.799999237061</ele>
        <time>2022-03-27T09:58:33.000Z</time>
      </trkpt>
      <trkpt lat="48.39737" lon="-4.57551">
        <ele>43.599998474121</ele>
        <time>2022-03-27T09:58:35.000Z</time>
      </trkpt>
      <trkpt lat="48.39717" lon="-4.5757">
        <ele>43.200000762939</ele>
        <time>2022-03-27T09:58:40.000Z</time>
      </trkpt>
      <trkpt lat="48.39708" lon="-4.57578">
        <ele>43</ele>
        <time>2022-03-27T09:58:42.000Z</time>
      </trkpt>
      <trkpt lat="48.39693" lon="-4.57586">
        <ele>42.799999237061</ele>
        <time>2022-03-27T09:58:45.000Z</time>
      </trkpt>
      <trkpt lat="48.39688" lon="-4.5759">
        <ele>42.599998474121</ele>
        <time>2022-03-27T09:58:46.000Z</time>
      </trkpt>
      <trkpt lat="48.39669" lon="-4.57608">
        <ele>42.400001525879</ele>
        <time>2022-03-27T09:58:50.000Z</time>
      </trkpt>
      <trkpt lat="48.39629" lon="-4.57638">
        <ele>42.599998474121</ele>
        <time>2022-03-27T09:58:58.000Z</time>
      </trkpt>
      <trkpt lat="48.39595" lon="-4.57669">
        <ele>43</ele>
        <time>2022-03-27T09:59:05.000Z</time>
      </trkpt>
      <trkpt lat="48.39561" lon="-4.57698">
        <ele>43.400001525879</ele>
        <time>2022-03-27T09:59:12.000Z</time>
      </trkpt>
      <trkpt lat="48.39526" lon="-4.57723">
        <ele>43.799999237061</ele>
        <time>2022-03-27T09:59:19.000Z</time>
      </trkpt>
      <trkpt lat="48.3952" lon="-4.57726">
        <ele>44</ele>
        <time>2022-03-27T09:59:20.000Z</time>
      </trkpt>
      <trkpt lat="48.39508" lon="-4.57728">
        <ele>44</ele>
        <time>2022-03-27T09:59:22.000Z</time>
      </trkpt>
      <trkpt lat="48.39503" lon="-4.57727">
        <ele>44.200000762939</ele>
        <time>2022-03-27T09:59:23.000Z</time>
      </trkpt>
      <trkpt lat="48.39497" lon="-4.57725">
        <ele>44.200000762939</ele>
        <time>2022-03-27T09:59:24.000Z</time>
      </trkpt>
      <trkpt lat="48.39485" lon="-4.57718">
        <ele>44.400001525879</ele>
        <time>2022-03-27T09:59:27.000Z</time>
      </trkpt>
      <trkpt lat="48.39482" lon="-4.57721">
        <ele>44.400001525879</ele>
        <time>2022-03-27T09:59:30.000Z</time>
      </trkpt>
      <trkpt lat="48.39482" lon="-4.57722">
        <ele>44.400001525879</ele>
        <time>2022-03-27T09:59:31.000Z</time>
      </trkpt>
      <trkpt lat="48.39483" lon="-4.57728">
        <ele>44.400001525879</ele>
        <time>2022-03-27T09:59:33.000Z</time>
      </trkpt>
      <trkpt lat="48.39484" lon="-4.57731">
        <ele>44.400001525879</ele>
        <time>2022-03-27T09:59:34.000Z</time>
      </trkpt>
      <trkpt lat="48.39494" lon="-4.57751">
        <ele>44.200000762939</ele>
        <time>2022-03-27T09:59:39.000Z</time>
      </trkpt>
      <trkpt lat="48.39504" lon="-4.57771">
        <ele>44.200000762939</ele>
        <time>2022-03-27T09:59:44.000Z</time>
      </trkpt>
      <trkpt lat="48.395" lon="-4.57789">
        <ele>44.200000762939</ele>
        <time>2022-03-27T09:59:47.000Z</time>
      </trkpt>
      <trkpt lat="48.39499" lon="-4.57796">
        <ele>44.200000762939</ele>
        <time>2022-03-27T09:59:48.000Z</time>
      </trkpt>
      <trkpt lat="48.39497" lon="-4.57823">
        <ele>44</ele>
        <time>2022-03-27T09:59:52.000Z</time>
      </trkpt>
      <trkpt lat="48.39496" lon="-4.57844">
        <ele>43.799999237061</ele>
        <time>2022-03-27T09:59:55.000Z</time>
      </trkpt>
      <trkpt lat="48.39491" lon="-4.57863">
        <ele>43.599998474121</ele>
        <time>2022-03-27T09:59:58.000Z</time>
      </trkpt>
      <trkpt lat="48.39488" lon="-4.57882">
        <ele>43.400001525879</ele>
        <time>2022-03-27T10:00:01.000Z</time>
      </trkpt>
      <trkpt lat="48.39492" lon="-4.57895">
        <ele>43.400001525879</ele>
        <time>2022-03-27T10:00:03.000Z</time>
      </trkpt>
      <trkpt lat="48.39502" lon="-4.57899">
        <ele>43.400001525879</ele>
        <time>2022-03-27T10:00:05.000Z</time>
      </trkpt>
      <trkpt lat="48.39507" lon="-4.57899">
        <ele>43.400001525879</ele>
        <time>2022-03-27T10:00:06.000Z</time>
      </trkpt>
      <trkpt lat="48.39511" lon="-4.57899">
        <ele>43.400001525879</ele>
        <time>2022-03-27T10:00:07.000Z</time>
      </trkpt>
      <trkpt lat="48.39527" lon="-4.57902">
        <ele>42.599998474121</ele>
        <time>2022-03-27T10:00:11.000Z</time>
      </trkpt>
      <trkpt lat="48.39552" lon="-4.57909">
        <ele>41.200000762939</ele>
        <time>2022-03-27T10:00:16.000Z</time>
      </trkpt>
      <trkpt lat="48.39556" lon="-4.5791">
        <ele>41</ele>
        <time>2022-03-27T10:00:17.000Z</time>
      </trkpt>
      <trkpt lat="48.39569" lon="-4.57913">
        <ele>40.599998474121</ele>
        <time>2022-03-27T10:00:20.000Z</time>
      </trkpt>
      <trkpt lat="48.39595" lon="-4.57923">
        <ele>40.200000762939</ele>
        <time>2022-03-27T10:00:26.000Z</time>
      </trkpt>
      <trkpt lat="48.39606" lon="-4.57938">
        <ele>40.200000762939</ele>
        <time>2022-03-27T10:00:30.000Z</time>
      </trkpt>
      <trkpt lat="48.39604" lon="-4.57963">
        <ele>41</ele>
        <time>2022-03-27T10:00:34.000Z</time>
      </trkpt>
      <trkpt lat="48.39603" lon="-4.57977">
        <ele>41.200000762939</ele>
        <time>2022-03-27T10:00:36.000Z</time>
      </trkpt>
      <trkpt lat="48.39601" lon="-4.58007">
        <ele>41.599998474121</ele>
        <time>2022-03-27T10:00:40.000Z</time>
      </trkpt>
      <trkpt lat="48.39599" lon="-4.5803">
        <ele>42</ele>
        <time>2022-03-27T10:00:43.000Z</time>
      </trkpt>
      <trkpt lat="48.39596" lon="-4.58051">
        <ele>42.200000762939</ele>
        <time>2022-03-27T10:00:46.000Z</time>
      </trkpt>
      <trkpt lat="48.39581" lon="-4.58097">
        <ele>42.799999237061</ele>
        <time>2022-03-27T10:00:53.000Z</time>
      </trkpt>
      <trkpt lat="48.39565" lon="-4.58151">
        <ele>43.799999237061</ele>
        <time>2022-03-27T10:01:01.000Z</time>
      </trkpt>
      <trkpt lat="48.39559" lon="-4.58179">
        <ele>43.599998474121</ele>
        <time>2022-03-27T10:01:05.000Z</time>
      </trkpt>
      <trkpt lat="48.39556" lon="-4.58193">
        <ele>43.599998474121</ele>
        <time>2022-03-27T10:01:07.000Z</time>
      </trkpt>
      <trkpt lat="48.39549" lon="-4.58227">
        <ele>43.799999237061</ele>
        <time>2022-03-27T10:01:12.000Z</time>
      </trkpt>
      <trkpt lat="48.39547" lon="-4.58233">
        <ele>43.799999237061</ele>
        <time>2022-03-27T10:01:13.000Z</time>
      </trkpt>
      <trkpt lat="48.39541" lon="-4.58259">
        <ele>44</ele>
        <time>2022-03-27T10:01:17.000Z</time>
      </trkpt>
      <trkpt lat="48.39541" lon="-4.58266">
        <ele>44.200000762939</ele>
        <time>2022-03-27T10:01:18.000Z</time>
      </trkpt>
      <trkpt lat="48.3954" lon="-4.5828">
        <ele>44.599998474121</ele>
        <time>2022-03-27T10:01:20.000Z</time>
      </trkpt>
      <trkpt lat="48.39539" lon="-4.58287">
        <ele>44.799999237061</ele>
        <time>2022-03-27T10:01:21.000Z</time>
      </trkpt>
      <trkpt lat="48.39538" lon="-4.58294">
        <ele>44.799999237061</ele>
        <time>2022-03-27T10:01:22.000Z</time>
      </trkpt>
      <trkpt lat="48.39538" lon="-4.58318">
        <ele>44.799999237061</ele>
        <time>2022-03-27T10:01:25.000Z</time>
      </trkpt>
      <trkpt lat="48.39539" lon="-4.58326">
        <ele>44.799999237061</ele>
        <time>2022-03-27T10:01:26.000Z</time>
      </trkpt>
      <trkpt lat="48.39539" lon="-4.58342">
        <ele>44.799999237061</ele>
        <time>2022-03-27T10:01:28.000Z</time>
      </trkpt>
      <trkpt lat="48.39539" lon="-4.58367">
        <ele>45.200000762939</ele>
        <time>2022-03-27T10:01:31.000Z</time>
      </trkpt>
      <trkpt lat="48.3954" lon="-4.58399">
        <ele>46</ele>
        <time>2022-03-27T10:01:35.000Z</time>
      </trkpt>
      <trkpt lat="48.39538" lon="-4.58415">
        <ele>46.400001525879</ele>
        <time>2022-03-27T10:01:37.000Z</time>
      </trkpt>
      <trkpt lat="48.39538" lon="-4.58423">
        <ele>46.599998474121</ele>
        <time>2022-03-27T10:01:38.000Z</time>
      </trkpt>
      <trkpt lat="48.39538" lon="-4.58439">
        <ele>48.200000762939</ele>
        <time>2022-03-27T10:01:40.000Z</time>
      </trkpt>
      <trkpt lat="48.39537" lon="-4.58455">
        <ele>50</ele>
        <time>2022-03-27T10:01:42.000Z</time>
      </trkpt>
      <trkpt lat="48.39533" lon="-4.58486">
        <ele>49.799999237061</ele>
        <time>2022-03-27T10:01:46.000Z</time>
      </trkpt>
      <trkpt lat="48.39533" lon="-4.58493">
        <ele>49.799999237061</ele>
        <time>2022-03-27T10:01:47.000Z</time>
      </trkpt>
      <trkpt lat="48.39531" lon="-4.58523">
        <ele>50.200000762939</ele>
        <time>2022-03-27T10:01:51.000Z</time>
      </trkpt>
      <trkpt lat="48.39531" lon="-4.58531">
        <ele>50.200000762939</ele>
        <time>2022-03-27T10:01:52.000Z</time>
      </trkpt>
      <trkpt lat="48.39531" lon="-4.58552">
        <ele>50.400001525879</ele>
        <time>2022-03-27T10:01:55.000Z</time>
      </trkpt>
      <trkpt lat="48.39534" lon="-4.58558">
        <ele>50.799999237061</ele>
        <time>2022-03-27T10:01:56.000Z</time>
      </trkpt>
      <trkpt lat="48.39541" lon="-4.58586">
        <ele>51.799999237061</ele>
        <time>2022-03-27T10:02:01.000Z</time>
      </trkpt>
      <trkpt lat="48.39541" lon="-4.58603">
        <ele>50.799999237061</ele>
        <time>2022-03-27T10:02:03.000Z</time>
      </trkpt>
      <trkpt lat="48.39542" lon="-4.58618">
        <ele>49.599998474121</ele>
        <time>2022-03-27T10:02:05.000Z</time>
      </trkpt>
      <trkpt lat="48.39545" lon="-4.58648">
        <ele>49.799999237061</ele>
        <time>2022-03-27T10:02:09.000Z</time>
      </trkpt>
      <trkpt lat="48.39546" lon="-4.58663">
        <ele>49.799999237061</ele>
        <time>2022-03-27T10:02:11.000Z</time>
      </trkpt>
      <trkpt lat="48.39546" lon="-4.58676">
        <ele>49.599998474121</ele>
        <time>2022-03-27T10:02:13.000Z</time>
      </trkpt>
      <trkpt lat="48.39547" lon="-4.58688">
        <ele>49.200000762939</ele>
        <time>2022-03-27T10:02:15.000Z</time>
      </trkpt>
      <trkpt lat="48.39548" lon="-4.58694">
        <ele>49</ele>
        <time>2022-03-27T10:02:16.000Z</time>
      </trkpt>
      <trkpt lat="48.3955" lon="-4.58706">
        <ele>49</ele>
        <time>2022-03-27T10:02:18.000Z</time>
      </trkpt>
      <trkpt lat="48.39551" lon="-4.58718">
        <ele>49.400001525879</ele>
        <time>2022-03-27T10:02:20.000Z</time>
      </trkpt>
      <trkpt lat="48.39557" lon="-4.58743">
        <ele>50.599998474121</ele>
        <time>2022-03-27T10:02:24.000Z</time>
      </trkpt>
      <trkpt lat="48.39558" lon="-4.5875">
        <ele>50.599998474121</ele>
        <time>2022-03-27T10:02:25.000Z</time>
      </trkpt>
      <trkpt lat="48.39562" lon="-4.5877">
        <ele>51.200000762939</ele>
        <time>2022-03-27T10:02:28.000Z</time>
      </trkpt>
      <trkpt lat="48.39566" lon="-4.58788">
        <ele>51.599998474121</ele>
        <time>2022-03-27T10:02:31.000Z</time>
      </trkpt>
      <trkpt lat="48.39571" lon="-4.58831">
        <ele>51.799999237061</ele>
        <time>2022-03-27T10:02:38.000Z</time>
      </trkpt>
      <trkpt lat="48.39571" lon="-4.58851">
        <ele>52.200000762939</ele>
        <time>2022-03-27T10:02:42.000Z</time>
      </trkpt>
      <trkpt lat="48.39568" lon="-4.58872">
        <ele>52.400001525879</ele>
        <time>2022-03-27T10:02:46.000Z</time>
      </trkpt>
      <trkpt lat="48.39563" lon="-4.58894">
        <ele>52.799999237061</ele>
        <time>2022-03-27T10:02:50.000Z</time>
      </trkpt>
      <trkpt lat="48.39557" lon="-4.58926">
        <ele>53.200000762939</ele>
        <time>2022-03-27T10:02:56.000Z</time>
      </trkpt>
      <trkpt lat="48.3956" lon="-4.58964">
        <ele>54</ele>
        <time>2022-03-27T10:03:03.000Z</time>
      </trkpt>
      <trkpt lat="48.39558" lon="-4.58996">
        <ele>55</ele>
        <time>2022-03-27T10:03:09.000Z</time>
      </trkpt>
      <trkpt lat="48.39553" lon="-4.59021">
        <ele>55.400001525879</ele>
        <time>2022-03-27T10:03:14.000Z</time>
      </trkpt>
      <trkpt lat="48.39555" lon="-4.59048">
        <ele>55.799999237061</ele>
        <time>2022-03-27T10:03:19.000Z</time>
      </trkpt>
      <trkpt lat="48.39564" lon="-4.59077">
        <ele>56.400001525879</ele>
        <time>2022-03-27T10:03:24.000Z</time>
      </trkpt>
      <trkpt lat="48.39562" lon="-4.59098">
        <ele>57</ele>
        <time>2022-03-27T10:03:28.000Z</time>
      </trkpt>
      <trkpt lat="48.39558" lon="-4.59123">
        <ele>57.599998474121</ele>
        <time>2022-03-27T10:03:33.000Z</time>
      </trkpt>
      <trkpt lat="48.39557" lon="-4.59145">
        <ele>58.200000762939</ele>
        <time>2022-03-27T10:03:37.000Z</time>
      </trkpt>
      <trkpt lat="48.39547" lon="-4.5916">
        <ele>58.599998474121</ele>
        <time>2022-03-27T10:03:41.000Z</time>
      </trkpt>
      <trkpt lat="48.39531" lon="-4.59179">
        <ele>59.200000762939</ele>
        <time>2022-03-27T10:03:47.000Z</time>
      </trkpt>
      <trkpt lat="48.39517" lon="-4.59207">
        <ele>60</ele>
        <time>2022-03-27T10:03:54.000Z</time>
      </trkpt>
      <trkpt lat="48.39516" lon="-4.59239">
        <ele>60.400001525879</ele>
        <time>2022-03-27T10:04:00.000Z</time>
      </trkpt>
      <trkpt lat="48.39519" lon="-4.59285">
        <ele>60.799999237061</ele>
        <time>2022-03-27T10:04:08.000Z</time>
      </trkpt>
      <trkpt lat="48.3952" lon="-4.59321">
        <ele>61.799999237061</ele>
        <time>2022-03-27T10:04:14.000Z</time>
      </trkpt>
      <trkpt lat="48.39515" lon="-4.59377">
        <ele>63.200000762939</ele>
        <time>2022-03-27T10:04:23.000Z</time>
      </trkpt>
      <trkpt lat="48.39506" lon="-4.59435">
        <ele>64.599998474121</ele>
        <time>2022-03-27T10:04:33.000Z</time>
      </trkpt>
      <trkpt lat="48.39498" lon="-4.59485">
        <ele>65.400001525879</ele>
        <time>2022-03-27T10:04:41.000Z</time>
      </trkpt>
      <trkpt lat="48.39493" lon="-4.59536">
        <ele>66</ele>
        <time>2022-03-27T10:04:49.000Z</time>
      </trkpt>
      <trkpt lat="48.39491" lon="-4.5959">
        <ele>66.199996948242</ele>
        <time>2022-03-27T10:04:57.000Z</time>
      </trkpt>
      <trkpt lat="48.3949" lon="-4.59625">
        <ele>66.400001525879</ele>
        <time>2022-03-27T10:05:02.000Z</time>
      </trkpt>
      <trkpt lat="48.3949" lon="-4.5964">
        <ele>66.599998474121</ele>
        <time>2022-03-27T10:05:04.000Z</time>
      </trkpt>
      <trkpt lat="48.39489" lon="-4.59703">
        <ele>66.599998474121</ele>
        <time>2022-03-27T10:05:12.000Z</time>
      </trkpt>
      <trkpt lat="48.39487" lon="-4.59762">
        <ele>66.599998474121</ele>
        <time>2022-03-27T10:05:19.000Z</time>
      </trkpt>
      <trkpt lat="48.39488" lon="-4.59797">
        <ele>66.400001525879</ele>
        <time>2022-03-27T10:05:24.000Z</time>
      </trkpt>
      <trkpt lat="48.39488" lon="-4.59822">
        <ele>66.400001525879</ele>
        <time>2022-03-27T10:05:29.000Z</time>
      </trkpt>
      <trkpt lat="48.39487" lon="-4.59858">
        <ele>67</ele>
        <time>2022-03-27T10:05:35.000Z</time>
      </trkpt>
      <trkpt lat="48.39487" lon="-4.59865">
        <ele>67</ele>
        <time>2022-03-27T10:05:36.000Z</time>
      </trkpt>
      <trkpt lat="48.3949" lon="-4.59899">
        <ele>67</ele>
        <time>2022-03-27T10:05:41.000Z</time>
      </trkpt>
      <trkpt lat="48.39492" lon="-4.59945">
        <ele>67.400001525879</ele>
        <time>2022-03-27T10:05:47.000Z</time>
      </trkpt>
      <trkpt lat="48.39492" lon="-4.59953">
        <ele>67.599998474121</ele>
        <time>2022-03-27T10:05:48.000Z</time>
      </trkpt>
      <trkpt lat="48.3949" lon="-4.5996">
        <ele>67.599998474121</ele>
        <time>2022-03-27T10:05:49.000Z</time>
      </trkpt>
      <trkpt lat="48.39484" lon="-4.59981">
        <ele>67.800003051758</ele>
        <time>2022-03-27T10:05:52.000Z</time>
      </trkpt>
      <trkpt lat="48.39481" lon="-4.59995">
        <ele>67.599998474121</ele>
        <time>2022-03-27T10:05:54.000Z</time>
      </trkpt>
      <trkpt lat="48.39481" lon="-4.60019">
        <ele>67.400001525879</ele>
        <time>2022-03-27T10:05:57.000Z</time>
      </trkpt>
      <trkpt lat="48.39481" lon="-4.60041">
        <ele>67.199996948242</ele>
        <time>2022-03-27T10:06:00.000Z</time>
      </trkpt>
      <trkpt lat="48.39483" lon="-4.60068">
        <ele>67.199996948242</ele>
        <time>2022-03-27T10:06:04.000Z</time>
      </trkpt>
      <trkpt lat="48.39483" lon="-4.60095">
        <ele>66.400001525879</ele>
        <time>2022-03-27T10:06:08.000Z</time>
      </trkpt>
      <trkpt lat="48.39481" lon="-4.60109">
        <ele>66.199996948242</ele>
        <time>2022-03-27T10:06:10.000Z</time>
      </trkpt>
      <trkpt lat="48.3948" lon="-4.60116">
        <ele>66.199996948242</ele>
        <time>2022-03-27T10:06:11.000Z</time>
      </trkpt>
      <trkpt lat="48.39479" lon="-4.60129">
        <ele>66</ele>
        <time>2022-03-27T10:06:13.000Z</time>
      </trkpt>
      <trkpt lat="48.39478" lon="-4.60136">
        <ele>66</ele>
        <time>2022-03-27T10:06:14.000Z</time>
      </trkpt>
      <trkpt lat="48.39476" lon="-4.60143">
        <ele>66</ele>
        <time>2022-03-27T10:06:15.000Z</time>
      </trkpt>
      <trkpt lat="48.39469" lon="-4.60155">
        <ele>66.400001525879</ele>
        <time>2022-03-27T10:06:17.000Z</time>
      </trkpt>
      <trkpt lat="48.39459" lon="-4.6016">
        <ele>66.800003051758</ele>
        <time>2022-03-27T10:06:19.000Z</time>
      </trkpt>
      <trkpt lat="48.39455" lon="-4.60161">
        <ele>67.199996948242</ele>
        <time>2022-03-27T10:06:20.000Z</time>
      </trkpt>
      <trkpt lat="48.39427" lon="-4.6016">
        <ele>68.800003051758</ele>
        <time>2022-03-27T10:06:27.000Z</time>
      </trkpt>
      <trkpt lat="48.39407" lon="-4.60159">
        <ele>69.800003051758</ele>
        <time>2022-03-27T10:06:33.000Z</time>
      </trkpt>
      <trkpt lat="48.39387" lon="-4.6016">
        <ele>70.599998474121</ele>
        <time>2022-03-27T10:06:39.000Z</time>
      </trkpt>
      <trkpt lat="48.39369" lon="-4.60168">
        <ele>71.199996948242</ele>
        <time>2022-03-27T10:06:45.000Z</time>
      </trkpt>
      <trkpt lat="48.3935" lon="-4.60174">
        <ele>72</ele>
        <time>2022-03-27T10:06:51.000Z</time>
      </trkpt>
      <trkpt lat="48.39324" lon="-4.60175">
        <ele>72.599998474121</ele>
        <time>2022-03-27T10:06:58.000Z</time>
      </trkpt>
      <trkpt lat="48.39296" lon="-4.60174">
        <ele>73.199996948242</ele>
        <time>2022-03-27T10:07:05.000Z</time>
      </trkpt>
      <trkpt lat="48.39264" lon="-4.60169">
        <ele>73.599998474121</ele>
        <time>2022-03-27T10:07:13.000Z</time>
      </trkpt>
      <trkpt lat="48.39233" lon="-4.60159">
        <ele>73.400001525879</ele>
        <time>2022-03-27T10:07:20.000Z</time>
      </trkpt>
      <trkpt lat="48.3922" lon="-4.60155">
        <ele>73.400001525879</ele>
        <time>2022-03-27T10:07:23.000Z</time>
      </trkpt>
      <trkpt lat="48.39212" lon="-4.60157">
        <ele>73.400001525879</ele>
        <time>2022-03-27T10:07:25.000Z</time>
      </trkpt>
      <trkpt lat="48.39208" lon="-4.60166">
        <ele>73.599998474121</ele>
        <time>2022-03-27T10:07:27.000Z</time>
      </trkpt>
      <trkpt lat="48.39208" lon="-4.60171">
        <ele>73.599998474121</ele>
        <time>2022-03-27T10:07:28.000Z</time>
      </trkpt>
      <trkpt lat="48.39207" lon="-4.60206">
        <ele>74</ele>
        <time>2022-03-27T10:07:34.000Z</time>
      </trkpt>
      <trkpt lat="48.39204" lon="-4.60254">
        <ele>75.199996948242</ele>
        <time>2022-03-27T10:07:42.000Z</time>
      </trkpt>
      <trkpt lat="48.39201" lon="-4.6029">
        <ele>75.400001525879</ele>
        <time>2022-03-27T10:07:48.000Z</time>
      </trkpt>
      <trkpt lat="48.39196" lon="-4.60331">
        <ele>75.199996948242</ele>
        <time>2022-03-27T10:07:55.000Z</time>
      </trkpt>
      <trkpt lat="48.39192" lon="-4.60372">
        <ele>75</ele>
        <time>2022-03-27T10:08:02.000Z</time>
      </trkpt>
      <trkpt lat="48.39189" lon="-4.60415">
        <ele>75.400001525879</ele>
        <time>2022-03-27T10:08:09.000Z</time>
      </trkpt>
      <trkpt lat="48.39185" lon="-4.60479">
        <ele>76</ele>
        <time>2022-03-27T10:08:18.000Z</time>
      </trkpt>
      <trkpt lat="48.39182" lon="-4.60547">
        <ele>75.599998474121</ele>
        <time>2022-03-27T10:08:27.000Z</time>
      </trkpt>
      <trkpt lat="48.39176" lon="-4.60613">
        <ele>73</ele>
        <time>2022-03-27T10:08:35.000Z</time>
      </trkpt>
      <trkpt lat="48.39166" lon="-4.6067">
        <ele>71.400001525879</ele>
        <time>2022-03-27T10:08:42.000Z</time>
      </trkpt>
      <trkpt lat="48.39164" lon="-4.60679">
        <ele>71.199996948242</ele>
        <time>2022-03-27T10:08:43.000Z</time>
      </trkpt>
      <trkpt lat="48.39156" lon="-4.60716">
        <ele>70.400001525879</ele>
        <time>2022-03-27T10:08:47.000Z</time>
      </trkpt>
      <trkpt lat="48.39155" lon="-4.60725">
        <ele>70.400001525879</ele>
        <time>2022-03-27T10:08:48.000Z</time>
      </trkpt>
      <trkpt lat="48.39151" lon="-4.60743">
        <ele>70</ele>
        <time>2022-03-27T10:08:50.000Z</time>
      </trkpt>
      <trkpt lat="48.39147" lon="-4.60748">
        <ele>69.800003051758</ele>
        <time>2022-03-27T10:08:51.000Z</time>
      </trkpt>
      <trkpt lat="48.39141" lon="-4.60749">
        <ele>69.800003051758</ele>
        <time>2022-03-27T10:08:52.000Z</time>
      </trkpt>
      <trkpt lat="48.39135" lon="-4.60746">
        <ele>69.800003051758</ele>
        <time>2022-03-27T10:08:53.000Z</time>
      </trkpt>
      <trkpt lat="48.39124" lon="-4.60739">
        <ele>69.599998474121</ele>
        <time>2022-03-27T10:08:55.000Z</time>
      </trkpt>
      <trkpt lat="48.39105" lon="-4.60722">
        <ele>69.199996948242</ele>
        <time>2022-03-27T10:08:59.000Z</time>
      </trkpt>
      <trkpt lat="48.3909" lon="-4.60711">
        <ele>69.199996948242</ele>
        <time>2022-03-27T10:09:02.000Z</time>
      </trkpt>
      <trkpt lat="48.39074" lon="-4.60702">
        <ele>70.400001525879</ele>
        <time>2022-03-27T10:09:05.000Z</time>
      </trkpt>
      <trkpt lat="48.39044" lon="-4.60688">
        <ele>72.599998474121</ele>
        <time>2022-03-27T10:09:11.000Z</time>
      </trkpt>
      <trkpt lat="48.39036" lon="-4.60688">
        <ele>73</ele>
        <time>2022-03-27T10:09:13.000Z</time>
      </trkpt>
      <trkpt lat="48.39033" lon="-4.60691">
        <ele>73.199996948242</ele>
        <time>2022-03-27T10:09:14.000Z</time>
      </trkpt>
      <trkpt lat="48.39026" lon="-4.60701">
        <ele>73.400001525879</ele>
        <time>2022-03-27T10:09:16.000Z</time>
      </trkpt>
      <trkpt lat="48.39017" lon="-4.60718">
        <ele>73.400001525879</ele>
        <time>2022-03-27T10:09:19.000Z</time>
      </trkpt>
      <trkpt lat="48.39009" lon="-4.60737">
        <ele>73.199996948242</ele>
        <time>2022-03-27T10:09:22.000Z</time>
      </trkpt>
      <trkpt lat="48.39003" lon="-4.6075">
        <ele>73.400001525879</ele>
        <time>2022-03-27T10:09:24.000Z</time>
      </trkpt>
      <trkpt lat="48.38993" lon="-4.60772">
        <ele>73.599998474121</ele>
        <time>2022-03-27T10:09:27.000Z</time>
      </trkpt>
      <trkpt lat="48.38986" lon="-4.60786">
        <ele>73.800003051758</ele>
        <time>2022-03-27T10:09:29.000Z</time>
      </trkpt>
      <trkpt lat="48.38967" lon="-4.60827">
        <ele>74.599998474121</ele>
        <time>2022-03-27T10:09:35.000Z</time>
      </trkpt>
      <trkpt lat="48.38951" lon="-4.60858">
        <ele>75.400001525879</ele>
        <time>2022-03-27T10:09:40.000Z</time>
      </trkpt>
      <trkpt lat="48.38948" lon="-4.60864">
        <ele>75.599998474121</ele>
        <time>2022-03-27T10:09:41.000Z</time>
      </trkpt>
      <trkpt lat="48.38939" lon="-4.60875">
        <ele>76</ele>
        <time>2022-03-27T10:09:43.000Z</time>
      </trkpt>
      <trkpt lat="48.38932" lon="-4.60887">
        <ele>76</ele>
        <time>2022-03-27T10:09:45.000Z</time>
      </trkpt>
      <trkpt lat="48.38922" lon="-4.60904">
        <ele>75.400001525879</ele>
        <time>2022-03-27T10:09:48.000Z</time>
      </trkpt>
      <trkpt lat="48.38904" lon="-4.60929">
        <ele>74.400001525879</ele>
        <time>2022-03-27T10:09:53.000Z</time>
      </trkpt>
      <trkpt lat="48.38889" lon="-4.60936">
        <ele>74.199996948242</ele>
        <time>2022-03-27T10:09:57.000Z</time>
      </trkpt>
      <trkpt lat="48.38882" lon="-4.60937">
        <ele>74.400001525879</ele>
        <time>2022-03-27T10:09:59.000Z</time>
      </trkpt>
      <trkpt lat="48.38872" lon="-4.60938">
        <ele>74.400001525879</ele>
        <time>2022-03-27T10:10:01.000Z</time>
      </trkpt>
      <trkpt lat="48.38861" lon="-4.60938">
        <ele>74.400001525879</ele>
        <time>2022-03-27T10:10:03.000Z</time>
      </trkpt>
      <trkpt lat="48.38846" lon="-4.60939">
        <ele>74</ele>
        <time>2022-03-27T10:10:06.000Z</time>
      </trkpt>
      <trkpt lat="48.38837" lon="-4.60937">
        <ele>73.599998474121</ele>
        <time>2022-03-27T10:10:08.000Z</time>
      </trkpt>
      <trkpt lat="48.38827" lon="-4.60933">
        <ele>73.199996948242</ele>
        <time>2022-03-27T10:10:10.000Z</time>
      </trkpt>
      <trkpt lat="48.38811" lon="-4.60918">
        <ele>72.599998474121</ele>
        <time>2022-03-27T10:10:13.000Z</time>
      </trkpt>
      <trkpt lat="48.38799" lon="-4.60917">
        <ele>72</ele>
        <time>2022-03-27T10:10:15.000Z</time>
      </trkpt>
      <trkpt lat="48.38778" lon="-4.60929">
        <ele>71</ele>
        <time>2022-03-27T10:10:19.000Z</time>
      </trkpt>
      <trkpt lat="48.38768" lon="-4.60932">
        <ele>70.599998474121</ele>
        <time>2022-03-27T10:10:21.000Z</time>
      </trkpt>
      <trkpt lat="48.38758" lon="-4.60931">
        <ele>70.599998474121</ele>
        <time>2022-03-27T10:10:23.000Z</time>
      </trkpt>
      <trkpt lat="48.38743" lon="-4.6093">
        <ele>71</ele>
        <time>2022-03-27T10:10:26.000Z</time>
      </trkpt>
      <trkpt lat="48.38733" lon="-4.60927">
        <ele>71.400001525879</ele>
        <time>2022-03-27T10:10:28.000Z</time>
      </trkpt>
      <trkpt lat="48.38728" lon="-4.60926">
        <ele>71.599998474121</ele>
        <time>2022-03-27T10:10:29.000Z</time>
      </trkpt>
      <trkpt lat="48.38698" lon="-4.60915">
        <ele>72.199996948242</ele>
        <time>2022-03-27T10:10:36.000Z</time>
      </trkpt>
      <trkpt lat="48.38678" lon="-4.60908">
        <ele>72.599998474121</ele>
        <time>2022-03-27T10:10:41.000Z</time>
      </trkpt>
      <trkpt lat="48.38674" lon="-4.60907">
        <ele>72.800003051758</ele>
        <time>2022-03-27T10:10:42.000Z</time>
      </trkpt>
      <trkpt lat="48.38648" lon="-4.60904">
        <ele>73.800003051758</ele>
        <time>2022-03-27T10:10:48.000Z</time>
      </trkpt>
      <trkpt lat="48.38635" lon="-4.60901">
        <ele>74.400001525879</ele>
        <time>2022-03-27T10:10:51.000Z</time>
      </trkpt>
      <trkpt lat="48.38631" lon="-4.60901">
        <ele>74.599998474121</ele>
        <time>2022-03-27T10:10:52.000Z</time>
      </trkpt>
      <trkpt lat="48.38622" lon="-4.60902">
        <ele>75</ele>
        <time>2022-03-27T10:10:54.000Z</time>
      </trkpt>
      <trkpt lat="48.38613" lon="-4.60906">
        <ele>75.400001525879</ele>
        <time>2022-03-27T10:10:56.000Z</time>
      </trkpt>
      <trkpt lat="48.38609" lon="-4.60909">
        <ele>75.400001525879</ele>
        <time>2022-03-27T10:10:57.000Z</time>
      </trkpt>
      <trkpt lat="48.38592" lon="-4.6093">
        <ele>75.599998474121</ele>
        <time>2022-03-27T10:11:02.000Z</time>
      </trkpt>
      <trkpt lat="48.38576" lon="-4.60951">
        <ele>75.199996948242</ele>
        <time>2022-03-27T10:11:07.000Z</time>
      </trkpt>
      <trkpt lat="48.38556" lon="-4.60975">
        <ele>75.800003051758</ele>
        <time>2022-03-27T10:11:13.000Z</time>
      </trkpt>
      <trkpt lat="48.38536" lon="-4.61">
        <ele>76.400001525879</ele>
        <time>2022-03-27T10:11:19.000Z</time>
      </trkpt>
      <trkpt lat="48.38521" lon="-4.61017">
        <ele>76.800003051758</ele>
        <time>2022-03-27T10:11:24.000Z</time>
      </trkpt>
      <trkpt lat="48.38508" lon="-4.61026">
        <ele>77.199996948242</ele>
        <time>2022-03-27T10:11:28.000Z</time>
      </trkpt>
      <trkpt lat="48.38504" lon="-4.61026">
        <ele>77.400001525879</ele>
        <time>2022-03-27T10:11:29.000Z</time>
      </trkpt>
      <trkpt lat="48.38494" lon="-4.6101">
        <ele>77.800003051758</ele>
        <time>2022-03-27T10:11:33.000Z</time>
      </trkpt>
      <trkpt lat="48.3848" lon="-4.60985">
        <ele>78</ele>
        <time>2022-03-27T10:11:39.000Z</time>
      </trkpt>
      <trkpt lat="48.38468" lon="-4.60979">
        <ele>78.599998474121</ele>
        <time>2022-03-27T10:11:43.000Z</time>
      </trkpt>
      <trkpt lat="48.38456" lon="-4.60989">
        <ele>79.199996948242</ele>
        <time>2022-03-27T10:11:47.000Z</time>
      </trkpt>
      <trkpt lat="48.38434" lon="-4.61007">
        <ele>80.599998474121</ele>
        <time>2022-03-27T10:11:54.000Z</time>
      </trkpt>
      <trkpt lat="48.38418" lon="-4.6102">
        <ele>80.599998474121</ele>
        <time>2022-03-27T10:11:59.000Z</time>
      </trkpt>
      <trkpt lat="48.38398" lon="-4.61039">
        <ele>80.800003051758</ele>
        <time>2022-03-27T10:12:05.000Z</time>
      </trkpt>
      <trkpt lat="48.38395" lon="-4.61043">
        <ele>80.800003051758</ele>
        <time>2022-03-27T10:12:06.000Z</time>
      </trkpt>
      <trkpt lat="48.38377" lon="-4.61066">
        <ele>81.400001525879</ele>
        <time>2022-03-27T10:12:11.000Z</time>
      </trkpt>
      <trkpt lat="48.38354" lon="-4.61086">
        <ele>81.800003051758</ele>
        <time>2022-03-27T10:12:15.000Z</time>
      </trkpt>
      <trkpt lat="48.38335" lon="-4.611">
        <ele>81.599998474121</ele>
        <time>2022-03-27T10:12:18.000Z</time>
      </trkpt>
      <trkpt lat="48.3833" lon="-4.61106">
        <ele>81.400001525879</ele>
        <time>2022-03-27T10:12:19.000Z</time>
      </trkpt>
      <trkpt lat="48.38327" lon="-4.61114">
        <ele>81.599998474121</ele>
        <time>2022-03-27T10:12:20.000Z</time>
      </trkpt>
      <trkpt lat="48.38325" lon="-4.61132">
        <ele>81.599998474121</ele>
        <time>2022-03-27T10:12:22.000Z</time>
      </trkpt>
      <trkpt lat="48.38328" lon="-4.61155">
        <ele>81.599998474121</ele>
        <time>2022-03-27T10:12:25.000Z</time>
      </trkpt>
      <trkpt lat="48.38329" lon="-4.61169">
        <ele>81.400001525879</ele>
        <time>2022-03-27T10:12:27.000Z</time>
      </trkpt>
      <trkpt lat="48.38329" lon="-4.61198">
        <ele>81.199996948242</ele>
        <time>2022-03-27T10:12:31.000Z</time>
      </trkpt>
      <trkpt lat="48.38326" lon="-4.61205">
        <ele>80.800003051758</ele>
        <time>2022-03-27T10:12:32.000Z</time>
      </trkpt>
      <trkpt lat="48.38321" lon="-4.61211">
        <ele>80.599998474121</ele>
        <time>2022-03-27T10:12:33.000Z</time>
      </trkpt>
      <trkpt lat="48.3831" lon="-4.61219">
        <ele>80</ele>
        <time>2022-03-27T10:12:35.000Z</time>
      </trkpt>
      <trkpt lat="48.38276" lon="-4.61231">
        <ele>78.199996948242</ele>
        <time>2022-03-27T10:12:40.000Z</time>
      </trkpt>
      <trkpt lat="48.38261" lon="-4.61229">
        <ele>77.599998474121</ele>
        <time>2022-03-27T10:12:42.000Z</time>
      </trkpt>
      <trkpt lat="48.38246" lon="-4.61222">
        <ele>77.599998474121</ele>
        <time>2022-03-27T10:12:44.000Z</time>
      </trkpt>
      <trkpt lat="48.38205" lon="-4.61197">
        <ele>75.199996948242</ele>
        <time>2022-03-27T10:12:50.000Z</time>
      </trkpt>
      <trkpt lat="48.38195" lon="-4.61189">
        <ele>74.599998474121</ele>
        <time>2022-03-27T10:12:53.000Z</time>
      </trkpt>
      <trkpt lat="48.38187" lon="-4.61183">
        <ele>74</ele>
        <time>2022-03-27T10:12:55.000Z</time>
      </trkpt>
      <trkpt lat="48.38181" lon="-4.61183">
        <ele>73.599998474121</ele>
        <time>2022-03-27T10:12:56.000Z</time>
      </trkpt>
      <trkpt lat="48.38175" lon="-4.61185">
        <ele>73.400001525879</ele>
        <time>2022-03-27T10:12:57.000Z</time>
      </trkpt>
      <trkpt lat="48.38163" lon="-4.61183">
        <ele>72.800003051758</ele>
        <time>2022-03-27T10:12:59.000Z</time>
      </trkpt>
      <trkpt lat="48.38151" lon="-4.61177">
        <ele>72.400001525879</ele>
        <time>2022-03-27T10:13:01.000Z</time>
      </trkpt>
      <trkpt lat="48.38145" lon="-4.61175">
        <ele>72</ele>
        <time>2022-03-27T10:13:02.000Z</time>
      </trkpt>
      <trkpt lat="48.38138" lon="-4.61173">
        <ele>71.800003051758</ele>
        <time>2022-03-27T10:13:03.000Z</time>
      </trkpt>
      <trkpt lat="48.38127" lon="-4.61162">
        <ele>71</ele>
        <time>2022-03-27T10:13:05.000Z</time>
      </trkpt>
      <trkpt lat="48.38121" lon="-4.61157">
        <ele>70.800003051758</ele>
        <time>2022-03-27T10:13:06.000Z</time>
      </trkpt>
      <trkpt lat="48.38108" lon="-4.61151">
        <ele>70.199996948242</ele>
        <time>2022-03-27T10:13:08.000Z</time>
      </trkpt>
      <trkpt lat="48.38096" lon="-4.61142">
        <ele>69.400001525879</ele>
        <time>2022-03-27T10:13:10.000Z</time>
      </trkpt>
      <trkpt lat="48.38088" lon="-4.61124">
        <ele>68.599998474121</ele>
        <time>2022-03-27T10:13:12.000Z</time>
      </trkpt>
      <trkpt lat="48.38081" lon="-4.61105">
        <ele>67.800003051758</ele>
        <time>2022-03-27T10:13:14.000Z</time>
      </trkpt>
      <trkpt lat="48.38071" lon="-4.61078">
        <ele>66.800003051758</ele>
        <time>2022-03-27T10:13:17.000Z</time>
      </trkpt>
      <trkpt lat="48.38067" lon="-4.61073">
        <ele>66.599998474121</ele>
        <time>2022-03-27T10:13:18.000Z</time>
      </trkpt>
      <trkpt lat="48.38063" lon="-4.61068">
        <ele>66.400001525879</ele>
        <time>2022-03-27T10:13:19.000Z</time>
      </trkpt>
      <trkpt lat="48.38057" lon="-4.61057">
        <ele>66</ele>
        <time>2022-03-27T10:13:21.000Z</time>
      </trkpt>
      <trkpt lat="48.38052" lon="-4.61044">
        <ele>65.800003051758</ele>
        <time>2022-03-27T10:13:23.000Z</time>
      </trkpt>
      <trkpt lat="48.38044" lon="-4.61035">
        <ele>65.400001525879</ele>
        <time>2022-03-27T10:13:25.000Z</time>
      </trkpt>
      <trkpt lat="48.38033" lon="-4.61032">
        <ele>64.800003051758</ele>
        <time>2022-03-27T10:13:27.000Z</time>
      </trkpt>
      <trkpt lat="48.38028" lon="-4.61034">
        <ele>64.599998474121</ele>
        <time>2022-03-27T10:13:28.000Z</time>
      </trkpt>
      <trkpt lat="48.38012" lon="-4.61039">
        <ele>64</ele>
        <time>2022-03-27T10:13:32.000Z</time>
      </trkpt>
      <trkpt lat="48.37992" lon="-4.61029">
        <ele>63.200000762939</ele>
        <time>2022-03-27T10:13:37.000Z</time>
      </trkpt>
      <trkpt lat="48.37965" lon="-4.61018">
        <ele>62.200000762939</ele>
        <time>2022-03-27T10:13:42.000Z</time>
      </trkpt>
      <trkpt lat="48.37937" lon="-4.61017">
        <ele>61.400001525879</ele>
        <time>2022-03-27T10:13:47.000Z</time>
      </trkpt>
      <trkpt lat="48.37925" lon="-4.61022">
        <ele>61.200000762939</ele>
        <time>2022-03-27T10:13:49.000Z</time>
      </trkpt>
      <trkpt lat="48.37914" lon="-4.61024">
        <ele>61.200000762939</ele>
        <time>2022-03-27T10:13:51.000Z</time>
      </trkpt>
      <trkpt lat="48.37897" lon="-4.61029">
        <ele>61</ele>
        <time>2022-03-27T10:13:54.000Z</time>
      </trkpt>
      <trkpt lat="48.37892" lon="-4.61033">
        <ele>61</ele>
        <time>2022-03-27T10:13:55.000Z</time>
      </trkpt>
      <trkpt lat="48.37875" lon="-4.61046">
        <ele>61</ele>
        <time>2022-03-27T10:13:58.000Z</time>
      </trkpt>
      <trkpt lat="48.3787" lon="-4.6105">
        <ele>61</ele>
        <time>2022-03-27T10:13:59.000Z</time>
      </trkpt>
      <trkpt lat="48.37837" lon="-4.6108">
        <ele>60.599998474121</ele>
        <time>2022-03-27T10:14:05.000Z</time>
      </trkpt>
      <trkpt lat="48.37817" lon="-4.6108">
        <ele>59.799999237061</ele>
        <time>2022-03-27T10:14:08.000Z</time>
      </trkpt>
      <trkpt lat="48.37811" lon="-4.61079">
        <ele>59.599998474121</ele>
        <time>2022-03-27T10:14:09.000Z</time>
      </trkpt>
      <trkpt lat="48.37799" lon="-4.61072">
        <ele>59.400001525879</ele>
        <time>2022-03-27T10:14:11.000Z</time>
      </trkpt>
      <trkpt lat="48.37776" lon="-4.61045">
        <ele>59.200000762939</ele>
        <time>2022-03-27T10:14:16.000Z</time>
      </trkpt>
      <trkpt lat="48.37772" lon="-4.61039">
        <ele>59.200000762939</ele>
        <time>2022-03-27T10:14:17.000Z</time>
      </trkpt>
      <trkpt lat="48.37766" lon="-4.61027">
        <ele>59</ele>
        <time>2022-03-27T10:14:19.000Z</time>
      </trkpt>
      <trkpt lat="48.37765" lon="-4.61021">
        <ele>59</ele>
        <time>2022-03-27T10:14:20.000Z</time>
      </trkpt>
      <trkpt lat="48.37763" lon="-4.61015">
        <ele>59</ele>
        <time>2022-03-27T10:14:21.000Z</time>
      </trkpt>
      <trkpt lat="48.37757" lon="-4.60997">
        <ele>58.799999237061</ele>
        <time>2022-03-27T10:14:24.000Z</time>
      </trkpt>
      <trkpt lat="48.37753" lon="-4.60984">
        <ele>58.799999237061</ele>
        <time>2022-03-27T10:14:26.000Z</time>
      </trkpt>
      <trkpt lat="48.3775" lon="-4.60968">
        <ele>58.599998474121</ele>
        <time>2022-03-27T10:14:29.000Z</time>
      </trkpt>
      <trkpt lat="48.37748" lon="-4.60939">
        <ele>59</ele>
        <time>2022-03-27T10:14:34.000Z</time>
      </trkpt>
      <trkpt lat="48.37748" lon="-4.60908">
        <ele>59</ele>
        <time>2022-03-27T10:14:39.000Z</time>
      </trkpt>
      <trkpt lat="48.37749" lon="-4.60882">
        <ele>59</ele>
        <time>2022-03-27T10:14:43.000Z</time>
      </trkpt>
      <trkpt lat="48.37749" lon="-4.60873">
        <ele>59.200000762939</ele>
        <time>2022-03-27T10:14:44.000Z</time>
      </trkpt>
      <trkpt lat="48.37748" lon="-4.60865">
        <ele>59.200000762939</ele>
        <time>2022-03-27T10:14:45.000Z</time>
      </trkpt>
      <trkpt lat="48.37745" lon="-4.60843">
        <ele>59.799999237061</ele>
        <time>2022-03-27T10:14:48.000Z</time>
      </trkpt>
      <trkpt lat="48.37744" lon="-4.60827">
        <ele>60.200000762939</ele>
        <time>2022-03-27T10:14:50.000Z</time>
      </trkpt>
      <trkpt lat="48.37739" lon="-4.60816">
        <ele>60.599998474121</ele>
        <time>2022-03-27T10:14:52.000Z</time>
      </trkpt>
      <trkpt lat="48.37731" lon="-4.60809">
        <ele>60.799999237061</ele>
        <time>2022-03-27T10:14:54.000Z</time>
      </trkpt>
      <trkpt lat="48.37721" lon="-4.60803">
        <ele>60.799999237061</ele>
        <time>2022-03-27T10:14:56.000Z</time>
      </trkpt>
      <trkpt lat="48.37716" lon="-4.60801">
        <ele>60.799999237061</ele>
        <time>2022-03-27T10:14:57.000Z</time>
      </trkpt>
      <trkpt lat="48.37712" lon="-4.60798">
        <ele>60.799999237061</ele>
        <time>2022-03-27T10:14:58.000Z</time>
      </trkpt>
      <trkpt lat="48.37697" lon="-4.60782">
        <ele>61</ele>
        <time>2022-03-27T10:15:02.000Z</time>
      </trkpt>
      <trkpt lat="48.37691" lon="-4.60773">
        <ele>61</ele>
        <time>2022-03-27T10:15:04.000Z</time>
      </trkpt>
      <trkpt lat="48.37683" lon="-4.60758">
        <ele>61.200000762939</ele>
        <time>2022-03-27T10:15:07.000Z</time>
      </trkpt>
      <trkpt lat="48.37669" lon="-4.60736">
        <ele>61.599998474121</ele>
        <time>2022-03-27T10:15:13.000Z</time>
      </trkpt>
      <trkpt lat="48.37652" lon="-4.60709">
        <ele>62</ele>
        <time>2022-03-27T10:15:19.000Z</time>
      </trkpt>
      <trkpt lat="48.37634" lon="-4.60679">
        <ele>62.200000762939</ele>
        <time>2022-03-27T10:15:26.000Z</time>
      </trkpt>
      <trkpt lat="48.3762" lon="-4.60658">
        <ele>62.799999237061</ele>
        <time>2022-03-27T10:15:32.000Z</time>
      </trkpt>
      <trkpt lat="48.37611" lon="-4.60636">
        <ele>63.400001525879</ele>
        <time>2022-03-27T10:15:37.000Z</time>
      </trkpt>
      <trkpt lat="48.37604" lon="-4.60609">
        <ele>64</ele>
        <time>2022-03-27T10:15:42.000Z</time>
      </trkpt>
      <trkpt lat="48.37596" lon="-4.6058">
        <ele>64.800003051758</ele>
        <time>2022-03-27T10:15:47.000Z</time>
      </trkpt>
      <trkpt lat="48.37582" lon="-4.60518">
        <ele>66</ele>
        <time>2022-03-27T10:15:57.000Z</time>
      </trkpt>
      <trkpt lat="48.37579" lon="-4.60499">
        <ele>66.199996948242</ele>
        <time>2022-03-27T10:16:00.000Z</time>
      </trkpt>
      <trkpt lat="48.37576" lon="-4.60487">
        <ele>66.400001525879</ele>
        <time>2022-03-27T10:16:02.000Z</time>
      </trkpt>
      <trkpt lat="48.37575" lon="-4.60482">
        <ele>66.400001525879</ele>
        <time>2022-03-27T10:16:03.000Z</time>
      </trkpt>
      <trkpt lat="48.37563" lon="-4.60442">
        <ele>67.199996948242</ele>
        <time>2022-03-27T10:16:10.000Z</time>
      </trkpt>
      <trkpt lat="48.37562" lon="-4.60437">
        <ele>67.400001525879</ele>
        <time>2022-03-27T10:16:11.000Z</time>
      </trkpt>
      <trkpt lat="48.37552" lon="-4.60417">
        <ele>67.800003051758</ele>
        <time>2022-03-27T10:16:15.000Z</time>
      </trkpt>
      <trkpt lat="48.37537" lon="-4.60387">
        <ele>68.599998474121</ele>
        <time>2022-03-27T10:16:21.000Z</time>
      </trkpt>
      <trkpt lat="48.37521" lon="-4.60356">
        <ele>69.199996948242</ele>
        <time>2022-03-27T10:16:27.000Z</time>
      </trkpt>
      <trkpt lat="48.37519" lon="-4.60326">
        <ele>69.599998474121</ele>
        <time>2022-03-27T10:16:32.000Z</time>
      </trkpt>
      <trkpt lat="48.37518" lon="-4.60303">
        <ele>69.800003051758</ele>
        <time>2022-03-27T10:16:36.000Z</time>
      </trkpt>
      <trkpt lat="48.37516" lon="-4.60299">
        <ele>69.800003051758</ele>
        <time>2022-03-27T10:16:37.000Z</time>
      </trkpt>
      <trkpt lat="48.37512" lon="-4.60296">
        <ele>70</ele>
        <time>2022-03-27T10:16:38.000Z</time>
      </trkpt>
      <trkpt lat="48.37496" lon="-4.60284">
        <ele>70.400001525879</ele>
        <time>2022-03-27T10:16:42.000Z</time>
      </trkpt>
      <trkpt lat="48.37467" lon="-4.60258">
        <ele>72.199996948242</ele>
        <time>2022-03-27T10:16:50.000Z</time>
      </trkpt>
      <trkpt lat="48.37452" lon="-4.6024">
        <ele>72.800003051758</ele>
        <time>2022-03-27T10:16:55.000Z</time>
      </trkpt>
      <trkpt lat="48.37439" lon="-4.6022">
        <ele>73.400001525879</ele>
        <time>2022-03-27T10:17:00.000Z</time>
      </trkpt>
      <trkpt lat="48.37424" lon="-4.60201">
        <ele>74.199996948242</ele>
        <time>2022-03-27T10:17:05.000Z</time>
      </trkpt>
      <trkpt lat="48.37409" lon="-4.60181">
        <ele>75.199996948242</ele>
        <time>2022-03-27T10:17:11.000Z</time>
      </trkpt>
      <trkpt lat="48.37393" lon="-4.60156">
        <ele>76.400001525879</ele>
        <time>2022-03-27T10:17:17.000Z</time>
      </trkpt>
      <trkpt lat="48.37378" lon="-4.60131">
        <ele>77.199996948242</ele>
        <time>2022-03-27T10:17:23.000Z</time>
      </trkpt>
      <trkpt lat="48.37358" lon="-4.60098">
        <ele>78.199996948242</ele>
        <time>2022-03-27T10:17:31.000Z</time>
      </trkpt>
      <trkpt lat="48.37341" lon="-4.60072">
        <ele>78.599998474121</ele>
        <time>2022-03-27T10:17:38.000Z</time>
      </trkpt>
      <trkpt lat="48.37323" lon="-4.60045">
        <ele>79.400001525879</ele>
        <time>2022-03-27T10:17:45.000Z</time>
      </trkpt>
      <trkpt lat="48.37304" lon="-4.60018">
        <ele>80.599998474121</ele>
        <time>2022-03-27T10:17:52.000Z</time>
      </trkpt>
      <trkpt lat="48.37291" lon="-4.6">
        <ele>81.599998474121</ele>
        <time>2022-03-27T10:17:58.000Z</time>
      </trkpt>
      <trkpt lat="48.37275" lon="-4.5998">
        <ele>82.199996948242</ele>
        <time>2022-03-27T10:18:05.000Z</time>
      </trkpt>
      <trkpt lat="48.37257" lon="-4.59951">
        <ele>83.199996948242</ele>
        <time>2022-03-27T10:18:13.000Z</time>
      </trkpt>
      <trkpt lat="48.3724" lon="-4.59924">
        <ele>84</ele>
        <time>2022-03-27T10:18:21.000Z</time>
      </trkpt>
      <trkpt lat="48.37227" lon="-4.59903">
        <ele>84.599998474121</ele>
        <time>2022-03-27T10:18:27.000Z</time>
      </trkpt>
      <trkpt lat="48.37211" lon="-4.59873">
        <ele>85</ele>
        <time>2022-03-27T10:18:35.000Z</time>
      </trkpt>
      <trkpt lat="48.3719" lon="-4.5983">
        <ele>86.400001525879</ele>
        <time>2022-03-27T10:18:45.000Z</time>
      </trkpt>
      <trkpt lat="48.37173" lon="-4.59795">
        <ele>87.800003051758</ele>
        <time>2022-03-27T10:18:53.000Z</time>
      </trkpt>
      <trkpt lat="48.37154" lon="-4.59759">
        <ele>87.599998474121</ele>
        <time>2022-03-27T10:19:01.000Z</time>
      </trkpt>
      <trkpt lat="48.37126" lon="-4.59728">
        <ele>88</ele>
        <time>2022-03-27T10:19:08.000Z</time>
      </trkpt>
      <trkpt lat="48.37095" lon="-4.59696">
        <ele>89</ele>
        <time>2022-03-27T10:19:15.000Z</time>
      </trkpt>
      <trkpt lat="48.37048" lon="-4.59655">
        <ele>88.800003051758</ele>
        <time>2022-03-27T10:19:25.000Z</time>
      </trkpt>
      <trkpt lat="48.37" lon="-4.59616">
        <ele>87.800003051758</ele>
        <time>2022-03-27T10:19:35.000Z</time>
      </trkpt>
      <trkpt lat="48.36951" lon="-4.59581">
        <ele>87.800003051758</ele>
        <time>2022-03-27T10:19:45.000Z</time>
      </trkpt>
      <trkpt lat="48.36914" lon="-4.59562">
        <ele>88.599998474121</ele>
        <time>2022-03-27T10:19:52.000Z</time>
      </trkpt>
      <trkpt lat="48.3686" lon="-4.59538">
        <ele>89.800003051758</ele>
        <time>2022-03-27T10:20:01.000Z</time>
      </trkpt>
      <trkpt lat="48.36854" lon="-4.59535">
        <ele>90</ele>
        <time>2022-03-27T10:20:02.000Z</time>
      </trkpt>
      <trkpt lat="48.36815" lon="-4.59507">
        <ele>90.400001525879</ele>
        <time>2022-03-27T10:20:09.000Z</time>
      </trkpt>
      <trkpt lat="48.36783" lon="-4.59469">
        <ele>91.400001525879</ele>
        <time>2022-03-27T10:20:16.000Z</time>
      </trkpt>
      <trkpt lat="48.36772" lon="-4.5945">
        <ele>92</ele>
        <time>2022-03-27T10:20:19.000Z</time>
      </trkpt>
      <trkpt lat="48.36763" lon="-4.59429">
        <ele>91.800003051758</ele>
        <time>2022-03-27T10:20:22.000Z</time>
      </trkpt>
      <trkpt lat="48.3675" lon="-4.59385">
        <ele>91</ele>
        <time>2022-03-27T10:20:28.000Z</time>
      </trkpt>
      <trkpt lat="48.36737" lon="-4.59344">
        <ele>91.400001525879</ele>
        <time>2022-03-27T10:20:34.000Z</time>
      </trkpt>
      <trkpt lat="48.36721" lon="-4.59287">
        <ele>91.599998474121</ele>
        <time>2022-03-27T10:20:42.000Z</time>
      </trkpt>
      <trkpt lat="48.36698" lon="-4.59217">
        <ele>92.400001525879</ele>
        <time>2022-03-27T10:20:52.000Z</time>
      </trkpt>
      <trkpt lat="48.36683" lon="-4.59175">
        <ele>93</ele>
        <time>2022-03-27T10:20:59.000Z</time>
      </trkpt>
      <trkpt lat="48.36675" lon="-4.59157">
        <ele>93</ele>
        <time>2022-03-27T10:21:03.000Z</time>
      </trkpt>
      <trkpt lat="48.36673" lon="-4.5915">
        <ele>93</ele>
        <time>2022-03-27T10:21:04.000Z</time>
      </trkpt>
      <trkpt lat="48.3667" lon="-4.59135">
        <ele>92.800003051758</ele>
        <time>2022-03-27T10:21:06.000Z</time>
      </trkpt>
      <trkpt lat="48.36665" lon="-4.59114">
        <ele>92.800003051758</ele>
        <time>2022-03-27T10:21:09.000Z</time>
      </trkpt>
      <trkpt lat="48.36659" lon="-4.59099">
        <ele>92.599998474121</ele>
        <time>2022-03-27T10:21:12.000Z</time>
      </trkpt>
      <trkpt lat="48.36657" lon="-4.59098">
        <ele>92.400001525879</ele>
        <time>2022-03-27T10:21:13.000Z</time>
      </trkpt>
      <trkpt lat="48.36656" lon="-4.59097">
        <ele>92.400001525879</ele>
        <time>2022-03-27T10:21:15.000Z</time>
      </trkpt>
      <trkpt lat="48.36656" lon="-4.59096">
        <ele>92.400001525879</ele>
        <time>2022-03-27T10:24:25.000Z</time>
      </trkpt>
      <trkpt lat="48.36655" lon="-4.59095">
        <ele>92.400001525879</ele>
        <time>2022-03-27T10:24:26.000Z</time>
      </trkpt>
      <trkpt lat="48.36656" lon="-4.59083">
        <ele>92.199996948242</ele>
        <time>2022-03-27T10:24:29.000Z</time>
      </trkpt>
      <trkpt lat="48.36649" lon="-4.59055">
        <ele>92.199996948242</ele>
        <time>2022-03-27T10:24:34.000Z</time>
      </trkpt>
      <trkpt lat="48.36637" lon="-4.59014">
        <ele>92.199996948242</ele>
        <time>2022-03-27T10:24:40.000Z</time>
      </trkpt>
      <trkpt lat="48.36622" lon="-4.5898">
        <ele>92.400001525879</ele>
        <time>2022-03-27T10:24:45.000Z</time>
      </trkpt>
      <trkpt lat="48.36614" lon="-4.58968">
        <ele>92.599998474121</ele>
        <time>2022-03-27T10:24:47.000Z</time>
      </trkpt>
      <trkpt lat="48.3658" lon="-4.5892">
        <ele>92.199996948242</ele>
        <time>2022-03-27T10:24:55.000Z</time>
      </trkpt>
      <trkpt lat="48.36543" lon="-4.58865">
        <ele>91.199996948242</ele>
        <time>2022-03-27T10:25:04.000Z</time>
      </trkpt>
      <trkpt lat="48.36509" lon="-4.58817">
        <ele>91</ele>
        <time>2022-03-27T10:25:12.000Z</time>
      </trkpt>
      <trkpt lat="48.3648" lon="-4.58781">
        <ele>90.599998474121</ele>
        <time>2022-03-27T10:25:19.000Z</time>
      </trkpt>
      <trkpt lat="48.36477" lon="-4.58775">
        <ele>90.400001525879</ele>
        <time>2022-03-27T10:25:20.000Z</time>
      </trkpt>
      <trkpt lat="48.36475" lon="-4.5876">
        <ele>90.199996948242</ele>
        <time>2022-03-27T10:25:22.000Z</time>
      </trkpt>
      <trkpt lat="48.36477" lon="-4.58745">
        <ele>90</ele>
        <time>2022-03-27T10:25:24.000Z</time>
      </trkpt>
      <trkpt lat="48.3648" lon="-4.58739">
        <ele>90</ele>
        <time>2022-03-27T10:25:25.000Z</time>
      </trkpt>
      <trkpt lat="48.36483" lon="-4.58733">
        <ele>90</ele>
        <time>2022-03-27T10:25:26.000Z</time>
      </trkpt>
      <trkpt lat="48.36486" lon="-4.58714">
        <ele>90.199996948242</ele>
        <time>2022-03-27T10:25:29.000Z</time>
      </trkpt>
      <trkpt lat="48.36481" lon="-4.58709">
        <ele>90.400001525879</ele>
        <time>2022-03-27T10:25:31.000Z</time>
      </trkpt>
      <trkpt lat="48.36478" lon="-4.58712">
        <ele>90.400001525879</ele>
        <time>2022-03-27T10:25:32.000Z</time>
      </trkpt>
      <trkpt lat="48.36477" lon="-4.58716">
        <ele>90.199996948242</ele>
        <time>2022-03-27T10:25:33.000Z</time>
      </trkpt>
      <trkpt lat="48.36472" lon="-4.58745">
        <ele>90</ele>
        <time>2022-03-27T10:25:39.000Z</time>
      </trkpt>
      <trkpt lat="48.3647" lon="-4.58753">
        <ele>90</ele>
        <time>2022-03-27T10:25:41.000Z</time>
      </trkpt>
      <trkpt lat="48.36466" lon="-4.58753">
        <ele>90</ele>
        <time>2022-03-27T10:25:43.000Z</time>
      </trkpt>
      <trkpt lat="48.36456" lon="-4.58748">
        <ele>90.199996948242</ele>
        <time>2022-03-27T10:25:47.000Z</time>
      </trkpt>
      <trkpt lat="48.36441" lon="-4.58743">
        <ele>90.400001525879</ele>
        <time>2022-03-27T10:25:52.000Z</time>
      </trkpt>
      <trkpt lat="48.36441" lon="-4.58743">
        <ele>90.400001525879</ele>
        <time>2022-03-27T10:25:54.000Z</time>
      </trkpt>
      <trkpt lat="48.36439" lon="-4.58742">
        <ele>90.400001525879</ele>
        <time>2022-03-27T10:28:22.000Z</time>
      </trkpt>
      <trkpt lat="48.36437" lon="-4.5874">
        <ele>90.400001525879</ele>
        <time>2022-03-27T10:28:23.000Z</time>
      </trkpt>
      <trkpt lat="48.36425" lon="-4.58729">
        <ele>90.599998474121</ele>
        <time>2022-03-27T10:28:27.000Z</time>
      </trkpt>
      <trkpt lat="48.36421" lon="-4.58717">
        <ele>90.800003051758</ele>
        <time>2022-03-27T10:28:29.000Z</time>
      </trkpt>
      <trkpt lat="48.36419" lon="-4.58711">
        <ele>90.800003051758</ele>
        <time>2022-03-27T10:28:30.000Z</time>
      </trkpt>
      <trkpt lat="48.36415" lon="-4.58698">
        <ele>91</ele>
        <time>2022-03-27T10:28:32.000Z</time>
      </trkpt>
      <trkpt lat="48.36408" lon="-4.58691">
        <ele>90.800003051758</ele>
        <time>2022-03-27T10:28:34.000Z</time>
      </trkpt>
      <trkpt lat="48.36394" lon="-4.58676">
        <ele>90.599998474121</ele>
        <time>2022-03-27T10:28:38.000Z</time>
      </trkpt>
      <trkpt lat="48.36379" lon="-4.58644">
        <ele>90.400001525879</ele>
        <time>2022-03-27T10:28:44.000Z</time>
      </trkpt>
      <trkpt lat="48.36352" lon="-4.58595">
        <ele>89.800003051758</ele>
        <time>2022-03-27T10:28:52.000Z</time>
      </trkpt>
      <trkpt lat="48.36321" lon="-4.58539">
        <ele>90</ele>
        <time>2022-03-27T10:29:01.000Z</time>
      </trkpt>
      <trkpt lat="48.36307" lon="-4.58514">
        <ele>89.400001525879</ele>
        <time>2022-03-27T10:29:05.000Z</time>
      </trkpt>
      <trkpt lat="48.363" lon="-4.58492">
        <ele>88.800003051758</ele>
        <time>2022-03-27T10:29:08.000Z</time>
      </trkpt>
      <trkpt lat="48.36287" lon="-4.58463">
        <ele>87.800003051758</ele>
        <time>2022-03-27T10:29:12.000Z</time>
      </trkpt>
      <trkpt lat="48.36282" lon="-4.58458">
        <ele>87.400001525879</ele>
        <time>2022-03-27T10:29:13.000Z</time>
      </trkpt>
      <trkpt lat="48.36276" lon="-4.58454">
        <ele>87.199996948242</ele>
        <time>2022-03-27T10:29:14.000Z</time>
      </trkpt>
      <trkpt lat="48.3626" lon="-4.58443">
        <ele>87</ele>
        <time>2022-03-27T10:29:17.000Z</time>
      </trkpt>
      <trkpt lat="48.36212" lon="-4.58403">
        <ele>87</ele>
        <time>2022-03-27T10:29:26.000Z</time>
      </trkpt>
      <trkpt lat="48.36173" lon="-4.5837">
        <ele>87</ele>
        <time>2022-03-27T10:29:33.000Z</time>
      </trkpt>
      <trkpt lat="48.36129" lon="-4.58326">
        <ele>86</ele>
        <time>2022-03-27T10:29:41.000Z</time>
      </trkpt>
      <trkpt lat="48.36088" lon="-4.58292">
        <ele>83</ele>
        <time>2022-03-27T10:29:48.000Z</time>
      </trkpt>
      <trkpt lat="48.3604" lon="-4.58254">
        <ele>81.199996948242</ele>
        <time>2022-03-27T10:29:56.000Z</time>
      </trkpt>
      <trkpt lat="48.36034" lon="-4.5825">
        <ele>80.800003051758</ele>
        <time>2022-03-27T10:29:57.000Z</time>
      </trkpt>
      <trkpt lat="48.35994" lon="-4.58222">
        <ele>78</ele>
        <time>2022-03-27T10:30:03.000Z</time>
      </trkpt>
      <trkpt lat="48.35962" lon="-4.58199">
        <ele>75.800003051758</ele>
        <time>2022-03-27T10:30:08.000Z</time>
      </trkpt>
      <trkpt lat="48.35961" lon="-4.58182">
        <ele>75.400001525879</ele>
        <time>2022-03-27T10:30:10.000Z</time>
      </trkpt>
      <trkpt lat="48.35964" lon="-4.58175">
        <ele>75.400001525879</ele>
        <time>2022-03-27T10:30:11.000Z</time>
      </trkpt>
      <trkpt lat="48.35974" lon="-4.58153">
        <ele>75.400001525879</ele>
        <time>2022-03-27T10:30:14.000Z</time>
      </trkpt>
      <trkpt lat="48.35996" lon="-4.58097">
        <ele>75.599998474121</ele>
        <time>2022-03-27T10:30:22.000Z</time>
      </trkpt>
      <trkpt lat="48.36003" lon="-4.58087">
        <ele>76</ele>
        <time>2022-03-27T10:30:24.000Z</time>
      </trkpt>
      <trkpt lat="48.36007" lon="-4.58087">
        <ele>76.199996948242</ele>
        <time>2022-03-27T10:30:25.000Z</time>
      </trkpt>
      <trkpt lat="48.3601" lon="-4.58089">
        <ele>76.400001525879</ele>
        <time>2022-03-27T10:30:26.000Z</time>
      </trkpt>
      <trkpt lat="48.36016" lon="-4.58097">
        <ele>76.800003051758</ele>
        <time>2022-03-27T10:30:28.000Z</time>
      </trkpt>
      <trkpt lat="48.36026" lon="-4.58107">
        <ele>77.199996948242</ele>
        <time>2022-03-27T10:30:31.000Z</time>
      </trkpt>
      <trkpt lat="48.36029" lon="-4.58108">
        <ele>77.400001525879</ele>
        <time>2022-03-27T10:30:32.000Z</time>
      </trkpt>
      <trkpt lat="48.36044" lon="-4.58104">
        <ele>78.199996948242</ele>
        <time>2022-03-27T10:30:37.000Z</time>
      </trkpt>
      <trkpt lat="48.36045" lon="-4.58104">
        <ele>78.199996948242</ele>
        <time>2022-03-27T10:30:39.000Z</time>
      </trkpt>
      <trkpt lat="48.36043" lon="-4.58098">
        <ele>77.800003051758</ele>
        <time>2022-03-27T10:34:41.000Z</time>
      </trkpt>
      <trkpt lat="48.36042" lon="-4.581">
        <ele>78</ele>
        <time>2022-03-27T10:34:42.000Z</time>
      </trkpt>
      <trkpt lat="48.36039" lon="-4.58105">
        <ele>77.800003051758</ele>
        <time>2022-03-27T10:34:45.000Z</time>
      </trkpt>
      <trkpt lat="48.36036" lon="-4.58106">
        <ele>77.800003051758</ele>
        <time>2022-03-27T10:34:46.000Z</time>
      </trkpt>
      <trkpt lat="48.36024" lon="-4.58105">
        <ele>77.199996948242</ele>
        <time>2022-03-27T10:34:49.000Z</time>
      </trkpt>
      <trkpt lat="48.3602" lon="-4.58102">
        <ele>77</ele>
        <time>2022-03-27T10:34:50.000Z</time>
      </trkpt>
      <trkpt lat="48.36008" lon="-4.58088">
        <ele>76.199996948242</ele>
        <time>2022-03-27T10:34:53.000Z</time>
      </trkpt>
      <trkpt lat="48.36004" lon="-4.58087">
        <ele>76</ele>
        <time>2022-03-27T10:34:54.000Z</time>
      </trkpt>
      <trkpt lat="48.35999" lon="-4.58089">
        <ele>75.800003051758</ele>
        <time>2022-03-27T10:34:55.000Z</time>
      </trkpt>
      <trkpt lat="48.35993" lon="-4.58099">
        <ele>75.400001525879</ele>
        <time>2022-03-27T10:34:57.000Z</time>
      </trkpt>
      <trkpt lat="48.35989" lon="-4.58128">
        <ele>75.800003051758</ele>
        <time>2022-03-27T10:35:02.000Z</time>
      </trkpt>
      <trkpt lat="48.35985" lon="-4.58128">
        <ele>75.400001525879</ele>
        <time>2022-03-27T10:35:04.000Z</time>
      </trkpt>
      <trkpt lat="48.35986" lon="-4.58118">
        <ele>75.199996948242</ele>
        <time>2022-03-27T10:35:06.000Z</time>
      </trkpt>
      <trkpt lat="48.35988" lon="-4.58111">
        <ele>75.400001525879</ele>
        <time>2022-03-27T10:35:07.000Z</time>
      </trkpt>
      <trkpt lat="48.35993" lon="-4.58097">
        <ele>75.400001525879</ele>
        <time>2022-03-27T10:35:09.000Z</time>
      </trkpt>
      <trkpt lat="48.36001" lon="-4.58087">
        <ele>75.800003051758</ele>
        <time>2022-03-27T10:35:11.000Z</time>
      </trkpt>
      <trkpt lat="48.3601" lon="-4.58089">
        <ele>76.400001525879</ele>
        <time>2022-03-27T10:35:13.000Z</time>
      </trkpt>
      <trkpt lat="48.36014" lon="-4.58092">
        <ele>76.599998474121</ele>
        <time>2022-03-27T10:35:14.000Z</time>
      </trkpt>
      <trkpt lat="48.36018" lon="-4.58096">
        <ele>76.800003051758</ele>
        <time>2022-03-27T10:35:15.000Z</time>
      </trkpt>
      <trkpt lat="48.36025" lon="-4.58105">
        <ele>77.199996948242</ele>
        <time>2022-03-27T10:35:17.000Z</time>
      </trkpt>
      <trkpt lat="48.36029" lon="-4.58107">
        <ele>77.400001525879</ele>
        <time>2022-03-27T10:35:18.000Z</time>
      </trkpt>
      <trkpt lat="48.36044" lon="-4.58103">
        <ele>78</ele>
        <time>2022-03-27T10:35:22.000Z</time>
      </trkpt>
      <trkpt lat="48.3605" lon="-4.5809">
        <ele>78</ele>
        <time>2022-03-27T10:35:25.000Z</time>
      </trkpt>
      <trkpt lat="48.36047" lon="-4.58085">
        <ele>77.800003051758</ele>
        <time>2022-03-27T10:35:27.000Z</time>
      </trkpt>
      <trkpt lat="48.36045" lon="-4.58082">
        <ele>77.599998474121</ele>
        <time>2022-03-27T10:35:28.000Z</time>
      </trkpt>
      <trkpt lat="48.36043" lon="-4.58081">
        <ele>77.599998474121</ele>
        <time>2022-03-27T10:35:30.000Z</time>
      </trkpt>
    </trkseg>
  </trk>
</gpx>